# Wetter Temperatur Luftdruck Luftfeuchtigkeit Sichtweite Windgeschwindigkeit Windrichtung Zeit
1 Clouds 21 1002 23 0 1.79 85 19:55 17.10.2019
2 Clouds 20 1002 24 0 2.24 81 19:37 17.10.2019
3 Clouds 19 1002 25 0 1.79 32 19:18 17.10.2019
4 Clouds 19 1002 25 0 1.79 32 19:18 17.10.2019
5 Clouds 18 1002 27 0 1.79 31 18:42 17.10.2019
6 Clouds 20 1007 24 0 0.79 145.049 18:21 17.10.2019
7 Clouds 20 1007 24 0 0.79 145.049 18:21 17.10.2019
8 Clouds 17 1002 28 0 1.79 75 17:55 17.10.2019
9 Clouds 16 1002 29 0 1.34 45 17:37 17.10.2019
10 Clouds 15 1002 30 0 0.89 28 17:19 17.10.2019
11 Clouds 13 1002 34 0 1.34 108 16:55 17.10.2019
12 Clouds 14 1002 33 0 1.79 99 16:36 17.10.2019
13 Clouds 14 1003 33 0 0.89 130 16:18 17.10.2019
14 Clouds 14 1003 32 0 2.24 159 15:41 17.10.2019
15 Clouds 17 1007 27 0 4.407 224 15:21 17.10.2019
16 Clouds 17 1007 27 0 4.407 224 14:59 17.10.2019
17 Clouds 17 1007 27 0 4.407 224 14:41 17.10.2019
18 Clouds 17 1007 26 0 4.23 242 14:23 17.10.2019
19 Clouds 17 1007 26 0 4.23 242 13:54 17.10.2019
20 Clouds 17 1007 26 0 4.23 242 13:36 17.10.2019
21 Clouds 17 1007 26 0 4.23 242 13:18 17.10.2019
22 Clouds 17 1007 26 0 4.23 242 12:41 17.10.2019
23 Clouds 18 1008 26 0 3.222 245 12:20 17.10.2019
24 Clouds 18 1008 26 0 3.222 245 11:58 17.10.2019
25 Clouds 18 1008 26 0 3.222 245 11:40 17.10.2019
26 Clouds 18 1008 26 0 3.222 245 11:19 17.10.2019
27 Clouds 18 1008 26 0 3.222 245 10:54 17.10.2019
28 Clouds 14 1007 29 0 0.45 208 10:36 17.10.2019
29 Clouds 13 1008 30 0 0.45 90 10:18 17.10.2019
30 Clouds 13 1008 30 0 0.45 90 10:18 17.10.2019
31 Clouds 13 1008 29 0 3.222 245 09:41 17.10.2019
32 Clouds 14 1008 28 0 0.45 341 09:22 17.10.2019
33 Clouds 14 1008 27 0 1.619 212 08:58 17.10.2019
34 Clouds 13 1009 30 0 0.45 226 08:39 17.10.2019
35 Clouds 12 1009 32 0 0.45 10 08:21 17.10.2019
36 Clouds 11 1009 29 0 0.45 16 07:55 17.10.2019
37 Clouds 11 1009 29 0 0.45 16 07:55 17.10.2019
38 Clouds 12 1010 28 0 1.619 212 07:37 17.10.2019
39 Clouds 12 1010 28 0 1.619 212 07:18 17.10.2019
40 Clouds 13 1010 26 0 0.45 237 06:40 17.10.2019
41 Clouds 14 1010 23 0 0.45 219 06:21 17.10.2019
42 Clouds 17 1010 21 0 2.363 233 05:52 17.10.2019
43 Clouds 17 1010 20 0 2.363 233 05:32 17.10.2019
44 Clouds 17 1010 20 0 2.363 233 05:32 17.10.2019
45 Clouds 17 1010 20 0 2.363 233 04:53 17.10.2019
46 Clouds 18 1010 18 0 0.45 233 03:55 17.10.2019
47 Clouds 22 1011 15 0 1.79 191 02:36 17.10.2019
48 Clouds 23 1011 14 0 3.13 235 01:27 17.10.2019
49 Clouds 23 1012 15 0 2.68 222 00:38 17.10.2019
50 Clouds 24 1012 13 0 3.58 185 00:19 17.10.2019
51 Clouds 26 1012 13 0 1.79 201 23:42 16.10.2019
52 Clouds 26 1013 13 0 2.68 119 23:21 16.10.2019
53 Clouds 26 1013 11 0 0.89 185 22:56 16.10.2019
54 Clouds 27 1013 11 0 1.79 93 22:37 16.10.2019
55 Clouds 27 1013 12 0 3.13 202 22:19 16.10.2019
56 Clouds 28 1014 10 0 2.24 115 21:56 16.10.2019
57 Clouds 28 1014 8 0 2.24 82 21:37 16.10.2019
58 Clouds 25 1016 9 0 1.984 107 21:19 16.10.2019
59 Clouds 25 1016 9 0 1.984 107 20:58 16.10.2019
60 Clouds 25 1016 9 0 1.984 107 20:39 16.10.2019
61 Clouds 25 1016 9 0 1.984 107 20:20 16.10.2019
62 Clouds 25 1016 9 0 1.984 107 19:58 16.10.2019
63 Clouds 25 1016 9 0 1.984 107 19:38 16.10.2019
64 Clouds 25 1016 15 0 1.34 116 19:20 16.10.2019
65 Clouds 25 1016 15 0 1.34 116 19:20 16.10.2019
66 Clouds 23 1016 17 0 1.984 107 18:39 16.10.2019
67 Clouds 17 1016 12 0 0.365 318 18:20 16.10.2019
68 Clouds 20 1017 20 0 0.365 318 17:58 16.10.2019
69 Clouds 14 1017 29 0 0.365 318 17:39 16.10.2019
70 Clouds 11 1017 35 0 0.365 318 17:21 16.10.2019
71 Clouds 17 1016 12 0 0.365 318 17:00 16.10.2019
72 Clouds 7 1017 40 0 0.365 318 16:41 16.10.2019
73 Clouds 7 1017 37 0 0.365 318 16:21 16.10.2019
74 Clouds 7 1017 37 0 0.365 318 15:57 16.10.2019
75 Clouds 6 1017 38 0 0.365 318 15:38 16.10.2019
76 Clouds 6 1017 37 0 0.583 17 15:18 16.10.2019
77 Clouds 6 1016 36 0 0.583 17 14:56 16.10.2019
78 Clouds 6 1017 35 0 0.583 17 14:38 16.10.2019
79 Clouds 6 1017 33 0 0.655 10 14:18 16.10.2019
80 Clouds 6 1017 34 0 0.655 10 13:56 16.10.2019
81 Clouds 6 1017 34 0 0.655 10 13:56 16.10.2019
82 Clouds 6 1017 34 0 0.655 10 13:56 16.10.2019
83 Clouds 7 1016 32 0 0.655 10 13:37 16.10.2019
84 Clouds 7 1016 32 0 0.655 10 13:19 16.10.2019
85 Clouds 7 1017 28 0 0.655 10 12:41 16.10.2019
86 Clouds 7 1017 28 0 0.45 342 12:19 16.10.2019
87 Clouds 7 1017 25 0 0.703 330 11:44 16.10.2019
88 Clouds 7 1017 22 0 0.703 330 11:19 16.10.2019
89 Clouds 7 1018 21 0 0.45 342 10:41 16.10.2019
90 Clouds 7 1017 22 0 0.703 330 10:22 16.10.2019
91 Clouds 7 1017 22 0 0.703 330 10:22 16.10.2019
92 Clouds 7 1017 20 0 0.703 330 09:58 16.10.2019
93 Clouds 7 1017 20 0 0.703 330 09:58 16.10.2019
94 Clouds 8 1017 19 0 0.869 298 09:39 16.10.2019
95 Clouds 8 1017 19 0 0.869 298 09:39 16.10.2019
96 Clear 9 1017 19 0 0.896 300 09:20 16.10.2019
97 Clear 9 1018 18 0 0.45 340 08:44 16.10.2019
98 Clear 8 1018 18 0 0.45 248 08:26 16.10.2019
99 Clear 8 1018 18 0 0.896 300 07:56 16.10.2019
100 Clear 9 1018 17 0 0.896 300 07:38 16.10.2019
101 Clear 9 1018 17 0 0.896 300 07:20 16.10.2019
102 Clear 9 1018 16 0 0.896 300 06:40 16.10.2019
103 Clear 10 1017 16 0 0.185 9 06:19 16.10.2019
104 Clear 15 1017 11 0 0.185 9 03:46 16.10.2019
105 Clear 24 1016 5 0 1.34 33 02:50 16.10.2019
106 Clear 25 1015 6 0 2.09 126 01:20 16.10.2019
107 Clear 25 1015 6 0 2.09 126 00:58 16.10.2019
108 Clear 25 1015 6 0 2.09 126 00:39 16.10.2019
109 Clear 25 1016 6 0 2.351 110 23:42 15.10.2019
110 Clear 25 1016 6 0 2.351 110 23:23 15.10.2019
111 Clear 25 1016 6 0 2.351 110 22:59 15.10.2019
112 Clear 25 1016 6 0 2.351 110 22:40 15.10.2019
113 Clear 29 1017 4 0 0.89 73 22:21 15.10.2019
114 Clear 29 1018 4 0 0.45 159 21:57 15.10.2019
115 Clear 29 1018 4 0 0.89 9 21:39 15.10.2019
116 Clear 23 1019 6 0 2.198 76 21:20 15.10.2019
117 Clear 23 1019 6 0 2.198 76 20:58 15.10.2019
118 -273 0 0 0 0 0 20:40 15.10.2019
119 Clear 23 1019 6 0 2.198 76 20:22 15.10.2019
120 Clear 23 1019 6 0 2.198 76 19:59 15.10.2019
121 Clear 26 1019 5 0 0.89 74 19:41 15.10.2019
122 Clear 22 1019 7 0 0.45 20 19:20 15.10.2019
123 Clear 23 1019 6 0 2.198 76 18:57 15.10.2019
124 Clear 23 1019 6 0 2.198 76 18:57 15.10.2019
125 Clear 23 1019 6 0 2.198 76 18:39 15.10.2019
126 Clear 16 1018 11 0 1.754 14 18:20 15.10.2019
127 Clear 17 1019 11 0 1.34 293 17:42 15.10.2019
128 Clear 16 1018 11 0 1.754 14 17:21 15.10.2019
129 Clear 16 1018 11 0 1.754 14 16:59 15.10.2019
130 Clear 13 1019 14 0 1.79 338 16:41 15.10.2019
131 Clear 16 1018 11 0 1.754 14 16:21 15.10.2019
132 Clear 5 1018 22 0 1.754 14 15:56 15.10.2019
133 Clear 6 1018 21 0 1.754 14 15:37 15.10.2019
134 Clear 7 1018 20 0 1.479 1 15:19 15.10.2019
135 Clear 7 1017 19 0 1.479 1 14:55 15.10.2019
136 Clear 7 1017 19 0 1.502 4 14:36 15.10.2019
137 Clear 7 1017 18 0 0.45 333 14:18 15.10.2019
138 Clear 8 1017 19 0 1.502 4 13:43 15.10.2019
139 Clear 9 1017 18 0 0.45 316 13:20 15.10.2019
140 Clear 9 1017 18 0 1.502 4 12:56 15.10.2019
141 Clear 7 1016 21 0 0.45 338 12:37 15.10.2019
142 Clear 6 1016 21 0 1.321 330 12:18 15.10.2019
143 Clear 7 1017 19 0 0.45 115 11:42 15.10.2019
144 Clear 8 1017 16 0 1.321 330 11:20 15.10.2019
145 Clear 8 1017 16 0 1.321 330 11:20 15.10.2019
146 Clear 12 1016 18 0 1.321 330 10:55 15.10.2019
147 Clear 15 1017 18 0 0.5 251.06 10:37 15.10.2019
148 Clear 10 1016 17 0 1.79 353 10:18 15.10.2019
149 Clear 7 1016 21 0 0.5 251.06 09:40 15.10.2019
150 Clear 7 1016 21 0 0.5 251.06 09:40 15.10.2019
151 Clear 7 1016 21 0 0.88 256.059 09:21 15.10.2019
152 Clear 7 1016 20 0 0.86 243.316 08:58 15.10.2019
153 Clear 7 1016 20 0 0.86 243.316 08:58 15.10.2019
154 Clear 7 1015 20 0 0.86 243.316 08:40 15.10.2019
155 Clear 8 1015 19 0 0.86 243.316 08:20 15.10.2019
156 Clear 7 1015 21 0 0.86 243.316 07:44 15.10.2019
157 Clear 8 1015 19 0 0.86 243.316 07:23 15.10.2019
158 Clear 8 1015 18 0 0.86 243.316 06:58 15.10.2019
159 Clear 10 1015 16 0 0.86 243.316 06:39 15.10.2019
160 Clear 9 1014 17 0 1.13 220.326 05:58 15.10.2019
161 Clear 11 1014 16 0 1.13 220.326 05:37 15.10.2019
162 Clear 18 1014 11 0 1.13 220.326 04:53 15.10.2019
163 Clear 18 1014 11 0 1.13 220.326 04:19 15.10.2019
164 Clear 18 1014 11 0 1.13 220.326 03:35 15.10.2019
165 Clear 28 1012 6 0 1.17 356.485 02:19 15.10.2019
166 Clear 28 1012 6 0 1.17 356.485 01:41 15.10.2019
167 Clear 28 1011 6 0 0.88 18.394 01:18 15.10.2019
168 Clear 28 1011 6 0 0.88 18.394 00:26 15.10.2019
169 Clear 27 1012 6 0 1.86 359.907 23:59 14.10.2019
170 Clear 27 1012 6 0 1.86 359.907 23:38 14.10.2019
171 Clear 27 1012 6 0 1.86 359.907 23:19 14.10.2019
172 Clear 27 1012 6 0 1.86 359.907 22:40 14.10.2019
173 Clear 27 1012 6 0 1.86 359.907 22:21 14.10.2019
174 Clear 26 1013 6 0 1.34 10 21:59 14.10.2019
175 Clear 26 1013 6 0 1.34 58 21:40 14.10.2019
176 Clear 25 1013 7 0 1.82 8.612 21:21 14.10.2019
177 Clear 25 1013 7 0 1.82 8.612 21:21 14.10.2019
178 Clear 25 1013 7 0 1.66 11.88 20:58 14.10.2019
179 Clear 25 1013 7 0 1.66 11.88 20:38 14.10.2019
180 Clear 25 1013 7 0 1.66 11.88 20:20 14.10.2019
181 Clear 25 1013 7 0 1.66 11.88 19:58 14.10.2019
182 -273 0 0 0 0 0 19:39 14.10.2019
183 Clouds 20 1013 10 0 0.89 331 19:39 14.10.2019
184 Clouds 19 1013 10 0 0.89 289 19:21 14.10.2019
185 Clouds 19 1013 10 0 0.89 289 19:21 14.10.2019
186 Clear 19 1013 10 0 0.89 271 18:57 14.10.2019
187 Clear 18 1013 11 0 0.89 315 18:38 14.10.2019
188 Clear 18 1013 12 0 0.63 287.576 18:18 14.10.2019
189 Clear 18 1013 12 0 0.63 287.576 18:18 14.10.2019
190 Clear 15 1013 14 0 1.79 328 17:44 14.10.2019
191 Clear 14 1013 16 0 1.34 320 17:25 14.10.2019
192 Clear 12 1013 16 0 0.89 291 16:59 14.10.2019
193 Clear 12 1012 18 0 1.79 299 16:40 14.10.2019
194 Clear 12 1012 18 0 2.68 331 16:20 14.10.2019
195 Clear 11 1012 18 0 1.79 327 15:42 14.10.2019
196 Clouds 11 1012 19 0 2.24 331 15:22 14.10.2019
197 Clouds 10 1012 20 0 1.34 324 14:56 14.10.2019
198 Clouds 6 1012 26 0 1.34 345 14:38 14.10.2019
199 Clouds 6 1012 27 0 0.47 278.922 14:18 14.10.2019
200 Clouds 6 1011 26 0 0.47 278.922 13:42 14.10.2019
201 Clouds 6 1011 25 0 0.45 92 13:21 14.10.2019
202 Clouds 7 1011 24 0 0.7 298.512 12:54 14.10.2019
203 Clouds 7 1011 24 0 0.7 298.512 12:36 14.10.2019
204 Clouds 7 1011 24 0 0.45 268 12:18 14.10.2019
205 Clouds 7 1011 23 0 0.42 317.581 11:44 14.10.2019
206 Clouds 8 1011 23 0 0.42 317.581 11:24 14.10.2019
207 Clouds 8 1011 23 0 0.42 317.581 10:55 14.10.2019
208 Clouds 7 1011 25 0 0.45 4 10:37 14.10.2019
209 Clouds 7 1011 24 0 0.42 317.581 10:18 14.10.2019
210 Clouds 7 1011 24 0 0.42 317.581 10:18 14.10.2019
211 Clouds 8 1011 23 0 0.42 317.581 09:41 14.10.2019
212 Clouds 8 1011 23 0 0.42 317.581 09:41 14.10.2019
213 Clouds 8 1011 23 0 0.42 317.581 09:41 14.10.2019
214 Clear 8 1011 23 0 0.38 175.426 09:21 14.10.2019
215 Clear 8 1011 22 0 0.38 175.426 08:50 14.10.2019
216 Clear 9 1011 20 0 0.38 175.426 08:23 14.10.2019
217 Clear 11 1011 19 0 0.38 175.426 07:47 14.10.2019
218 Clear 15 1010 11 0 0.38 175.426 07:25 14.10.2019
219 Clear 15 1010 11 0 0.38 175.426 06:59 14.10.2019
220 Clear 15 1010 11 0 0.38 175.426 06:28 14.10.2019
221 Clear 13 1011 16 0 0.89 154 05:57 14.10.2019
222 Clear 14 1011 13 0 0.89 218 05:27 14.10.2019
223 Clear 17 1009 10 0 1.27 265.847 03:51 14.10.2019
224 Clear 17 1009 10 0 1.27 265.847 03:26 14.10.2019
225 Clear 19 1011 8 0 2.68 233 02:34 14.10.2019
226 Clouds 21 1011 8 0 3.13 192 01:22 14.10.2019
227 Clouds 27 1008 4 0 2.19 94.188 00:45 14.10.2019
228 Clouds 22 1011 8 0 2.68 210 00:19 14.10.2019
229 Clouds 22 1011 9 0 1.79 186 23:44 13.10.2019
230 Clouds 22 1011 8 0 2.68 173 23:20 13.10.2019
231 Clouds 22 1011 8 0 2.68 173 23:20 13.10.2019
232 Clouds 22 1011 8 0 3.58 107 22:58 13.10.2019
233 Clouds 22 1011 8 0 3.58 107 22:58 13.10.2019
234 Clouds 21 1011 7 0 2.24 202 22:40 13.10.2019
235 Clouds 21 1012 8 0 2.68 195 22:21 13.10.2019
236 Clouds 22 1012 8 0 2.68 247 21:58 13.10.2019
237 Clouds 21 1012 8 0 3.58 250 21:37 13.10.2019
238 Clouds 23 1012 4 0 1.6 46.142 21:18 13.10.2019
239 Clouds 23 1012 4 0 1.6 46.142 21:18 13.10.2019
240 -273 0 0 0 0 0 20:57 13.10.2019
241 Clouds 24 1011 4 0 1.53 37.888 20:38 13.10.2019
242 Clouds 24 1011 4 0 1.53 37.888 20:19 13.10.2019
243 Clouds 24 1011 4 0 1.53 37.888 19:57 13.10.2019
244 Clouds 24 1011 4 0 1.53 37.888 19:57 13.10.2019
245 Clouds 24 1011 4 0 1.53 37.888 19:57 13.10.2019
246 Clouds 20 1013 4 0 1.79 69 19:39 13.10.2019
247 Clouds 19 1013 4 0 1.34 66 19:20 13.10.2019
248 Clouds 19 1013 5 0 0.89 81 18:55 13.10.2019
249 -273 0 0 0 0 0 18:55 13.10.2019
250 -273 0 0 0 0 0 18:54 13.10.2019
251 Clouds 18 1013 5 0 0.89 77 18:36 13.10.2019
252 Clear 14 1013 8 0 0.23 138.285 18:18 13.10.2019
253 Clear 14 1013 8 0 0.23 138.285 18:18 13.10.2019
254 Clear 13 1013 8 0 0.45 156 17:43 13.10.2019
255 Clear 10 1013 11 0 0.23 138.285 17:25 13.10.2019
256 Clear 5 1013 15 0 0.23 138.285 16:56 13.10.2019
257 Clear 2 1013 18 0 0.23 138.285 16:36 13.10.2019
258 Clear 2 1013 17 0 0.23 138.285 16:18 13.10.2019
259 Clear 2 1013 16 0 0.45 28 15:55 13.10.2019
260 Clear 2 1013 16 0 0.23 138.285 15:36 13.10.2019
261 -273 0 0 0 0 0 15:18 13.10.2019
262 Clear 2 1013 17 0 0.18 271.899 14:56 13.10.2019
263 Clear 2 1013 16 0 0.18 271.899 14:37 13.10.2019
264 Clear 2 1013 16 0 0.45 76 14:18 13.10.2019
265 Clear 2 1013 15 0 0.18 271.899 13:39 13.10.2019
266 Clear 2 1013 15 0 0.24 291.623 13:21 13.10.2019
267 Clear 3 1013 14 0 0.24 291.623 12:57 13.10.2019
268 Clear 3 1013 15 0 0.24 291.623 12:39 13.10.2019
269 Clear 3 1013 14 0 0.42 286.803 12:20 13.10.2019
270 Clear 3 1013 15 0 0.42 286.803 11:58 13.10.2019
271 Clear 4 1013 13 0 0.42 286.803 11:38 13.10.2019
272 Clear 4 1013 13 0 0.42 286.803 11:38 13.10.2019
273 Clear 12 1012 16 0 0.42 286.803 11:19 13.10.2019
274 Clear 4 1013 13 0 0.42 286.803 10:43 13.10.2019
275 Clear 3 1013 15 0 0.42 286.803 10:24 13.10.2019
276 Clear 3 1014 15 0 0.45 349 09:59 13.10.2019
277 Clear 3 1013 14 0 0.42 286.803 09:39 13.10.2019
278 Clear 3 1014 14 0 0.43 219.28 09:20 13.10.2019
279 Clear 3 1014 14 0 0.43 219.28 09:20 13.10.2019
280 Clear 3 1014 13 0 0.41 289.852 08:43 13.10.2019
281 Clear 4 1014 12 0 0.41 289.852 08:25 13.10.2019
282 Clear 4 1014 12 0 0.41 289.852 08:25 13.10.2019
283 Clear 5 1014 10 0 0.41 289.852 07:51 13.10.2019
284 Clear 6 1014 10 0 0.41 289.852 07:32 13.10.2019
285 Clear 8 1014 9 0 0.45 344 06:51 13.10.2019
286 Clear 7 1014 10 0 0.45 353 06:23 13.10.2019
287 Clear 7 1014 10 0 0.45 353 06:23 13.10.2019
288 Clear 8 1014 9 0 1.04 175.737 05:19 13.10.2019
289 Clear 15 1012 7 0 1.04 175.737 04:34 13.10.2019
290 Clear 19 1013 2 0 1.34 1 02:53 13.10.2019
291 Clear 25 1010 3 0 0.87 78.767 02:27 13.10.2019
292 Clear 25 1010 3 0 0.87 78.767 01:36 13.10.2019
293 Clear 25 1010 3 0 0.87 78.767 01:36 13.10.2019
294 Clear 25 1010 3 0 1 77.403 00:55 13.10.2019
295 Clear 25 1010 3 0 1 77.403 00:37 13.10.2019
296 Clear 25 1010 3 0 1 77.403 00:37 13.10.2019
297 Clear 25 1012 3 0 1.74 38.408 00:18 13.10.2019
298 Clear 25 1012 3 0 1.74 38.408 23:41 12.10.2019
299 Clear 25 1012 3 0 1.74 38.408 23:23 12.10.2019
300 Clear 25 1012 3 0 1.74 38.408 22:58 12.10.2019
301 Clear 26 1014 1 0 1.79 50 22:40 12.10.2019
302 Clear 26 1015 1 0 1.34 40 22:22 12.10.2019
303 Clear 26 1015 1 0 0.89 9 21:58 12.10.2019
304 Clear 26 1015 1 0 0.89 9 21:58 12.10.2019
305 Clear 24 1016 1 0 0.89 58 21:39 12.10.2019
306 Clear 22 1015 4 0 1.44 8.287 21:21 12.10.2019
307 Clear 22 1014 4 0 1.45 12.722 20:54 12.10.2019
308 Clear 22 1014 4 0 1.45 12.722 20:36 12.10.2019
309 Clear 22 1014 4 0 1.45 12.722 20:18 12.10.2019
310 Clear 19 1016 3 0 0.45 87 19:36 12.10.2019
311 Clear 19 1017 3 0 0.45 92 19:18 12.10.2019
312 Clear 17 1017 4 0 0.45 225 18:43 12.10.2019
313 Clear 22 1014 4 0 1.45 12.722 18:24 12.10.2019
314 Clear 12 1016 8 0 0.45 216 17:46 12.10.2019
315 Clear 6 1016 16 0 0.78 297.776 17:22 12.10.2019
316 Clear 15 1015 7 0 0.78 297.776 16:59 12.10.2019
317 Clear 15 1015 7 0 0.78 297.776 16:59 12.10.2019
318 Clear 2 1016 18 0 0.45 356 16:40 12.10.2019
319 Clear 1 1016 17 0 0.78 297.776 16:21 12.10.2019
320 Clear 15 1015 7 0 0.78 297.776 15:56 12.10.2019
321 Clear 2 1016 14 0 0.78 297.776 15:37 12.10.2019
322 Clear 3 1016 14 0 0.79 292.904 15:18 12.10.2019
323 Clear 2 1016 14 0 0.79 292.904 14:40 12.10.2019
324 Clear 2 1016 14 0 0.79 292.904 14:20 12.10.2019
325 Clear 2 1016 14 0 0.79 292.904 13:51 12.10.2019
326 Clear 2 1016 14 0 0.8 286.123 13:32 12.10.2019
327 Clear 3 1016 12 0 0.8 286.123 12:56 12.10.2019
328 Clear 3 1016 12 0 0.8 286.123 12:38 12.10.2019
329 Clear 3 1016 13 0 0.87 270.197 12:20 12.10.2019
330 Clear 3 1016 12 0 0.87 270.197 11:46 12.10.2019
331 Clear 4 1017 10 0 0.87 270.197 11:24 12.10.2019
332 Clear 4 1017 11 0 0.87 270.197 10:58 12.10.2019
333 Clear 4 1017 10 0 0.87 270.197 10:40 12.10.2019
334 Clear 3 1017 11 0 0.45 345 10:20 12.10.2019
335 Clear 3 1017 11 0 0.87 270.197 09:57 12.10.2019
336 -273 0 0 0 0 0 09:57 12.10.2019
337 Clear 3 1017 11 0 0.87 270.197 09:38 12.10.2019
338 Clear 3 1017 10 0 1.24 275.056 09:19 12.10.2019
339 Clear 3 1017 10 0 1.21 268.575 08:45 12.10.2019
340 Clear 3 1017 10 0 1.21 268.575 08:25 12.10.2019
341 Clear 4 1017 9 0 1.21 268.575 07:59 12.10.2019
342 Clear 4 1017 8 0 1.21 268.575 07:31 12.10.2019
343 Clear 6 1017 8 0 1.21 268.575 06:37 12.10.2019
344 Clear 6 1017 6 0 0.68 263.622 05:44 12.10.2019
345 Clear 9 1016 5 0 0.68 263.622 04:43 12.10.2019
346 Clear 13 1017 7 0 0.68 263.622 03:56 12.10.2019
347 Clouds 22 1016 4 0 1.97 334.827 02:54 12.10.2019
348 Clouds 22 1016 5 0 1.76 326.165 01:35 12.10.2019
349 Clouds 22 1016 5 0 1.76 326.165 00:57 12.10.2019
350 Clouds 22 1016 5 0 1.76 326.165 00:38 12.10.2019
351 Clouds 21 1018 5 0 1.36 348.094 23:56 11.10.2019
352 Clouds 21 1018 5 0 1.36 348.094 23:37 11.10.2019
353 Clouds 21 1018 5 0 1.36 348.094 23:19 11.10.2019
354 Clouds 22 1019 1 0 2.24 54 22:39 11.10.2019
355 Clouds 22 1019 1 0 1.34 23 22:21 11.10.2019
356 Clouds 22 1020 1 0 1.34 33 21:55 11.10.2019
357 Clouds 21 1021 2 0 2.24 107 21:36 11.10.2019
358 Clouds 17 1022 8 0 1.4 35.229 21:18 11.10.2019
359 Clouds 17 1022 8 0 1.45 38.493 20:43 11.10.2019
360 Clouds 18 1022 5 0 0.45 91 20:25 11.10.2019
361 Clouds 18 1022 5 0 0.45 91 19:56 11.10.2019
362 Clouds 18 1022 5 0 0.45 91 19:38 11.10.2019
363 Clouds 17 1022 5 0 0.45 143 19:18 11.10.2019
364 Clouds 17 1022 5 0 0.89 27 18:57 11.10.2019
365 Clouds 16 1022 5 0 0.89 175 18:37 11.10.2019
366 Clouds 16 1022 5 0 0.89 175 18:37 11.10.2019
367 Clouds 12 1024 11 0 0.66 14.735 18:19 11.10.2019
368 Clouds 12 1024 11 0 0.66 14.735 17:58 11.10.2019
369 Clouds 11 1022 8 0 0.45 69 17:37 11.10.2019
370 Clouds 10 1022 10 0 0.66 14.735 17:18 11.10.2019
371 Clouds 8 1022 10 0 0.45 304 16:54 11.10.2019
372 Clouds 8 1022 10 0 0.45 304 16:54 11.10.2019
373 Clouds 7 1022 10 0 1.34 312 16:36 11.10.2019
374 Clouds 5 1022 12 0 0.89 356 16:18 11.10.2019
375 Clouds 4 1022 13 0 1.34 31 15:39 11.10.2019
376 Clouds 4 1022 13 0 0.51 328.823 15:19 11.10.2019
377 Clouds 4 1022 13 0 0.45 321 14:49 11.10.2019
378 Clouds 4 1022 13 0 1.34 270 14:30 11.10.2019
379 Clouds 3 1022 14 0 0.51 328.823 13:58 11.10.2019
380 Clouds 4 1022 14 0 0.51 328.823 13:40 11.10.2019
381 Clouds 5 1022 13 0 0.92 333.24 13:22 11.10.2019
382 Clouds 6 1022 12 0 0.45 320 12:56 11.10.2019
383 Clouds 7 1022 11 0 0.92 333.24 12:38 11.10.2019
384 Clouds 7 1022 10 0 0.45 342 12:20 11.10.2019
385 Clouds 8 1022 9 0 0.89 1 11:55 11.10.2019
386 Clouds 8 1022 9 0 0.89 1 11:55 11.10.2019
387 Clouds 8 1022 9 0 0.89 315 11:36 11.10.2019
388 Clouds 8 1022 9 0 0.89 18 11:18 11.10.2019
389 Clouds 9 1022 8 0 1.79 21 10:41 11.10.2019
390 Clouds 9 1022 8 0 1.79 21 10:23 11.10.2019
391 Clouds 9 1022 8 0 3.13 337 09:57 11.10.2019
392 Clouds 9 1022 8 0 1.34 351 09:38 11.10.2019
393 Clear 9 1022 9 0 3.13 345 09:20 11.10.2019
394 Clear 9 1022 9 0 3.13 345 09:20 11.10.2019
395 Clear 9 1022 9 0 1.34 319 08:56 11.10.2019
396 Clear 9 1022 8 0 1.79 358 08:37 11.10.2019
397 Clear 9 1022 9 0 1.34 326 08:19 11.10.2019
398 Clear 11 1022 7 0 2.68 4 07:45 11.10.2019
399 Clear 11 1022 7 0 2.68 4 07:27 11.10.2019
400 Clear 11 1022 7 0 3.13 331 06:49 11.10.2019
401 Clear 11 1022 7 0 2.68 353 06:24 11.10.2019
402 Clear 11 1021 7 0 3.13 323 05:41 11.10.2019
403 Clear 11 1021 7 0 3.58 355 05:20 11.10.2019
404 Clear 15 1021 6 0 2.28 327.984 04:28 11.10.2019
405 Clear 16 1019 4 0 1.79 21 02:47 11.10.2019
406 Clear 21 1018 5 0 3.16 299.23 00:52 11.10.2019
407 Clear 21 1018 5 0 3.16 299.23 00:29 11.10.2019
408 Clear 20 1019 6 0 5.02 303.43 23:48 10.10.2019
409 Clear 20 1019 6 0 5.02 303.43 23:23 10.10.2019
410 Clear 20 1019 6 0 5.02 303.43 22:58 10.10.2019
411 Clear 17 1018 5 0 2.24 56 22:39 10.10.2019
412 Clear 17 1018 5 0 2.68 65 22:21 10.10.2019
413 Clear 17 1018 6 0 1.79 40 21:58 10.10.2019
414 Clear 16 1019 7 0 4.02 360 21:40 10.10.2019
415 Clear 17 1022 10 0 4.62 332.775 21:21 10.10.2019
416 Clear 17 1022 9 0 4.01 345.093 20:57 10.10.2019
417 Clear 17 1022 9 0 4.01 345.093 20:57 10.10.2019
418 Clear 17 1022 9 0 4.01 345.093 20:38 10.10.2019
419 Clear 17 1022 9 0 4.01 345.093 20:18 10.10.2019
420 Clear 13 1019 9 0 1.79 336 19:54 10.10.2019
421 Clear 13 1019 9 0 4.92 334 19:36 10.10.2019
422 Clear 12 1019 10 0 1.79 331 19:18 10.10.2019
423 Clear 11 1018 11 0 5.36 349 18:41 10.10.2019
424 Clear 13 1022 15 0 2.34 348.911 18:20 10.10.2019
425 Clear 8 1017 14 0 4.92 357 17:57 10.10.2019
426 Clear 6 1017 16 0 6.26 352 17:37 10.10.2019
427 Clear 6 1017 16 0 6.26 352 17:18 10.10.2019
428 Clear 6 1016 18 0 5.36 339 16:48 10.10.2019
429 Clear 5 1016 18 0 5.36 310 16:27 10.10.2019
430 Clear 5 1016 19 0 5.36 341 15:59 10.10.2019
431 Clear 5 1015 21 0 7.6 339 15:39 10.10.2019
432 Clear 5 1015 21 0 7.6 339 15:39 10.10.2019
433 Clear 5 1015 21 0 6.71 1 15:20 10.10.2019
434 Clear 6 1014 20 0 5.81 1 14:56 10.10.2019
435 Clear 6 1014 21 0 7.15 335 14:37 10.10.2019
436 Clear 6 1014 21 0 7.15 347 14:18 10.10.2019
437 Clear 6 1013 24 0 2.68 322 13:55 10.10.2019
438 Clear 6 1013 22 0 4.02 330 13:37 10.10.2019
439 Clear 6 1013 23 0 4.47 335 13:18 10.10.2019
440 Clear 6 1012 24 0 4.47 260 12:41 10.10.2019
441 Clear 14 1017 11 0 2.67 356.733 12:20 10.10.2019
442 Clear 6 1012 28 0 2.68 337 11:58 10.10.2019
443 Clear 6 1012 28 0 2.68 337 11:58 10.10.2019
444 Clear 6 1012 28 0 2.68 337 11:58 10.10.2019
445 Clear 7 1011 27 0 3.13 290 11:39 10.10.2019
446 Clear 7 1011 27 0 3.13 324 11:19 10.10.2019
447 Clear 7 1011 27 0 3.13 330 10:46 10.10.2019
448 Clear 7 1011 27 0 2.68 330 10:27 10.10.2019
449 Clear 7 1010 26 0 3.58 254 09:58 10.10.2019
450 Clear 8 1009 27 0 2.24 325 09:40 10.10.2019
451 Clear 8 1009 27 0 2.68 329 09:22 10.10.2019
452 Clear 8 1009 27 0 4.02 322 08:58 10.10.2019
453 Clear 9 1008 27 0 3.13 338 08:38 10.10.2019
454 Clear 9 1008 27 0 3.13 338 08:38 10.10.2019
455 Clear 9 1008 27 0 1.79 254 08:19 10.10.2019
456 Clear 10 1007 28 0 2.68 288 07:46 10.10.2019
457 Clear 11 1007 29 0 2.24 272 07:23 10.10.2019
458 Clear 12 1006 28 0 3.13 316 06:55 10.10.2019
459 Clear 13 1005 28 0 3.13 328 06:36 10.10.2019
460 Clear 16 1004 23 0 1.34 246 05:39 10.10.2019
461 Clear 17 1004 22 0 1.79 320 05:18 10.10.2019
462 Clear 20 1008 15 0 2.84 26.538 04:34 10.10.2019
463 Clear 26 1001 10 0 1.79 34 02:29 10.10.2019
464 Clear 31 1003 9 0 6 32.117 01:37 10.10.2019
465 Clear 31 1002 9 0 6.27 34.481 01:18 10.10.2019
466 Clear 31 1002 9 0 6.27 34.481 00:29 10.10.2019
467 Clear 30 1002 11 0 1.98 56.406 23:42 09.10.2019
468 Clear 30 1002 11 0 1.98 56.406 23:24 09.10.2019
469 Clear 30 1002 11 0 1.98 56.406 22:59 09.10.2019
470 Clear 28 1001 9 0 2.24 67 22:41 09.10.2019
471 Clear 28 1001 9 0 2.24 22 22:22 09.10.2019
472 Clear 28 1002 10 0 2.68 354 21:57 09.10.2019
473 Clear 27 1002 10 0 3.13 33 21:38 09.10.2019
474 Clear 27 1005 15 0 2.21 85.986 21:19 09.10.2019
475 Clear 27 1005 15 0 1.94 73.49 20:55 09.10.2019
476 Clear 27 1005 15 0 1.94 73.49 20:36 09.10.2019
477 Clear 27 1005 15 0 1.94 73.49 20:18 09.10.2019
478 Clear 27 1005 15 0 1.94 73.49 20:18 09.10.2019
479 Clear 24 1004 12 0 2.24 45 19:44 09.10.2019
480 Clear 24 1004 12 0 1.34 33 19:23 09.10.2019
481 Clear 23 1004 12 0 0.89 56 18:40 09.10.2019
482 Clear 22 1007 20 0 0.67 71.43 18:21 09.10.2019
483 Clear 22 1007 20 0 0.67 71.43 17:59 09.10.2019
484 Clear 19 1004 12 0 0.67 71.43 17:40 09.10.2019
485 Clear 19 1004 12 0 0.67 71.43 17:40 09.10.2019
486 Clear 16 1004 17 0 0.45 258 17:22 09.10.2019
487 Clear 14 1004 19 0 0.67 71.43 16:58 09.10.2019
488 Clear 11 1004 24 0 1.79 331 16:40 09.10.2019
489 Clear 10 1004 26 0 0.67 71.43 16:21 09.10.2019
490 Clear 11 1004 25 0 0.45 326 15:57 09.10.2019
491 Clear 9 1003 28 0 0.45 262 15:38 09.10.2019
492 Clear 9 1003 28 0 0.45 262 15:38 09.10.2019
493 Clear 10 1003 27 0 0.35 101.634 15:19 09.10.2019
494 Clear 9 1003 28 0 0.35 101.634 14:55 09.10.2019
495 Clear 9 1004 29 0 0.35 101.634 14:37 09.10.2019
496 Clear 9 1004 28 0 0.35 101.634 14:18 09.10.2019
497 Clear 10 1003 27 0 0.35 101.634 13:39 09.10.2019
498 Clear 11 1003 26 0 0.45 308 13:20 09.10.2019
499 Clear 11 1003 27 0 0.47 87.18 12:57 09.10.2019
500 Clear 11 1003 26 0 0.45 345 12:37 09.10.2019
501 Clear 11 1004 26 0 0.45 87 12:19 09.10.2019
502 Clear 12 1004 24 0 0.74 142.483 11:54 09.10.2019
503 Clear 12 1004 24 0 0.74 142.483 11:36 09.10.2019
504 Clear 12 1004 24 0 0.74 142.483 11:36 09.10.2019
505 Clear 12 1004 24 0 0.74 142.483 11:18 09.10.2019
506 Clear 14 1004 22 0 0.45 50 10:42 09.10.2019
507 Clear 11 1004 27 0 0.74 142.483 10:20 09.10.2019
508 Clear 12 1004 27 0 0.74 142.483 09:57 09.10.2019
509 Clear 12 1004 27 0 0.74 142.483 09:38 09.10.2019
510 Clouds 12 1004 28 0 0.34 174.56 09:18 09.10.2019
511 -273 0 0 0 0 0 08:39 09.10.2019
512 Clouds 12 1005 27 0 0.64 158.049 08:20 09.10.2019
513 Clouds 12 1005 27 0 0.64 158.049 08:20 09.10.2019
514 Clouds 12 1005 28 0 0.64 158.049 07:47 09.10.2019
515 Clouds 12 1005 28 0 0.64 158.049 07:47 09.10.2019
516 Clouds 13 1005 28 0 0.64 158.049 07:25 09.10.2019
517 Clouds 13 1005 26 0 0.64 158.049 06:59 09.10.2019
518 Clouds 14 1005 26 0 0.64 158.049 06:41 09.10.2019
519 Clouds 16 1005 25 0 0.92 175.247 05:53 09.10.2019
520 Clouds 17 1005 23 0 0.92 175.247 05:18 09.10.2019
521 Clouds 24 1008 15 0 0.92 175.247 03:49 09.10.2019
522 Clouds 26 1005 13 0 3.13 247 02:35 09.10.2019
523 Clouds 33 1006 8 0 3.22 119.191 01:39 09.10.2019
524 Clouds 33 1006 8 0 3.22 119.191 01:39 09.10.2019
525 Clouds 33 1005 8 0 3.13 115.041 01:19 09.10.2019
526 Clouds 33 1005 8 0 3.13 115.041 00:55 09.10.2019
527 Clouds 33 1005 8 0 3.13 115.041 00:37 09.10.2019
528 Clear 32 1008 7 0 2.86 106.947 00:19 09.10.2019
529 Clear 32 1008 7 0 2.86 106.947 23:39 08.10.2019
530 Clear 32 1008 7 0 2.86 106.947 23:18 08.10.2019
531 Clear 31 1007 7 0 2.68 358 22:56 08.10.2019
532 Clear 31 1007 7 0 1.79 45 22:37 08.10.2019
533 Clear 30 1008 8 0 1.79 50 22:18 08.10.2019
534 Clear 31 1008 7 0 2.68 64 21:56 08.10.2019
535 Clear 31 1008 8 0 1.79 18 21:38 08.10.2019
536 Clear 29 1010 8 0 1.47 92.736 21:18 08.10.2019
537 Clear 29 1010 8 0 1.47 92.736 20:55 08.10.2019
538 Clear 29 1010 8 0 1.47 92.736 20:55 08.10.2019
539 Clear 30 1010 8 0 1.7 90.067 20:37 08.10.2019
540 Clear 30 1010 8 0 1.7 90.067 20:18 08.10.2019
541 -273 0 0 0 0 0 19:56 08.10.2019
542 Clear 28 1010 10 0 1.7 90.067 19:36 08.10.2019
543 Clear 27 1010 11 0 0.45 316 19:18 08.10.2019
544 Clear 25 1010 12 0 1.34 342 18:45 08.10.2019
545 Clear 24 1010 13 0 1.34 347 18:25 08.10.2019
546 Clear 22 1010 14 0 1.79 342 17:58 08.10.2019
547 Clear 20 1010 16 0 2.68 286 17:39 08.10.2019
548 Clear 18 1010 19 0 1.34 315 17:20 08.10.2019
549 Clear 16 1010 21 0 0.45 301 16:56 08.10.2019
550 Clear 16 1010 21 0 0.45 301 16:56 08.10.2019
551 Clear 14 1010 22 0 0.08 172.266 16:37 08.10.2019
552 Clear 16 1010 20 0 0.08 172.266 16:19 08.10.2019
553 Clear 16 1010 19 0 0.45 293 15:40 08.10.2019
554 Clear 16 1010 19 0 1.79 336 15:20 08.10.2019
555 Clear 16 1010 19 0 1.79 336 15:20 08.10.2019
556 Clear 16 1010 19 0 2.24 347 14:57 08.10.2019
557 Clear 16 1010 20 0 1.34 351 14:38 08.10.2019
558 Clear 15 1010 20 0 0.89 335 14:19 08.10.2019
559 Clear 15 1010 20 0 0.45 330 13:55 08.10.2019
560 Clear 14 1010 21 0 0.41 302.035 13:37 08.10.2019
561 Clear 14 1010 21 0 0.41 302.035 13:37 08.10.2019
562 Clear 14 1010 20 0 0.45 337 13:18 08.10.2019
563 Clear 9 1011 30 0 0.45 322 12:41 08.10.2019
564 Clear 9 1011 29 0 0.37 311.673 12:20 08.10.2019
565 Clear 9 1011 29 0 0.37 311.673 11:58 08.10.2019
566 Clear 9 1011 28 0 0.37 311.673 11:39 08.10.2019
567 Clear 10 1011 26 0 0.37 311.673 11:21 08.10.2019
568 Clear 11 1011 27 0 0.37 311.673 10:55 08.10.2019
569 Clear 10 1011 27 0 0.37 311.673 10:36 08.10.2019
570 Clear 10 1011 26 0 0.37 311.673 10:18 08.10.2019
571 Clear 11 1012 26 0 0.37 311.673 09:40 08.10.2019
572 Clear 11 1012 25 0 0.61 270.657 09:22 08.10.2019
573 Clear 11 1012 27 0 0.61 270.657 08:54 08.10.2019
574 Clouds 11 1012 25 0 0.61 278.17 08:36 08.10.2019
575 Clouds 11 1012 25 0 0.61 278.17 08:18 08.10.2019
576 Clouds 11 1012 25 0 0.61 278.17 07:41 08.10.2019
577 Clouds 12 1012 24 0 0.61 278.17 07:19 08.10.2019
578 Clouds 12 1012 24 0 0.61 278.17 06:46 08.10.2019
579 Clouds 13 1012 23 0 0.87 175.717 06:23 08.10.2019
580 Clouds 14 1012 20 0 0.87 175.717 05:44 08.10.2019
581 Clouds 14 1012 20 0 0.87 175.717 05:44 08.10.2019
582 Clouds 17 1012 18 0 0.87 175.717 05:21 08.10.2019
583 Clouds 17 1012 18 0 0.87 175.717 05:21 08.10.2019
584 Clouds 22 1012 11 0 0.87 175.717 03:32 08.10.2019
585 Clear 26 1011 11 0 0.89 23 02:46 08.10.2019
586 Clear 26 1012 10 0 0.89 28 02:26 08.10.2019
587 Clear 31 1011 6 0 1.06 111.48 01:42 08.10.2019
588 Clouds 31 1011 6 0 1.24 117.204 01:19 08.10.2019
589 Clouds 31 1011 6 0 1.24 117.204 00:38 08.10.2019
590 Clear 31 1014 6 0 1.72 43.303 00:19 08.10.2019
591 Clear 31 1014 6 0 1.72 43.303 23:39 07.10.2019
592 Clear 31 1014 6 0 1.72 43.303 23:19 07.10.2019
593 Clear 31 1014 6 0 1.72 43.303 22:55 07.10.2019
594 Clear 31 1014 6 0 1.72 43.303 22:55 07.10.2019
595 Clear 30 1013 9 0 1.79 3 22:37 07.10.2019
596 Clear 29 1014 9 0 1.79 62 22:19 07.10.2019
597 Clear 29 1014 9 0 2.24 26 21:55 07.10.2019
598 Clear 29 1015 9 0 1.79 75 21:37 07.10.2019
599 Clear 28 1017 9 0 1.72 26.654 21:18 07.10.2019
600 Clear 28 1017 9 0 1.57 27.989 20:56 07.10.2019
601 Clear 28 1017 9 0 1.57 27.989 20:38 07.10.2019
602 Clear 28 1017 9 0 1.57 27.989 20:38 07.10.2019
603 Clear 28 1017 9 0 1.57 27.989 20:19 07.10.2019
604 Clear 27 1016 12 0 0.89 56 19:54 07.10.2019
605 Clear 26 1016 12 0 0.89 56 19:36 07.10.2019
606 Clear 25 1016 12 0 0.89 83 19:18 07.10.2019
607 Clear 25 1016 12 0 0.89 83 19:18 07.10.2019
608 Clear 24 1016 13 0 0.89 102 18:43 07.10.2019
609 Clear 22 1019 14 0 0.59 314.654 18:20 07.10.2019
610 Clear 21 1017 17 0 0.59 314.654 17:59 07.10.2019
611 Clear 19 1017 19 0 0.59 314.654 17:41 07.10.2019
612 Clear 14 1017 27 0 0.59 314.654 17:19 07.10.2019
613 Clear 12 1017 34 0 0.59 314.654 16:55 07.10.2019
614 Clear 12 1017 34 0 0.59 314.654 16:55 07.10.2019
615 Clear 8 1017 37 0 0.59 314.654 16:37 07.10.2019
616 Clear 7 1017 37 0 0.45 347 16:18 07.10.2019
617 Clear 7 1016 35 0 0.59 314.654 15:41 07.10.2019
618 Clear 7 1016 35 0 0.59 314.654 15:41 07.10.2019
619 Clear 7 1016 35 0 0.59 314.654 15:41 07.10.2019
620 Clear 7 1016 34 0 0.17 347.4 15:22 07.10.2019
621 Clear 7 1016 33 0 0.17 347.4 14:42 07.10.2019
622 Clear 7 1016 33 0 0.17 347.4 14:42 07.10.2019
623 Clear 8 1016 31 0 0.17 347.4 14:23 07.10.2019
624 Clear 8 1016 31 0 0.17 347.4 13:59 07.10.2019
625 Clear 9 1016 31 0 0.17 347.4 13:40 07.10.2019
626 Clear 9 1016 31 0 0.2 335.225 13:18 07.10.2019
627 Clear 9 1015 31 0 0.2 335.225 12:54 07.10.2019
628 Clear 9 1016 30 0 0.2 335.225 12:36 07.10.2019
629 Clear 10 1016 28 0 0.29 336.749 12:18 07.10.2019
630 Clear 10 1016 29 0 0.29 336.749 11:56 07.10.2019
631 Clear 11 1016 27 0 0.29 336.749 11:36 07.10.2019
632 Clear 11 1016 27 0 0.29 336.749 11:18 07.10.2019
633 Clear 11 1017 27 0 0.29 336.749 10:40 07.10.2019
634 Clear 11 1017 26 0 0.29 336.749 10:20 07.10.2019
635 Clear 11 1017 27 0 0.29 336.749 09:42 07.10.2019
636 Clear 11 1017 27 0 0.88 275.336 09:23 07.10.2019
637 Clear 11 1017 26 0 0.88 275.336 08:56 07.10.2019
638 Clear 11 1017 26 0 0.82 266.515 08:37 07.10.2019
639 Clear 11 1017 25 0 0.82 266.515 08:18 07.10.2019
640 Clear 12 1017 24 0 0.82 266.515 07:41 07.10.2019
641 Clear 12 1018 25 0 0.82 266.515 07:21 07.10.2019
642 Clear 12 1018 25 0 0.82 266.515 06:48 07.10.2019
643 Clear 13 1018 24 0 0.82 266.515 06:27 07.10.2019
644 Clear 14 1017 22 0 1.32 299.782 05:47 07.10.2019
645 Clear 16 1017 19 0 1.32 299.782 05:21 07.10.2019
646 Clear 22 1019 14 0 1.32 299.782 04:24 07.10.2019
647 Clear 22 1019 14 0 1.32 299.782 03:44 07.10.2019
648 Clear 22 1019 14 0 1.32 299.782 03:44 07.10.2019
649 Clear 22 1019 14 0 1.32 299.782 03:44 07.10.2019
650 Clear 22 1016 13 0 1.34 4 03:20 07.10.2019
651 Clear 22 1016 13 0 1.34 4 03:20 07.10.2019
652 Clear 30 1017 8 0 2.17 351.26 02:21 07.10.2019
653 Clear 30 1017 8 0 2.17 351.26 02:21 07.10.2019
654 Clear 30 1017 8 0 2.17 351.26 01:50 07.10.2019
655 Clear 30 1017 8 0 2.83 334.222 01:21 07.10.2019
656 Clear 30 1017 8 0 2.83 334.222 00:39 07.10.2019
657 Clear 29 1019 8 0 2.16 5.579 00:20 07.10.2019
658 Clear 29 1019 8 0 2.16 5.579 23:42 06.10.2019
659 Clear 29 1019 8 0 2.16 5.579 23:22 06.10.2019
660 Clear 29 1019 8 0 2.16 5.579 22:59 06.10.2019
661 Clear 29 1018 9 0 2.24 29 22:41 06.10.2019
662 Clear 29 1018 9 0 1.34 32 22:22 06.10.2019
663 Clear 29 1019 9 0 0.89 81 21:58 06.10.2019
664 Clear 28 1019 9 0 1.79 17 21:38 06.10.2019
665 Clear 26 1021 9 0 2.36 352.71 21:19 06.10.2019
666 Clear 26 1021 9 0 2.36 352.71 20:58 06.10.2019
667 Clear 27 1021 9 0 2.22 0.567 20:40 06.10.2019
668 Clear 27 1021 9 0 2.22 0.567 20:40 06.10.2019
669 Clear 27 1021 9 0 2.22 0.567 20:21 06.10.2019
670 Clear 27 1021 9 0 2.22 0.567 19:57 06.10.2019
671 Clear 23 1020 13 0 0.89 40 19:37 06.10.2019
672 Clear 21 1020 14 0 1.34 274 19:19 06.10.2019
673 Clear 21 1020 15 0 1.79 323 18:57 06.10.2019
674 Clear 19 1020 17 0 1.34 287 18:39 06.10.2019
675 Clear 19 1019 17 0 1.79 326 18:19 06.10.2019
676 Clear 19 1019 17 0 1.79 326 18:19 06.10.2019
677 Clear 18 1019 17 0 1.34 297 17:58 06.10.2019
678 Clear 16 1019 20 0 2.24 324 17:39 06.10.2019
679 Clear 16 1019 21 0 2.68 320 17:19 06.10.2019
680 Clear 14 1019 23 0 3.13 321 16:42 06.10.2019
681 Clear 13 1018 24 0 3.13 321 16:24 06.10.2019
682 Clear 13 1018 24 0 2.68 318 15:59 06.10.2019
683 Clear 13 1018 24 0 1.79 315 15:41 06.10.2019
684 Clear 13 1018 24 0 3.13 335 15:18 06.10.2019
685 Clear 13 1018 24 0 3.13 322 14:43 06.10.2019
686 Clear 13 1018 23 0 3.58 330 14:24 06.10.2019
687 Clear 13 1018 23 0 3.13 337 13:58 06.10.2019
688 Clear 13 1017 22 0 2.24 307 13:39 06.10.2019
689 Clear 14 1017 21 0 3.13 322 13:21 06.10.2019
690 Clear 14 1018 19 0 1.79 287 12:57 06.10.2019
691 Clear 17 1017 16 0 1.79 324 12:39 06.10.2019
692 Clear 18 1018 10 0 0.9 283.014 12:20 06.10.2019
693 Clear 18 1018 10 0 0.9 283.014 11:57 06.10.2019
694 Clear 18 1018 10 0 0.9 283.014 11:38 06.10.2019
695 Clear 16 1018 18 0 2.68 348 11:20 06.10.2019
696 Clear 10 1018 23 0 0.9 283.014 10:44 06.10.2019
697 Clear 11 1018 23 0 0.9 283.014 10:26 06.10.2019
698 Clear 11 1017 22 0 0.9 283.014 09:58 06.10.2019
699 Clear 11 1017 22 0 1.34 95 09:40 06.10.2019
700 Clear 10 1017 23 0 0.74 269.766 09:19 06.10.2019
701 Clear 11 1017 23 0 0.74 269.766 08:45 06.10.2019
702 Clear 10 1017 23 0 0.91 250.291 08:21 06.10.2019
703 Clear 10 1017 24 0 0.91 250.291 07:57 06.10.2019
704 Clear 9 1017 23 0 0.91 250.291 07:35 06.10.2019
705 Clear 11 1017 22 0 0.91 250.291 06:32 06.10.2019
706 Clear 14 1016 17 0 0.93 291.527 05:35 06.10.2019
707 Clear 20 1016 10 0 0.93 291.527 04:26 06.10.2019
708 Clear 24 1015 9 0 2.24 25 02:47 06.10.2019
709 Clear 25 1015 8 0 1.79 15 02:27 06.10.2019
710 Clear 29 1015 6 0 1.01 47.878 01:46 06.10.2019
711 Clear 29 1014 6 0 1.07 46.671 01:27 06.10.2019
712 Clear 29 1014 6 0 1.07 46.671 00:59 06.10.2019
713 Clear 29 1014 6 0 1.07 46.671 00:29 06.10.2019
714 Clear 28 1016 6 0 1.79 36.199 23:46 05.10.2019
715 Clear 28 1016 6 0 1.79 36.199 23:23 05.10.2019
716 Clear 28 1016 6 0 1.79 36.199 22:59 05.10.2019
717 Clear 27 1016 8 0 2.24 355 22:40 05.10.2019
718 Clear 27 1016 8 0 1.79 50 22:21 05.10.2019
719 Clear 27 1016 8 0 1.79 50 22:21 05.10.2019
720 Clear 27 1017 8 0 2.24 79 21:59 05.10.2019
721 Clear 26 1017 8 0 2.24 7 21:40 05.10.2019
722 Clear 25 1019 7 0 2.18 352.435 21:21 05.10.2019
723 Clear 25 1019 7 0 2.18 352.435 20:56 05.10.2019
724 Clear 25 1019 7 0 2.47 350.572 20:38 05.10.2019
725 Clear 25 1019 7 0 2.47 350.572 20:19 05.10.2019
726 Clear 24 1018 10 0 1.34 3 19:40 05.10.2019
727 Clear 23 1018 11 0 0.89 25 19:22 05.10.2019
728 Clear 23 1019 11 0 0.89 62 18:57 05.10.2019
729 Clear 21 1019 13 0 0.45 104 18:39 05.10.2019
730 Clear 20 1020 9 0 1.61 325.44 18:21 05.10.2019
731 Clear 17 1019 18 0 0.45 50 17:56 05.10.2019
732 Clear 14 1019 21 0 1.61 325.44 17:37 05.10.2019
733 Clear 12 1018 23 0 1.61 325.44 17:19 05.10.2019
734 Clear 11 1018 24 0 1.61 325.44 16:42 05.10.2019
735 Clear 20 1020 9 0 1.61 325.44 16:22 05.10.2019
736 Clear 20 1020 9 0 1.61 325.44 15:58 05.10.2019
737 Clear 20 1020 9 0 1.61 325.44 15:40 05.10.2019
738 Clear 8 1018 27 0 1.34 330 15:21 05.10.2019
739 Clear 9 1018 25 0 1.23 316.688 14:58 05.10.2019
740 Clear 9 1018 25 0 1.23 316.688 14:58 05.10.2019
741 Clear 10 1018 23 0 1.23 316.688 14:40 05.10.2019
742 Clear 12 1018 20 0 0.45 335 14:20 05.10.2019
743 Clear 12 1017 20 0 1.79 308 13:42 05.10.2019
744 Clear 10 1017 22 0 1.79 329 13:22 05.10.2019
745 Clear 8 1017 27 0 1.2 332.17 12:47 05.10.2019
746 Clear 8 1017 28 0 1.42 297.52 12:21 05.10.2019
747 Clear 8 1017 28 0 1.42 297.52 12:21 05.10.2019
748 Clear 8 1017 27 0 1.42 297.52 11:59 05.10.2019
749 Clear 8 1017 28 0 1.42 297.52 11:39 05.10.2019
750 Clear 7 1017 29 0 1.42 297.52 11:19 05.10.2019
751 Clear 8 1017 27 0 1.42 297.52 10:45 05.10.2019
752 Clear 8 1017 27 0 1.42 297.52 10:26 05.10.2019
753 Clear 8 1017 27 0 1.42 297.52 10:26 05.10.2019
754 Clear 9 1017 25 0 1.42 297.52 09:59 05.10.2019
755 Clear 10 1017 24 0 1.42 297.52 09:39 05.10.2019
756 Clear 10 1017 24 0 0.89 332 09:20 05.10.2019
757 Clear 8 1017 25 0 0.41 47.084 08:40 05.10.2019
758 Clear 9 1017 24 0 0.41 47.084 08:21 05.10.2019
759 Clear 9 1017 24 0 0.41 47.084 07:58 05.10.2019
760 Clear 11 1016 24 0 0.41 47.084 07:37 05.10.2019
761 Clear 11 1016 24 0 0.41 47.084 07:19 05.10.2019
762 Clear 12 1016 21 0 0.45 175 06:28 05.10.2019
763 Clear 13 1016 20 0 0.7 160.313 05:52 05.10.2019
764 Clear 20 1016 14 0 0.7 160.313 04:33 05.10.2019
765 Clear 20 1016 14 0 0.7 160.313 03:29 05.10.2019
766 Clear 29 1013 7 0 1.33 41.763 01:55 05.10.2019
767 Clear 28 1013 8 0 1.42 86.044 01:23 05.10.2019
768 Clear 28 1013 8 0 1.42 86.044 00:45 05.10.2019
769 Clear 28 1013 8 0 1.42 86.044 00:26 05.10.2019
770 Clear 27 1013 10 0 1.56 49.582 23:45 04.10.2019
771 Clear 27 1013 10 0 1.56 49.582 23:26 04.10.2019
772 Clear 27 1013 10 0 1.56 49.582 22:59 04.10.2019
773 Clear 26 1014 10 0 2.24 31 22:40 04.10.2019
774 Clear 26 1014 10 0 1.79 59 22:22 04.10.2019
775 Clear 26 1014 10 0 1.34 54 21:58 04.10.2019
776 Clear 25 1014 11 0 1.79 56 21:39 04.10.2019
777 Clear 24 1015 14 0 1.34 77.732 21:21 04.10.2019
778 Clear 24 1015 14 0 1.34 77.732 20:57 04.10.2019
779 Clear 24 1015 14 0 1.34 77.732 20:57 04.10.2019
780 Clear 24 1015 13 0 1.33 45.948 20:39 04.10.2019
781 Clear 24 1015 13 0 1.33 45.948 20:20 04.10.2019
782 Clear 24 1015 13 0 1.33 45.948 20:20 04.10.2019
783 Clear 22 1014 14 0 1.34 57 19:49 04.10.2019
784 Clear 21 1014 15 0 0.89 71 19:30 04.10.2019
785 Clear 21 1014 15 0 0.89 71 19:30 04.10.2019
786 Clear 21 1014 16 0 0.45 33 18:59 04.10.2019
787 Clear 18 1014 18 0 0.45 55 18:39 04.10.2019
788 Clear 17 1014 20 0 0.29 106.526 18:19 04.10.2019
789 Clear 15 1014 23 0 0.45 19 17:57 04.10.2019
790 Clear 12 1013 27 0 0.29 106.526 17:38 04.10.2019
791 Clear 9 1013 31 0 0.29 106.526 17:20 04.10.2019
792 Clear 6 1013 37 0 0.29 106.526 16:55 04.10.2019
793 Clear 5 1013 38 0 0.29 106.526 16:36 04.10.2019
794 Clear 4 1012 40 0 0.29 106.526 16:18 04.10.2019
795 -273 0 0 0 0 0 15:55 04.10.2019
796 Clear 4 1012 40 0 0.45 271 15:36 04.10.2019
797 Clouds 3 1012 41 0 0.9 165.902 15:18 04.10.2019
798 Clouds 4 1011 40 0 0.45 295 14:42 04.10.2019
799 Clouds 4 1011 41 0 0.9 165.902 14:22 04.10.2019
800 Clouds 4 1011 40 0 0.9 165.902 13:59 04.10.2019
801 Clouds 4 1011 39 0 0.9 165.902 13:41 04.10.2019
802 Clouds 4 1011 38 0 0.38 155.793 13:19 04.10.2019
803 Clouds 6 1010 36 0 0.38 155.793 12:45 04.10.2019
804 Clouds 6 1010 35 0 0.38 155.793 12:27 04.10.2019
805 Clouds 6 1010 35 0 0.38 155.793 12:27 04.10.2019
806 Clouds 7 1010 32 0 0.34 294.822 11:56 04.10.2019
807 Clouds 7 1010 32 0 0.34 294.822 11:56 04.10.2019
808 Clouds 8 1010 29 0 0.34 294.822 11:38 04.10.2019
809 Clouds 8 1010 27 0 0.45 75 11:19 04.10.2019
810 Clouds 8 1010 28 0 0.45 279 10:39 04.10.2019
811 Clouds 8 1010 27 0 0.34 294.822 10:20 04.10.2019
812 Clouds 9 1010 26 0 0.34 294.822 09:45 04.10.2019
813 Clouds 9 1010 26 0 0.34 294.822 09:45 04.10.2019
814 Clear 9 1010 25 0 0.31 293.223 09:27 04.10.2019
815 Clear 12 1010 22 0 0.82 237.185 08:56 04.10.2019
816 Clear 14 1010 19 0 0.82 237.185 08:37 04.10.2019
817 Clear 14 1010 19 0 1.34 181 08:19 04.10.2019
818 Clear 14 1010 18 0 0.89 164 07:43 04.10.2019
819 Clear 18 1011 14 0 0.82 237.185 07:21 04.10.2019
820 Clear 14 1010 18 0 0.45 75 06:42 04.10.2019
821 Clear 16 1010 17 0 2.68 181 06:24 04.10.2019
822 -273 0 0 0 0 0 05:24 04.10.2019
823 Clear 17 1010 16 0 0.89 197 04:56 04.10.2019
824 Clear 20 1010 10 0 0.77 122.068 03:43 04.10.2019
825 Clear 21 1010 12 0 5.36 231 02:53 04.10.2019
826 Clear 22 1010 10 0 5.36 222 01:55 04.10.2019
827 Clear 22 1010 10 0 5.36 222 01:55 04.10.2019
828 Clear 22 1010 11 0 5.81 214 01:29 04.10.2019
829 Clear 23 1010 9 0 5.36 249 00:56 04.10.2019
830 Clear 23 1010 9 0 5.81 212 23:55 03.10.2019
831 Clear 23 1010 10 0 4.47 245 23:37 03.10.2019
832 Clear 23 1011 11 0 3.58 206 23:18 03.10.2019
833 Clear 23 1011 11 0 4.02 238 22:55 03.10.2019
834 Clear 23 1011 10 0 3.13 215 22:37 03.10.2019
835 Clear 22 1012 12 0 3.58 131 22:18 03.10.2019
836 Clear 22 1012 12 0 3.58 149 21:55 03.10.2019
837 Clear 22 1012 13 0 3.58 125 21:36 03.10.2019
838 Clear 22 1012 14 0 3.13 129 21:18 03.10.2019
839 Clear 21 1013 13 0 3.58 231 20:41 03.10.2019
840 Clear 21 1013 14 0 3.13 116 20:23 03.10.2019
841 Clear 20 1013 14 0 3.13 233 19:59 03.10.2019
842 Clear 20 1014 14 0 2.24 250 19:41 03.10.2019
843 Clear 19 1014 15 0 2.68 219 19:22 03.10.2019
844 Clear 19 1014 15 0 1.79 283 18:58 03.10.2019
845 Clear 18 1014 15 0 2.24 171 18:39 03.10.2019
846 Clear 19 1014 12 0 0.19 349.23 18:19 03.10.2019
847 Clear 17 1014 14 0 1.34 191 17:56 03.10.2019
848 Clear 15 1014 17 0 1.79 226 17:37 03.10.2019
849 Clear 13 1014 20 0 1.79 189 17:19 03.10.2019
850 Clear 13 1014 20 0 1.79 189 17:19 03.10.2019
851 Clear 10 1014 25 0 0.19 349.23 16:43 03.10.2019
852 Clear 8 1014 27 0 0.19 349.23 16:25 03.10.2019
853 Clear 8 1014 27 0 0.45 183 15:56 03.10.2019
854 Clear 19 1014 12 0 0.19 349.23 15:38 03.10.2019
855 Clear 8 1014 26 0 0.45 151 15:20 03.10.2019
856 Clear 8 1014 27 0 0.45 161.606 14:46 03.10.2019
857 Clear 5 1013 30 0 0.45 161.606 14:27 03.10.2019
858 Clear 5 1014 32 0 0.45 161.606 13:59 03.10.2019
859 Clear 5 1013 31 0 0.45 161.606 13:41 03.10.2019
860 Clear 6 1014 31 0 0.89 8 13:19 03.10.2019
861 Clear 4 1014 33 0 0.34 172.416 12:56 03.10.2019
862 Clear 4 1014 35 0 0.34 172.416 12:38 03.10.2019
863 Clear 4 1014 34 0 0.22 183.397 12:19 03.10.2019
864 Clear 4 1014 34 0 0.22 183.397 12:19 03.10.2019
865 Clear 4 1014 33 0 0.22 183.397 11:41 03.10.2019
866 Clear 4 1014 33 0 0.22 183.397 11:41 03.10.2019
867 Clear 4 1014 34 0 0.22 183.397 11:23 03.10.2019
868 Clear 4 1015 32 0 0.22 183.397 10:59 03.10.2019
869 Clear 5 1015 31 0 0.22 183.397 10:40 03.10.2019
870 Clear 5 1015 32 0 0.22 183.397 10:19 03.10.2019
871 Clear 5 1015 31 0 0.22 183.397 09:58 03.10.2019
872 Clear 6 1015 30 0 0.22 183.397 09:40 03.10.2019
873 Clear 6 1015 29 0 0.95 184.366 09:21 03.10.2019
874 Clear 6 1015 30 0 0.5 203.517 08:45 03.10.2019
875 Clear 6 1015 31 0 0.5 203.517 08:27 03.10.2019
876 Clear 6 1015 30 0 0.5 203.517 07:57 03.10.2019
877 Clear 7 1015 29 0 0.5 203.517 07:39 03.10.2019
878 Clear 7 1015 28 0 0.5 203.517 07:19 03.10.2019
879 Clear 8 1015 27 0 0.5 203.517 06:50 03.10.2019
880 Clear 9 1015 25 0 0.5 203.517 06:24 03.10.2019
881 Clear 11 1015 23 0 1.12 181.748 05:46 03.10.2019
882 Clear 12 1014 21 0 1.12 181.748 05:19 03.10.2019
883 Clear 18 1014 13 0 1.12 181.748 04:31 03.10.2019
884 Clear 18 1013 16 0 0.89 27 03:24 03.10.2019
885 Clear 25 1013 8 0 1 61.738 02:39 03.10.2019
886 Clear 25 1013 8 0 1 61.738 01:59 03.10.2019
887 Clear 25 1012 8 0 1.03 62.91 01:35 03.10.2019
888 Clear 25 1012 8 0 1.03 62.91 00:51 03.10.2019
889 Clear 25 1014 10 0 2.46 37.033 00:23 03.10.2019
890 Clear 25 1014 10 0 2.46 37.033 23:44 02.10.2019
891 Clear 25 1014 10 0 2.46 37.033 23:22 02.10.2019
892 Clear 25 1015 12 0 0.89 10 22:46 02.10.2019
893 Clear 24 1016 12 0 1.34 30 22:23 02.10.2019
894 Clear 23 1016 12 0 1.79 106 21:58 02.10.2019
895 Clear 23 1016 12 0 1.79 106 21:58 02.10.2019
896 Clear 23 1016 13 0 2.68 114 21:39 02.10.2019
897 Clear 22 1017 14 0 2.12 342.752 21:20 02.10.2019
898 Clear 22 1017 13 0 2.18 343.361 20:57 02.10.2019
899 Clear 22 1017 13 0 2.18 343.361 20:39 02.10.2019
900 Clear 22 1017 13 0 2.18 343.361 20:20 02.10.2019
901 Clear 22 1017 13 0 2.18 343.361 19:57 02.10.2019
902 Clear 17 1017 20 0 0.89 200 19:39 02.10.2019
903 Clear 17 1018 20 0 0.89 305 19:20 02.10.2019
904 Clear 17 1018 21 0 0.89 275 18:57 02.10.2019
905 Clear 16 1017 23 0 1.34 321 18:38 02.10.2019
906 Clear 18 1017 18 0 1.33 305.568 18:19 02.10.2019
907 Clear 18 1017 18 0 1.33 305.568 17:56 02.10.2019
908 Clear 12 1017 30 0 2.68 324 17:37 02.10.2019
909 Clear 11 1017 31 0 2.68 321 17:19 02.10.2019
910 Clear 11 1017 31 0 2.68 321 17:19 02.10.2019
911 Clear 9 1017 35 0 1.79 343 16:42 02.10.2019
912 Clear 8 1017 36 0 1.34 334 16:22 02.10.2019
913 Clear 8 1016 36 0 2.68 360 15:57 02.10.2019
914 Clear 8 1016 36 0 2.68 317 15:38 02.10.2019
915 Clear 8 1016 37 0 2.68 331 15:20 02.10.2019
916 Clear 8 1016 37 0 1.79 329 14:57 02.10.2019
917 Clear 8 1015 37 0 2.68 337 14:39 02.10.2019
918 Clear 8 1015 37 0 3.58 299 14:20 02.10.2019
919 Clear 8 1015 37 0 3.58 299 14:20 02.10.2019
920 Clear 8 1015 37 0 2.68 311 13:43 02.10.2019
921 Clear 8 1015 37 0 3.13 299 13:24 02.10.2019
922 Clear 8 1015 37 0 2.24 333 12:57 02.10.2019
923 Clear 8 1015 35 0 2.68 318 12:37 02.10.2019
924 Clear 8 1015 35 0 2.68 322 12:18 02.10.2019
925 Clear 9 1015 34 0 2.24 337 11:44 02.10.2019
926 Clear 8 1015 34 0 1.79 311 11:23 02.10.2019
927 Clear 4 1015 40 0 2.24 333 10:42 02.10.2019
928 Clear 4 1014 39 0 0.92 334.577 10:20 02.10.2019
929 Clear 5 1014 38 0 0.92 334.577 09:59 02.10.2019
930 Clear 5 1014 38 0 0.92 334.577 09:37 02.10.2019
931 Clear 5 1013 37 0 0.63 302.576 09:18 02.10.2019
932 Clear 6 1013 36 0 0.92 334.02 08:44 02.10.2019
933 Clear 7 1013 33 0 0.45 338 08:24 02.10.2019
934 Clear 8 1013 31 0 0.92 334.02 07:58 02.10.2019
935 Clear 8 1013 31 0 0.45 329 07:38 02.10.2019
936 Clear 8 1013 31 0 0.45 328 07:20 02.10.2019
937 Clear 8 1013 31 0 0.45 328 07:20 02.10.2019
938 Clear 11 1013 27 0 0.92 334.02 06:31 02.10.2019
939 Clear 11 1012 27 0 1.34 22 05:55 02.10.2019
940 Clear 12 1012 26 0 0.89 354 05:24 02.10.2019
941 Clear 12 1011 26 0 0.89 20 04:53 02.10.2019
942 Clear 17 1011 20 0 0.77 210.075 03:52 02.10.2019
943 Clear 23 1008 12 0 2.08 110.653 02:41 02.10.2019
944 Clear 23 1008 12 0 2.08 110.653 02:23 02.10.2019
945 Clear 24 1008 11 0 2.43 115.594 01:24 02.10.2019
946 Clear 24 1008 11 0 2.43 115.594 00:49 02.10.2019
947 Clear 24 1008 11 0 2.43 115.594 00:25 02.10.2019
948 Clear 23 1009 11 0 1.89 46.633 23:43 01.10.2019
949 Clear 23 1009 11 0 1.89 46.633 23:25 01.10.2019
950 Clear 22 1009 14 0 1.79 40 22:59 01.10.2019
951 Clear 22 1010 14 0 1.34 132 22:39 01.10.2019
952 Clear 20 1010 16 0 1.79 94 22:19 01.10.2019
953 Clear 18 1010 18 0 2.24 108 21:57 01.10.2019
954 Clear 18 1010 19 0 0.45 347 21:37 01.10.2019
955 Clear 16 1010 20 0 0.89 219 21:19 01.10.2019
956 Clear 16 1010 20 0 0.89 245 20:55 01.10.2019
957 Clear 16 1010 21 0 0.89 348 20:37 01.10.2019
958 Clear 14 1010 22 0 1.34 247 20:18 01.10.2019
959 Clear 15 1010 22 0 1.34 250 19:55 01.10.2019
960 Clear 15 1010 22 0 1.34 250 19:55 01.10.2019
961 Clear 15 1010 22 0 1.34 250 19:55 01.10.2019
962 Clear 13 1010 24 0 1.34 216 19:37 01.10.2019
963 Clear 13 1010 24 0 1.34 216 19:37 01.10.2019
964 Clear 14 1011 24 0 1.79 268 19:18 01.10.2019
965 Clear 12 1010 27 0 1.34 296 18:40 01.10.2019
966 Clear 11 1010 29 0 1.34 266 18:22 01.10.2019
967 Clear 11 1010 31 0 1.34 300 17:58 01.10.2019
968 Clear 16 1011 19 0 0.44 249.047 17:39 01.10.2019
969 Clear 8 1010 37 0 3.58 312 17:19 01.10.2019
970 Clear 7 1010 39 0 3.13 335 16:57 01.10.2019
971 Clear 6 1010 42 0 3.13 296 16:39 01.10.2019
972 Clear 6 1009 44 0 1.79 328 16:21 01.10.2019
973 Clear 5 1009 43 0 3.13 337 15:46 01.10.2019
974 Clear 6 1009 43 0 1.79 1 15:23 01.10.2019
975 Clear 6 1009 41 0 3.13 337 14:42 01.10.2019
976 Clear 6 1009 40 0 1.79 335 14:21 01.10.2019
977 Clear 7 1009 39 0 1.79 259 13:59 01.10.2019
978 Clear 7 1009 40 0 2.24 308 13:40 01.10.2019
979 Clear 7 1009 37 0 2.68 328 13:21 01.10.2019
980 Clear 7 1009 37 0 2.68 328 13:21 01.10.2019
981 Clear 7 1009 37 0 2.24 293 12:58 01.10.2019
982 Clear 7 1009 37 0 3.13 331 12:39 01.10.2019
983 Clear 7 1009 35 0 4.47 302 12:19 01.10.2019
984 Clear 7 1009 35 0 3.13 282 11:58 01.10.2019
985 Clear 7 1009 35 0 2.68 328 11:38 01.10.2019
986 Clear 7 1009 34 0 4.92 347 11:19 01.10.2019
987 Clear 8 1009 30 0 2.68 311 10:49 01.10.2019
988 Clear 9 1009 28 0 2.24 329 10:29 01.10.2019
989 Clear 9 1009 27 0 3.58 318 09:57 01.10.2019
990 Clear 9 1009 30 0 1.34 300 09:39 01.10.2019
991 Clear 8 1009 31 0 1.34 257 09:21 01.10.2019
992 Clear 6 1008 39 0 1.21 261.629 08:42 01.10.2019
993 Clear 7 1008 38 0 0.45 328 08:24 01.10.2019
994 Clear 7 1008 37 0 1.21 261.629 07:48 01.10.2019
995 Clear 8 1008 34 0 1.21 261.629 07:25 01.10.2019
996 Clear 9 1008 31 0 0.45 302 06:48 01.10.2019
997 Clear 8 1008 34 0 0.45 5 06:20 01.10.2019
998 Clear 8 1008 34 0 2.61 308.704 05:46 01.10.2019
999 Clear 9 1008 32 0 2.61 308.704 05:18 01.10.2019
1000 Clear 12 1007 26 0 0.45 150 04:30 01.10.2019
1001 Clear 19 1007 16 0 2.68 45 02:29 01.10.2019
1002 Clear 23 1005 8 0 2.22 65.875 01:59 01.10.2019
1003 Clear 23 1005 10 0 2.25 92.883 01:25 01.10.2019
1004 Clear 23 1005 10 0 2.25 92.883 00:40 01.10.2019
1005 Clear 22 1006 14 0 2.84 98.786 00:22 01.10.2019
1006 Clear 22 1006 14 0 2.84 98.786 23:41 30.09.2019
1007 Clear 22 1006 14 0 2.84 98.786 23:41 30.09.2019
1008 Clear 22 1006 14 0 2.84 98.786 23:21 30.09.2019
1009 Clear 18 1008 20 0 1.79 36 22:45 30.09.2019
1010 Clear 18 1008 20 0 1.79 36 22:45 30.09.2019
1011 Clear 19 1009 20 0 2.68 36 22:26 30.09.2019
1012 Clear 18 1009 21 0 2.24 334 21:58 30.09.2019
1013 Clear 18 1009 21 0 2.24 63 21:39 30.09.2019
1014 Clear 19 1009 18 0 2.22 83.72 21:20 30.09.2019
1015 Clear 19 1009 18 0 2.22 83.72 21:20 30.09.2019
1016 Clear 19 1009 18 0 2.22 83.72 20:58 30.09.2019
1017 Clear 16 1010 24 0 2.24 40 20:39 30.09.2019
1018 Clear 19 1010 17 0 2.2 82.959 20:20 30.09.2019
1019 Clear 14 1010 25 0 2.68 27 19:58 30.09.2019
1020 Clear 14 1010 26 0 2.68 352 19:40 30.09.2019
1021 Clear 14 1011 27 0 1.34 2 19:19 30.09.2019
1022 Clear 13 1011 27 0 1.79 12 18:58 30.09.2019
1023 Clear 13 1011 27 0 1.79 12 18:58 30.09.2019
1024 Clear 13 1011 27 0 1.79 12 18:58 30.09.2019
1025 Clear 12 1010 28 0 1.34 50 18:39 30.09.2019
1026 Clear 14 1010 22 0 1.06 145.428 18:20 30.09.2019
1027 Clear 10 1010 33 0 1.34 40 17:54 30.09.2019
1028 Clear 9 1010 36 0 0.89 30 17:36 30.09.2019
1029 Clear 7 1010 42 0 0.89 50 17:18 30.09.2019
1030 Clear 1 1010 55 0 1.06 145.428 16:41 30.09.2019
1031 Clear 1 1010 55 0 1.06 145.428 16:41 30.09.2019
1032 Clear 1 1010 55 0 1.06 145.428 16:41 30.09.2019
1033 Clear 0 1009 55 0 1.06 145.428 16:19 30.09.2019
1034 Clear 0 1009 52 0 1.06 145.428 15:59 30.09.2019
1035 Clear 0 1009 52 0 1.06 145.428 15:38 30.09.2019
1036 Clear 1 1009 50 0 0.29 88.229 15:19 30.09.2019
1037 Clear 1 1009 50 0 0.29 88.229 14:58 30.09.2019
1038 Clear 1 1009 51 0 0.29 88.229 14:38 30.09.2019
1039 Clear 1 1008 50 0 0.29 88.229 14:19 30.09.2019
1040 Clear 2 1008 49 0 0.29 88.229 13:58 30.09.2019
1041 Clear 2 1008 48 0 0.29 88.229 13:40 30.09.2019
1042 Clear 3 1008 47 0 0.45 321 13:21 30.09.2019
1043 Clear 2 1008 48 0 0.45 73 12:44 30.09.2019
1044 Clear 3 1008 45 0 0.52 21.781 12:25 30.09.2019
1045 Clear 3 1008 43 0 1.78 181.804 11:59 30.09.2019
1046 Clear 3 1008 46 0 0.45 15 11:40 30.09.2019
1047 Clear 3 1008 45 0 1.78 181.804 11:21 30.09.2019
1048 Clear 4 1008 43 0 0.45 120 10:56 30.09.2019
1049 Clear 4 1007 45 0 1.78 181.804 10:37 30.09.2019
1050 Clear 3 1007 45 0 0.45 342 10:18 30.09.2019
1051 Clear 4 1007 42 0 1.78 181.804 09:40 30.09.2019
1052 Clear 6 1006 39 0 2.11 196.798 09:22 30.09.2019
1053 Clear 6 1006 39 0 2.11 196.798 08:52 30.09.2019
1054 Clear 6 1006 38 0 0.45 81 08:34 30.09.2019
1055 Clear 6 1006 38 0 2.17 207.912 07:59 30.09.2019
1056 Clear 7 1005 37 0 2.17 207.912 07:40 30.09.2019
1057 Clear 7 1005 35 0 2.17 207.912 07:19 30.09.2019
1058 Clear 8 1005 33 0 0.45 224 06:47 30.09.2019
1059 Clear 9 1005 33 0 2.17 207.912 06:27 30.09.2019
1060 Clear 11 1004 31 0 2.24 166 05:41 30.09.2019
1061 Clear 16 1004 20 0 2.68 215 02:54 30.09.2019
1062 Clear 17 1004 18 0 3.13 207 02:36 30.09.2019
1063 Clear 17 1004 15 0 2.68 235 01:31 30.09.2019
1064 Clear 22 1004 19 0 3.2 111.345 00:38 30.09.2019
1065 Clear 22 1006 22 0 2.67 106.609 00:19 30.09.2019
1066 Clear 22 1006 22 0 2.67 106.609 23:43 29.09.2019
1067 Clear 22 1006 22 0 2.67 106.609 23:21 29.09.2019
1068 Clear 22 1006 22 0 2.67 106.609 23:21 29.09.2019
1069 Clear 21 1005 18 0 2.68 68 22:55 29.09.2019
1070 Clear 20 1005 19 0 1.34 8 22:36 29.09.2019
1071 Clear 20 1005 19 0 0.89 40 22:18 29.09.2019
1072 Clear 20 1005 19 0 2.24 40 21:56 29.09.2019
1073 Clear 19 1006 20 0 1.34 29 21:37 29.09.2019
1074 Clear 20 1009 28 0 2.46 96.312 21:18 29.09.2019
1075 Clear 20 1009 28 0 2.46 96.312 20:43 29.09.2019
1076 Clear 19 1009 26 0 2.35 88.363 20:20 29.09.2019
1077 Clear 19 1009 26 0 2.35 88.363 20:20 29.09.2019
1078 Clear 19 1009 26 0 2.35 88.363 19:58 29.09.2019
1079 Clear 16 1006 26 0 1.79 89 19:37 29.09.2019
1080 Clear 16 1006 26 0 1.34 103 19:19 29.09.2019
1081 Clear 15 1006 25 0 0.89 91 18:56 29.09.2019
1082 Clear 15 1006 25 0 0.89 91 18:56 29.09.2019
1083 Clear 15 1006 25 0 0.89 91 18:56 29.09.2019
1084 Clear 15 1006 25 0 0.89 91 18:56 29.09.2019
1085 Clear 15 1006 25 0 0.89 91 18:56 29.09.2019
1086 Clear 13 1006 27 0 0.89 73 18:37 29.09.2019
1087 Clear 16 1009 34 0 0.2 139.335 18:19 29.09.2019
1088 Clear 16 1009 34 0 0.2 139.335 17:57 29.09.2019
1089 Clear 9 1005 35 0 0.45 339 17:38 29.09.2019
1090 Clear 8 1005 39 0 0.45 272 17:19 29.09.2019
1091 Clear 7 1005 43 0 0.45 272 16:58 29.09.2019
1092 Clear 7 1005 43 0 0.45 272 16:58 29.09.2019
1093 Clear 6 1004 46 0 0.45 302 16:39 29.09.2019
1094 Clear 6 1004 44 0 0.2 139.335 16:19 29.09.2019
1095 Clear 6 1004 38 0 0.45 18 15:56 29.09.2019
1096 Clear 6 1003 40 0 0.45 24 15:36 29.09.2019
1097 Clear 5 1003 43 0 0.89 12 15:18 29.09.2019
1098 Clear 5 1002 47 0 1.47 312.297 14:55 29.09.2019
1099 Clear 6 1002 47 0 0.45 314 14:36 29.09.2019
1100 Clear 7 1001 35 0 1.47 312.297 14:18 29.09.2019
1101 Clear 7 1001 28 0 0.45 24 13:41 29.09.2019
1102 Clear 8 1000 30 0 0.45 131 13:19 29.09.2019
1103 Clear 8 1000 30 0 1.19 354.418 12:58 29.09.2019
1104 Clear 8 1000 31 0 0.45 200 12:40 29.09.2019
1105 Clear 9 1000 33 0 4.02 202 12:21 29.09.2019
1106 Clear 9 1000 33 0 2.24 243 11:57 29.09.2019
1107 Clear 9 1000 34 0 1.79 85 11:39 29.09.2019
1108 Clear 9 1000 33 0 0.89 189 11:18 29.09.2019
1109 Clear 9 1000 35 0 1.34 151 10:57 29.09.2019
1110 Clear 10 999 35 0 4.92 281 10:36 29.09.2019
1111 Clear 11 999 34 0 2.68 216 10:18 29.09.2019
1112 Clear 11 999 36 0 4.02 220 09:45 29.09.2019
1113 Clear 11 998 37 0 3.13 143 09:21 29.09.2019
1114 Clear 11 998 36 0 1.79 182 08:59 29.09.2019
1115 Clear 11 998 34 0 2.24 239 08:39 29.09.2019
1116 Clear 11 998 32 0 4.02 237 08:20 29.09.2019
1117 Clear 12 998 30 0 4.02 130 07:43 29.09.2019
1118 Clear 18 1002 28 0 2.17 223.563 07:24 29.09.2019
1119 Clear 18 1002 28 0 2.17 223.563 06:45 29.09.2019
1120 Clear 13 997 24 0 2.24 182 05:47 29.09.2019
1121 Clear 22 999 21 0 4.52 206.832 04:40 29.09.2019
1122 Clear 15 996 22 0 2.24 225 04:22 29.09.2019
1123 Clear 20 995 8 0 6.71 223 02:51 29.09.2019
1124 Clear 22 994 7 0 5.81 247 02:18 29.09.2019
1125 Clear 22 994 7 0 8.94 223 01:38 29.09.2019
1126 Clear 24 993 6 0 7.15 218 00:53 29.09.2019
1127 Clear 24 993 11 0 7.15 216 00:21 29.09.2019
1128 Clear 24 994 12 0 6.71 208 23:56 28.09.2019
1129 Clear 24 994 15 0 5.81 247 23:37 28.09.2019
1130 Clear 24 994 15 0 4.47 189 23:18 28.09.2019
1131 Clear 24 995 15 0 4.92 255 22:40 28.09.2019
1132 Clear 24 995 25 0 4.47 281 22:21 28.09.2019
1133 Clear 24 995 28 0 5.36 215 21:57 28.09.2019
1134 Clear 24 995 28 0 4.92 232 21:39 28.09.2019
1135 Clear 24 996 29 0 6.26 226 21:21 28.09.2019
1136 Clear 24 996 26 0 6.26 209 20:57 28.09.2019
1137 Clear 24 996 26 0 6.26 209 20:57 28.09.2019
1138 Clear 23 997 29 0 4.02 260 20:38 28.09.2019
1139 Clear 26 1002 35 0 4.28 126.575 20:18 28.09.2019
1140 Clear 26 1002 35 0 4.28 126.575 19:56 28.09.2019
1141 Clear 26 1002 35 0 4.28 126.575 19:56 28.09.2019
1142 Clear 26 1002 35 0 4.28 126.575 19:38 28.09.2019
1143 Clear 26 1002 35 0 4.28 126.575 19:19 28.09.2019
1144 Clear 19 998 51 0 2.24 89 18:54 28.09.2019
1145 Clear 18 997 55 0 1.79 104 18:36 28.09.2019
1146 Clear 18 997 56 0 1.79 81 18:18 28.09.2019
1147 Clear 16 997 61 0 1.79 67 17:54 28.09.2019
1148 Clear 16 998 64 0 1.79 50 17:36 28.09.2019
1149 Clear 14 998 69 0 1.34 32 17:18 28.09.2019
1150 Clear 12 998 77 0 0.45 40 16:41 28.09.2019
1151 Clear 9 998 79 0 3.24 145.442 16:22 28.09.2019
1152 Clear 9 998 75 0 3.24 145.442 15:41 28.09.2019
1153 Clear 11 998 72 0 2.1 151.226 15:23 28.09.2019
1154 Clear 11 997 70 0 2.1 151.226 14:56 28.09.2019
1155 Clear 10 997 76 0 0.89 6 14:38 28.09.2019
1156 Clear 10 997 73 0 2.1 151.226 14:20 28.09.2019
1157 Clear 10 997 71 0 2.1 151.226 13:56 28.09.2019
1158 Clear 10 998 70 0 2.1 151.226 13:37 28.09.2019
1159 Clear 11 998 68 0 1.96 156.778 13:19 28.09.2019
1160 Clear 11 998 67 0 1.96 156.778 12:40 28.09.2019
1161 Clear 11 998 68 0 0.45 297 12:19 28.09.2019
1162 Clear 11 998 67 0 3.07 151.69 11:55 28.09.2019
1163 Clear 12 998 65 0 3.07 151.69 11:36 28.09.2019
1164 Clear 12 999 63 0 3.07 151.69 11:18 28.09.2019
1165 Clear 13 999 59 0 3.07 151.69 10:40 28.09.2019
1166 Clear 13 999 58 0 3.07 151.69 10:20 28.09.2019
1167 Clear 14 999 54 0 3.07 151.69 09:54 28.09.2019
1168 Clear 15 999 53 0 3.07 151.69 09:36 28.09.2019
1169 Clear 16 999 50 0 4.65 150.108 09:18 28.09.2019
1170 Clear 17 999 47 0 0.45 309 08:42 28.09.2019
1171 Clear 18 999 43 0 0.45 193 08:23 28.09.2019
1172 Clear 18 999 43 0 0.45 27 07:45 28.09.2019
1173 Clear 18 999 43 0 0.45 40 07:21 28.09.2019
1174 Clear 19 999 41 0 4.22 142.454 06:53 28.09.2019
1175 Clear 20 999 40 0 4.22 142.454 06:31 28.09.2019
1176 Clear 21 1000 40 0 0.51 110.37 05:55 28.09.2019
1177 Clear 22 1000 38 0 0.89 130 05:20 28.09.2019
1178 Clear 27 1003 33 0 0.51 110.37 04:39 28.09.2019
1179 Clear 27 1003 33 0 0.51 110.37 03:56 28.09.2019
1180 Clear 25 1000 33 0 2.24 240 03:23 28.09.2019
1181 Clear 26 1000 32 0 0.89 175 02:56 28.09.2019
1182 Clear 27 1001 31 0 1.34 197 02:32 28.09.2019
1183 Clear 28 1001 28 0 2.68 186 01:49 28.09.2019
1184 Clear 33 1002 23 0 6 126.27 01:26 28.09.2019
1185 Clear 33 1002 23 0 6 126.27 00:58 28.09.2019
1186 Clear 33 1002 23 0 6 126.27 00:38 28.09.2019
1187 Clear 31 1005 31 0 3.82 124.567 00:18 28.09.2019
1188 Clear 31 1005 31 0 3.82 124.567 23:37 27.09.2019
1189 Clear 31 1005 31 0 3.82 124.567 23:19 27.09.2019
1190 Clear 29 1003 31 0 3.58 40 22:47 27.09.2019
1191 Clear 29 1004 31 0 2.68 2 22:20 27.09.2019
1192 Clear 29 1004 31 0 1.79 83 21:58 27.09.2019
1193 Clear 29 1005 30 0 2.24 22 21:39 27.09.2019
1194 Clear 28 1009 39 0 3.84 124.225 21:20 27.09.2019
1195 Clear 28 1009 39 0 3.84 124.225 20:58 27.09.2019
1196 Clear 29 1009 37 0 3.85 123.707 20:40 27.09.2019
1197 Clear 29 1009 37 0 3.85 123.707 20:19 27.09.2019
1198 Clear 29 1009 37 0 3.85 123.707 19:57 27.09.2019
1199 Clear 27 1006 34 0 1.34 81 19:38 27.09.2019
1200 Clear 27 1006 34 0 1.34 81 19:38 27.09.2019
1201 Clear 26 1007 34 0 0.89 45 19:19 27.09.2019
1202 Clear 26 1007 36 0 0.89 93 18:41 27.09.2019
1203 Clear 25 1011 47 0 1.34 129.806 18:23 27.09.2019
1204 Clear 22 1007 46 0 0.45 36 17:56 27.09.2019
1205 Clear 22 1007 46 0 0.45 36 17:56 27.09.2019
1206 Clear 19 1007 51 0 1.34 129.806 17:37 27.09.2019
1207 Clear 18 1007 57 0 1.34 129.806 17:19 27.09.2019
1208 Clear 16 1007 62 0 1.34 129.806 16:57 27.09.2019
1209 Clear 12 1007 76 0 1.34 129.806 16:37 27.09.2019
1210 Clear 12 1007 76 0 1.34 129.806 16:18 27.09.2019
1211 Clear 12 1007 76 0 1.34 129.806 16:18 27.09.2019
1212 Clear 12 1007 76 0 1.34 129.806 16:18 27.09.2019
1213 Clear 11 1006 75 0 1.34 129.806 15:45 27.09.2019
1214 Clear 12 1007 72 0 1.41 166.517 15:21 27.09.2019
1215 Clear 12 1007 72 0 1.41 166.517 15:21 27.09.2019
1216 Clear 12 1006 72 0 1.41 166.517 14:59 27.09.2019
1217 Clear 12 1006 73 0 1.41 166.517 14:40 27.09.2019
1218 Clear 12 1006 70 0 1.41 166.517 14:21 27.09.2019
1219 Clear 12 1006 69 0 1.41 166.517 13:58 27.09.2019
1220 Clear 13 1006 67 0 1.41 166.517 13:39 27.09.2019
1221 Clear 13 1006 66 0 1.46 159.573 13:21 27.09.2019
1222 Clear 13 1006 66 0 1.46 159.573 13:21 27.09.2019
1223 Clear 13 1006 68 0 1.46 159.573 12:54 27.09.2019
1224 Clear 13 1006 66 0 1.64 145.464 12:24 27.09.2019
1225 Clear 13 1006 65 0 1.64 145.464 11:59 27.09.2019
1226 Clear 13 1006 63 0 1.64 145.464 11:38 27.09.2019
1227 Clear 13 1007 63 0 1.64 145.464 11:20 27.09.2019
1228 Clear 13 1007 63 0 1.64 145.464 11:20 27.09.2019
1229 Clear 14 1007 61 0 1.64 145.464 10:43 27.09.2019
1230 Clear 14 1007 59 0 1.64 145.464 10:23 27.09.2019
1231 Clear 15 1007 58 0 1.64 145.464 09:58 27.09.2019
1232 Clear 15 1007 58 0 1.64 145.464 09:58 27.09.2019
1233 Clear 15 1006 58 0 1.64 145.464 09:40 27.09.2019
1234 Clear 16 1007 57 0 1.82 208.497 09:20 27.09.2019
1235 Clear 16 1007 57 0 1.82 208.497 08:42 27.09.2019
1236 Clear 16 1007 55 0 1.82 214.161 08:22 27.09.2019
1237 Clear 17 1007 53 0 1.82 214.161 07:58 27.09.2019
1238 Clear 18 1007 50 0 1.82 214.161 07:39 27.09.2019
1239 Clear 18 1007 49 0 1.82 214.161 07:20 27.09.2019
1240 Clear 19 1007 45 0 1.82 214.161 06:40 27.09.2019
1241 Clear 20 1007 45 0 1.79 149 06:22 27.09.2019
1242 Clear 21 1007 44 0 1.34 124 05:49 27.09.2019
1243 Clear 21 1007 43 0 1.34 108 05:30 27.09.2019
1244 Clear 29 1010 28 0 2.61 159.47 03:52 27.09.2019
1245 Clouds 27 1006 30 0 2.24 195 01:58 27.09.2019
1246 Clouds 27 1006 30 0 2.24 195 01:58 27.09.2019
1247 Clouds 33 1008 22 0 6.54 132.582 01:35 27.09.2019
1248 Clouds 33 1008 22 0 6.54 132.582 00:44 27.09.2019
1249 Clouds 33 1010 23 0 5.11 128.529 00:19 27.09.2019
1250 Clouds 33 1010 23 0 5.11 128.529 23:55 26.09.2019
1251 Clouds 33 1010 23 0 5.11 128.529 23:37 26.09.2019
1252 Clouds 33 1010 23 0 5.11 128.529 23:18 26.09.2019
1253 Clouds 31 1007 26 0 1.79 91 22:55 26.09.2019
1254 Clouds 31 1007 27 0 1.34 62 22:36 26.09.2019
1255 Clouds 30 1008 28 0 1.34 50 22:18 26.09.2019
1256 Clouds 27 1008 32 0 1.79 29 21:54 26.09.2019
1257 Clouds 27 1009 32 0 1.34 77 21:36 26.09.2019
1258 Clouds 30 1012 29 0 3.67 128.22 21:18 26.09.2019
1259 Clouds 30 1012 31 0 2.65 116.42 20:55 26.09.2019
1260 Clouds 30 1012 31 0 2.65 116.42 20:37 26.09.2019
1261 Clouds 30 1012 31 0 2.65 116.42 20:19 26.09.2019
1262 Clouds 30 1012 31 0 2.65 116.42 20:19 26.09.2019
1263 Clouds 27 1009 32 0 1.34 50 19:40 26.09.2019
1264 Clouds 26 1009 32 0 0.45 29 19:18 26.09.2019
1265 Clouds 26 1009 32 0 0.89 12 18:58 26.09.2019
1266 Clouds 24 1010 36 0 0.89 68 18:39 26.09.2019
1267 Clouds 23 1009 39 0 0.89 29 18:21 26.09.2019
1268 Clouds 21 1009 42 0 0.89 92 17:39 26.09.2019
1269 Clouds 20 1009 46 0 0.89 30 17:19 26.09.2019
1270 Clouds 20 1009 46 0 0.89 30 17:19 26.09.2019
1271 Clouds 18 1009 47 0 1.39 99.048 16:59 26.09.2019
1272 Clouds 16 1009 56 0 1.39 99.048 16:39 26.09.2019
1273 Clouds 14 1009 56 0 1.39 99.048 16:20 26.09.2019
1274 Clouds 14 1009 60 0 0.45 58 15:58 26.09.2019
1275 Clouds 14 1008 52 0 0.45 310 15:38 26.09.2019
1276 Clouds 14 1008 52 0 0.45 310 15:19 26.09.2019
1277 Clouds 14 1008 49 0 2.79 114.992 14:57 26.09.2019
1278 -273 0 0 0 0 0 14:37 26.09.2019
1279 Clouds 16 1008 46 0 2.79 114.992 14:19 26.09.2019
1280 Clouds 16 1007 42 0 2.79 114.992 13:41 26.09.2019
1281 Clouds 16 1007 42 0 2.79 114.992 13:41 26.09.2019
1282 Clouds 17 1007 38 0 3.25 123.959 13:20 26.09.2019
1283 Clouds 17 1008 37 0 3.25 123.959 12:59 26.09.2019
1284 Clouds 17 1008 37 0 3.25 123.959 12:59 26.09.2019
1285 Clouds 18 1007 36 0 3.25 123.959 12:41 26.09.2019
1286 Clouds 19 1007 33 0 0.9 129.609 12:20 26.09.2019
1287 Clouds 26 1010 21 0 0.9 129.609 11:42 26.09.2019
1288 Clouds 21 1007 30 0 0.45 329 11:23 26.09.2019
1289 Clouds 21 1007 29 0 0.45 355 10:57 26.09.2019
1290 Clouds 21 1007 29 0 0.45 355 10:57 26.09.2019
1291 Clouds 21 1007 30 0 0.89 32 10:39 26.09.2019
1292 Clouds 21 1007 32 0 0.89 31 10:20 26.09.2019
1293 Clouds 19 1006 34 0 0.9 129.609 09:45 26.09.2019
1294 Clouds 18 1006 35 0 0.45 25 09:26 26.09.2019
1295 Clouds 19 1006 35 0 0.87 139.563 08:59 26.09.2019
1296 Clouds 19 1006 35 0 1.5 123.278 08:41 26.09.2019
1297 Clouds 19 1006 33 0 1.5 123.278 08:23 26.09.2019
1298 Clouds 21 1006 31 0 1.5 123.278 07:44 26.09.2019
1299 Clouds 20 1006 32 0 0.45 131 07:22 26.09.2019
1300 Clouds 20 1006 32 0 1.5 123.278 06:50 26.09.2019
1301 Clouds 20 1006 32 0 1.5 123.278 06:27 26.09.2019
1302 Clear 21 1005 31 0 1.13 280.682 05:51 26.09.2019
1303 Clear 21 1005 31 0 1.13 280.682 05:25 26.09.2019
1304 Clouds 29 1004 19 0 0.45 68 03:18 26.09.2019
1305 Clouds 36 1008 13 0 2.12 315.726 01:55 26.09.2019
1306 Clouds 36 1008 13 0 2.12 315.726 01:55 26.09.2019
1307 Clouds 36 1008 13 0 2.12 315.726 01:37 26.09.2019
1308 Clouds 36 1008 13 0 2.36 313.658 01:19 26.09.2019
1309 Clouds 36 1008 13 0 2.36 313.658 00:41 26.09.2019
1310 Clear 35 1010 15 0 1.41 309.79 00:21 26.09.2019
1311 Clear 35 1010 15 0 1.41 309.79 23:43 25.09.2019
1312 Clear 35 1010 15 0 1.41 309.79 23:19 25.09.2019
1313 Clear 35 1010 15 0 1.41 309.79 22:54 25.09.2019
1314 Clear 34 1006 15 0 2.24 84 22:36 25.09.2019
1315 Clear 33 1006 15 0 1.34 16 22:18 25.09.2019
1316 Clear 33 1007 16 0 0.89 322 21:55 25.09.2019
1317 Clear 33 1007 15 0 1.34 45 21:36 25.09.2019
1318 Clear 33 1012 16 0 2.35 342.831 21:18 25.09.2019
1319 Clear 33 1012 16 0 2.35 342.831 20:55 25.09.2019
1320 Clear 33 1012 17 0 2.65 339.943 20:37 25.09.2019
1321 Clear 33 1012 17 0 2.65 339.943 20:18 25.09.2019
1322 Clear 29 1009 18 0 4.02 333 19:38 25.09.2019
1323 Clear 28 1009 19 0 3.13 20 19:20 25.09.2019
1324 Clear 28 1009 19 0 2.24 334 18:56 25.09.2019
1325 Clear 27 1009 20 0 3.13 333 18:37 25.09.2019
1326 Clear 27 1009 20 0 3.13 333 18:37 25.09.2019
1327 Clear 28 1013 20 0 1.79 300.174 18:18 25.09.2019
1328 Clear 23 1009 24 0 1.34 326 17:40 25.09.2019
1329 Clear 22 1009 25 0 4.47 331 17:21 25.09.2019
1330 Clear 21 1009 27 0 2.68 322 16:57 25.09.2019
1331 Clear 19 1009 29 0 2.24 333 16:38 25.09.2019
1332 Clear 18 1009 30 0 2.24 341 16:19 25.09.2019
1333 Clear 18 1009 30 0 2.24 306 15:55 25.09.2019
1334 Clear 18 1009 30 0 1.79 304 15:36 25.09.2019
1335 Clear 18 1009 29 0 1.79 329 15:18 25.09.2019
1336 Clear 19 1008 29 0 3.13 321 14:41 25.09.2019
1337 Clear 19 1008 29 0 3.13 4 14:22 25.09.2019
1338 Clear 18 1008 29 0 3.13 338 13:57 25.09.2019
1339 Clear 18 1008 29 0 3.13 338 13:57 25.09.2019
1340 Clear 19 1008 28 0 2.24 298 13:39 25.09.2019
1341 Clear 19 1008 27 0 2.68 333 13:20 25.09.2019
1342 Clear 19 1008 27 0 2.24 326 12:44 25.09.2019
1343 Clear 19 1008 27 0 2.24 326 12:44 25.09.2019
1344 Clear 20 1008 26 0 2.24 343 12:25 25.09.2019
1345 Clear 21 1008 25 0 2.68 324 11:59 25.09.2019
1346 Clear 21 1008 25 0 1.79 318 11:40 25.09.2019
1347 Clear 22 1008 23 0 2.68 322 11:20 25.09.2019
1348 Clear 22 1009 23 0 3.13 332 10:47 25.09.2019
1349 Clear 22 1008 22 0 3.58 352 10:27 25.09.2019
1350 Clear 22 1008 22 0 3.58 352 09:59 25.09.2019
1351 Clear 22 1008 22 0 3.58 352 09:59 25.09.2019
1352 Clear 22 1008 22 0 3.58 352 09:59 25.09.2019
1353 Clear 22 1009 21 0 3.13 331 09:40 25.09.2019
1354 Clear 22 1009 21 0 3.13 345 09:22 25.09.2019
1355 Clear 23 1009 19 0 2.24 314 08:57 25.09.2019
1356 Clear 23 1009 19 0 4.02 349 08:39 25.09.2019
1357 Clear 23 1009 19 0 2.68 324 08:19 25.09.2019
1358 Clear 23 1010 18 0 2.68 360 07:40 25.09.2019
1359 Clear 23 1009 16 0 2.24 311 07:22 25.09.2019
1360 Clear 28 1013 17 0 1.86 284.253 06:55 25.09.2019
1361 Clear 28 1013 17 0 1.86 284.253 06:33 25.09.2019
1362 Clear 24 1010 15 0 2.68 349 05:43 25.09.2019
1363 Clear 24 1010 15 0 1.79 345 04:58 25.09.2019
1364 Clear 36 1011 8 0 6.46 319.449 02:32 25.09.2019
1365 Clear 36 1011 8 0 7 319.818 01:29 25.09.2019
1366 Clear 36 1011 8 0 7 319.818 00:38 25.09.2019
1367 Clear 35 1014 10 0 7.25 315.839 00:20 25.09.2019
1368 Clear 35 1014 10 0 7.25 315.839 23:42 24.09.2019
1369 Clear 35 1014 10 0 7.25 315.839 23:22 24.09.2019
1370 Clear 35 1014 10 0 7.25 315.839 22:58 24.09.2019
1371 Clear 31 1012 13 0 1.34 62 22:38 24.09.2019
1372 Clear 30 1013 14 0 4.92 349 22:18 24.09.2019
1373 Clear 30 1013 14 0 2.24 358 21:55 24.09.2019
1374 Clear 30 1013 14 0 2.24 358 21:55 24.09.2019
1375 Clear 30 1013 14 0 3.13 40 21:37 24.09.2019
1376 Clear 30 1013 14 0 3.13 40 21:37 24.09.2019
1377 Clear 31 1017 14 0 3.22 324.105 21:18 24.09.2019
1378 Clear 31 1017 14 0 3.22 324.105 21:18 24.09.2019
1379 Clear 31 1017 14 0 3.22 324.105 20:56 24.09.2019
1380 Clear 31 1017 14 0 3.22 324.105 20:56 24.09.2019
1381 Clear 31 1017 14 0 3.22 324.105 20:38 24.09.2019
1382 Clear 31 1017 14 0 3.22 324.105 20:19 24.09.2019
1383 Clear 27 1015 17 0 3.13 343 19:42 24.09.2019
1384 Clear 26 1015 19 0 4.02 337 19:20 24.09.2019
1385 Clear 25 1015 19 0 4.02 312 18:58 24.09.2019
1386 Clear 24 1015 20 0 4.92 318 18:39 24.09.2019
1387 Clear 26 1019 17 0 1.78 292.077 18:20 24.09.2019
1388 Clear 26 1019 17 0 1.78 292.077 18:20 24.09.2019
1389 Clear 22 1015 22 0 3.58 326 17:57 24.09.2019
1390 Clear 19 1015 26 0 1.79 310 17:38 24.09.2019
1391 Clear 18 1015 28 0 1.79 313 17:20 24.09.2019
1392 Clear 17 1015 30 0 2.68 323 16:43 24.09.2019
1393 Clear 16 1014 32 0 2.68 322 16:21 24.09.2019
1394 Clear 16 1014 32 0 1.79 349 15:59 24.09.2019
1395 Clear 16 1014 31 0 1.79 315 15:41 24.09.2019
1396 Clear 17 1014 29 0 1.34 274 15:23 24.09.2019
1397 Clear 17 1014 28 0 1.79 306 14:41 24.09.2019
1398 Clear 18 1013 27 0 1.79 310 14:20 24.09.2019
1399 Clear 18 1013 26 0 2.24 336 13:55 24.09.2019
1400 Clear 18 1013 26 0 2.24 336 13:55 24.09.2019
1401 Clear 18 1013 26 0 2.68 334 13:37 24.09.2019
1402 Clear 18 1013 26 0 2.68 336 13:18 24.09.2019
1403 Clear 19 1013 25 0 4.02 354 12:39 24.09.2019
1404 Clear 19 1013 25 0 3.13 330 12:19 24.09.2019
1405 Clear 19 1013 25 0 4.02 341 11:43 24.09.2019
1406 Clear 19 1013 25 0 4.02 341 11:43 24.09.2019
1407 Clear 19 1013 24 0 4.47 301 11:22 24.09.2019
1408 Clear 19 1013 24 0 4.92 345 10:58 24.09.2019
1409 Clear 19 1013 24 0 4.92 339 10:39 24.09.2019
1410 Clear 19 1013 23 0 4.92 360 10:20 24.09.2019
1411 Clear 19 1013 23 0 3.13 329 09:46 24.09.2019
1412 Clear 19 1013 22 0 4.02 306 09:28 24.09.2019
1413 Clear 19 1013 22 0 3.58 330 08:58 24.09.2019
1414 Clear 19 1013 21 0 3.58 333 08:40 24.09.2019
1415 Clear 19 1013 21 0 3.58 333 08:40 24.09.2019
1416 Clear 19 1013 21 0 3.58 333 08:22 24.09.2019
1417 Clear 19 1013 21 0 3.58 333 07:57 24.09.2019
1418 Clear 19 1013 20 0 3.58 349 07:38 24.09.2019
1419 Clear 20 1013 20 0 1.34 333 07:19 24.09.2019
1420 Clear 24 1015 28 0 1.07 287.008 06:37 24.09.2019
1421 Clouds 21 1012 20 0 2.24 350 06:19 24.09.2019
1422 Clouds 21 1012 19 0 1.79 348 05:21 24.09.2019
1423 Clouds 26 1014 22 0 1.5 63.64 03:46 24.09.2019
1424 Clouds 24 1010 15 0 3.13 358 03:25 24.09.2019
1425 Clear 33 1011 10 0 4.83 340.024 02:44 24.09.2019
1426 Clear 33 1011 10 0 4.83 340.024 01:41 24.09.2019
1427 Clear 26 1010 15 0 1.34 360 00:41 24.09.2019
1428 Clear 32 1012 11 0 1.27 15.635 00:22 24.09.2019
1429 Clear 32 1012 11 0 1.27 15.635 23:42 23.09.2019
1430 Clear 32 1012 11 0 1.27 15.635 23:23 23.09.2019
1431 Clear 32 1012 11 0 1.27 15.635 22:41 23.09.2019
1432 Clear 32 1012 11 0 1.27 15.635 22:22 23.09.2019
1433 Clear 32 1012 11 0 1.27 15.635 21:59 23.09.2019
1434 Clear 29 1010 13 0 1.79 350 21:41 23.09.2019
1435 Clear 29 1010 13 0 1.79 350 21:41 23.09.2019
1436 Clouds 29 1013 14 0 1.42 55.504 21:20 23.09.2019
1437 Clouds 29 1013 14 0 1.42 55.504 20:59 23.09.2019
1438 Clouds 29 1013 14 0 1.21 42.613 20:40 23.09.2019
1439 Clouds 29 1013 14 0 1.21 42.613 20:19 23.09.2019
1440 Clouds 26 1011 17 0 0.89 56 19:40 23.09.2019
1441 Clouds 26 1011 17 0 0.89 56 19:40 23.09.2019
1442 Clouds 26 1011 17 0 1.79 68 19:22 23.09.2019
1443 Clouds 25 1011 18 0 0.89 359 18:59 23.09.2019
1444 Clouds 24 1011 19 0 0.89 50 18:41 23.09.2019
1445 Clouds 25 1013 18 0 0.59 139.473 18:19 23.09.2019
1446 Clouds 25 1013 18 0 0.59 139.473 18:19 23.09.2019
1447 Clouds 25 1013 18 0 0.59 139.473 17:57 23.09.2019
1448 Clouds 18 1010 26 0 0.45 258 17:39 23.09.2019
1449 Clouds 18 1010 26 0 0.45 258 17:39 23.09.2019
1450 Clouds 16 1010 30 0 0.59 139.473 17:20 23.09.2019
1451 Clouds 14 1010 35 0 0.59 139.473 16:57 23.09.2019
1452 Clouds 12 1010 40 0 0.59 139.473 16:36 23.09.2019
1453 Clouds 12 1010 36 0 0.59 139.473 16:18 23.09.2019
1454 Clouds 12 1010 35 0 0.59 139.473 15:56 23.09.2019
1455 Clouds 13 1010 34 0 0.59 139.473 15:38 23.09.2019
1456 Clouds 13 1010 34 0 0.59 139.473 15:38 23.09.2019
1457 Clouds 13 1009 33 0 0.86 334.364 15:18 23.09.2019
1458 Clouds 13 1009 33 0 0.86 334.364 15:18 23.09.2019
1459 Clouds 14 1009 33 0 0.86 334.364 14:40 23.09.2019
1460 Clouds 13 1008 33 0 0.89 87 14:20 23.09.2019
1461 Clouds 13 1008 34 0 0.45 28 13:59 23.09.2019
1462 Clouds 13 1008 34 0 0.86 334.364 13:38 23.09.2019
1463 Clouds 13 1008 34 0 1.04 313.479 13:18 23.09.2019
1464 Clouds 14 1008 31 0 1.04 313.479 12:54 23.09.2019
1465 Clouds 15 1008 30 0 1.04 313.479 12:36 23.09.2019
1466 Clouds 16 1008 29 0 0.16 105.385 12:18 23.09.2019
1467 Clouds 16 1009 30 0 0.45 203 11:43 23.09.2019
1468 Clouds 15 1009 30 0 0.89 232 11:24 23.09.2019
1469 Clouds 16 1009 29 0 0.16 105.385 10:49 23.09.2019
1470 Clouds 16 1009 29 0 0.89 149 10:22 23.09.2019
1471 Clouds 17 1010 27 0 0.45 12 09:59 23.09.2019
1472 Clouds 22 1012 20 0 0.16 105.385 09:38 23.09.2019
1473 Clouds 17 1010 27 0 0.45 140 09:20 23.09.2019
1474 Clouds 17 1010 27 0 1.51 182.462 08:50 23.09.2019
1475 Clouds 17 1011 27 0 1.34 250 08:30 23.09.2019
1476 Clouds 18 1011 25 0 0.45 280 07:58 23.09.2019
1477 Clouds 18 1011 25 0 0.45 280 07:58 23.09.2019
1478 Clouds 24 1012 16 0 1.37 182.639 07:31 23.09.2019
1479 Clouds 24 1012 16 0 1.37 182.639 06:42 23.09.2019
1480 Clouds 19 1011 20 0 0.45 198 05:57 23.09.2019
1481 Clouds 20 1011 19 0 2.24 216 05:22 23.09.2019
1482 Clouds 21 1011 17 0 1.79 146 04:55 23.09.2019
1483 Clouds 22 1011 14 0 1.79 206 03:54 23.09.2019
1484 Clouds 26 1011 12 0 2.68 230 01:22 23.09.2019
1485 Clouds 26 1011 12 0 2.68 230 01:22 23.09.2019
1486 Clouds 26 1011 11 0 3.13 187 00:23 23.09.2019
1487 Clouds 26 1011 11 0 3.58 239 23:57 22.09.2019
1488 Clouds 25 1012 11 0 3.13 211 23:33 22.09.2019
1489 Clouds 25 1012 11 0 3.13 211 23:33 22.09.2019
1490 Clouds 26 1012 10 0 3.58 208 22:59 22.09.2019
1491 Clouds 26 1012 11 0 2.68 231 22:41 22.09.2019
1492 Clouds 26 1012 11 0 2.68 231 22:41 22.09.2019
1493 Clouds 26 1012 11 0 2.68 189 22:23 22.09.2019
1494 Clouds 26 1012 11 0 2.68 189 22:23 22.09.2019
1495 Clouds 25 1013 11 0 2.68 190 21:59 22.09.2019
1496 Clouds 26 1013 12 0 1.34 252 21:39 22.09.2019
1497 Clouds 26 1013 11 0 2.24 141 21:19 22.09.2019
1498 Clouds 26 1014 11 0 3.13 240 20:43 22.09.2019
1499 Clouds 29 1015 10 0 1.97 80.801 20:24 22.09.2019
1500 Clouds 29 1015 10 0 1.97 80.801 19:56 22.09.2019
1501 Clouds 24 1014 13 0 3.13 156 19:38 22.09.2019
1502 Clouds 24 1014 13 0 3.13 156 19:38 22.09.2019
1503 Clouds 23 1014 14 0 2.68 156 19:19 22.09.2019
1504 Clouds 23 1014 14 0 2.24 201 18:57 22.09.2019
1505 Clouds 23 1014 14 0 1.79 135 18:37 22.09.2019
1506 Clear 25 1015 13 0 0.37 171.607 18:18 22.09.2019
1507 Clear 20 1014 19 0 0.45 258 17:42 22.09.2019
1508 Clear 16 1014 28 0 0.37 171.607 17:24 22.09.2019
1509 Clear 14 1014 32 0 0.37 171.607 16:56 22.09.2019
1510 Clear 9 1014 42 0 0.37 171.607 16:38 22.09.2019
1511 Clear 8 1014 45 0 0.37 171.607 16:19 22.09.2019
1512 Clear 25 1015 13 0 0.37 171.607 15:43 22.09.2019
1513 Clear 7 1013 42 0 0.37 171.607 15:25 22.09.2019
1514 Clear 7 1013 43 0 0.23 213.553 14:55 22.09.2019
1515 Clear 7 1013 42 0 0.23 213.553 14:36 22.09.2019
1516 Clear 7 1013 42 0 0.23 213.553 14:36 22.09.2019
1517 Clear 8 1013 41 0 0.23 213.553 14:18 22.09.2019
1518 Clear 8 1013 40 0 0.23 213.553 13:41 22.09.2019
1519 Clear 8 1013 40 0 0.19 243.572 13:23 22.09.2019
1520 Clear 8 1013 39 0 0.19 243.572 12:57 22.09.2019
1521 Clear 8 1013 39 0 0.19 243.572 12:38 22.09.2019
1522 Clear 9 1013 39 0 0.47 267.825 12:18 22.09.2019
1523 Clear 9 1013 39 0 0.47 267.825 12:18 22.09.2019
1524 Clear 9 1013 38 0 0.47 267.825 11:55 22.09.2019
1525 Clear 9 1013 37 0 0.47 267.825 11:36 22.09.2019
1526 Clear 9 1013 37 0 0.47 267.825 11:18 22.09.2019
1527 Clear 9 1013 36 0 0.47 267.825 10:42 22.09.2019
1528 Clear 10 1013 35 0 0.47 267.825 10:20 22.09.2019
1529 Clear 10 1013 35 0 0.47 267.825 10:20 22.09.2019
1530 Clear 10 1013 35 0 0.47 267.825 09:43 22.09.2019
1531 Clear 10 1013 35 0 0.47 267.825 09:43 22.09.2019
1532 Clear 11 1013 34 0 0.68 236.193 09:22 22.09.2019
1533 Clear 11 1013 34 0 0.68 236.193 08:58 22.09.2019
1534 Clear 11 1013 33 0 0.68 234.433 08:40 22.09.2019
1535 Clear 11 1014 32 0 0.68 234.433 08:22 22.09.2019
1536 Clear 12 1014 30 0 0.68 234.433 07:44 22.09.2019
1537 Clear 12 1014 30 0 0.68 234.433 07:44 22.09.2019
1538 Clear 13 1014 28 0 0.68 234.433 07:26 22.09.2019
1539 Clear 14 1014 26 0 0.68 234.433 06:58 22.09.2019
1540 Clear 16 1014 24 0 0.68 234.433 06:34 22.09.2019
1541 Clear 18 1012 20 0 0.89 94 04:41 22.09.2019
1542 Clear 30 1012 10 0 1.21 8.023 02:45 22.09.2019
1543 Clear 30 1012 10 0 1.21 8.023 02:24 22.09.2019
1544 Clear 30 1012 10 0 1.21 8.023 01:38 22.09.2019
1545 Clear 30 1012 9 0 1.43 3.211 00:46 22.09.2019
1546 Clear 30 1012 9 0 1.43 3.211 00:27 22.09.2019
1547 Clear 29 1013 11 0 2.04 352.844 23:54 21.09.2019
1548 Clear 29 1013 11 0 2.04 352.844 23:36 21.09.2019
1549 Clear 28 1013 13 0 1.34 81 22:46 21.09.2019
1550 Clear 27 1013 14 0 0.89 102 22:25 21.09.2019
1551 Clear 26 1013 15 0 0.45 258 21:59 21.09.2019
1552 Clear 26 1013 15 0 0.45 258 21:59 21.09.2019
1553 Clear 24 1014 18 0 0.89 260 21:41 21.09.2019
1554 Clear 26 1015 12 0 2.19 345.431 21:19 21.09.2019
1555 Clear 26 1015 12 0 2.19 345.431 20:56 21.09.2019
1556 Clear 22 1014 20 0 1.79 263 20:36 21.09.2019
1557 Clear 26 1016 12 0 2.44 331.756 20:18 21.09.2019
1558 Clear 22 1015 21 0 1.79 247 19:45 21.09.2019
1559 Clear 21 1015 22 0 2.24 328 19:21 21.09.2019
1560 Clear 19 1015 25 0 1.34 339 18:41 21.09.2019
1561 Clear 18 1015 27 0 0.89 323 18:22 21.09.2019
1562 Clear 17 1015 30 0 0.89 326 17:43 21.09.2019
1563 Clear 14 1015 33 0 2.24 283 17:24 21.09.2019
1564 Clear 14 1015 34 0 2.68 243 16:58 21.09.2019
1565 Clear 13 1014 35 0 2.68 342 16:39 21.09.2019
1566 Clear 13 1014 36 0 2.68 9 16:20 21.09.2019
1567 Clear 12 1014 36 0 2.24 283 15:45 21.09.2019
1568 Clear 12 1014 36 0 3.13 266 15:23 21.09.2019
1569 Clear 12 1013 37 0 2.68 295 14:50 21.09.2019
1570 Clear 12 1013 36 0 1.79 331 14:32 21.09.2019
1571 Clear 12 1013 36 0 2.24 339 13:55 21.09.2019
1572 Clear 12 1013 36 0 1.79 343 13:37 21.09.2019
1573 Clear 9 1013 42 0 0.89 316 13:18 21.09.2019
1574 Clear 8 1013 46 0 0.77 334.132 12:55 21.09.2019
1575 Clear 8 1013 45 0 0.77 334.132 12:37 21.09.2019
1576 Clear 8 1013 45 0 0.19 316.536 12:19 21.09.2019
1577 Clear 8 1013 45 0 0.19 316.536 12:19 21.09.2019
1578 Clear 9 1013 43 0 0.19 316.536 11:43 21.09.2019
1579 Clear 9 1013 42 0 0.19 316.536 11:24 21.09.2019
1580 Clear 9 1013 42 0 0.19 316.536 11:24 21.09.2019
1581 Clear 9 1013 42 0 0.19 316.536 11:24 21.09.2019
1582 Clear 8 1013 45 0 0.19 316.536 10:54 21.09.2019
1583 Clear 8 1013 44 0 0.19 316.536 10:36 21.09.2019
1584 Clear 9 1013 42 0 0.19 316.536 10:18 21.09.2019
1585 Clear 9 1013 41 0 0.19 316.536 09:40 21.09.2019
1586 Clear 9 1012 42 0 0.56 247.443 09:21 21.09.2019
1587 Clear 10 1012 39 0 0.56 247.443 08:52 21.09.2019
1588 Clear 10 1012 40 0 0.54 247.265 08:29 21.09.2019
1589 Clear 11 1012 37 0 0.54 247.265 07:43 21.09.2019
1590 Clear 12 1012 35 0 0.54 247.265 07:24 21.09.2019
1591 Clear 12 1012 33 0 0.54 247.265 06:59 21.09.2019
1592 Clear 12 1012 33 0 0.54 247.265 06:59 21.09.2019
1593 Clear 14 1012 30 0 0.54 247.265 06:34 21.09.2019
1594 Clear 15 1012 29 0 1.26 193.904 05:51 21.09.2019
1595 Clear 17 1011 21 0 0.45 31 04:37 21.09.2019
1596 Clear 21 1010 15 0 0.89 86 03:22 21.09.2019
1597 Clear 28 1010 11 0 1.26 10.934 02:22 21.09.2019
1598 Clear 28 1010 11 0 1.26 10.934 01:46 21.09.2019
1599 Clear 28 1010 11 0 1.26 10.934 00:58 21.09.2019
1600 Clear 26 1012 14 0 1.67 340.503 00:22 21.09.2019
1601 Clear 26 1012 14 0 1.67 340.503 23:48 20.09.2019
1602 Clear 26 1012 14 0 1.67 340.503 23:29 20.09.2019
1603 Clear 24 1011 19 0 0.89 156 22:44 20.09.2019
1604 Clear 24 1012 19 0 1.34 83 22:25 20.09.2019
1605 Clear 25 1012 19 0 0.89 100 21:57 20.09.2019
1606 Clear 23 1012 22 0 1.34 11 21:39 20.09.2019
1607 Clear 23 1014 19 0 2.28 316.567 21:20 20.09.2019
1608 Clear 23 1014 19 0 2.28 316.567 20:59 20.09.2019
1609 Clear 23 1014 19 0 2.28 316.567 20:59 20.09.2019
1610 Clear 23 1014 19 0 2.25 319.263 20:41 20.09.2019
1611 Clear 23 1014 19 0 2.25 319.263 20:20 20.09.2019
1612 Clear 18 1012 29 0 0.89 341 19:56 20.09.2019
1613 Clear 18 1012 30 0 1.79 202 19:36 20.09.2019
1614 Clear 17 1012 31 0 1.34 247 19:18 20.09.2019
1615 Clear 16 1012 34 0 1.34 253 18:39 20.09.2019
1616 Clear 15 1012 35 0 0.89 332 18:20 20.09.2019
1617 Clear 14 1012 37 0 0.45 309 17:56 20.09.2019
1618 Clear 13 1012 40 0 1.34 251 17:38 20.09.2019
1619 Clear 12 1012 42 0 1.34 244 17:18 20.09.2019
1620 Clear 10 1011 49 0 1.34 338 16:38 20.09.2019
1621 Clear 9 1011 51 0 1.34 338 16:19 20.09.2019
1622 Clear 8 1011 53 0 2.24 348 15:42 20.09.2019
1623 Clear 9 1010 52 0 1.34 331 15:23 20.09.2019
1624 Clear 9 1010 51 0 0.89 297 14:56 20.09.2019
1625 Clear 9 1010 51 0 1.34 316 14:38 20.09.2019
1626 Clear 9 1010 51 0 1.34 332 14:18 20.09.2019
1627 Clear 9 1009 48 0 1.79 274 13:44 20.09.2019
1628 Clear 9 1009 48 0 1.79 317 13:25 20.09.2019
1629 Clear 10 1009 47 0 1.79 250 12:56 20.09.2019
1630 Clear 10 1009 45 0 2.24 283 12:36 20.09.2019
1631 Clear 10 1009 45 0 1.34 297 12:18 20.09.2019
1632 Clear 11 1009 45 0 0.89 279 11:44 20.09.2019
1633 Clear 11 1009 44 0 1.79 263 11:19 20.09.2019
1634 Clear 11 1009 45 0 1.34 318 10:43 20.09.2019
1635 Clear 11 1009 44 0 1.79 289 10:23 20.09.2019
1636 Clear 12 1008 43 0 0.89 210 09:39 20.09.2019
1637 Clouds 12 1008 42 0 0.89 257 09:19 20.09.2019
1638 Clouds 12 1008 40 0 0.89 318 08:59 20.09.2019
1639 Clouds 12 1008 40 0 0.89 318 08:59 20.09.2019
1640 Clouds 13 1008 36 0 2.68 344 08:40 20.09.2019
1641 Clouds 13 1008 36 0 2.68 344 08:40 20.09.2019
1642 Clouds 14 1007 32 0 1.34 324 08:21 20.09.2019
1643 Clouds 15 1007 27 0 3.58 339 07:45 20.09.2019
1644 Clouds 15 1006 26 0 1.79 352 07:25 20.09.2019
1645 Clouds 16 1006 26 0 2.68 347 06:44 20.09.2019
1646 Clouds 15 1005 26 0 3.58 10 06:20 20.09.2019
1647 Clouds 15 1005 34 0 0.89 352 05:42 20.09.2019
1648 Clouds 24 1008 26 0 1.81 266.169 03:31 20.09.2019
1649 Clouds 24 1008 26 0 1.81 266.169 03:31 20.09.2019
1650 Clear 21 1001 22 0 1.79 40 02:51 20.09.2019
1651 Clear 21 1001 22 0 1.79 40 02:51 20.09.2019
1652 Clear 23 1000 14 0 2.24 89 01:44 20.09.2019
1653 Clear 23 1000 10 0 3.13 231 00:48 20.09.2019
1654 Clear 26 1001 8 0 2.24 144 00:21 20.09.2019
1655 Clear 28 1006 16 0 2.59 73.112 23:42 19.09.2019
1656 Clear 28 1006 16 0 2.59 73.112 23:19 19.09.2019
1657 Clear 28 1006 16 0 2.59 73.112 22:55 19.09.2019
1658 Clear 27 1002 21 0 2.24 7 22:36 19.09.2019
1659 Clear 27 1003 22 0 1.79 87 22:18 19.09.2019
1660 Clear 25 1003 23 0 3.13 45 21:55 19.09.2019
1661 Clear 24 1003 25 0 2.68 50 21:36 19.09.2019
1662 Clear 26 1008 20 0 1.59 67.344 21:18 19.09.2019
1663 Clear 26 1008 20 0 1.59 67.344 20:43 19.09.2019
1664 Clear 26 1008 19 0 1.5 65.531 20:21 19.09.2019
1665 Clear 22 1005 28 0 2.24 71 19:55 19.09.2019
1666 Clear 22 1005 28 0 1.79 31 19:37 19.09.2019
1667 Clear 22 1005 29 0 1.79 71 19:19 19.09.2019
1668 Clear 21 1005 29 0 1.34 56 18:42 19.09.2019
1669 Clear 22 1008 25 0 0.9 201.825 18:24 19.09.2019
1670 Clear 17 1005 35 0 0.45 119 17:54 19.09.2019
1671 Clear 16 1005 38 0 0.89 105 17:36 19.09.2019
1672 Clear 14 1005 42 0 0.45 149 17:18 19.09.2019
1673 Clear 13 1005 47 0 0.9 201.825 16:56 19.09.2019
1674 Clear 12 1005 51 0 0.9 201.825 16:37 19.09.2019
1675 Clear 11 1005 51 0 0.9 201.825 16:18 19.09.2019
1676 Clear 9 1004 55 0 0.89 326 15:38 19.09.2019
1677 Clear 9 1004 53 0 0.45 36 15:18 19.09.2019
1678 Clear 11 1003 50 0 0.81 174.6 14:42 19.09.2019
1679 Clear 12 1003 45 0 0.81 174.6 14:23 19.09.2019
1680 Clear 12 1003 45 0 0.81 174.6 14:23 19.09.2019
1681 Clear 13 1003 44 0 0.81 174.6 13:58 19.09.2019
1682 Clear 14 1003 43 0 0.89 198 13:39 19.09.2019
1683 Clear 14 1003 42 0 0.89 206 13:19 19.09.2019
1684 Clear 14 1003 40 0 0.89 208 12:39 19.09.2019
1685 Clear 15 1003 39 0 2.24 173 12:19 19.09.2019
1686 Clear 15 1003 40 0 2.68 252 11:56 19.09.2019
1687 Clear 15 1003 39 0 1.34 219 11:38 19.09.2019
1688 Clear 14 1003 39 0 0.45 241 11:19 19.09.2019
1689 Clear 15 1003 37 0 0.89 146 10:41 19.09.2019
1690 Clear 16 1004 35 0 1.34 135 10:22 19.09.2019
1691 Clear 17 1004 35 0 2.68 239 09:58 19.09.2019
1692 Clear 17 1004 33 0 2.68 225 09:40 19.09.2019
1693 Clear 17 1004 33 0 1.34 223 09:21 19.09.2019
1694 Clear 17 1004 33 0 1.79 225 08:55 19.09.2019
1695 Clear 17 1004 33 0 1.34 113 08:28 19.09.2019
1696 Clear 18 1004 32 0 1.34 114 07:57 19.09.2019
1697 Clear 24 1007 21 0 1.85 200.068 07:38 19.09.2019
1698 Clear 24 1007 21 0 1.85 200.068 07:20 19.09.2019
1699 Clear 24 1007 21 0 1.85 200.068 06:45 19.09.2019
1700 Clear 19 1004 30 0 2.68 129 06:25 19.09.2019
1701 Clear 19 1004 28 0 3.13 181 05:50 19.09.2019
1702 Clear 19 1004 28 0 3.13 181 05:50 19.09.2019
1703 Clear 28 1006 13 0 4.06 166.395 04:39 19.09.2019
1704 Clear 24 1003 20 0 4.92 166 03:22 19.09.2019
1705 Clear 26 1004 18 0 4.47 246 02:27 19.09.2019
1706 Clear 28 1005 14 0 3.13 195 01:22 19.09.2019
1707 Clear 33 1005 9 0 4.22 126.696 00:49 19.09.2019
1708 Clear 33 1005 9 0 4.22 126.696 00:25 19.09.2019
1709 Clear 28 1006 21 0 2.68 40 23:39 18.09.2019
1710 Clear 27 1006 22 0 2.24 50 23:21 18.09.2019
1711 Clear 27 1006 23 0 3.13 299 22:44 18.09.2019
1712 Clear 27 1007 24 0 2.68 30 22:20 18.09.2019
1713 Clear 26 1007 24 0 3.58 60 21:59 18.09.2019
1714 Clear 25 1008 25 0 3.13 29 21:40 18.09.2019
1715 Clear 28 1011 20 0 4.48 135.66 21:19 18.09.2019
1716 Clear 24 1008 26 0 3.58 58 20:58 18.09.2019
1717 Clear 24 1008 27 0 2.24 25 20:40 18.09.2019
1718 Clear 28 1011 18 0 4.34 134.458 20:22 18.09.2019
1719 Clear 28 1011 18 0 4.34 134.458 19:58 18.09.2019
1720 Clear 28 1011 18 0 4.34 134.458 19:58 18.09.2019
1721 Clear 23 1009 29 0 1.79 40 19:40 18.09.2019
1722 Clear 22 1009 30 0 2.24 33 19:19 18.09.2019
1723 Clear 22 1009 30 0 1.79 91 18:56 18.09.2019
1724 Clear 21 1009 32 0 2.24 84 18:37 18.09.2019
1725 Clear 25 1012 18 0 1.02 109.39 18:19 18.09.2019
1726 Clear 25 1012 18 0 1.02 109.39 17:58 18.09.2019
1727 Clear 17 1009 39 0 0.89 50 17:39 18.09.2019
1728 Clear 15 1009 44 0 0.89 84 17:19 18.09.2019
1729 Clear 12 1009 45 0 1.02 109.39 16:56 18.09.2019
1730 Clear 12 1009 46 0 1.02 109.39 16:38 18.09.2019
1731 Clear 11 1009 47 0 1.02 109.39 16:19 18.09.2019
1732 Clear 11 1009 48 0 1.02 109.39 15:56 18.09.2019
1733 Clear 12 1009 43 0 1.02 109.39 15:37 18.09.2019
1734 Clear 12 1008 44 0 0.45 40 15:19 18.09.2019
1735 Clear 12 1008 45 0 0.89 75 14:57 18.09.2019
1736 Clear 11 1008 47 0 0.45 85 14:39 18.09.2019
1737 Clear 11 1008 48 0 0.89 94 14:21 18.09.2019
1738 Clear 11 1008 49 0 0.23 128.384 13:54 18.09.2019
1739 Clear 11 1008 50 0 0.23 128.384 13:36 18.09.2019
1740 Clear 11 1008 49 0 0.13 241.285 13:18 18.09.2019
1741 Clear 10 1009 50 0 0.13 241.285 12:37 18.09.2019
1742 Clear 11 1009 49 0 0.8 154.719 12:19 18.09.2019
1743 Clear 10 1009 48 0 0.8 154.719 11:40 18.09.2019
1744 Clear 11 1009 48 0 0.8 154.719 11:20 18.09.2019
1745 Clear 10 1009 48 0 0.8 154.719 10:55 18.09.2019
1746 Clear 11 1010 47 0 0.8 154.719 10:37 18.09.2019
1747 Clear 11 1010 46 0 0.8 154.719 10:18 18.09.2019
1748 Clear 11 1010 45 0 0.8 154.719 09:41 18.09.2019
1749 Clear 11 1010 45 0 0.91 194.067 09:22 18.09.2019
1750 Clear 11 1010 45 0 0.91 194.067 08:57 18.09.2019
1751 Clear 12 1010 44 0 0.98 156.609 08:39 18.09.2019
1752 Clear 12 1010 44 0 0.98 156.609 08:19 18.09.2019
1753 Clear 13 1010 42 0 0.98 156.609 07:43 18.09.2019
1754 Clear 13 1010 40 0 0.98 156.609 07:23 18.09.2019
1755 Clear 15 1010 37 0 0.98 156.609 06:46 18.09.2019
1756 Clear 16 1010 34 0 2.66 176.901 06:21 18.09.2019
1757 Clear 16 1010 34 0 2.66 176.901 06:21 18.09.2019
1758 Clear 17 1010 32 0 0.45 118 05:27 18.09.2019
1759 Clear 26 1011 14 0 2.66 176.901 03:40 18.09.2019
1760 Clouds 30 1010 11 0 1.78 19.939 02:40 18.09.2019
1761 Clouds 30 1010 11 0 1.78 19.939 01:44 18.09.2019
1762 Clouds 29 1010 13 0 1.75 41.18 00:56 18.09.2019
1763 Clouds 29 1010 13 0 1.75 41.18 00:32 18.09.2019
1764 Clouds 29 1013 13 0 1.4 3.978 23:48 17.09.2019
1765 Clouds 29 1013 13 0 1.4 3.978 23:25 17.09.2019
1766 Clouds 29 1013 13 0 1.4 3.978 22:57 17.09.2019
1767 Clouds 28 1012 13 0 0.45 11 22:38 17.09.2019
1768 Clouds 27 1012 14 0 1.34 14 22:19 17.09.2019
1769 Clouds 27 1012 14 0 1.79 50 21:54 17.09.2019
1770 Clouds 27 1012 14 0 0.89 54 21:36 17.09.2019
1771 Clouds 26 1016 15 0 2.36 339.342 21:18 17.09.2019
1772 Clear 26 1016 14 0 2.32 336.769 20:56 17.09.2019
1773 Clear 26 1016 14 0 2.32 336.769 20:38 17.09.2019
1774 Clear 26 1016 14 0 2.32 336.769 20:19 17.09.2019
1775 Clear 22 1013 19 0 0.89 45 19:54 17.09.2019
1776 Clear 22 1013 19 0 0.89 45 19:54 17.09.2019
1777 Clear 22 1013 20 0 0.89 96 19:36 17.09.2019
1778 Clear 21 1013 20 0 0.45 205 19:18 17.09.2019
1779 Clear 21 1013 22 0 0.89 78 18:42 17.09.2019
1780 Clear 22 1016 18 0 2.06 309.321 18:22 17.09.2019
1781 Clear 22 1016 18 0 2.06 309.321 17:56 17.09.2019
1782 Clear 17 1012 28 0 0.45 80 17:37 17.09.2019
1783 Clear 16 1012 30 0 0.45 45 17:19 17.09.2019
1784 Clear 13 1011 33 0 0.45 285 16:42 17.09.2019
1785 Clear 11 1010 37 0 0.45 341 16:22 17.09.2019
1786 Clear 11 1010 39 0 0.89 274 15:58 17.09.2019
1787 Clear 10 1010 49 0 2.06 309.321 15:38 17.09.2019
1788 Clear 11 1009 47 0 1.48 310.996 15:19 17.09.2019
1789 Clear 11 1009 47 0 1.48 310.996 15:19 17.09.2019
1790 Clear 11 1009 49 0 0.89 318 14:56 17.09.2019
1791 Clear 11 1009 50 0 1.48 310.996 14:37 17.09.2019
1792 Clear 11 1009 51 0 0.89 327 14:19 17.09.2019
1793 Clear 11 1008 49 0 0.89 337 13:43 17.09.2019
1794 Clear 11 1008 46 0 0.89 345 13:23 17.09.2019
1795 Clear 11 1008 42 0 1.78 324.072 12:56 17.09.2019
1796 Clear 11 1008 44 0 1.34 340 12:37 17.09.2019
1797 Clear 10 1007 43 0 0.45 10 12:18 17.09.2019
1798 Clear 12 1007 38 0 0.8 319.031 11:42 17.09.2019
1799 Clear 12 1007 36 0 0.89 360 11:24 17.09.2019
1800 Clear 11 1006 38 0 1.79 360 10:56 17.09.2019
1801 Clear 12 1006 36 0 0.8 319.031 10:37 17.09.2019
1802 Clear 13 1006 34 0 0.8 319.031 10:19 17.09.2019
1803 Clear 14 1005 30 0 0.8 319.031 09:41 17.09.2019
1804 Clouds 16 1004 27 0 2.68 235 09:23 17.09.2019
1805 Clouds 16 1004 27 0 1.34 125 08:51 17.09.2019
1806 Clouds 16 1004 26 0 0.89 162 08:33 17.09.2019
1807 Clouds 17 1004 23 0 1.57 338.7 07:59 17.09.2019
1808 Clouds 24 1010 19 0 1.57 338.7 07:41 17.09.2019
1809 Clouds 24 1010 19 0 1.57 338.7 07:23 17.09.2019
1810 Clouds 24 1010 19 0 1.57 338.7 06:47 17.09.2019
1811 Clouds 18 1003 15 0 5.36 206 06:23 17.09.2019
1812 Clouds 19 1002 14 0 6.71 266 05:49 17.09.2019
1813 Clouds 27 1008 11 0 6.01 200.602 04:32 17.09.2019
1814 Clouds 23 1002 11 0 4.92 216 02:59 17.09.2019
1815 Clouds 23 1002 10 0 5.81 293 02:39 17.09.2019
1816 Clouds 34 1004 11 0 13.68 210.724 01:29 17.09.2019
1817 Clouds 34 1004 11 0 13.68 210.724 00:43 17.09.2019
1818 Clouds 27 1004 14 0 7.15 214 23:41 16.09.2019
1819 Clouds 26 1004 11 0 4.47 225 23:19 16.09.2019
1820 Clouds 27 1004 10 0 6.26 206 22:57 16.09.2019
1821 Clouds 28 1005 7 0 6.26 261 22:39 16.09.2019
1822 Clouds 27 1005 8 0 5.36 227 22:21 16.09.2019
1823 Clouds 28 1004 8 0 4.92 244 21:55 16.09.2019
1824 Clouds 27 1005 9 0 5.36 123 21:37 16.09.2019
1825 Clouds 27 1005 10 0 4.47 233 21:18 16.09.2019
1826 Clouds 26 1005 13 0 3.58 236 20:41 16.09.2019
1827 Clouds 26 1006 14 0 4.02 184 20:22 16.09.2019
1828 Clouds 25 1006 14 0 4.02 246 19:57 16.09.2019
1829 Clouds 25 1006 14 0 3.58 198 19:39 16.09.2019
1830 Clouds 24 1006 14 0 2.68 164 19:20 16.09.2019
1831 Clouds 23 1006 14 0 2.24 156 18:55 16.09.2019
1832 Clouds 23 1006 14 0 2.24 246 18:37 16.09.2019
1833 Clouds 23 1006 14 0 2.68 225 18:18 16.09.2019
1834 Clouds 19 1006 18 0 2.24 212 17:42 16.09.2019
1835 Clouds 19 1006 18 0 2.68 213 17:24 16.09.2019
1836 Clouds 19 1006 17 0 3.13 231 16:57 16.09.2019
1837 Clouds 19 1006 17 0 3.58 229 16:38 16.09.2019
1838 Clouds 18 1006 17 0 4.02 184 16:20 16.09.2019
1839 Clouds 18 1005 17 0 3.58 244 15:55 16.09.2019
1840 Clouds 18 1005 17 0 3.13 201 15:37 16.09.2019
1841 Clouds 18 1005 16 0 2.68 210 15:18 16.09.2019
1842 Clouds 18 1005 14 0 2.68 242 14:44 16.09.2019
1843 Clouds 18 1005 15 0 4.47 250 14:23 16.09.2019
1844 Clouds 18 1005 15 0 2.68 225 13:58 16.09.2019
1845 Clouds 18 1005 15 0 4.02 244 13:39 16.09.2019
1846 Clouds 24 1009 20 0 1.98 214.919 13:20 16.09.2019
1847 Clouds 24 1009 20 0 1.98 214.919 13:20 16.09.2019
1848 Clouds 24 1009 20 0 1.98 214.919 12:43 16.09.2019
1849 Clouds 19 1005 17 0 4.47 206 12:25 16.09.2019
1850 Clouds 19 1005 17 0 4.47 206 12:25 16.09.2019
1851 Clouds 19 1005 17 0 4.47 206 12:25 16.09.2019
1852 Clouds 19 1005 18 0 3.58 245 11:56 16.09.2019
1853 Clouds 19 1005 18 0 3.58 245 11:56 16.09.2019
1854 Clouds 19 1005 18 0 3.58 245 11:56 16.09.2019
1855 Clouds 19 1005 17 0 4.47 228 11:37 16.09.2019
1856 Clouds 20 1005 18 0 4.02 203 11:19 16.09.2019
1857 Clouds 21 1005 17 0 4.02 259 10:39 16.09.2019
1858 Clouds 21 1005 17 0 2.68 226 10:20 16.09.2019
1859 Clouds 21 1005 19 0 1.79 203 09:58 16.09.2019
1860 Clouds 27 1009 18 0 1.91 210.763 09:39 16.09.2019
1861 Clouds 20 1005 18 0 0.89 63 09:19 16.09.2019
1862 Clouds 20 1005 23 0 0.45 62 08:46 16.09.2019
1863 Clouds 21 1005 22 0 0.89 45 08:26 16.09.2019
1864 Clouds 22 1005 19 0 0.45 94 07:56 16.09.2019
1865 Clouds 29 1009 13 0 3.25 191.899 07:38 16.09.2019
1866 Clouds 29 1009 13 0 3.25 191.899 07:20 16.09.2019
1867 Clouds 29 1009 13 0 3.25 191.899 06:46 16.09.2019
1868 Clouds 29 1009 13 0 3.25 191.899 06:27 16.09.2019
1869 Clouds 23 1005 16 0 4.02 189 05:51 16.09.2019
1870 Clouds 23 1005 17 0 4.47 216 05:29 16.09.2019
1871 Clouds 32 1008 10 0 3.97 197.728 04:38 16.09.2019
1872 Clouds 28 1005 10 0 4.02 175 02:36 16.09.2019
1873 Clouds 29 1005 7 0 2.68 169 00:44 16.09.2019
1874 Clouds 29 1006 5 0 4.92 233 00:26 16.09.2019
1875 Clouds 30 1006 4 0 4.02 220 23:44 15.09.2019
1876 Clouds 28 1006 7 0 4.02 186 23:21 15.09.2019
1877 Clouds 28 1007 6 0 3.58 248 22:59 15.09.2019
1878 Clouds 29 1007 6 0 3.13 238 22:37 15.09.2019
1879 Clouds 29 1007 7 0 3.58 218 22:18 15.09.2019
1880 Clouds 30 1007 6 0 4.47 240 21:55 15.09.2019
1881 Clouds 30 1008 8 0 3.13 184 21:37 15.09.2019
1882 Clouds 30 1008 8 0 3.13 184 21:37 15.09.2019
1883 Clouds 29 1008 7 0 4.47 227 21:18 15.09.2019
1884 Clouds 29 1008 8 0 4.47 173 20:44 15.09.2019
1885 Clouds 29 1008 7 0 4.92 229 20:25 15.09.2019
1886 Clouds 29 1008 10 0 4.47 156 19:47 15.09.2019
1887 Clouds 29 1008 12 0 3.58 198 19:27 15.09.2019
1888 Clouds 28 1009 15 0 1.79 199 18:56 15.09.2019
1889 Clouds 27 1009 15 0 2.68 172 18:38 15.09.2019
1890 Clouds 26 1009 17 0 1.34 162 18:20 15.09.2019
1891 Clouds 22 1008 22 0 1.34 185 17:43 15.09.2019
1892 Clouds 20 1008 27 0 1.42 123.993 17:22 15.09.2019
1893 Clouds 18 1008 31 0 1.42 123.993 16:57 15.09.2019
1894 Clouds 16 1008 31 0 1.42 123.993 16:38 15.09.2019
1895 Clouds 16 1008 32 0 1.42 123.993 16:20 15.09.2019
1896 Clouds 15 1008 32 0 1.42 123.993 15:56 15.09.2019
1897 Clouds 15 1008 32 0 1.42 123.993 15:56 15.09.2019
1898 Clouds 15 1008 31 0 0.45 77 15:36 15.09.2019
1899 Clouds 16 1008 31 0 0.37 330.064 15:18 15.09.2019
1900 Clouds 15 1008 31 0 0.45 73 14:42 15.09.2019
1901 Clouds 16 1008 30 0 0.37 330.064 14:23 15.09.2019
1902 Clouds 17 1008 27 0 0.45 96 13:55 15.09.2019
1903 Clouds 18 1008 25 0 0.37 330.064 13:37 15.09.2019
1904 Clouds 18 1008 26 0 0.45 40 13:18 15.09.2019
1905 Clouds 16 1008 28 0 0.45 80 12:42 15.09.2019
1906 Clear 16 1008 28 0 0.44 130.122 12:23 15.09.2019
1907 Clear 17 1009 26 0 0.44 130.122 11:54 15.09.2019
1908 Clear 17 1009 25 0 0.44 130.122 11:36 15.09.2019
1909 Clear 17 1009 24 0 0.45 80 11:18 15.09.2019
1910 Clear 17 1010 25 0 0.45 80 10:41 15.09.2019
1911 Clear 17 1010 24 0 0.44 130.122 10:22 15.09.2019
1912 Clear 17 1010 24 0 0.45 94 09:57 15.09.2019
1913 Clear 17 1010 25 0 0.44 130.122 09:37 15.09.2019
1914 Clouds 18 1010 25 0 1.57 187.888 09:18 15.09.2019
1915 Clouds 18 1010 24 0 1.57 187.888 08:44 15.09.2019
1916 Clouds 19 1010 23 0 1.52 188.417 08:25 15.09.2019
1917 Clouds 22 1010 20 0 1.52 188.417 07:48 15.09.2019
1918 Clouds 22 1010 18 0 0.45 113 06:59 15.09.2019
1919 Clouds 22 1010 17 0 1.52 188.417 06:33 15.09.2019
1920 Clear 29 1009 10 0 2.68 217 03:25 15.09.2019
1921 Clear 32 1009 8 0 2.24 235 02:32 15.09.2019
1922 Clear 38 1011 6 0 2.96 102.169 01:39 15.09.2019
1923 Clear 39 1011 5 0 3.37 102.129 00:58 15.09.2019
1924 Clear 39 1011 5 0 3.37 102.129 00:39 15.09.2019
1925 Clear 38 1013 5 0 2.87 101.498 00:20 15.09.2019
1926 Clear 38 1013 5 0 2.87 101.498 23:57 14.09.2019
1927 Clear 38 1013 5 0 2.87 101.498 23:39 14.09.2019
1928 Clear 38 1013 5 0 2.87 101.498 23:21 14.09.2019
1929 Clear 38 1013 5 0 2.87 101.498 22:58 14.09.2019
1930 Clear 36 1011 6 0 2.68 50 22:39 14.09.2019
1931 Clear 35 1012 7 0 2.24 22 22:19 14.09.2019
1932 Clear 34 1012 7 0 2.24 31 21:40 14.09.2019
1933 Clear 35 1015 7 0 1.57 86.524 21:22 14.09.2019
1934 Clear 35 1015 7 0 1.57 86.524 20:59 14.09.2019
1935 Clear 36 1015 6 0 1.49 67.436 20:40 14.09.2019
1936 Clear 36 1015 6 0 1.49 67.436 20:22 14.09.2019
1937 Clear 36 1015 6 0 1.49 67.436 20:22 14.09.2019
1938 Clear 33 1013 9 0 1.79 70 19:52 14.09.2019
1939 Clear 32 1013 9 0 0.89 73 19:23 14.09.2019
1940 Clear 32 1013 10 0 1.34 107 18:59 14.09.2019
1941 Clear 31 1013 10 0 0.89 77 18:40 14.09.2019
1942 Clear 31 1016 9 0 0.5 288.94 18:21 14.09.2019
1943 Clear 31 1016 9 0 0.5 288.94 17:58 14.09.2019
1944 Clear 23 1013 17 0 0.5 288.94 17:39 14.09.2019
1945 Clear 22 1013 22 0 0.5 288.94 17:21 14.09.2019
1946 Clear 17 1013 38 0 0.5 288.94 16:43 14.09.2019
1947 Clear 13 1013 40 0 0.5 288.94 16:21 14.09.2019
1948 Clear 13 1013 36 0 0.5 288.94 15:56 14.09.2019
1949 Clear 13 1012 36 0 0.45 175 15:36 14.09.2019
1950 Clouds 13 1012 36 0 0.26 236.553 15:18 14.09.2019
1951 Clouds 13 1012 35 0 0.26 236.553 14:42 14.09.2019
1952 Clouds 13 1012 36 0 0.26 236.553 14:19 14.09.2019
1953 Clouds 13 1012 35 0 0.26 236.553 13:47 14.09.2019
1954 Clear 14 1012 32 0 0.23 236.31 13:22 14.09.2019
1955 Clear 14 1012 32 0 0.23 236.31 12:48 14.09.2019
1956 Clear 16 1012 31 0 0.23 236.31 12:27 14.09.2019
1957 Clear 16 1012 28 0 0.45 209.055 11:44 14.09.2019
1958 Clear 16 1012 28 0 0.45 209.055 11:22 14.09.2019
1959 Clear 16 1013 28 0 0.45 209.055 10:59 14.09.2019
1960 Clear 15 1013 28 0 0.45 209.055 10:37 14.09.2019
1961 Clear 15 1013 30 0 0.45 209.055 10:19 14.09.2019
1962 Clear 16 1013 29 0 0.45 209.055 09:56 14.09.2019
1963 Clear 16 1013 28 0 0.45 209.055 09:38 14.09.2019
1964 Clear 16 1013 28 0 0.45 209.055 09:38 14.09.2019
1965 Clear 16 1013 27 0 0.8 232.598 09:18 14.09.2019
1966 Clear 16 1013 28 0 0.75 180.688 08:45 14.09.2019
1967 Clear 16 1013 27 0 0.75 180.688 08:23 14.09.2019
1968 Clear 16 1013 27 0 0.75 180.688 08:23 14.09.2019
1969 Clear 17 1013 26 0 0.75 180.688 07:46 14.09.2019
1970 Clear 18 1013 25 0 0.75 180.688 07:28 14.09.2019
1971 Clear 18 1013 25 0 0.75 180.688 07:28 14.09.2019
1972 Clear 21 1013 19 0 0.75 180.688 06:40 14.09.2019
1973 Clear 21 1013 18 0 0.68 137.578 06:21 14.09.2019
1974 Clear 24 1012 14 0 0.68 137.578 05:21 14.09.2019
1975 Clear 31 1014 11 0 0.68 137.578 03:44 14.09.2019
1976 Clear 36 1013 7 0 1.08 7.577 02:52 14.09.2019
1977 Clear 36 1013 7 0 1.08 7.577 01:50 14.09.2019
1978 Clear 36 1013 6 0 1.15 18.466 01:22 14.09.2019
1979 Clear 36 1013 6 0 1.15 18.466 00:57 14.09.2019
1980 Clear 36 1013 6 0 1.15 18.466 00:38 14.09.2019
1981 Clear 36 1015 7 0 1.44 1.709 00:20 14.09.2019
1982 Clear 36 1015 7 0 1.44 1.709 23:38 13.09.2019
1983 Clear 36 1015 7 0 1.44 1.709 23:19 13.09.2019
1984 Clear 35 1014 7 0 1.34 143 22:57 13.09.2019
1985 Clear 33 1014 8 0 0.89 21 22:38 13.09.2019
1986 Clear 33 1014 8 0 0.89 21 22:38 13.09.2019
1987 Clear 32 1014 8 0 0.89 270 22:20 13.09.2019
1988 Clear 33 1015 7 0 1.79 175 21:42 13.09.2019
1989 Clear 33 1018 8 0 0.86 50.212 21:20 13.09.2019
1990 Clear 33 1018 8 0 0.86 50.212 20:59 13.09.2019
1991 Clear 33 1018 8 0 1.21 27.431 20:40 13.09.2019
1992 Clear 33 1018 8 0 1.21 27.431 20:21 13.09.2019
1993 Clear 33 1018 8 0 1.21 27.431 19:56 13.09.2019
1994 Clear 31 1016 10 0 0.89 106 19:38 13.09.2019
1995 Clear 31 1016 11 0 1.34 87 19:19 13.09.2019
1996 Clear 29 1016 11 0 0.45 12 18:56 13.09.2019
1997 Clear 27 1016 13 0 0.89 285 18:37 13.09.2019
1998 Clear 29 1018 12 0 0.52 329.862 18:18 13.09.2019
1999 Clear 23 1016 16 0 2.24 337 17:39 13.09.2019
2000 Clear 23 1016 16 0 2.24 337 17:39 13.09.2019
2001 Clear 22 1016 16 0 2.24 320 17:19 13.09.2019
2002 Clear 21 1016 18 0 2.24 333 16:42 13.09.2019
2003 Clear 13 1015 36 0 0.45 7 16:21 13.09.2019
2004 Clear 12 1015 39 0 0.52 329.862 15:58 13.09.2019
2005 Clear 12 1015 39 0 0.52 329.862 15:39 13.09.2019
2006 Clear 12 1015 39 0 0.43 328.83 15:20 13.09.2019
2007 Clear 12 1015 38 0 0.43 328.83 14:44 13.09.2019
2008 Clear 13 1014 35 0 0.43 328.83 14:22 13.09.2019
2009 Clear 12 1014 38 0 0.43 328.83 13:56 13.09.2019
2010 Clear 12 1014 35 0 0.43 328.83 13:37 13.09.2019
2011 Clear 12 1014 35 0 0.51 331.1 13:19 13.09.2019
2012 Clear 12 1014 35 0 0.51 331.1 13:19 13.09.2019
2013 Clear 13 1014 34 0 0.51 331.1 12:44 13.09.2019
2014 Clear 13 1014 34 0 0.9 278.392 12:23 13.09.2019
2015 Clear 13 1014 32 0 0.9 278.392 11:56 13.09.2019
2016 Clear 13 1014 35 0 0.9 278.392 11:20 13.09.2019
2017 Clear 13 1014 34 0 0.9 278.392 10:41 13.09.2019
2018 Clear 13 1014 34 0 0.9 278.392 10:41 13.09.2019
2019 Clear 13 1015 33 0 0.9 278.392 10:20 13.09.2019
2020 Clear 13 1014 34 0 0.9 278.392 09:47 13.09.2019
2021 Clear 14 1014 33 0 0.9 278.392 09:26 13.09.2019
2022 Clear 14 1015 31 0 0.89 271.677 08:59 13.09.2019
2023 Clear 14 1015 29 0 0.97 261.962 08:41 13.09.2019
2024 Clear 14 1015 29 0 0.97 261.962 08:41 13.09.2019
2025 Clear 15 1014 30 0 0.97 261.962 08:21 13.09.2019
2026 Clear 15 1015 31 0 0.97 261.962 07:57 13.09.2019
2027 Clear 16 1015 30 0 0.97 261.962 07:39 13.09.2019
2028 Clear 18 1015 26 0 0.97 261.962 06:49 13.09.2019
2029 Clear 29 1017 12 0 1.35 310.887 05:50 13.09.2019
2030 Clear 29 1017 12 0 1.35 310.887 05:26 13.09.2019
2031 Clear 29 1017 12 0 1.35 310.887 03:44 13.09.2019
2032 Clear 33 1016 8 0 1.52 322.632 02:54 13.09.2019
2033 Clear 33 1016 8 0 1.52 322.632 02:19 13.09.2019
2034 Clear 33 1016 8 0 1.52 322.632 01:35 13.09.2019
2035 Clear 34 1015 9 0 1.34 333.97 00:59 13.09.2019
2036 Clear 34 1015 9 0 1.34 333.97 00:33 13.09.2019
2037 Clear 33 1018 10 0 1.66 342.809 23:47 12.09.2019
2038 Clear 33 1018 10 0 1.66 342.809 23:23 12.09.2019
2039 Clear 29 1015 10 0 1.79 190 22:56 12.09.2019
2040 Clear 29 1016 10 0 1.34 168 22:38 12.09.2019
2041 Clear 31 1016 9 0 0.89 71 22:20 12.09.2019
2042 -273 0 0 0 0 0 21:55 12.09.2019
2043 Clear 29 1017 11 0 1.34 68 21:36 12.09.2019
2044 Clear 30 1020 13 0 1.49 24.533 21:18 12.09.2019
2045 Clear 30 1020 12 0 1.69 10.338 20:43 12.09.2019
2046 Clear 30 1020 12 0 1.69 10.338 20:22 12.09.2019
2047 Clear 30 1020 12 0 1.69 10.338 19:57 12.09.2019
2048 Clear 28 1018 13 0 1.34 36 19:39 12.09.2019
2049 Clear 28 1018 13 0 1.34 36 19:39 12.09.2019
2050 Clear 27 1018 14 0 0.89 50 19:19 12.09.2019
2051 Clear 26 1018 14 0 0.45 75 18:54 12.09.2019
2052 Clear 26 1018 15 0 1.34 40 18:36 12.09.2019
2053 Clear 27 1020 14 0 1.61 318.121 18:18 12.09.2019
2054 Clear 20 1017 23 0 0.45 320 17:40 12.09.2019
2055 Clear 19 1017 24 0 0.89 348 17:20 12.09.2019
2056 Clear 18 1017 24 0 1.34 327 16:55 12.09.2019
2057 Clear 18 1017 24 0 1.34 327 16:55 12.09.2019
2058 Clear 17 1017 26 0 0.89 316 16:36 12.09.2019
2059 Clear 17 1017 26 0 1.34 343 16:18 12.09.2019
2060 Clear 17 1017 25 0 1.34 346 15:41 12.09.2019
2061 Clear 17 1016 25 0 2.68 342 15:23 12.09.2019
2062 Clear 17 1016 25 0 2.24 320 14:45 12.09.2019
2063 Clear 17 1016 26 0 0.89 349 14:22 12.09.2019
2064 Clear 17 1016 25 0 0.89 331 13:58 12.09.2019
2065 Clear 16 1016 26 0 2.68 329 13:37 12.09.2019
2066 Clear 14 1016 30 0 0.45 315 13:18 12.09.2019
2067 Clear 16 1016 29 0 1.1 324.111 12:44 12.09.2019
2068 Clear 18 1016 24 0 0.89 347 12:19 12.09.2019
2069 Clear 18 1016 23 0 1.34 345 11:56 12.09.2019
2070 Clear 17 1016 26 0 1.34 350 11:38 12.09.2019
2071 Clear 16 1016 27 0 0.89 338 11:19 12.09.2019
2072 Clear 15 1016 28 0 0.45 355 10:44 12.09.2019
2073 Clear 14 1016 32 0 0.74 337.026 10:25 12.09.2019
2074 Clear 14 1016 33 0 0.74 337.026 09:45 12.09.2019
2075 Clear 16 1015 28 0 1.16 309.831 09:25 12.09.2019
2076 Clear 16 1016 27 0 1.16 309.831 08:59 12.09.2019
2077 Clear 16 1015 27 0 0.45 18 08:40 12.09.2019
2078 Clear 14 1015 28 0 0.45 1 08:21 12.09.2019
2079 Clear 16 1015 30 0 1.08 329.054 07:40 12.09.2019
2080 Clear 16 1015 28 0 1.08 329.054 07:19 12.09.2019
2081 Clear 17 1014 26 0 1.08 329.054 06:51 12.09.2019
2082 Clear 18 1014 21 0 0.45 40 06:19 12.09.2019
2083 Clear 19 1014 19 0 0.45 18 05:51 12.09.2019
2084 Clear 20 1014 18 0 0.89 1 05:32 12.09.2019
2085 Clear 21 1013 17 0 0.45 23 04:40 12.09.2019
2086 Clear 32 1014 11 0 1.81 304.358 02:43 12.09.2019
2087 Clear 31 1014 10 0 0.73 347.822 01:37 12.09.2019
2088 Clear 31 1014 10 0 0.73 347.822 01:18 12.09.2019
2089 Clear 31 1014 10 0 0.73 347.822 00:42 12.09.2019
2090 Clear 30 1014 12 0 1.82 349.154 00:24 12.09.2019
2091 Clear 30 1014 12 0 1.82 349.154 23:42 11.09.2019
2092 Clear 30 1014 12 0 1.82 349.154 23:22 11.09.2019
2093 Clear 30 1014 12 0 1.82 349.154 22:57 11.09.2019
2094 Clear 27 1013 15 0 1.34 180 22:37 11.09.2019
2095 Clear 27 1013 15 0 1.34 121 22:19 11.09.2019
2096 Clear 27 1014 16 0 0.89 199 21:43 11.09.2019
2097 Clear 30 1014 12 0 1.82 349.154 21:25 11.09.2019
2098 Clear 28 1017 16 0 0.8 340.011 20:58 11.09.2019
2099 Clear 28 1017 16 0 0.53 352.634 20:40 11.09.2019
2100 Clear 28 1017 16 0 0.53 352.634 20:20 11.09.2019
2101 Clear 23 1014 22 0 0.89 297 19:58 11.09.2019
2102 Clear 23 1014 23 0 0.89 328 19:40 11.09.2019
2103 Clear 21 1014 25 0 1.34 82 19:21 11.09.2019
2104 Clear 21 1014 25 0 1.34 239 18:58 11.09.2019
2105 Clear 19 1014 29 0 1.34 241 18:40 11.09.2019
2106 Clear 18 1014 30 0 1.34 287 18:22 11.09.2019
2107 Clear 18 1014 31 0 1.79 273 17:56 11.09.2019
2108 Clear 16 1013 36 0 1.79 300 17:38 11.09.2019
2109 Clear 16 1013 36 0 1.79 300 17:38 11.09.2019
2110 Clear 15 1013 38 0 2.24 263 17:20 11.09.2019
2111 Clear 14 1013 41 0 0.89 318 16:48 11.09.2019
2112 Clear 13 1012 43 0 2.68 346 16:26 11.09.2019
2113 Clear 12 1012 44 0 3.58 333 15:59 11.09.2019
2114 Clear 12 1012 43 0 3.58 356 15:41 11.09.2019
2115 Clear 12 1011 43 0 2.68 329 15:20 11.09.2019
2116 Clear 12 1011 43 0 4.02 348 14:56 11.09.2019
2117 Clear 12 1011 43 0 4.02 348 14:56 11.09.2019
2118 Clear 13 1010 42 0 3.58 343 14:37 11.09.2019
2119 Clear 13 1010 41 0 2.24 335 14:18 11.09.2019
2120 Clear 13 1010 38 0 4.02 352 13:39 11.09.2019
2121 Clear 13 1010 38 0 2.68 350 13:21 11.09.2019
2122 Clear 13 1009 37 0 4.02 339 12:59 11.09.2019
2123 Clear 14 1009 35 0 1.79 353 12:38 11.09.2019
2124 Clear 14 1009 34 0 0.89 351 12:20 11.09.2019
2125 Clear 14 1009 31 0 2.24 338 11:40 11.09.2019
2126 Clear 15 1009 31 0 1.34 342 11:21 11.09.2019
2127 Clear 15 1009 30 0 0.89 344 10:57 11.09.2019
2128 Clear 15 1008 30 0 2.68 345 10:39 11.09.2019
2129 Clear 14 1008 31 0 1.79 315 10:20 11.09.2019
2130 Clear 14 1007 37 0 0.45 291 09:40 11.09.2019
2131 Clear 14 1007 37 0 2.24 341 09:20 11.09.2019
2132 Clear 14 1007 35 0 1.5 336.641 08:57 11.09.2019
2133 Clear 14 1007 35 0 1.5 336.641 08:57 11.09.2019
2134 Clear 15 1006 33 0 0.45 132 08:38 11.09.2019
2135 Clear 16 1006 32 0 0.45 289 08:20 11.09.2019
2136 Clear 15 1005 26 0 0.66 340.474 07:41 11.09.2019
2137 Clear 16 1005 23 0 0.66 340.474 07:22 11.09.2019
2138 Clear 17 1005 22 0 0.45 167 06:48 11.09.2019
2139 Clear 18 1004 21 0 0.89 152 06:30 11.09.2019
2140 Clear 19 1003 15 0 0.45 187 05:42 11.09.2019
2141 Clear 19 1003 13 0 1.34 85 05:23 11.09.2019
2142 Clear 21 1002 14 0 4.47 206 04:39 11.09.2019
2143 Clear 29 1005 12 0 3.26 178.841 03:32 11.09.2019
2144 Clouds 26 1002 17 0 3.58 220 02:46 11.09.2019
2145 Clouds 26 1002 15 0 4.47 202 02:18 11.09.2019
2146 Clouds 27 1003 12 0 2.68 154 00:52 11.09.2019
2147 Clouds 31 1005 14 0 5.1 123.232 00:23 11.09.2019
2148 Clouds 31 1005 14 0 5.1 123.232 23:55 10.09.2019
2149 Clouds 31 1005 14 0 5.1 123.232 23:37 10.09.2019
2150 Clouds 31 1005 14 0 5.1 123.232 23:19 10.09.2019
2151 Clouds 31 1005 14 0 5.1 123.232 23:19 10.09.2019
2152 Clouds 27 1004 21 0 2.24 57 22:41 10.09.2019
2153 Clouds 27 1005 23 0 1.79 1 22:19 10.09.2019
2154 Clouds 26 1005 23 0 2.24 14 21:55 10.09.2019
2155 Clouds 26 1005 24 0 3.13 40 21:37 10.09.2019
2156 Clear 28 1008 21 0 4.09 128.485 21:19 10.09.2019
2157 Clear 28 1008 21 0 4.09 128.485 20:58 10.09.2019
2158 Clear 24 1005 28 0 2.68 40 20:38 10.09.2019
2159 Clear 28 1008 18 0 3.42 125.994 20:20 10.09.2019
2160 Clear 23 1005 29 0 2.24 21 19:56 10.09.2019
2161 Clear 23 1005 29 0 2.24 21 19:56 10.09.2019
2162 Clear 23 1005 29 0 1.79 50 19:37 10.09.2019
2163 Clear 22 1005 30 0 1.34 40 19:19 10.09.2019
2164 Clear 22 1006 31 0 1.34 40 18:55 10.09.2019
2165 Clear 21 1005 34 0 1.34 40 18:37 10.09.2019
2166 Clear 20 1005 35 0 0.89 25 18:18 10.09.2019
2167 Clear 18 1005 39 0 1.34 7 17:43 10.09.2019
2168 Clear 15 1005 47 0 0.89 87 17:23 10.09.2019
2169 Clear 13 1005 52 0 1.49 173.541 16:59 10.09.2019
2170 Clear 9 1005 69 0 1.49 173.541 16:39 10.09.2019
2171 Clear 24 1008 24 0 1.49 173.541 16:21 10.09.2019
2172 Clear 24 1008 24 0 1.49 173.541 15:59 10.09.2019
2173 Clear 24 1008 24 0 1.49 173.541 15:40 10.09.2019
2174 Clear 22 1007 28 0 1.43 147.279 15:20 10.09.2019
2175 Clear 10 1003 62 0 1.43 147.279 14:42 10.09.2019
2176 Clear 10 1003 62 0 1.43 147.279 14:24 10.09.2019
2177 Clear 10 1003 62 0 1.43 147.279 13:56 10.09.2019
2178 Clear 22 1007 28 0 1.43 147.279 13:37 10.09.2019
2179 Clear 22 1007 28 0 1.28 146.497 13:19 10.09.2019
2180 Clear 22 1007 28 0 1.28 146.497 12:43 10.09.2019
2181 Clear 13 1003 48 0 1.19 207.685 12:24 10.09.2019
2182 Clear 13 1003 48 0 1.19 207.685 11:57 10.09.2019
2183 Clear 13 1003 48 0 1.19 207.685 11:39 10.09.2019
2184 Clear 13 1003 48 0 1.19 207.685 11:20 10.09.2019
2185 Clear 13 1003 49 0 0.89 63 10:42 10.09.2019
2186 Clear 12 1003 50 0 0.45 289 10:19 10.09.2019
2187 Clear 13 1003 50 0 1.19 207.685 09:56 10.09.2019
2188 Clear 13 1003 47 0 0.45 252 09:38 10.09.2019
2189 Clear 13 1003 46 0 2.31 186.792 09:19 10.09.2019
2190 Clear 14 1003 40 0 1.74 194.124 08:45 10.09.2019
2191 Clear 14 1003 40 0 1.74 194.124 08:26 10.09.2019
2192 Clear 14 1003 40 0 1.74 194.124 08:26 10.09.2019
2193 Clear 17 1003 34 0 1.74 194.124 07:46 10.09.2019
2194 Clear 17 1003 30 0 1.74 194.124 07:26 10.09.2019
2195 Clear 20 1003 23 0 0.45 189 06:53 10.09.2019
2196 Clear 20 1002 25 0 2.24 129 06:35 10.09.2019
2197 Clear 21 1002 30 0 2.68 148 05:27 10.09.2019
2198 Clear 24 1001 21 0 3.58 192 03:57 10.09.2019
2199 Clear 24 1001 21 0 3.58 192 03:57 10.09.2019
2200 Clear 28 1002 16 0 4.02 262 02:24 10.09.2019
2201 Clear 28 1002 16 0 4.02 202 01:59 10.09.2019
2202 Clear 28 1002 15 0 4.92 238 01:41 10.09.2019
2203 Clear 28 1003 15 0 3.58 220 01:20 10.09.2019
2204 Clear 28 1003 17 0 4.92 221 00:25 10.09.2019
2205 Clear 28 1003 16 0 3.58 227 23:48 09.09.2019
2206 Clear 28 1004 12 0 4.02 199 23:20 09.09.2019
2207 Clear 28 1004 12 0 4.02 199 23:20 09.09.2019
2208 Clear 28 1004 14 0 3.58 234 22:57 09.09.2019
2209 Clear 30 1004 15 0 1.79 3 22:39 09.09.2019
2210 Clear 29 1004 18 0 2.68 12 22:21 09.09.2019
2211 Clear 29 1004 18 0 3.58 2 21:58 09.09.2019
2212 Clear 28 1005 19 0 2.68 19 21:40 09.09.2019
2213 Clear 31 1009 16 0 3.17 129.027 21:20 09.09.2019
2214 Clear 31 1009 16 0 3.17 129.027 20:57 09.09.2019
2215 Clear 31 1009 15 0 3.76 133.793 20:37 09.09.2019
2216 Clear 31 1009 15 0 3.76 133.793 20:19 09.09.2019
2217 Clear 27 1006 20 0 2.24 100 19:59 09.09.2019
2218 Clear 27 1006 20 0 1.79 40 19:39 09.09.2019
2219 Clear 26 1006 21 0 1.79 50 19:20 09.09.2019
2220 Clear 26 1006 21 0 1.79 50 19:20 09.09.2019
2221 Clear 26 1007 21 0 1.79 65 18:58 09.09.2019
2222 Clear 26 1007 22 0 0.89 58 18:40 09.09.2019
2223 Clear 27 1010 20 0 1.15 130.817 18:21 09.09.2019
2224 Clear 23 1007 26 0 0.45 56 17:58 09.09.2019
2225 Clear 21 1007 32 0 1.15 130.817 17:40 09.09.2019
2226 Clear 19 1007 34 0 1.15 130.817 17:21 09.09.2019
2227 Clear 19 1007 34 0 1.15 130.817 17:21 09.09.2019
2228 Clear 18 1007 46 0 1.15 130.817 16:57 09.09.2019
2229 Clear 13 1007 59 0 1.15 130.817 16:38 09.09.2019
2230 Clear 12 1007 63 0 1.15 130.817 16:20 09.09.2019
2231 Clear 11 1006 60 0 1.15 130.817 15:56 09.09.2019
2232 Clear 11 1006 60 0 1.15 130.817 15:56 09.09.2019
2233 Clear 11 1006 58 0 1.15 130.817 15:37 09.09.2019
2234 Clear 11 1006 61 0 0.85 120.975 15:18 09.09.2019
2235 Clear 11 1006 66 0 0.85 120.975 14:57 09.09.2019
2236 Clear 11 1006 61 0 0.85 120.975 14:38 09.09.2019
2237 Clear 11 1006 61 0 0.85 120.975 14:19 09.09.2019
2238 Clear 11 1006 61 0 0.85 120.975 13:44 09.09.2019
2239 Clear 12 1006 57 0 1.26 144.144 13:21 09.09.2019
2240 Clear 12 1006 57 0 1.26 144.144 12:58 09.09.2019
2241 Clear 12 1006 57 0 1.26 144.144 12:58 09.09.2019
2242 Clear 13 1006 55 0 1.26 144.144 12:40 09.09.2019
2243 Clear 13 1006 55 0 1.26 144.144 12:40 09.09.2019
2244 Clear 13 1006 54 0 0.27 201.567 12:20 09.09.2019
2245 Clear 13 1006 47 0 0.27 201.567 11:48 09.09.2019
2246 Clear 14 1006 47 0 0.27 201.567 11:24 09.09.2019
2247 Clear 14 1006 46 0 0.27 201.567 10:59 09.09.2019
2248 Clear 15 1006 46 0 0.27 201.567 10:41 09.09.2019
2249 Clear 16 1006 40 0 0.27 201.567 10:21 09.09.2019
2250 Clear 16 1006 44 0 0.27 201.567 09:57 09.09.2019
2251 Clear 15 1006 43 0 0.27 201.567 09:38 09.09.2019
2252 Clear 14 1006 46 0 1.28 234.576 09:20 09.09.2019
2253 Clear 15 1006 49 0 1.19 224.009 08:39 09.09.2019
2254 Clear 15 1005 48 0 1.19 224.009 08:20 09.09.2019
2255 Clear 16 1005 46 0 1.19 224.009 07:48 09.09.2019
2256 Clear 17 1005 43 0 1.19 224.009 07:28 09.09.2019
2257 Clear 18 1005 39 0 1.19 224.009 06:59 09.09.2019
2258 Clear 19 1005 36 0 1.19 224.009 06:40 09.09.2019
2259 Clear 21 1005 26 0 2.63 159.255 05:34 09.09.2019
2260 Clear 28 1003 14 0 1.79 179 02:59 09.09.2019
2261 Clear 29 1003 13 0 1.34 195 02:39 09.09.2019
2262 Clear 34 1007 12 0 3.48 120.021 00:54 09.09.2019
2263 Clear 34 1008 10 0 2.97 95.905 00:23 09.09.2019
2264 Clear 34 1008 10 0 2.97 95.905 23:46 08.09.2019
2265 Clear 34 1008 10 0 2.97 95.905 23:27 08.09.2019
2266 Clear 34 1008 10 0 2.97 95.905 22:57 08.09.2019
2267 Clear 32 1005 15 0 1.79 358 22:38 08.09.2019
2268 Clear 32 1005 15 0 1.79 50 22:20 08.09.2019
2269 Clear 31 1005 16 0 1.79 55 21:57 08.09.2019
2270 Clear 29 1005 16 0 1.34 359 21:38 08.09.2019
2271 Clear 31 1010 15 0 2.2 115.107 21:20 08.09.2019
2272 Clear 31 1010 15 0 2.2 115.107 20:40 08.09.2019
2273 Clear 31 1010 17 0 2.45 118.26 20:22 08.09.2019
2274 Clear 31 1010 17 0 2.45 118.26 19:59 08.09.2019
2275 Clear 27 1005 18 0 0.89 40 19:39 08.09.2019
2276 Clear 27 1005 20 0 0.45 58 19:21 08.09.2019
2277 Clear 26 1005 21 0 1.34 89 18:58 08.09.2019
2278 Clear 26 1005 18 0 0.45 84 18:39 08.09.2019
2279 Clear 27 1010 20 0 1.13 128.183 18:19 08.09.2019
2280 Clear 27 1010 20 0 1.13 128.183 18:19 08.09.2019
2281 Clear 27 1010 20 0 1.13 128.183 17:57 08.09.2019
2282 Clear 21 1004 25 0 0.45 126 17:37 08.09.2019
2283 Clear 20 1004 27 0 0.45 156 17:18 08.09.2019
2284 Clear 19 1004 28 0 0.45 50 16:45 08.09.2019
2285 Clear 17 1004 27 0 2.24 324 16:23 08.09.2019
2286 Clear 17 1004 29 0 2.24 321 15:59 08.09.2019
2287 Clear 13 1004 43 0 0.45 328 15:41 08.09.2019
2288 Clear 13 1004 43 0 0.45 328 15:41 08.09.2019
2289 Clear 13 1003 50 0 1.04 189.127 15:22 08.09.2019
2290 Clear 13 1003 50 0 1.04 189.127 15:22 08.09.2019
2291 Clear 13 1003 51 0 1.04 189.127 14:59 08.09.2019
2292 Clear 14 1003 42 0 1.04 189.127 14:39 08.09.2019
2293 Clear 14 1003 42 0 1.04 189.127 14:20 08.09.2019
2294 Clear 14 1002 38 0 1.04 189.127 13:57 08.09.2019
2295 Clear 16 1002 33 0 1.04 189.127 13:38 08.09.2019
2296 Clear 17 1002 31 0 0.45 40 13:20 08.09.2019
2297 Clear 18 1002 26 0 0.45 310 12:43 08.09.2019
2298 Clear 18 1002 24 0 2.68 8 12:24 08.09.2019
2299 Clear 18 1002 24 0 2.68 8 12:24 08.09.2019
2300 Clear 18 1001 23 0 0.89 345 11:59 08.09.2019
2301 Clear 18 1001 23 0 2.1 235.46 11:40 08.09.2019
2302 Clear 17 1001 25 0 0.45 335 11:20 08.09.2019
2303 Clear 18 1001 24 0 0.45 305 10:59 08.09.2019
2304 Clear 27 1007 19 0 2.1 235.46 10:41 08.09.2019
2305 Clear 27 1007 19 0 2.1 235.46 10:22 08.09.2019
2306 Clear 27 1007 19 0 2.1 235.46 10:22 08.09.2019
2307 Clear 27 1007 19 0 2.1 235.46 09:55 08.09.2019
2308 Clear 27 1007 19 0 2.1 235.46 09:37 08.09.2019
2309 Clouds 21 1001 21 0 4.47 139 09:18 08.09.2019
2310 Clouds 22 1001 16 0 4.47 257 08:39 08.09.2019
2311 Clouds 22 1001 15 0 0.89 185 08:18 08.09.2019
2312 Clouds 31 1006 15 0 2.94 207.254 07:41 08.09.2019
2313 Clouds 31 1006 15 0 2.94 207.254 07:21 08.09.2019
2314 Clouds 22 1001 17 0 3.58 261 06:57 08.09.2019
2315 Clouds 22 1002 25 0 1.34 225 06:34 08.09.2019
2316 Clouds 25 1002 17 0 3.13 205 05:40 08.09.2019
2317 Clouds 26 1002 15 0 4.92 224 04:58 08.09.2019
2318 Clouds 30 1003 22 0 3.13 201 03:23 08.09.2019
2319 Clouds 31 1003 25 0 3.13 207 02:48 08.09.2019
2320 Clouds 31 1004 22 0 2.68 231 01:53 08.09.2019
2321 Clear 32 1005 20 0 3.58 136 01:26 08.09.2019
2322 Clear 32 1005 22 0 2.68 241 00:47 08.09.2019
2323 Clear 32 1006 23 0 3.58 229 00:28 08.09.2019
2324 Clear 32 1007 21 0 2.68 236 23:55 07.09.2019
2325 Clear 32 1007 21 0 2.68 236 23:36 07.09.2019
2326 Clear 32 1007 21 0 2.68 236 23:36 07.09.2019
2327 Clear 32 1007 23 0 3.13 207 23:18 07.09.2019
2328 Clear 32 1007 24 0 2.68 216 22:42 07.09.2019
2329 Clear 33 1008 24 0 0.45 78 22:23 07.09.2019
2330 Clear 33 1008 26 0 2.24 40 21:56 07.09.2019
2331 Clear 34 1008 26 0 2.68 32 21:37 07.09.2019
2332 Clear 36 1013 19 0 2.49 106.578 21:19 07.09.2019
2333 Clear 37 1013 18 0 1.92 94.09 20:39 07.09.2019
2334 Clear 37 1013 18 0 1.92 94.09 20:21 07.09.2019
2335 Clear 37 1013 18 0 1.92 94.09 19:56 07.09.2019
2336 Clear 31 1010 29 0 1.92 94.09 19:38 07.09.2019
2337 Clear 31 1010 29 0 1.92 94.09 19:19 07.09.2019
2338 Clear 31 1011 32 0 0.45 77 18:58 07.09.2019
2339 Clear 28 1011 35 0 0.45 95 18:38 07.09.2019
2340 Clear 28 1011 33 0 0.45 274 18:20 07.09.2019
2341 Clear 28 1011 33 0 0.45 274 18:20 07.09.2019
2342 Clear 28 1011 33 0 0.45 274 18:20 07.09.2019
2343 Clear 27 1011 35 0 1.34 321 17:58 07.09.2019
2344 Clear 24 1011 39 0 2.24 339 17:38 07.09.2019
2345 Clear 23 1011 42 0 2.68 354 17:18 07.09.2019
2346 Clear 22 1011 47 0 1.79 336 16:55 07.09.2019
2347 Clear 21 1011 50 0 2.24 326 16:36 07.09.2019
2348 Clear 20 1011 55 0 0.45 279 16:18 07.09.2019
2349 Clear 20 1011 58 0 0.66 91.391 15:43 07.09.2019
2350 Clear 21 1011 51 0 0.91 133.399 15:24 07.09.2019
2351 Clear 21 1011 51 0 0.89 325 14:56 07.09.2019
2352 Clear 21 1010 52 0 1.34 341 14:36 07.09.2019
2353 Clear 21 1010 54 0 1.34 317 14:18 07.09.2019
2354 Clear 21 1010 56 0 0.45 326 13:44 07.09.2019
2355 Clear 19 1011 62 0 0.89 334 13:25 07.09.2019
2356 Clear 17 1011 76 0 0.45 147 12:55 07.09.2019
2357 Clear 17 1011 73 0 0.95 151.457 12:37 07.09.2019
2358 Clear 18 1011 72 0 1.53 209.411 12:19 07.09.2019
2359 Clear 19 1011 67 0 1.53 209.411 11:41 07.09.2019
2360 Clear 19 1011 67 0 1.53 209.411 11:41 07.09.2019
2361 Clear 19 1011 63 0 1.53 209.411 11:22 07.09.2019
2362 Clear 19 1011 66 0 1.53 209.411 10:56 07.09.2019
2363 Clear 18 1011 68 0 1.53 209.411 10:37 07.09.2019
2364 Clear 18 1011 72 0 1.53 209.411 10:18 07.09.2019
2365 Clear 18 1011 74 0 1.53 209.411 09:42 07.09.2019
2366 Clear 18 1011 74 0 1.63 196.911 09:22 07.09.2019
2367 Clear 18 1011 74 0 1.63 196.911 09:22 07.09.2019
2368 Clear 18 1011 74 0 1.63 196.911 08:55 07.09.2019
2369 Clear 19 1011 71 0 1.55 200.534 08:36 07.09.2019
2370 Clear 19 1011 70 0 1.55 200.534 08:18 07.09.2019
2371 Clear 20 1011 66 0 1.55 200.534 07:43 07.09.2019
2372 Clear 21 1011 62 0 1.55 200.534 07:22 07.09.2019
2373 Clear 22 1011 54 0 1.55 200.534 06:42 07.09.2019
2374 Clear 23 1011 57 0 1.25 88.21 05:40 07.09.2019
2375 Clear 26 1011 41 0 1.25 88.21 04:26 07.09.2019
2376 Clear 28 1011 34 0 0.45 205 03:41 07.09.2019
2377 Clear 29 1011 29 0 1.34 231 02:22 07.09.2019
2378 Clear 29 1011 27 0 1.79 208 01:29 07.09.2019
2379 Clear 30 1011 27 0 0.89 112 00:55 07.09.2019
2380 Clear 32 1012 29 0 2.8 107.664 00:36 07.09.2019
2381 Clear 31 1012 31 0 1.34 197 00:18 07.09.2019
2382 Clear 38 1014 21 0 2.65 72.794 23:38 06.09.2019
2383 Clear 38 1014 21 0 2.65 72.794 23:19 06.09.2019
2384 Clear 32 1012 34 0 0.45 81 22:57 06.09.2019
2385 Clear 32 1013 34 0 1.79 34 22:37 06.09.2019
2386 Clear 31 1013 35 0 1.34 55 22:18 06.09.2019
2387 Clear 30 1013 39 0 1.34 71 21:55 06.09.2019
2388 Clear 38 1014 21 0 2.65 72.794 21:36 06.09.2019
2389 Clear 35 1017 27 0 1.7 66.274 21:18 06.09.2019
2390 Clear 31 1014 42 0 0.89 60 20:42 06.09.2019
2391 Clear 29 1014 42 0 0.45 71 20:24 06.09.2019
2392 Clear 29 1014 39 0 0.45 214 19:59 06.09.2019
2393 Clear 29 1014 41 0 0.45 83 19:41 06.09.2019
2394 Clear 28 1015 43 0 0.45 75 19:23 06.09.2019
2395 Clear 28 1015 42 0 1.52 74.169 18:56 06.09.2019
2396 Clear 26 1015 46 0 1.34 329 18:38 06.09.2019
2397 Clear 25 1015 48 0 1.34 339 18:19 06.09.2019
2398 Clear 22 1015 59 0 0.89 351 17:40 06.09.2019
2399 Clear 22 1015 59 0 0.89 351 17:40 06.09.2019
2400 Clear 21 1015 60 0 0.89 327 17:21 06.09.2019
2401 Clear 20 1015 61 0 1.34 283 16:58 06.09.2019
2402 Clear 19 1014 62 0 0.89 324 16:38 06.09.2019
2403 Clear 18 1014 64 0 0.45 333 16:18 06.09.2019
2404 Clear 18 1014 64 0 1.34 316 15:41 06.09.2019
2405 Clear 18 1014 64 0 1.34 316 15:41 06.09.2019
2406 Clear 18 1014 64 0 2.24 321 15:22 06.09.2019
2407 Clear 19 1013 63 0 1.79 318 14:48 06.09.2019
2408 Clear 19 1013 61 0 1.34 296 14:20 06.09.2019
2409 Clear 19 1013 61 0 1.79 278 13:45 06.09.2019
2410 Clouds 19 1013 64 0 0.89 297 13:25 06.09.2019
2411 Clouds 19 1013 62 0 0.45 327 12:59 06.09.2019
2412 Clouds 19 1013 63 0 0.89 325 12:37 06.09.2019
2413 Clouds 19 1013 64 0 0.45 304 12:18 06.09.2019
2414 Clouds 19 1013 64 0 0.45 304 12:18 06.09.2019
2415 Clouds 18 1013 71 0 0.69 57.587 11:43 06.09.2019
2416 Clouds 20 1013 63 0 0.69 57.587 11:24 06.09.2019
2417 Clouds 20 1013 60 0 0.89 308 10:58 06.09.2019
2418 Clouds 21 1014 59 0 1.34 321 10:40 06.09.2019
2419 Clouds 21 1014 59 0 0.89 325 10:21 06.09.2019
2420 Clouds 20 1014 61 0 1.79 314 09:40 06.09.2019
2421 Rain 20 1014 62 0 2.24 318 09:21 06.09.2019
2422 Rain 19 1014 65 0 1.79 323 08:58 06.09.2019
2423 Rain 19 1014 70 0 1.34 324 08:39 06.09.2019
2424 Rain 19 1014 69 0 0.89 307 08:21 06.09.2019
2425 Rain 18 1014 75 0 0.89 326 07:45 06.09.2019
2426 Rain 17 1014 80 0 0.89 329 07:27 06.09.2019
2427 Rain 18 1014 83 0 0.89 272 06:57 06.09.2019
2428 Rain 35 1014 23 0 3.26 238.071 06:21 06.09.2019
2429 Rain 35 1014 23 0 3.26 238.071 05:43 06.09.2019
2430 Rain 20 1012 70 0 2.68 251 04:48 06.09.2019
2431 Rain 19 1012 78 0 2.68 312 03:53 06.09.2019
2432 Rain 29 1010 29 0 0.89 252 02:23 06.09.2019
2433 Rain 33 1011 25 0 0.89 110 00:45 06.09.2019
2434 Rain 31 1011 28 0 1.79 128 23:56 05.09.2019
2435 Rain 29 1011 29 0 2.24 168 23:38 05.09.2019
2436 Rain 31 1011 26 0 2.24 182 23:19 05.09.2019
2437 Rain 32 1012 28 0 1.34 17 22:43 05.09.2019
2438 Rain 32 1012 26 0 2.68 163 22:24 05.09.2019
2439 Rain 32 1012 30 0 0.89 27 21:56 05.09.2019
2440 Rain 33 1012 27 0 0.45 134 21:38 05.09.2019
2441 Rain 31 1012 31 0 0.89 69 21:19 05.09.2019
2442 Rain 30 1013 30 0 1.79 155 20:57 05.09.2019
2443 Rain 29 1013 32 0 0.45 229 20:37 05.09.2019
2444 Rain 28 1013 36 0 0.45 208 20:19 05.09.2019
2445 Rain 27 1013 42 0 0.89 297 19:55 05.09.2019
2446 Rain 26 1013 45 0 0.89 256 19:37 05.09.2019
2447 Rain 24 1013 54 0 2.24 329 19:18 05.09.2019
2448 Rain 37 1016 16 0 1.19 122.851 18:41 05.09.2019
2449 Clouds 21 1013 58 0 1.34 254 18:21 05.09.2019
2450 Clouds 21 1013 61 0 0.89 331 17:57 05.09.2019
2451 Clouds 22 1013 58 0 0.45 254 17:38 05.09.2019
2452 Clouds 22 1013 57 0 0.35 124.912 17:20 05.09.2019
2453 Clouds 22 1011 53 0 0.45 108 16:42 05.09.2019
2454 Clouds 22 1010 52 0 0.89 262 16:21 05.09.2019
2455 Clouds 22 1010 52 0 0.89 262 16:21 05.09.2019
2456 Clouds 21 1010 53 0 1.34 319 15:58 05.09.2019
2457 Clouds 21 1010 54 0 2.24 318 15:39 05.09.2019
2458 Clouds 21 1010 57 0 1.34 293 15:19 05.09.2019
2459 Clouds 21 1010 57 0 1.34 293 15:19 05.09.2019
2460 Clouds 22 1010 51 0 1.79 347 14:56 05.09.2019
2461 Clouds 22 1010 52 0 2.68 10 14:38 05.09.2019
2462 Clouds 21 1010 56 0 1.34 12 14:18 05.09.2019
2463 Clouds 21 1011 55 0 0.16 296.089 13:41 05.09.2019
2464 Clouds 21 1011 60 0 0.77 327.506 13:19 05.09.2019
2465 Clouds 21 1010 51 0 0.89 260 12:42 05.09.2019
2466 Clouds 21 1009 48 0 0.72 244.854 12:24 05.09.2019
2467 Clouds 20 1008 56 0 0.72 244.854 11:56 05.09.2019
2468 Clouds 19 1009 57 0 0.72 244.854 11:37 05.09.2019
2469 Clouds 19 1009 54 0 0.72 244.854 11:18 05.09.2019
2470 Clouds 20 1009 54 0 0.45 336 10:40 05.09.2019
2471 Clouds 20 1009 50 0 0.72 244.854 10:20 05.09.2019
2472 Clouds 21 1009 52 0 0.72 244.854 09:57 05.09.2019
2473 Clouds 21 1009 46 0 0.39 246.629 09:38 05.09.2019
2474 Clouds 22 1009 45 0 1.73 241.119 09:18 05.09.2019
2475 Clouds 22 1009 43 0 1.73 241.119 08:43 05.09.2019
2476 Clouds 22 1009 37 0 1.73 241.119 08:25 05.09.2019
2477 Clouds 24 1009 44 0 1.73 241.119 07:44 05.09.2019
2478 Clouds 24 1009 36 0 1.73 241.119 07:26 05.09.2019
2479 Clouds 25 1008 37 0 0.45 216 06:52 05.09.2019
2480 Clouds 25 1008 37 0 1.73 241.119 06:29 05.09.2019
2481 Clouds 26 1007 32 0 3.99 241.906 05:49 05.09.2019
2482 Clouds 26 1007 33 0 0.45 231 05:30 05.09.2019
2483 Clouds 28 1007 28 0 0.45 233 04:48 05.09.2019
2484 Clouds 29 1007 26 0 0.89 219 04:24 05.09.2019
2485 Clouds 38 1010 14 0 3.99 241.906 03:34 05.09.2019
2486 Clouds 32 1007 19 0 3.13 262 02:44 05.09.2019
2487 Clouds 33 1007 16 0 3.58 244 02:18 05.09.2019
2488 Clouds 33 1007 18 0 2.68 201 01:26 05.09.2019
2489 Clouds 33 1007 19 0 3.13 122 00:42 05.09.2019
2490 Clouds 33 1007 21 0 3.13 171 00:20 05.09.2019
2491 Clouds 32 1008 20 0 4.02 251 23:46 04.09.2019
2492 Clouds 33 1008 20 0 3.58 163 23:26 04.09.2019
2493 Clouds 33 1008 20 0 3.13 237 22:59 04.09.2019
2494 Clouds 33 1008 20 0 3.13 209 22:40 04.09.2019
2495 Clouds 33 1008 19 0 2.68 210 22:18 04.09.2019
2496 Clouds 33 1009 26 0 2.68 202 21:40 04.09.2019
2497 Clouds 36 1013 21 0 1.94 21.033 21:20 04.09.2019
2498 Clouds 36 1013 21 0 1.94 21.033 21:20 04.09.2019
2499 Clouds 36 1013 21 0 1.94 21.033 20:56 04.09.2019
2500 Clouds 36 1013 21 0 1.94 21.033 20:56 04.09.2019
2501 Clouds 33 1009 28 0 1.79 25 20:38 04.09.2019
2502 Clouds 36 1013 21 0 1.94 21.033 20:19 04.09.2019
2503 Clouds 36 1013 21 0 1.94 21.033 19:56 04.09.2019
2504 Clouds 32 1009 29 0 1.34 64 19:38 04.09.2019
2505 Clouds 32 1009 31 0 1.34 25 19:19 04.09.2019
2506 Clouds 31 1009 33 0 1.94 21.033 18:38 04.09.2019
2507 Clouds 32 1014 26 0 0.59 355.894 18:20 04.09.2019
2508 Clouds 27 1009 40 0 0.59 355.894 17:42 04.09.2019
2509 Clouds 25 1009 40 0 0.59 355.894 17:24 04.09.2019
2510 Clouds 24 1009 43 0 0.89 335 16:58 04.09.2019
2511 Clouds 22 1009 44 0 1.34 347 16:40 04.09.2019
2512 Clouds 22 1009 44 0 1.34 347 16:40 04.09.2019
2513 Clouds 22 1009 46 0 1.34 326 16:22 04.09.2019
2514 Clouds 21 1009 47 0 0.45 304 15:56 04.09.2019
2515 Clouds 21 1008 46 0 0.45 318 15:38 04.09.2019
2516 Clear 21 1008 46 0 0.45 299 15:20 04.09.2019
2517 Clear 21 1008 46 0 0.45 277 14:55 04.09.2019
2518 Clear 21 1008 45 0 0.45 356 14:36 04.09.2019
2519 Clear 22 1008 45 0 1.34 327 14:18 04.09.2019
2520 Clear 22 1008 45 0 0.89 335 13:40 04.09.2019
2521 Clear 22 1008 44 0 2.24 297 13:22 04.09.2019
2522 Clear 22 1008 45 0 1.79 295 12:57 04.09.2019
2523 Clear 22 1008 46 0 0.89 320 12:38 04.09.2019
2524 Clear 22 1008 46 0 0.89 320 12:38 04.09.2019
2525 Clear 22 1008 46 0 1.34 312 12:19 04.09.2019
2526 Clear 22 1008 45 0 1.34 321 11:55 04.09.2019
2527 Clear 22 1008 43 0 0.89 278 11:36 04.09.2019
2528 Clear 23 1008 43 0 0.89 322 11:18 04.09.2019
2529 Clear 23 1008 44 0 1.34 334 10:42 04.09.2019
2530 Clear 23 1008 41 0 1.79 214 10:23 04.09.2019
2531 Clouds 23 1008 40 0 2.68 260 09:47 04.09.2019
2532 Clouds 23 1009 43 0 3.13 278 09:27 04.09.2019
2533 Rain 23 1008 44 0 3.13 354 08:59 04.09.2019
2534 Rain 23 1008 46 0 3.58 341 08:40 04.09.2019
2535 Rain 23 1008 46 0 3.13 351 08:21 04.09.2019
2536 Rain 23 1008 50 0 1.34 338 07:49 04.09.2019
2537 Rain 21 1008 57 0 0.45 323 07:29 04.09.2019
2538 Rain 21 1008 58 0 0.89 329 06:40 04.09.2019
2539 Rain 21 1008 60 0 0.45 310 06:20 04.09.2019
2540 Rain 22 1008 57 0 0.45 333 04:52 04.09.2019
2541 Rain 22 1007 61 0 1.34 258 04:18 04.09.2019
2542 Clear 27 1007 38 0 3.58 241 01:39 04.09.2019
2543 Clear 33 1007 22 0 1.34 98 00:54 04.09.2019
2544 Clear 40 1010 16 0 2.21 149.552 00:33 04.09.2019
2545 Clear 32 1008 23 0 0.89 220 23:56 03.09.2019
2546 Clear 33 1008 22 0 0.45 251 23:38 03.09.2019
2547 Clear 34 1008 20 0 0.45 309 23:19 03.09.2019
2548 Clear 39 1012 18 0 1.97 71.39 22:40 03.09.2019
2549 Clear 39 1012 18 0 1.97 71.39 22:22 03.09.2019
2550 Clear 37 1009 17 0 1.79 8 21:56 03.09.2019
2551 Clear 37 1009 17 0 1.79 8 21:56 03.09.2019
2552 Clear 37 1009 17 0 1.79 8 21:56 03.09.2019
2553 Clear 37 1010 18 0 1.79 45 21:37 03.09.2019
2554 Clear 36 1015 23 0 1.45 29.093 21:19 03.09.2019
2555 Clear 36 1015 23 0 1.45 29.093 20:43 03.09.2019
2556 Clear 36 1015 23 0 1.45 29.093 20:24 03.09.2019
2557 Clear 36 1015 23 0 1.45 29.093 19:57 03.09.2019
2558 Clear 33 1011 22 0 0.45 153 19:38 03.09.2019
2559 Clear 33 1011 21 0 1.79 83 19:19 03.09.2019
2560 Clear 32 1011 24 0 0.45 89 18:56 03.09.2019
2561 Clear 30 1011 27 0 0.45 293 18:38 03.09.2019
2562 Clear 32 1015 29 0 1.29 346.856 18:18 03.09.2019
2563 Clear 26 1011 34 0 1.79 343 17:41 03.09.2019
2564 Clear 26 1011 36 0 0.89 349 17:20 03.09.2019
2565 Clear 24 1011 40 0 0.89 326 16:59 03.09.2019
2566 Clear 23 1011 42 0 1.79 312 16:39 03.09.2019
2567 Clear 22 1011 44 0 1.79 341 16:20 03.09.2019
2568 Clear 21 1011 46 0 0.89 309 15:41 03.09.2019
2569 Clear 22 1011 45 0 1.79 334 15:22 03.09.2019
2570 Clear 22 1011 43 0 1.34 325 14:58 03.09.2019
2571 Clear 22 1010 44 0 1.34 320 14:40 03.09.2019
2572 Clear 22 1010 45 0 1.34 343 14:20 03.09.2019
2573 Clear 22 1010 45 0 1.79 329 13:57 03.09.2019
2574 Clear 22 1010 45 0 1.79 329 13:57 03.09.2019
2575 Clear 21 1010 46 0 1.34 347 13:37 03.09.2019
2576 Clouds 28 1015 34 0 1.21 318.689 13:19 03.09.2019
2577 Clouds 28 1015 34 0 1.21 318.689 13:19 03.09.2019
2578 Clouds 28 1015 34 0 1.21 318.689 12:56 03.09.2019
2579 Clouds 28 1015 34 0 1.21 318.689 12:38 03.09.2019
2580 Clouds 22 1010 43 0 1.34 285 12:20 03.09.2019
2581 Clouds 22 1011 43 0 0.89 327 11:42 03.09.2019
2582 Clouds 22 1011 42 0 0.45 259 11:22 03.09.2019
2583 Clouds 22 1011 42 0 1.79 324 10:57 03.09.2019
2584 Clouds 23 1011 41 0 0.89 325 10:39 03.09.2019
2585 Clouds 23 1011 41 0 0.89 279 10:20 03.09.2019
2586 Clouds 23 1011 39 0 1.79 356 09:44 03.09.2019
2587 Clouds 23 1011 39 0 1.34 324 09:25 03.09.2019
2588 Clouds 22 1011 40 0 0.89 319 08:56 03.09.2019
2589 Clouds 22 1011 40 0 0.89 319 08:56 03.09.2019
2590 Clouds 22 1011 40 0 0.45 301 08:37 03.09.2019
2591 Clouds 23 1011 40 0 0.45 298 08:18 03.09.2019
2592 Clouds 23 1011 39 0 0.89 306 07:41 03.09.2019
2593 Clouds 23 1011 38 0 0.45 310 07:23 03.09.2019
2594 Clouds 31 1014 27 0 0.89 321.098 06:45 03.09.2019
2595 Clouds 24 1011 37 0 0.45 323 06:18 03.09.2019
2596 Clouds 27 1010 32 0 1.34 347 03:43 03.09.2019
2597 Clouds 28 1010 32 0 2.68 264 02:47 03.09.2019
2598 Clouds 28 1010 29 0 2.24 262 02:25 03.09.2019
2599 Clouds 29 1009 28 0 2.68 257 01:51 03.09.2019
2600 Clouds 30 1010 27 0 0.45 343 01:32 03.09.2019
2601 Clouds 32 1009 25 0 1.79 50 00:44 03.09.2019
2602 Clouds 32 1009 25 0 1.79 25 00:25 03.09.2019
2603 Clouds 33 1010 24 0 1.79 12 23:40 02.09.2019
2604 Clouds 33 1010 24 0 1.79 12 23:40 02.09.2019
2605 Clouds 33 1010 24 0 1.79 12 23:40 02.09.2019
2606 Clouds 33 1010 25 0 2.24 3 23:20 02.09.2019
2607 Clouds 33 1009 25 0 2.24 45 22:56 02.09.2019
2608 -273 0 0 0 0 0 22:56 02.09.2019
2609 Clouds 33 1009 25 0 2.24 45 22:56 02.09.2019
2610 Clouds 31 1010 27 0 1.79 62 22:38 02.09.2019
2611 Clouds 30 1010 28 0 0.89 72 22:20 02.09.2019
2612 Clouds 29 1010 29 0 0.89 77 21:58 02.09.2019
2613 Clouds 28 1010 32 0 0.89 24 21:40 02.09.2019
2614 Clouds 28 1010 32 0 1.79 81 21:20 02.09.2019
2615 Clouds 28 1010 32 0 1.79 81 21:20 02.09.2019
2616 Clouds 28 1010 32 0 0.89 70 20:59 02.09.2019
2617 Clouds 28 1010 33 0 1.34 31 20:40 02.09.2019
2618 Clouds 28 1010 33 0 0.89 50 20:18 02.09.2019
2619 Clouds 28 1010 33 0 1.79 50 19:56 02.09.2019
2620 Clouds 28 1010 33 0 1.34 57 19:38 02.09.2019
2621 Clouds 28 1010 33 0 1.34 57 19:38 02.09.2019
2622 Clouds 28 1010 32 0 1.79 93 19:19 02.09.2019
2623 Clouds 27 1010 33 0 0.45 35 18:40 02.09.2019
2624 Clear 27 1010 33 0 1.34 94 18:22 02.09.2019
2625 Clear 27 1010 36 0 1.34 45 17:58 02.09.2019
2626 Clear 26 1009 37 0 0.89 120 17:39 02.09.2019
2627 Clear 26 1010 38 0 2.24 119 17:20 02.09.2019
2628 Clear 24 1010 40 0 1.79 116 16:58 02.09.2019
2629 Clear 22 1010 49 0 0.89 128 16:36 02.09.2019
2630 Clear 22 1010 51 0 0.89 137 16:18 02.09.2019
2631 Clear 22 1010 51 0 2.24 111 15:44 02.09.2019
2632 Clear 22 1010 50 0 1.79 148 15:22 02.09.2019
2633 Clear 22 1010 50 0 1.34 149 14:56 02.09.2019
2634 Clear 22 1010 49 0 3.13 264 14:37 02.09.2019
2635 Clear 23 1010 49 0 3.13 247 14:19 02.09.2019
2636 Clear 24 1010 40 0 1.34 238 13:46 02.09.2019
2637 Clouds 29 1013 22 0 2.24 128.4 13:25 02.09.2019
2638 Clouds 23 1010 24 0 0.45 156 12:59 02.09.2019
2639 Clouds 22 1010 25 0 0.89 231 12:41 02.09.2019
2640 Clouds 21 1009 27 0 0.23 156.67 12:23 02.09.2019
2641 Clouds 21 1009 27 0 0.23 156.67 11:56 02.09.2019
2642 Clouds 21 1009 27 0 0.45 263 11:38 02.09.2019
2643 Clouds 21 1009 26 0 0.23 156.67 11:19 02.09.2019
2644 Clouds 21 1009 25 0 0.23 156.67 10:42 02.09.2019
2645 Clouds 22 1009 25 0 0.23 156.67 10:22 02.09.2019
2646 Clouds 23 1009 24 0 0.23 156.67 09:59 02.09.2019
2647 Clouds 23 1009 23 0 0.45 261 09:40 02.09.2019
2648 Clear 23 1009 24 0 1.41 170.11 09:20 02.09.2019
2649 Clear 24 1009 22 0 0.45 260 08:44 02.09.2019
2650 Clear 25 1009 20 0 1.41 170.11 08:22 02.09.2019
2651 Clear 26 1009 19 0 1.41 170.11 07:57 02.09.2019
2652 Clear 32 1012 11 0 1.41 170.11 07:39 02.09.2019
2653 Clear 32 1012 11 0 1.41 170.11 07:20 02.09.2019
2654 Clear 32 1012 11 0 1.41 170.11 06:43 02.09.2019
2655 Clear 27 1008 16 0 1.68 232.419 05:54 02.09.2019
2656 Clear 27 1008 16 0 1.68 232.419 05:26 02.09.2019
2657 Clear 35 1010 8 0 1.68 232.419 04:50 02.09.2019
2658 Clear 33 1007 9 0 3.13 183 02:30 02.09.2019
2659 Clear 36 1007 8 0 2.68 156 01:43 02.09.2019
2660 Clear 36 1008 8 0 1.79 238 00:46 02.09.2019
2661 Clear 36 1008 8 0 1.79 205 00:26 02.09.2019
2662 Clear 40 1011 5 0 2.41 96.408 23:39 01.09.2019
2663 Clear 40 1011 5 0 2.41 96.408 23:20 01.09.2019
2664 Clear 40 1011 5 0 2.41 96.408 22:57 01.09.2019
2665 Clear 37 1009 7 0 1.79 65 22:39 01.09.2019
2666 Clear 37 1009 7 0 2.68 40 22:18 01.09.2019
2667 Clear 36 1009 7 0 2.24 65 21:55 01.09.2019
2668 Clear 36 1009 7 0 2.24 12 21:37 01.09.2019
2669 Clear 36 1013 8 0 1.74 79.065 21:18 01.09.2019
2670 Clear 35 1009 7 0 1.79 17 20:55 01.09.2019
2671 Clear 35 1009 8 0 1.79 60 20:36 01.09.2019
2672 Clear 36 1013 8 0 1.74 79.065 20:18 01.09.2019
2673 Clear 36 1013 8 0 1.74 79.065 20:18 01.09.2019
2674 Clear 33 1010 9 0 1.79 70 19:55 01.09.2019
2675 Clear 33 1009 9 0 1.79 31 19:37 01.09.2019
2676 Clear 33 1010 9 0 1.34 40 19:18 01.09.2019
2677 Clear 32 1010 11 0 0.89 40 18:41 01.09.2019
2678 Clear 28 1009 14 0 0.45 77 18:23 01.09.2019
2679 Clear 27 1009 16 0 1.34 83 17:55 01.09.2019
2680 Clear 24 1009 15 0 1.51 135.698 17:36 01.09.2019
2681 Clear 24 1009 15 0 1.51 135.698 17:36 01.09.2019
2682 Clear 23 1009 17 0 0.45 198 17:18 01.09.2019
2683 Clear 17 1009 29 0 1.51 135.698 16:39 01.09.2019
2684 Clear 15 1009 30 0 1.51 135.698 16:18 01.09.2019
2685 Clear 15 1009 27 0 1.51 135.698 15:45 01.09.2019
2686 Clear 14 1008 27 0 1.51 135.698 15:26 01.09.2019
2687 Clear 14 1008 28 0 0.35 84.746 14:56 01.09.2019
2688 Clear 14 1008 28 0 0.35 84.746 14:37 01.09.2019
2689 Clear 14 1008 29 0 0.35 84.746 14:19 01.09.2019
2690 Clear 14 1008 27 0 0.35 84.746 13:42 01.09.2019
2691 Clear 15 1008 25 0 0.14 55.384 13:23 01.09.2019
2692 Clear 16 1008 25 0 0.14 55.384 12:55 01.09.2019
2693 Clear 16 1008 25 0 0.14 55.384 12:55 01.09.2019
2694 Clear 16 1008 23 0 0.14 55.384 12:36 01.09.2019
2695 Clear 17 1008 23 0 0.38 92.285 12:18 01.09.2019
2696 Clear 18 1008 22 0 0.38 92.285 11:39 01.09.2019
2697 Clear 17 1008 22 0 0.38 92.285 11:19 01.09.2019
2698 Clear 18 1008 22 0 0.38 92.285 10:57 01.09.2019
2699 Clear 18 1008 22 0 0.38 92.285 10:38 01.09.2019
2700 Clear 18 1008 21 0 0.38 92.285 10:20 01.09.2019
2701 Clear 18 1008 22 0 0.39 83.429 09:42 01.09.2019
2702 Clear 18 1008 23 0 1.02 140.561 09:23 01.09.2019
2703 Clear 19 1008 20 0 1.02 140.561 08:43 01.09.2019
2704 Clear 19 1007 21 0 1.02 140.561 08:22 01.09.2019
2705 Clear 20 1007 19 0 1.02 140.561 07:47 01.09.2019
2706 Clear 22 1007 18 0 1.02 140.561 07:23 01.09.2019
2707 Clear 31 1011 9 0 1.02 140.561 06:41 01.09.2019
2708 Clear 26 1007 14 0 0.89 247 06:18 01.09.2019
2709 Clear 25 1006 13 0 1.62 144.15 05:38 01.09.2019
2710 Clear 34 1009 8 0 1.62 144.15 04:27 01.09.2019
2711 Clear 34 1009 8 0 1.62 144.15 03:39 01.09.2019
2712 Clear 34 1006 8 0 1.79 175 02:57 01.09.2019
2713 Clear 35 1006 8 0 2.24 213 02:26 01.09.2019
2714 Clear 36 1006 7 0 2.68 233 01:41 01.09.2019
2715 Clear 36 1006 6 0 2.68 233 01:22 01.09.2019
2716 Clear 36 1006 6 0 2.68 233 01:22 01.09.2019
2717 Clear 41 1008 6 0 3.93 128.614 00:42 01.09.2019
2718 Clear 40 1010 8 0 3.04 100.344 00:21 01.09.2019
2719 Clear 40 1010 8 0 3.04 100.344 00:21 01.09.2019
2720 Clear 40 1010 8 0 3.04 100.344 23:48 31.08.2019
2721 Clear 40 1010 8 0 3.04 100.344 23:22 31.08.2019
2722 Clear 40 1010 8 0 3.04 100.344 22:57 31.08.2019
2723 Clear 37 1008 12 0 3.13 25 22:39 31.08.2019
2724 Clear 37 1008 12 0 2.68 40 22:21 31.08.2019
2725 Clear 36 1008 12 0 2.68 360 21:55 31.08.2019
2726 Clear 36 1008 11 0 2.68 16 21:37 31.08.2019
2727 Clear 36 1013 12 0 2.08 91.186 21:18 31.08.2019
2728 Clear 36 1013 12 0 2.08 91.186 20:43 31.08.2019
2729 Clear 36 1013 12 0 2.08 91.186 20:24 31.08.2019
2730 Clear 34 1008 12 0 1.34 50 19:47 31.08.2019
2731 Clear 33 1009 13 0 1.34 35 19:24 31.08.2019
2732 Clear 33 1009 13 0 1.34 35 18:59 31.08.2019
2733 Clear 32 1009 15 0 0.89 91 18:39 31.08.2019
2734 Clear 32 1013 15 0 0.77 95.881 18:19 31.08.2019
2735 Clear 28 1009 19 0 0.45 114 17:55 31.08.2019
2736 Clear 26 1009 22 0 0.77 95.881 17:37 31.08.2019
2737 Clear 24 1009 25 0 0.77 95.881 17:18 31.08.2019
2738 Clear 32 1013 15 0 0.77 95.881 16:55 31.08.2019
2739 Clear 32 1013 15 0 0.77 95.881 16:37 31.08.2019
2740 Clear 32 1013 15 0 0.77 95.881 16:18 31.08.2019
2741 Clear 32 1013 15 0 0.77 95.881 15:41 31.08.2019
2742 Clear 14 1008 36 0 0.27 156.689 15:19 31.08.2019
2743 Clear 16 1008 33 0 0.27 156.689 14:55 31.08.2019
2744 Clear 17 1008 32 0 0.27 156.689 14:36 31.08.2019
2745 -273 0 0 0 0 0 14:18 31.08.2019
2746 Clear 17 1008 32 0 0.27 156.689 13:40 31.08.2019
2747 Clear 17 1008 31 0 0.5 164.593 13:21 31.08.2019
2748 Clear 18 1008 30 0 0.5 164.593 12:57 31.08.2019
2749 Clear 17 1008 30 0 0.5 164.593 12:38 31.08.2019
2750 Clear 17 1008 31 0 0.57 138.109 12:19 31.08.2019
2751 Clear 17 1008 29 0 0.57 138.109 11:46 31.08.2019
2752 Clear 17 1008 29 0 0.57 138.109 11:46 31.08.2019
2753 Clear 18 1008 28 0 0.57 138.109 11:28 31.08.2019
2754 Clear 18 1008 27 0 0.57 138.109 10:58 31.08.2019
2755 Clear 20 1008 27 0 0.57 138.109 10:40 31.08.2019
2756 Clear 21 1008 26 0 0.57 138.109 10:19 31.08.2019
2757 Clear 21 1008 25 0 0.57 138.109 09:54 31.08.2019
2758 Clear 21 1008 26 0 0.58 147.838 09:36 31.08.2019
2759 Clear 21 1008 26 0 1.27 168.672 09:18 31.08.2019
2760 Clear 21 1008 26 0 1.27 168.672 08:41 31.08.2019
2761 Clear 21 1008 26 0 1.27 168.672 08:41 31.08.2019
2762 Clear 21 1008 25 0 1.27 168.672 08:22 31.08.2019
2763 Clear 23 1008 24 0 1.27 168.672 07:40 31.08.2019
2764 Clear 24 1008 23 0 1.27 168.672 07:20 31.08.2019
2765 Clear 23 1008 22 0 0.45 279 06:28 31.08.2019
2766 Clear 26 1007 17 0 0.45 146.239 05:55 31.08.2019
2767 Clear 28 1007 16 0 0.45 146.239 05:30 31.08.2019
2768 Clear 34 1009 13 0 0.45 146.239 04:30 31.08.2019
2769 Clear 34 1009 13 0 0.45 146.239 03:44 31.08.2019
2770 Clear 40 1009 11 0 2.57 111.412 02:30 31.08.2019
2771 Clear 40 1009 11 0 2.57 111.412 01:52 31.08.2019
2772 Clear 40 1009 11 0 2.73 108.342 01:31 31.08.2019
2773 Clear 40 1009 11 0 2.73 108.342 00:49 31.08.2019
2774 Clear 40 1009 11 0 2.73 108.342 00:49 31.08.2019
2775 Clear 40 1009 11 0 2.73 108.342 00:28 31.08.2019
2776 Clear 39 1011 12 0 3.02 100.393 23:57 30.08.2019
2777 Clear 39 1011 12 0 3.02 100.393 23:38 30.08.2019
2778 Clear 39 1011 12 0 3.02 100.393 23:18 30.08.2019
2779 Clear 37 1009 13 0 2.24 32 22:40 30.08.2019
2780 Clear 36 1009 12 0 3.13 50 22:22 30.08.2019
2781 Clear 36 1009 13 0 2.24 36 21:58 30.08.2019
2782 Clear 35 1009 14 0 2.24 45 21:37 30.08.2019
2783 Clear 35 1013 15 0 1.72 65.283 21:19 30.08.2019
2784 Clear 35 1013 15 0 1.72 65.283 21:19 30.08.2019
2785 Clear 35 1013 15 0 1.72 65.283 21:19 30.08.2019
2786 Clear 35 1013 15 0 1.72 65.283 20:58 30.08.2019
2787 Clear 35 1013 15 0 1.72 65.283 20:39 30.08.2019
2788 Clear 35 1013 15 0 1.72 65.283 20:20 30.08.2019
2789 Clear 35 1013 15 0 1.72 65.283 19:57 30.08.2019
2790 Clear 33 1010 17 0 0.89 40 19:39 30.08.2019
2791 Clear 32 1010 17 0 0.89 65 19:19 30.08.2019
2792 Clear 31 1010 18 0 0.89 119 18:49 30.08.2019
2793 Clear 30 1010 19 0 0.89 98 18:25 30.08.2019
2794 Clear 27 1010 25 0 0.45 168 17:59 30.08.2019
2795 Clear 24 1010 29 0 0.45 186 17:40 30.08.2019
2796 Clear 23 1010 31 0 0.45 204 17:19 30.08.2019
2797 Clear 22 1010 34 0 0.8 118.432 16:59 30.08.2019
2798 Clear 18 1010 42 0 0.8 118.432 16:40 30.08.2019
2799 Clear 18 1010 42 0 0.8 118.432 16:40 30.08.2019
2800 Clear 16 1010 47 0 0.8 118.432 16:21 30.08.2019
2801 Clear 15 1009 46 0 0.8 118.432 15:43 30.08.2019
2802 Clear 14 1009 46 0 0.35 82.011 15:23 30.08.2019
2803 Clear 14 1009 46 0 0.35 82.011 15:23 30.08.2019
2804 Clear 14 1009 46 0 0.35 82.011 14:47 30.08.2019
2805 Clear 15 1009 45 0 0.35 82.011 14:29 30.08.2019
2806 Clear 14 1009 46 0 0.45 204 13:59 30.08.2019
2807 Clear 15 1009 44 0 0.35 82.011 13:40 30.08.2019
2808 Clear 15 1009 43 0 0.32 84.362 13:22 30.08.2019
2809 Clear 16 1009 43 0 0.32 84.362 12:55 30.08.2019
2810 Clear 16 1009 41 0 0.32 84.362 12:36 30.08.2019
2811 Clear 16 1009 40 0 0.51 88.641 12:18 30.08.2019
2812 Clear 16 1009 39 0 0.51 88.641 11:41 30.08.2019
2813 Clear 17 1009 39 0 0.51 88.641 11:23 30.08.2019
2814 Clear 18 1009 37 0 0.51 88.641 10:39 30.08.2019
2815 Clear 18 1009 36 0 0.51 88.641 10:21 30.08.2019
2816 Clear 19 1009 35 0 0.51 88.641 09:58 30.08.2019
2817 Clear 20 1009 32 0 0.51 88.641 09:38 30.08.2019
2818 Clear 21 1009 31 0 0.45 260 09:18 30.08.2019
2819 Clear 21 1009 28 0 0.45 25 08:44 30.08.2019
2820 Clear 21 1009 28 0 0.45 25 08:44 30.08.2019
2821 Clear 21 1009 30 0 1.72 170.164 08:25 30.08.2019
2822 Clear 21 1008 31 0 1.72 170.164 07:58 30.08.2019
2823 Clear 21 1008 31 0 1.72 170.164 07:38 30.08.2019
2824 Clear 21 1008 30 0 1.72 170.164 07:20 30.08.2019
2825 Clear 23 1008 27 0 1.72 170.164 06:43 30.08.2019
2826 Clear 24 1008 25 0 2.55 195.474 06:24 30.08.2019
2827 Clear 26 1007 22 0 2.55 195.474 05:43 30.08.2019
2828 Clear 31 1007 13 0 2.68 264 03:58 30.08.2019
2829 Clear 36 1010 11 0 2.55 195.474 03:37 30.08.2019
2830 Clear 33 1007 14 0 3.58 205 02:49 30.08.2019
2831 Clear 34 1007 13 0 2.68 171 02:24 30.08.2019
2832 Clear 34 1007 13 0 2.24 218 01:28 30.08.2019
2833 Clear 34 1007 16 0 3.58 219 00:27 30.08.2019
2834 Clear 34 1008 15 0 3.13 245 23:57 29.08.2019
2835 Clear 34 1008 14 0 2.68 243 23:38 29.08.2019
2836 Clear 34 1008 15 0 3.13 140 23:20 29.08.2019
2837 Clear 36 1009 14 0 1.34 121 22:43 29.08.2019
2838 Clear 34 1009 13 0 0.89 133 22:24 29.08.2019
2839 Clear 34 1009 20 0 1.79 40 21:56 29.08.2019
2840 Clear 35 1009 20 0 3.13 33 21:38 29.08.2019
2841 Clear 33 1010 23 0 2.24 2 21:20 29.08.2019
2842 Clear 33 1010 24 0 2.24 40 20:43 29.08.2019
2843 Clear 36 1014 17 0 3.4 115.169 20:21 29.08.2019
2844 Clear 32 1010 25 0 1.79 33 19:59 29.08.2019
2845 Clear 31 1010 27 0 2.24 79 19:40 29.08.2019
2846 Clear 31 1010 28 0 1.34 54 19:21 29.08.2019
2847 Clear 29 1010 30 0 2.24 61 18:44 29.08.2019
2848 Clear 29 1010 30 0 2.24 61 18:44 29.08.2019
2849 Clear 28 1010 32 0 1.34 108 18:21 29.08.2019
2850 Clear 28 1010 32 0 1.34 108 18:21 29.08.2019
2851 Clear 27 1010 33 0 1.34 66 17:57 29.08.2019
2852 Clear 26 1010 37 0 1.34 89 17:39 29.08.2019
2853 Clear 24 1010 39 0 1.34 50 17:20 29.08.2019
2854 Clear 23 1009 42 0 0.45 50 16:58 29.08.2019
2855 Clear 19 1009 53 0 1.43 104.697 16:40 29.08.2019
2856 Clear 17 1009 57 0 1.43 104.697 16:22 29.08.2019
2857 Clear 17 1009 55 0 1.43 104.697 15:40 29.08.2019
2858 Clear 17 1009 53 0 0.76 121.248 15:21 29.08.2019
2859 Clear 17 1008 51 0 0.76 121.248 14:56 29.08.2019
2860 Clear 17 1008 52 0 0.76 121.248 14:37 29.08.2019
2861 Clear 18 1008 51 0 0.76 121.248 14:19 29.08.2019
2862 Clear 18 1008 49 0 0.76 121.248 13:54 29.08.2019
2863 Clear 18 1008 48 0 0.76 121.248 13:36 29.08.2019
2864 Clear 18 1008 49 0 0.52 107.354 13:18 29.08.2019
2865 Clear 19 1008 45 0 0.52 107.354 12:55 29.08.2019
2866 Clear 19 1008 45 0 0.52 107.354 12:36 29.08.2019
2867 Clear 20 1008 44 0 1.54 154.714 12:18 29.08.2019
2868 Clear 20 1008 44 0 0.45 351 11:40 29.08.2019
2869 Clear 21 1008 43 0 0.45 351 11:20 29.08.2019
2870 Clear 21 1008 41 0 1.54 154.714 10:56 29.08.2019
2871 Clear 22 1008 40 0 1.54 154.714 10:38 29.08.2019
2872 Clear 22 1008 39 0 0.45 281 10:19 29.08.2019
2873 Clear 22 1008 39 0 1.89 162.526 09:41 29.08.2019
2874 Clear 23 1008 37 0 0.45 216 09:18 29.08.2019
2875 Clear 23 1008 38 0 2.08 206.245 08:45 29.08.2019
2876 Clear 24 1007 35 0 2.08 206.245 08:25 29.08.2019
2877 Clear 25 1007 34 0 0.45 267 07:54 29.08.2019
2878 Clear 26 1007 34 0 1.34 254 07:34 29.08.2019
2879 Clear 26 1007 32 0 1.34 220 06:59 29.08.2019
2880 Clear 26 1006 33 0 1.79 228 06:38 29.08.2019
2881 Clear 28 1006 32 0 1.34 181 05:52 29.08.2019
2882 Clear 28 1006 31 0 1.34 208 05:31 29.08.2019
2883 Clear 29 1005 29 0 2.68 179 04:48 29.08.2019
2884 Clear 37 1008 15 0 3.42 215.23 04:28 29.08.2019
2885 Clear 34 1005 18 0 2.68 251 01:55 29.08.2019
2886 Clear 34 1005 18 0 4.02 229 01:35 29.08.2019
2887 Clear 34 1006 17 0 4.02 210 00:48 29.08.2019
2888 Clear 34 1006 15 0 3.58 240 00:24 29.08.2019
2889 Clear 34 1007 15 0 3.13 182 23:59 28.08.2019
2890 Clear 34 1007 18 0 4.47 232 23:39 28.08.2019
2891 Clear 34 1007 18 0 3.58 243 23:21 28.08.2019
2892 Clear 34 1007 18 0 2.24 210 22:56 28.08.2019
2893 Clear 34 1007 19 0 3.13 220 22:38 28.08.2019
2894 Clear 34 1007 19 0 1.79 226 22:18 28.08.2019
2895 Clear 34 1007 17 0 2.68 235 21:43 28.08.2019
2896 Clear 33 1008 18 0 3.58 149 21:25 28.08.2019
2897 Clear 34 1008 18 0 3.58 176 20:59 28.08.2019
2898 Clear 33 1008 20 0 3.13 137 20:40 28.08.2019
2899 Clear 34 1008 19 0 2.24 220 20:22 28.08.2019
2900 Clear 34 1007 23 0 1.79 32 19:44 28.08.2019
2901 Clear 39 1012 15 0 3.42 118.005 19:22 28.08.2019
2902 Clear 32 1007 25 0 1.79 336 18:59 28.08.2019
2903 Clear 31 1007 26 0 1.79 25 18:40 28.08.2019
2904 Clear 31 1007 27 0 2.68 92 18:21 28.08.2019
2905 Clear 28 1007 32 0 1.34 67 17:39 28.08.2019
2906 Clear 27 1006 35 0 0.89 71 17:20 28.08.2019
2907 Clear 24 1006 38 0 2.48 136.632 16:56 28.08.2019
2908 Clear 21 1006 44 0 2.48 136.632 16:38 28.08.2019
2909 Clear 21 1006 44 0 2.48 136.632 16:38 28.08.2019
2910 Clear 19 1006 48 0 2.48 136.632 16:18 28.08.2019
2911 Clear 35 1012 18 0 2.48 136.632 15:38 28.08.2019
2912 Clear 18 1006 44 0 1.14 104.024 15:20 28.08.2019
2913 Clear 18 1005 43 0 1.14 104.024 14:58 28.08.2019
2914 Clear 18 1005 41 0 1.14 104.024 14:40 28.08.2019
2915 Clear 19 1005 41 0 1.14 104.024 14:21 28.08.2019
2916 Clear 19 1005 41 0 1.14 104.024 14:21 28.08.2019
2917 Clear 19 1005 40 0 1.14 104.024 13:59 28.08.2019
2918 Clear 19 1005 40 0 1.14 104.024 13:39 28.08.2019
2919 Clear 20 1005 38 0 1.06 84.552 13:20 28.08.2019
2920 Clear 21 1005 35 0 1.06 84.552 12:43 28.08.2019
2921 Clear 22 1004 33 0 1.06 84.552 12:25 28.08.2019
2922 Clear 22 1004 33 0 0.86 146.551 11:59 28.08.2019
2923 Clear 23 1004 32 0 0.45 77 11:40 28.08.2019
2924 -273 0 0 0 0 0 11:21 28.08.2019
2925 Clear 22 1005 34 0 0.86 146.551 10:56 28.08.2019
2926 Clear 22 1005 32 0 0.86 146.551 10:37 28.08.2019
2927 Clear 22 1005 33 0 0.86 146.551 10:19 28.08.2019
2928 Clear 23 1005 29 0 0.45 233 09:42 28.08.2019
2929 Clear 24 1005 29 0 1.53 193.646 09:21 28.08.2019
2930 Clear 25 1005 28 0 1.53 193.646 08:57 28.08.2019
2931 Clear 27 1005 26 0 0.45 233 08:38 28.08.2019
2932 Clear 27 1004 26 0 1.53 193.646 08:19 28.08.2019
2933 Clear 26 1005 25 0 0.45 242 07:38 28.08.2019
2934 Clear 26 1004 23 0 1.53 193.646 07:20 28.08.2019
2935 Clear 27 1004 22 0 1.53 193.646 06:49 28.08.2019
2936 Clear 28 1004 23 0 3.15 158.408 05:59 28.08.2019
2937 Clear 29 1003 23 0 3.15 158.408 05:24 28.08.2019
2938 Clear 37 1003 14 0 1.34 127 02:18 28.08.2019
2939 Clear 43 1007 10 0 2.2 98.016 01:30 28.08.2019
2940 Clear 43 1007 10 0 2.2 98.016 00:52 28.08.2019
2941 Clear 43 1007 10 0 2.2 98.016 00:33 28.08.2019
2942 Clear 42 1008 10 0 2.44 76.734 23:58 27.08.2019
2943 Clear 42 1008 10 0 2.44 76.734 23:38 27.08.2019
2944 Clear 42 1008 10 0 2.44 76.734 23:19 27.08.2019
2945 Clear 40 1004 11 0 2.68 58 22:42 27.08.2019
2946 Clear 40 1004 12 0 1.34 50 22:23 27.08.2019
2947 Clear 40 1004 11 0 2.24 21 21:57 27.08.2019
2948 Clear 40 1005 11 0 1.34 19 21:38 27.08.2019
2949 Clear 40 1005 11 0 1.34 19 21:38 27.08.2019
2950 Clouds 39 1011 15 0 1.7 74.851 21:20 27.08.2019
2951 Clouds 39 1011 15 0 1.7 74.851 20:59 27.08.2019
2952 Clouds 39 1011 15 0 1.7 74.851 20:40 27.08.2019
2953 Clouds 39 1011 15 0 1.7 74.851 20:19 27.08.2019
2954 Clouds 37 1006 12 0 0.89 34 19:45 27.08.2019
2955 Clouds 36 1006 13 0 0.89 87 19:27 27.08.2019
2956 Clouds 33 1006 14 0 1.7 74.851 18:58 27.08.2019
2957 Clouds 34 1006 13 0 0.45 267 18:39 27.08.2019
2958 Clouds 35 1011 16 0 1.61 117.899 18:18 27.08.2019
2959 Clouds 31 1006 16 0 1.34 311 17:55 27.08.2019
2960 Clouds 29 1006 17 0 1.79 12 17:37 27.08.2019
2961 Clouds 28 1006 18 0 2.24 312 17:18 27.08.2019
2962 Clouds 27 1006 20 0 1.79 304 16:43 27.08.2019
2963 Clouds 26 1006 22 0 1.79 322 16:24 27.08.2019
2964 Clouds 24 1005 23 0 1.79 331 15:57 27.08.2019
2965 Clouds 24 1005 24 0 1.79 329 15:38 27.08.2019
2966 Clouds 24 1005 24 0 2.24 291 15:19 27.08.2019
2967 Clouds 23 1005 27 0 1.79 304 14:43 27.08.2019
2968 Clouds 19 1005 37 0 0.29 75.868 14:24 27.08.2019
2969 Clouds 18 1005 38 0 0.29 75.868 13:56 27.08.2019
2970 Clouds 19 1005 37 0 0.29 75.868 13:36 27.08.2019
2971 Clouds 19 1005 36 0 0.17 16.274 13:18 27.08.2019
2972 Clouds 20 1004 34 0 0.17 16.274 12:41 27.08.2019
2973 Clouds 21 1004 33 0 0.43 183.752 12:20 27.08.2019
2974 Clouds 21 1005 33 0 0.45 40 11:56 27.08.2019
2975 Clouds 20 1005 32 0 0.43 183.752 11:37 27.08.2019
2976 Clouds 19 1005 32 0 0.43 183.752 11:18 27.08.2019
2977 Clouds 20 1005 30 0 0.43 183.752 10:40 27.08.2019
2978 Clouds 20 1005 30 0 0.43 183.752 10:19 27.08.2019
2979 Clouds 21 1005 30 0 0.43 183.752 09:54 27.08.2019
2980 Clouds 21 1005 29 0 0.4 182.726 09:36 27.08.2019
2981 Clouds 21 1005 28 0 1.03 174.927 09:18 27.08.2019
2982 Clouds 22 1005 28 0 1.03 174.927 08:41 27.08.2019
2983 Clouds 23 1005 25 0 1.03 174.927 08:23 27.08.2019
2984 Clouds 24 1005 24 0 1.03 174.927 07:41 27.08.2019
2985 Clouds 26 1005 20 0 1.03 174.927 07:20 27.08.2019
2986 Clouds 27 1005 19 0 1.03 174.927 06:58 27.08.2019
2987 Clouds 27 1005 18 0 0.45 327 06:37 27.08.2019
2988 Clear 27 1005 19 0 0.89 360 06:18 27.08.2019
2989 Clear 29 1004 17 0 0.45 230 05:24 27.08.2019
2990 Clear 37 1008 12 0 2.46 179.977 03:42 27.08.2019
2991 Clouds 42 1008 9 0 2.26 112.589 02:28 27.08.2019
2992 Clouds 42 1008 9 0 2.26 112.589 01:45 27.08.2019
2993 Clouds 42 1007 8 0 2.25 112.82 01:24 27.08.2019
2994 Clouds 42 1007 8 0 2.25 112.82 00:48 27.08.2019
2995 Clouds 42 1007 8 0 2.25 112.82 00:26 27.08.2019
2996 Clouds 41 1009 9 0 1.78 83.446 23:40 26.08.2019
2997 Clouds 41 1009 9 0 1.78 83.446 23:21 26.08.2019
2998 Clouds 41 1009 9 0 1.78 83.446 22:57 26.08.2019
2999 Clouds 39 1007 8 0 1.79 343 22:36 26.08.2019
3000 Clouds 39 1007 8 0 2.24 29 22:18 26.08.2019
3001 Clouds 39 1007 11 0 1.34 24 21:39 26.08.2019
3002 Clouds 37 1012 12 0 1.31 61.268 21:21 26.08.2019
3003 Clouds 37 1012 12 0 1.31 61.268 20:58 26.08.2019
3004 Clouds 37 1012 12 0 1.31 61.268 20:39 26.08.2019
3005 Clouds 37 1012 12 0 1.31 61.268 20:19 26.08.2019
3006 Clouds 37 1012 12 0 1.31 61.268 19:56 26.08.2019
3007 Clouds 36 1008 14 0 0.89 50 19:38 26.08.2019
3008 Clouds 35 1008 14 0 1.34 127 19:18 26.08.2019
3009 Clouds 31 1008 20 0 1.34 290 18:39 26.08.2019
3010 Clouds 31 1008 20 0 0.45 283 18:20 26.08.2019
3011 Clouds 31 1008 20 0 0.45 283 18:20 26.08.2019
3012 Clouds 31 1008 21 0 1.34 300 17:59 26.08.2019
3013 Clouds 29 1008 24 0 0.89 318 17:40 26.08.2019
3014 Clouds 28 1008 26 0 1.79 326 17:19 26.08.2019
3015 Clouds 26 1008 28 0 1.34 335 16:56 26.08.2019
3016 Clouds 25 1008 28 0 1.34 345 16:38 26.08.2019
3017 Clouds 24 1008 29 0 1.34 339 16:18 26.08.2019
3018 Clouds 20 1008 37 0 1.34 320 15:42 26.08.2019
3019 Clear 18 1008 41 0 0.37 125.683 15:22 26.08.2019
3020 Clear 18 1008 41 0 0.37 125.683 14:56 26.08.2019
3021 Clear 17 1007 42 0 0.37 125.683 14:37 26.08.2019
3022 Clear 17 1007 42 0 0.37 125.683 14:37 26.08.2019
3023 Clear 17 1007 42 0 0.37 125.683 14:18 26.08.2019
3024 Clear 18 1008 41 0 0.37 125.683 13:41 26.08.2019
3025 Clear 18 1007 40 0 0.02 177.274 13:21 26.08.2019
3026 Clear 18 1007 39 0 0.02 177.274 12:45 26.08.2019
3027 Clear 18 1007 40 0 0.02 177.274 12:27 26.08.2019
3028 Clear 19 1007 38 0 0.5 234.61 11:58 26.08.2019
3029 Clear 19 1007 36 0 0.5 234.61 11:37 26.08.2019
3030 Clear 19 1007 35 0 0.5 234.61 11:19 26.08.2019
3031 Clear 21 1007 34 0 0.5 234.61 10:54 26.08.2019
3032 Clear 21 1007 34 0 0.5 234.61 10:54 26.08.2019
3033 Clear 21 1007 32 0 0.5 234.61 10:36 26.08.2019
3034 Clear 22 1007 31 0 0.5 234.61 10:18 26.08.2019
3035 Clear 22 1007 33 0 0.89 16 09:41 26.08.2019
3036 Clear 21 1007 34 0 1.75 169.994 09:23 26.08.2019
3037 Clear 21 1007 34 0 1.75 169.994 08:55 26.08.2019
3038 Clear 22 1007 33 0 1.75 169.994 08:37 26.08.2019
3039 Clear 22 1007 32 0 1.75 169.994 08:19 26.08.2019
3040 Clear 23 1007 32 0 1.75 169.994 07:42 26.08.2019
3041 Clear 24 1007 31 0 1.75 169.994 07:24 26.08.2019
3042 Clear 24 1008 30 0 1.75 169.994 06:50 26.08.2019
3043 Clear 25 1007 25 0 1.75 169.994 06:25 26.08.2019
3044 Clear 27 1007 24 0 0.97 155.109 05:56 26.08.2019
3045 Clear 35 1010 14 0 0.97 155.109 04:35 26.08.2019
3046 Clear 35 1010 14 0 0.97 155.109 03:48 26.08.2019
3047 Clear 40 1009 10 0 2.72 106.881 02:19 26.08.2019
3048 Clear 40 1009 10 0 2.77 105.085 01:22 26.08.2019
3049 Clear 40 1009 10 0 2.77 105.085 00:43 26.08.2019
3050 Clear 39 1012 10 0 2.36 78.585 00:24 26.08.2019
3051 Clear 39 1012 10 0 2.36 78.585 23:44 25.08.2019
3052 Clear 39 1012 10 0 2.36 78.585 23:20 25.08.2019
3053 Clear 39 1012 10 0 2.36 78.585 22:58 25.08.2019
3054 Clear 38 1010 10 0 1.79 56 22:39 25.08.2019
3055 Clear 38 1010 12 0 1.79 63 22:20 25.08.2019
3056 Clear 37 1010 11 0 1.34 55 21:58 25.08.2019
3057 Clear 37 1010 12 0 2.24 69 21:39 25.08.2019
3058 Clear 35 1014 14 0 1.94 62.115 21:19 25.08.2019
3059 Clear 35 1014 14 0 1.94 62.115 20:42 25.08.2019
3060 Clear 35 1014 14 0 1.94 62.115 20:20 25.08.2019
3061 Clear 35 1014 14 0 1.94 62.115 19:59 25.08.2019
3062 Clear 33 1011 16 0 2.24 56 19:39 25.08.2019
3063 Clear 32 1011 18 0 1.34 77 19:20 25.08.2019
3064 Clear 32 1011 19 0 0.89 45 18:58 25.08.2019
3065 Clear 28 1011 23 0 0.89 82 18:40 25.08.2019
3066 Clear 28 1011 24 0 0.45 187 18:22 25.08.2019
3067 Clear 26 1011 27 0 0.6 120.964 17:56 25.08.2019
3068 Clear 24 1011 28 0 0.6 120.964 17:38 25.08.2019
3069 Clear 23 1011 30 0 0.6 120.964 17:19 25.08.2019
3070 Clear 18 1011 38 0 0.6 120.964 16:40 25.08.2019
3071 Clear 16 1011 41 0 0.6 120.964 16:22 25.08.2019
3072 Clear 31 1015 19 0 0.6 120.964 15:47 25.08.2019
3073 Clear 31 1015 19 0 0.6 120.964 15:26 25.08.2019
3074 Clear 16 1010 37 0 0.52 106.763 14:56 25.08.2019
3075 Clear 17 1010 32 0 0.52 106.763 14:38 25.08.2019
3076 Clear 17 1010 29 0 0.52 106.763 14:19 25.08.2019
3077 Clear 16 1010 29 0 0.52 106.763 13:43 25.08.2019
3078 Clear 16 1010 29 0 0.39 108.667 13:21 25.08.2019
3079 Clear 18 1010 27 0 0.39 108.667 12:56 25.08.2019
3080 Clear 18 1010 27 0 0.39 108.667 12:37 25.08.2019
3081 Clear 18 1010 27 0 0.39 108.667 12:37 25.08.2019
3082 Clear 19 1010 26 0 0.46 193.347 12:19 25.08.2019
3083 Clear 19 1010 29 0 0.45 84 11:54 25.08.2019
3084 Clear 19 1010 31 0 0.45 60 11:36 25.08.2019
3085 Clear 19 1010 32 0 0.45 80 11:18 25.08.2019
3086 Clear 21 1010 28 0 0.46 193.347 10:40 25.08.2019
3087 Clear 22 1010 26 0 0.46 193.347 10:21 25.08.2019
3088 Clear 23 1010 23 0 0.46 193.347 09:57 25.08.2019
3089 Clouds 29 1013 17 0 0.37 153.09 09:39 25.08.2019
3090 Clear 23 1010 22 0 1.34 160 09:20 25.08.2019
3091 Clear 23 1010 19 0 1.51 209.298 08:42 25.08.2019
3092 Clear 24 1010 17 0 0.89 160 08:22 25.08.2019
3093 Clear 24 1010 16 0 0.89 128 07:43 25.08.2019
3094 Clear 32 1013 14 0 1.51 209.298 07:22 25.08.2019
3095 Clear 27 1010 16 0 1.79 230 06:23 25.08.2019
3096 Clear 35 1011 9 0 2.78 200.443 04:53 25.08.2019
3097 Clear 35 1011 9 0 2.78 200.443 03:36 25.08.2019
3098 Clear 32 1009 7 0 3.13 221 02:40 25.08.2019
3099 Clear 33 1009 8 0 3.58 235 01:35 25.08.2019
3100 Clouds 41 1010 6 0 3.76 192.302 00:40 25.08.2019
3101 Clouds 40 1011 9 0 5.22 118.829 00:21 25.08.2019
3102 Clouds 40 1011 9 0 5.22 118.829 23:52 24.08.2019
3103 Clouds 40 1011 9 0 5.22 118.829 23:23 24.08.2019
3104 Clouds 40 1011 9 0 5.22 118.829 22:56 24.08.2019
3105 Clouds 36 1010 10 0 2.24 70 22:38 24.08.2019
3106 Clouds 36 1010 10 0 3.13 8 22:19 24.08.2019
3107 Clouds 34 1010 12 0 2.24 79 21:56 24.08.2019
3108 Clouds 34 1010 13 0 2.24 19 21:38 24.08.2019
3109 Clear 35 1013 12 0 2.4 96.272 21:19 24.08.2019
3110 Clear 35 1013 12 0 2.4 96.272 20:55 24.08.2019
3111 Clear 35 1013 12 0 2.4 96.272 20:37 24.08.2019
3112 Clear 35 1013 12 0 2.4 96.272 20:18 24.08.2019
3113 Clear 35 1013 12 0 2.4 96.272 20:18 24.08.2019
3114 Clear 35 1013 12 0 2.4 96.272 19:57 24.08.2019
3115 Clear 35 1013 12 0 2.4 96.272 19:57 24.08.2019
3116 Clear 32 1010 14 0 1.34 56 19:37 24.08.2019
3117 Clear 31 1010 15 0 1.79 19 19:18 24.08.2019
3118 Clear 31 1010 15 0 1.79 19 19:18 24.08.2019
3119 Clear 30 1010 17 0 1.34 64 18:42 24.08.2019
3120 Clear 28 1010 17 0 0.89 50 18:23 24.08.2019
3121 Clear 26 1010 19 0 0.89 45 17:45 24.08.2019
3122 Clear 22 1010 22 0 1.47 93.396 17:25 24.08.2019
3123 Clear 19 1010 24 0 1.47 93.396 16:55 24.08.2019
3124 Clear 18 1010 24 0 1.47 93.396 16:36 24.08.2019
3125 Clear 31 1014 13 0 1.47 93.396 16:18 24.08.2019
3126 Clear 31 1014 13 0 1.47 93.396 15:41 24.08.2019
3127 Clear 15 1009 24 0 0.83 87.935 15:23 24.08.2019
3128 Clear 16 1009 22 0 0.83 87.935 14:45 24.08.2019
3129 Clear 17 1009 18 0 0.45 8 14:23 24.08.2019
3130 Clear 17 1009 17 0 0.45 8 13:59 24.08.2019
3131 Clear 17 1009 17 0 0.83 87.935 13:41 24.08.2019
3132 Clear 17 1008 17 0 0.45 92 13:22 24.08.2019
3133 Clear 17 1008 18 0 0.97 94.308 12:58 24.08.2019
3134 Clear 18 1008 18 0 0.97 94.308 12:39 24.08.2019
3135 Clear 19 1008 18 0 0.82 131.396 12:20 24.08.2019
3136 Clear 18 1008 19 0 0.89 63 11:45 24.08.2019
3137 Clear 18 1008 20 0 0.82 131.396 11:24 24.08.2019
3138 Clear 17 1008 19 0 0.82 131.396 10:53 24.08.2019
3139 Clear 18 1008 19 0 0.82 131.396 10:24 24.08.2019
3140 Clear 18 1008 19 0 0.82 131.396 09:58 24.08.2019
3141 Clear 18 1007 19 0 1.23 122.875 09:38 24.08.2019
3142 Clouds 18 1007 17 0 1.49 192.275 09:18 24.08.2019
3143 Clouds 20 1007 15 0 1.49 192.275 08:41 24.08.2019
3144 Clouds 20 1007 15 0 1.49 192.275 08:23 24.08.2019
3145 Clouds 21 1007 10 0 1.49 192.275 07:50 24.08.2019
3146 Clouds 21 1007 8 0 1.49 192.275 07:28 24.08.2019
3147 Clouds 24 1006 5 0 1.49 192.275 06:31 24.08.2019
3148 Clouds 25 1006 5 0 0.45 303 05:57 24.08.2019
3149 Clouds 27 1005 5 0 0.89 208 05:35 24.08.2019
3150 Clouds 35 1008 8 0 1.94 170.727 03:40 24.08.2019
3151 Clouds 32 1004 11 0 2.24 220 02:39 24.08.2019
3152 Clouds 33 1004 14 0 4.02 227 01:53 24.08.2019
3153 Clouds 33 1003 15 0 3.58 228 01:22 24.08.2019
3154 Clouds 33 1003 15 0 2.68 245 00:45 24.08.2019
3155 Clouds 33 1004 16 0 3.58 256 00:21 24.08.2019
3156 Clouds 40 1007 9 0 5.65 121.3 23:44 23.08.2019
3157 Clouds 40 1007 9 0 5.65 121.3 23:19 23.08.2019
3158 Clouds 36 1004 15 0 1.79 45 22:44 23.08.2019
3159 Clouds 35 1004 15 0 2.24 45 22:24 23.08.2019
3160 Clouds 34 1005 16 0 2.68 28 21:55 23.08.2019
3161 Clouds 34 1005 17 0 1.79 81 21:37 23.08.2019
3162 Clear 35 1009 14 0 2.9 114.884 21:18 23.08.2019
3163 Clear 32 1005 18 0 1.79 58 20:50 23.08.2019
3164 Clear 32 1005 18 0 1.79 58 20:32 23.08.2019
3165 Clear 32 1005 19 0 1.79 22 19:46 23.08.2019
3166 Clear 31 1005 20 0 1.79 91 19:19 23.08.2019
3167 Clear 30 1005 21 0 1.34 74 18:55 23.08.2019
3168 Clear 29 1005 23 0 0.89 40 18:37 23.08.2019
3169 Clear 31 1009 18 0 1.26 127.605 18:18 23.08.2019
3170 Clear 27 1005 28 0 0.45 73 17:41 23.08.2019
3171 Clear 23 1005 32 0 1.26 127.605 17:23 23.08.2019
3172 Clear 21 1005 39 0 0.45 57 16:56 23.08.2019
3173 Clear 31 1009 18 0 1.26 127.605 16:38 23.08.2019
3174 Clear 17 1005 46 0 0.45 329 16:20 23.08.2019
3175 Clear 31 1009 18 0 1.26 127.605 15:40 23.08.2019
3176 Clouds 16 1004 48 0 0.48 126.125 15:22 23.08.2019
3177 Clouds 16 1004 48 0 0.45 329 14:56 23.08.2019
3178 Clouds 16 1003 48 0 0.48 126.125 14:38 23.08.2019
3179 Clouds 16 1003 48 0 0.48 126.125 14:20 23.08.2019
3180 Clouds 16 1003 48 0 0.48 126.125 13:42 23.08.2019
3181 Clouds 16 1003 47 0 0.44 140.427 13:23 23.08.2019
3182 Clouds 16 1003 46 0 0.44 140.427 13:00 23.08.2019
3183 Clouds 17 1003 45 0 0.44 140.427 12:41 23.08.2019
3184 Clouds 17 1003 43 0 0.29 68.493 12:22 23.08.2019
3185 Clouds 17 1003 42 0 0.29 68.493 11:58 23.08.2019
3186 Clouds 18 1003 38 0 0.45 302 11:39 23.08.2019
3187 Clouds 19 1003 39 0 0.29 68.493 11:19 23.08.2019
3188 Clouds 19 1003 38 0 0.29 68.493 10:57 23.08.2019
3189 Clouds 19 1002 36 0 0.29 68.493 10:39 23.08.2019
3190 Clouds 19 1002 34 0 0.53 108.469 10:19 23.08.2019
3191 Clouds 21 1002 30 0 0.53 108.469 09:44 23.08.2019
3192 Clouds 21 1002 29 0 0.45 225 09:25 23.08.2019
3193 Clouds 21 1002 29 0 1.59 178.994 08:56 23.08.2019
3194 Clouds 20 1002 31 0 0.45 210 08:37 23.08.2019
3195 Clouds 20 1002 30 0 1.59 178.994 08:18 23.08.2019
3196 Clouds 22 1002 28 0 1.59 178.994 07:41 23.08.2019
3197 Clouds 23 1001 26 0 1.59 178.994 07:23 23.08.2019
3198 Clouds 32 1005 14 0 1.59 178.994 06:43 23.08.2019
3199 Clouds 26 1001 24 0 0.89 3 06:22 23.08.2019
3200 Clouds 26 1001 23 0 0.45 206 05:46 23.08.2019
3201 Clouds 27 1001 21 0 0.51 359.1 05:26 23.08.2019
3202 Clouds 34 1004 12 0 0.51 359.1 03:59 23.08.2019
3203 Clouds 39 1003 10 0 2.86 118.188 02:39 23.08.2019
3204 Clouds 39 1003 10 0 2.86 118.188 02:21 23.08.2019
3205 Clouds 39 1003 10 0 2.86 118.188 01:36 23.08.2019
3206 Clouds 39 1003 10 0 3.21 121.786 00:43 23.08.2019
3207 Clouds 38 1005 10 0 3.59 121.569 00:18 23.08.2019
3208 Clouds 38 1005 10 0 3.59 121.569 23:43 22.08.2019
3209 Clouds 38 1005 10 0 3.59 121.569 23:22 22.08.2019
3210 Clouds 36 1001 12 0 2.24 45 22:54 22.08.2019
3211 Clouds 36 1002 12 0 2.24 18 22:36 22.08.2019
3212 Clouds 35 1002 12 0 2.24 40 22:18 22.08.2019
3213 Clouds 36 1002 10 0 1.79 29 21:41 22.08.2019
3214 Clouds 35 1007 11 0 2.82 116.292 21:23 22.08.2019
3215 Clouds 35 1007 11 0 2.82 116.292 21:23 22.08.2019
3216 Clouds 35 1007 11 0 2.82 116.292 20:59 22.08.2019
3217 Clouds 35 1007 11 0 2.82 116.292 20:41 22.08.2019
3218 Clouds 35 1007 11 0 2.82 116.292 20:20 22.08.2019
3219 Clouds 35 1007 11 0 2.82 116.292 19:59 22.08.2019
3220 Clouds 31 1002 16 0 1.34 62 19:40 22.08.2019
3221 Clouds 31 1002 16 0 1.34 40 19:21 22.08.2019
3222 Clouds 31 1002 15 0 1.34 54 18:59 22.08.2019
3223 Clouds 29 1002 16 0 0.89 54 18:40 22.08.2019
3224 Clouds 31 1007 14 0 1.01 100.376 18:20 22.08.2019
3225 Clouds 28 1002 18 0 0.89 71 17:57 22.08.2019
3226 Clouds 24 1002 23 0 1.01 100.376 17:39 22.08.2019
3227 Clouds 23 1002 24 0 1.01 100.376 17:19 22.08.2019
3228 Clouds 20 1002 30 0 0.45 241 16:56 22.08.2019
3229 Clouds 18 1002 35 0 1.01 100.376 16:37 22.08.2019
3230 Clouds 31 1007 14 0 1.01 100.376 16:19 22.08.2019
3231 Clouds 31 1007 14 0 1.01 100.376 16:19 22.08.2019
3232 Clouds 31 1007 14 0 1.01 100.376 15:42 22.08.2019
3233 Clouds 31 1007 14 0 1.01 100.376 15:42 22.08.2019
3234 Clouds 15 1002 37 0 1.08 113.73 15:24 22.08.2019
3235 Clouds 15 1002 37 0 1.08 113.73 15:24 22.08.2019
3236 Clouds 14 1002 39 0 1.08 113.73 14:58 22.08.2019
3237 Clouds 14 1002 39 0 1.08 113.73 14:58 22.08.2019
3238 Clouds 14 1002 39 0 1.08 113.73 14:58 22.08.2019
3239 Clouds 14 1002 39 0 1.08 113.73 14:58 22.08.2019
3240 Clouds 14 1001 38 0 1.08 113.73 14:40 22.08.2019
3241 Clouds 14 1001 37 0 1.08 113.73 14:21 22.08.2019
3242 Clouds 15 1001 35 0 1.08 113.73 13:58 22.08.2019
3243 Clouds 16 1001 34 0 1.08 113.73 13:39 22.08.2019
3244 Clouds 16 1002 32 0 0.44 111.392 13:19 22.08.2019
3245 Clouds 17 1002 31 0 0.44 111.392 12:56 22.08.2019
3246 Clouds 17 1002 29 0 0.44 111.392 12:37 22.08.2019
3247 Clear 18 1002 30 0 0.51 108.722 12:19 22.08.2019
3248 Clear 17 1002 29 0 0.51 108.722 11:42 22.08.2019
3249 Clear 18 1002 27 0 0.51 108.722 11:20 22.08.2019
3250 Clear 19 1002 25 0 0.51 108.722 10:58 22.08.2019
3251 Clear 20 1002 24 0 0.45 339 10:38 22.08.2019
3252 Clear 21 1002 24 0 0.51 108.722 10:20 22.08.2019
3253 Clear 21 1002 24 0 0.94 123.098 09:56 22.08.2019
3254 Clear 21 1003 24 0 0.94 123.098 09:38 22.08.2019
3255 Clouds 21 1002 25 0 0.87 208.274 09:20 22.08.2019
3256 Clouds 20 1003 24 0 0.87 208.274 08:42 22.08.2019
3257 Clouds 21 1003 24 0 0.87 208.274 08:22 22.08.2019
3258 Clouds 21 1003 24 0 0.87 208.274 07:58 22.08.2019
3259 Clouds 23 1003 21 0 0.87 208.274 07:39 22.08.2019
3260 Clouds 23 1003 21 0 0.87 208.274 07:19 22.08.2019
3261 Clouds 23 1003 21 0 0.45 108 06:47 22.08.2019
3262 Clouds 24 1004 16 0 0.58 155.754 06:22 22.08.2019
3263 Clouds 26 1003 13 0 0.58 155.754 05:29 22.08.2019
3264 Clouds 35 1006 6 0 0.58 155.754 04:19 22.08.2019
3265 Clear 34 1003 3 0 2.24 204 02:37 22.08.2019
3266 Clear 35 1004 3 0 3.13 218 01:40 22.08.2019
3267 Clear 35 1004 4 0 2.24 229 01:20 22.08.2019
3268 Clear 41 1006 4 0 3.39 114.311 00:41 22.08.2019
3269 Clear 40 1009 5 0 2.88 88.506 00:22 22.08.2019
3270 Clear 40 1009 5 0 2.88 88.506 23:44 21.08.2019
3271 Clear 40 1009 5 0 2.88 88.506 23:25 21.08.2019
3272 Clear 40 1009 5 0 2.88 88.506 22:58 21.08.2019
3273 Clear 38 1006 7 0 1.79 16 22:40 21.08.2019
3274 Clear 38 1006 7 0 1.79 27 22:21 21.08.2019
3275 Clear 38 1006 7 0 2.24 62 21:56 21.08.2019
3276 Clear 37 1007 6 0 1.79 35 21:38 21.08.2019
3277 Clear 36 1011 9 0 1.69 65.36 21:19 21.08.2019
3278 Clear 36 1011 9 0 1.69 65.36 20:56 21.08.2019
3279 Clear 36 1011 9 0 1.69 65.36 20:56 21.08.2019
3280 Clear 36 1011 9 0 1.69 65.36 20:38 21.08.2019
3281 Clear 36 1011 9 0 1.69 65.36 20:20 21.08.2019
3282 Clear 35 1008 8 0 1.34 54 19:44 21.08.2019
3283 Clear 35 1008 8 0 1.34 54 19:44 21.08.2019
3284 Clear 34 1008 9 0 1.34 28 19:25 21.08.2019
3285 Clear 33 1008 9 0 0.89 72 18:58 21.08.2019
3286 Clear 31 1008 11 0 0.89 274 18:39 21.08.2019
3287 Clear 32 1012 11 0 0.42 69.041 18:20 21.08.2019
3288 Clear 29 1008 13 0 1.34 339 17:45 21.08.2019
3289 Clear 27 1008 14 0 2.24 339 17:23 21.08.2019
3290 Clear 26 1008 15 0 2.24 356 16:59 21.08.2019
3291 Clear 24 1008 16 0 1.79 339 16:40 21.08.2019
3292 Clear 23 1008 17 0 1.79 303 16:21 21.08.2019
3293 Clear 21 1008 19 0 1.79 343 15:58 21.08.2019
3294 Clear 32 1012 11 0 0.42 69.041 15:39 21.08.2019
3295 Clear 13 1008 29 0 0.55 122.327 15:20 21.08.2019
3296 Clear 14 1008 28 0 0.55 122.327 14:57 21.08.2019
3297 Clear 15 1008 27 0 0.55 122.327 14:38 21.08.2019
3298 Clear 14 1008 28 0 0.55 122.327 14:19 21.08.2019
3299 Clear 14 1008 28 0 0.55 122.327 14:19 21.08.2019
3300 Clear 14 1008 27 0 0.55 122.327 13:44 21.08.2019
3301 Clear 15 1008 26 0 0.54 92.968 13:21 21.08.2019
3302 Clear 14 1008 26 0 0.54 92.968 12:59 21.08.2019
3303 Clear 16 1008 24 0 0.54 92.968 12:40 21.08.2019
3304 Clear 16 1008 24 0 0.77 247.192 12:21 21.08.2019
3305 Clear 16 1008 25 0 0.77 247.192 11:57 21.08.2019
3306 Clear 17 1007 23 0 0.77 247.192 11:39 21.08.2019
3307 Clear 17 1008 23 0 0.77 247.192 11:21 21.08.2019
3308 Clear 17 1008 23 0 0.77 247.192 10:56 21.08.2019
3309 Clear 18 1008 23 0 0.77 247.192 10:37 21.08.2019
3310 Clear 18 1008 23 0 0.77 247.192 10:19 21.08.2019
3311 Clear 17 1008 24 0 0.77 247.192 09:43 21.08.2019
3312 Clear 17 1008 24 0 0.4 204.905 09:23 21.08.2019
3313 Clear 18 1008 22 0 0.4 204.905 08:59 21.08.2019
3314 Clear 19 1008 22 0 0.4 204.905 08:41 21.08.2019
3315 Clear 20 1008 20 0 0.4 204.905 08:21 21.08.2019
3316 Clear 21 1008 17 0 0.4 204.905 07:40 21.08.2019
3317 Clear 22 1008 17 0 0.4 204.905 07:21 21.08.2019
3318 Clear 23 1008 15 0 0.4 204.905 06:49 21.08.2019
3319 Clear 24 1008 15 0 0.29 74.571 06:22 21.08.2019
3320 Clear 26 1007 13 0 0.29 74.571 05:42 21.08.2019
3321 Clear 27 1007 11 0 0.45 212 05:23 21.08.2019
3322 Clear 34 1009 8 0 0.29 74.571 03:38 21.08.2019
3323 Clear 39 1009 7 0 2.49 90 01:50 21.08.2019
3324 Clear 39 1009 6 0 2.64 94.262 00:46 21.08.2019
3325 Clear 38 1010 9 0 2.61 96.149 00:24 21.08.2019
3326 Clear 38 1010 9 0 2.61 96.149 23:59 20.08.2019
3327 Clear 38 1010 9 0 2.61 96.149 23:41 20.08.2019
3328 Clear 38 1010 9 0 2.61 96.149 23:18 20.08.2019
3329 Clear 35 1008 10 0 2.24 7 22:56 20.08.2019
3330 Clear 35 1009 10 0 2.24 50 22:37 20.08.2019
3331 Clear 35 1009 10 0 1.79 54 22:19 20.08.2019
3332 Clear 34 1009 10 0 2.24 40 21:57 20.08.2019
3333 Clear 34 1009 10 0 3.13 21 21:37 20.08.2019
3334 Clear 34 1013 12 0 1.81 68.792 21:19 20.08.2019
3335 Clear 34 1013 12 0 1.81 68.792 20:43 20.08.2019
3336 Clear 34 1013 12 0 1.81 68.792 20:24 20.08.2019
3337 Clear 34 1013 12 0 1.81 68.792 19:58 20.08.2019
3338 Clear 31 1010 15 0 1.34 56 19:38 20.08.2019
3339 Clear 31 1010 14 0 0.89 31 19:20 20.08.2019
3340 Clear 29 1010 18 0 0.89 58 18:55 20.08.2019
3341 Clear 28 1010 20 0 0.89 58 18:37 20.08.2019
3342 Clear 31 1013 14 0 0.57 71.819 18:18 20.08.2019
3343 Clear 24 1009 25 0 0.89 81 17:54 20.08.2019
3344 Clear 23 1009 29 0 0.57 71.819 17:36 20.08.2019
3345 Clear 22 1009 31 0 0.57 71.819 17:18 20.08.2019
3346 Clear 19 1009 37 0 0.57 71.819 16:41 20.08.2019
3347 Clear 31 1013 14 0 0.57 71.819 16:23 20.08.2019
3348 Clear 31 1013 14 0 0.57 71.819 15:41 20.08.2019
3349 Clear 13 1009 44 0 0.59 113.845 15:18 20.08.2019
3350 Clear 13 1009 45 0 0.59 113.845 14:56 20.08.2019
3351 Clear 13 1009 47 0 0.59 113.845 14:38 20.08.2019
3352 Clear 13 1009 44 0 0.59 113.845 14:19 20.08.2019
3353 Clear 13 1008 41 0 0.59 113.845 13:55 20.08.2019
3354 Clear 14 1008 41 0 0.59 113.845 13:37 20.08.2019
3355 Clear 14 1008 39 0 0.77 120.058 13:18 20.08.2019
3356 Clear 16 1008 36 0 0.77 120.058 12:48 20.08.2019
3357 Clear 16 1008 34 0 0.52 162.744 12:24 20.08.2019
3358 Clear 16 1008 33 0 0.52 162.744 11:56 20.08.2019
3359 Clear 17 1009 32 0 0.52 162.744 11:38 20.08.2019
3360 Clear 17 1008 30 0 0.52 162.744 11:18 20.08.2019
3361 Clear 17 1008 31 0 0.52 162.744 10:56 20.08.2019
3362 Clear 18 1008 29 0 0.45 89 10:37 20.08.2019
3363 Clear 18 1009 30 0 0.52 162.744 10:18 20.08.2019
3364 Clear 18 1009 32 0 0.52 162.744 09:41 20.08.2019
3365 Clear 19 1009 30 0 1.79 198.506 09:22 20.08.2019
3366 Clear 21 1008 27 0 1.79 198.506 08:43 20.08.2019
3367 Clear 21 1009 28 0 0.45 150 08:24 20.08.2019
3368 Clear 21 1009 28 0 1.79 198.506 07:58 20.08.2019
3369 Clear 21 1009 26 0 1.79 198.506 07:40 20.08.2019
3370 Clear 21 1009 26 0 1.79 198.506 07:22 20.08.2019
3371 Clear 22 1009 25 0 1.79 198.506 06:55 20.08.2019
3372 Clear 24 1008 21 0 3.48 195.536 06:22 20.08.2019
3373 Clear 25 1008 19 0 1.79 209 05:48 20.08.2019
3374 Clear 36 1010 8 0 3.48 195.536 04:56 20.08.2019
3375 Clear 36 1010 8 0 3.48 195.536 03:37 20.08.2019
3376 Clouds 32 1007 8 0 1.34 171 02:34 20.08.2019
3377 Clouds 33 1007 9 0 0.89 269 01:24 20.08.2019
3378 Clouds 39 1009 6 0 3.03 130.145 00:50 20.08.2019
3379 Clouds 39 1009 6 0 3.03 130.145 00:31 20.08.2019
3380 Clouds 37 1011 9 0 3.08 96.539 23:57 19.08.2019
3381 Clouds 37 1011 9 0 3.08 96.539 23:38 19.08.2019
3382 Clouds 37 1011 9 0 3.08 96.539 23:18 19.08.2019
3383 Clouds 34 1008 11 0 2.24 20 22:54 19.08.2019
3384 Clouds 34 1009 11 0 1.79 50 22:36 19.08.2019
3385 Clouds 34 1009 11 0 1.79 56 22:18 19.08.2019
3386 Clouds 33 1009 11 0 2.24 33 21:55 19.08.2019
3387 Clouds 37 1011 9 0 2.68 92.141 21:36 19.08.2019
3388 Clouds 33 1013 13 0 1.9 76.323 21:18 19.08.2019
3389 Clouds 33 1013 13 0 1.9 76.323 20:39 19.08.2019
3390 Clouds 33 1013 13 0 1.9 76.323 20:20 19.08.2019
3391 Clouds 33 1013 13 0 1.9 76.323 19:58 19.08.2019
3392 Clouds 29 1009 18 0 1.34 76 19:39 19.08.2019
3393 Clouds 28 1009 20 0 1.34 50 19:19 19.08.2019
3394 Clouds 28 1009 20 0 1.34 352 18:45 19.08.2019
3395 Clouds 27 1009 21 0 1.34 75 18:27 19.08.2019
3396 Clouds 26 1009 24 0 1.34 85 17:59 19.08.2019
3397 Clouds 23 1009 26 0 0.45 40 17:41 19.08.2019
3398 Clouds 22 1009 28 0 0.89 94 17:20 19.08.2019
3399 Clouds 21 1008 32 0 1.12 112.333 16:58 19.08.2019
3400 Clouds 16 1009 42 0 1.12 112.333 16:37 19.08.2019
3401 Clouds 30 1012 15 0 1.12 112.333 16:19 19.08.2019
3402 Clouds 30 1012 15 0 1.12 112.333 15:55 19.08.2019
3403 Clouds 30 1012 15 0 1.12 112.333 15:37 19.08.2019
3404 Clouds 13 1008 43 0 0.64 100.625 15:18 19.08.2019
3405 Clouds 13 1008 41 0 0.64 100.625 14:41 19.08.2019
3406 Clouds 14 1007 39 0 0.64 100.625 14:22 19.08.2019
3407 Clouds 14 1007 40 0 0.64 100.625 13:57 19.08.2019
3408 Clouds 13 1007 39 0 0.45 67 13:38 19.08.2019
3409 Clouds 13 1007 39 0 0.45 67 13:38 19.08.2019
3410 Clouds 14 1007 38 0 0.84 105.135 13:19 19.08.2019
3411 Clouds 14 1007 38 0 0.84 105.135 13:19 19.08.2019
3412 Clouds 14 1007 39 0 0.84 105.135 12:45 19.08.2019
3413 Clear 15 1007 35 0 1.1 152.992 12:25 19.08.2019
3414 Clear 16 1007 35 0 1.1 152.992 11:59 19.08.2019
3415 Clear 16 1007 36 0 1.1 152.992 11:39 19.08.2019
3416 Clear 16 1007 35 0 1.1 152.992 11:20 19.08.2019
3417 Clear 16 1007 35 0 1.1 152.992 10:56 19.08.2019
3418 Clear 16 1007 35 0 1.1 152.992 10:37 19.08.2019
3419 Clear 16 1007 35 0 1.1 152.992 10:37 19.08.2019
3420 Clear 16 1007 34 0 1.1 152.992 10:18 19.08.2019
3421 Clear 17 1007 32 0 1.1 152.992 09:44 19.08.2019
3422 Clear 18 1007 32 0 2.13 199.301 09:24 19.08.2019
3423 Clear 18 1007 31 0 2.13 199.301 08:57 19.08.2019
3424 Clear 19 1007 27 0 2.13 199.301 08:39 19.08.2019
3425 Clear 21 1007 27 0 2.13 199.301 08:19 19.08.2019
3426 Clear 21 1007 26 0 2.13 199.301 07:48 19.08.2019
3427 Clear 22 1007 24 0 2.13 199.301 07:30 19.08.2019
3428 Clear 23 1006 22 0 0.45 183 06:48 19.08.2019
3429 Clear 24 1006 21 0 1.34 176 06:27 19.08.2019
3430 Clear 35 1008 8 0 2.66 166.895 04:57 19.08.2019
3431 Clear 35 1008 8 0 2.66 166.895 04:27 19.08.2019
3432 Clear 35 1008 8 0 2.66 166.895 04:27 19.08.2019
3433 Clear 31 1004 6 0 1.79 190 03:23 19.08.2019
3434 Clear 32 1005 7 0 2.68 225 02:24 19.08.2019
3435 Clear 39 1007 6 0 5.35 152.156 01:34 19.08.2019
3436 Clear 39 1006 7 0 5.79 154.076 00:44 19.08.2019
3437 Clear 33 1005 8 0 1.79 161 00:23 19.08.2019
3438 Clear 38 1008 7 0 6.04 122.353 23:42 18.08.2019
3439 Clear 38 1008 7 0 6.04 122.353 23:21 18.08.2019
3440 Clear 34 1006 12 0 2.24 40 22:57 18.08.2019
3441 Clear 34 1006 12 0 3.13 59 22:38 18.08.2019
3442 Clear 34 1006 12 0 2.24 65 22:20 18.08.2019
3443 Clear 38 1008 7 0 6.04 122.353 21:56 18.08.2019
3444 Clear 38 1008 7 0 6.04 122.353 21:37 18.08.2019
3445 Clear 35 1010 12 0 2.86 107.826 21:19 18.08.2019
3446 Clear 35 1010 12 0 2.86 107.826 20:44 18.08.2019
3447 Clear 35 1010 12 0 2.86 107.826 20:26 18.08.2019
3448 Clear 35 1010 12 0 2.86 107.826 20:26 18.08.2019
3449 Clear 35 1010 12 0 2.86 107.826 19:56 18.08.2019
3450 Clear 35 1010 12 0 2.86 107.826 19:38 18.08.2019
3451 Clear 35 1010 12 0 2.86 107.826 19:19 18.08.2019
3452 Clear 35 1010 12 0 2.86 107.826 18:54 18.08.2019
3453 Clear 35 1010 12 0 2.86 107.826 18:36 18.08.2019
3454 Clear 30 1009 16 0 1.55 120.533 18:18 18.08.2019
3455 Clear 30 1009 16 0 1.55 120.533 17:43 18.08.2019
3456 Clear 30 1009 16 0 1.55 120.533 17:19 18.08.2019
3457 Clear 30 1009 16 0 1.55 120.533 16:59 18.08.2019
3458 Clear 30 1009 16 0 1.55 120.533 16:40 18.08.2019
3459 Clear 30 1009 16 0 1.55 120.533 16:20 18.08.2019
3460 Clear 30 1009 16 0 1.55 120.533 15:58 18.08.2019
3461 Clear 30 1009 16 0 1.55 120.533 15:39 18.08.2019
3462 Clouds 12 1004 43 0 0.83 91.176 15:20 18.08.2019
3463 Clouds 13 1004 41 0 0.83 91.176 14:56 18.08.2019
3464 Clouds 13 1004 40 0 0.83 91.176 14:37 18.08.2019
3465 Clouds 13 1004 41 0 0.83 91.176 14:18 18.08.2019
3466 Clouds 14 1003 39 0 0.83 91.176 13:43 18.08.2019
3467 Clouds 27 1008 20 0 0.83 91.176 13:24 18.08.2019
3468 Clouds 27 1008 20 0 0.83 91.176 13:24 18.08.2019
3469 Clouds 27 1008 20 0 0.83 91.176 12:59 18.08.2019
3470 Clouds 27 1008 20 0 0.83 91.176 12:40 18.08.2019
3471 Clouds 29 1007 17 0 0.71 137.168 12:22 18.08.2019
3472 Clouds 29 1007 17 0 0.71 137.168 11:54 18.08.2019
3473 Clouds 29 1007 17 0 0.71 137.168 11:36 18.08.2019
3474 Clouds 29 1007 17 0 0.71 137.168 11:18 18.08.2019
3475 Clouds 29 1007 17 0 0.71 137.168 10:41 18.08.2019
3476 Clouds 29 1007 17 0 0.71 137.168 10:19 18.08.2019
3477 Clouds 29 1007 17 0 0.71 137.168 09:50 18.08.2019
3478 Clear 33 1007 12 0 1.89 185.378 09:22 18.08.2019
3479 Clear 33 1007 12 0 1.89 185.378 08:54 18.08.2019
3480 Clear 33 1007 12 0 1.89 185.378 08:36 18.08.2019
3481 Clear 33 1007 12 0 1.89 185.378 08:18 18.08.2019
3482 Clear 33 1007 12 0 1.89 185.378 07:43 18.08.2019
3483 Clear 33 1007 12 0 1.89 185.378 07:24 18.08.2019
3484 Clear 37 1005 7 0 3.18 160.584 05:47 18.08.2019
3485 Clear 37 1005 7 0 3.18 160.584 04:53 18.08.2019
3486 Clear 37 1005 7 0 3.18 160.584 03:36 18.08.2019
3487 Clear 40 1004 7 0 4.68 132.109 02:46 18.08.2019
3488 Clear 40 1004 7 0 4.68 132.109 02:23 18.08.2019
3489 Clear 40 1004 7 0 4.68 132.109 01:31 18.08.2019
3490 Clear 40 1004 5 0 4.93 127.551 00:59 18.08.2019
3491 Clear 40 1004 5 0 4.93 127.551 00:38 18.08.2019
3492 Clear 38 1006 9 0 3.42 112.856 00:18 18.08.2019
3493 Clear 38 1006 9 0 3.42 112.856 23:56 17.08.2019
3494 Clear 38 1006 9 0 3.42 112.856 23:37 17.08.2019
3495 Clear 38 1006 9 0 3.42 112.856 23:18 17.08.2019
3496 Clear 38 1006 9 0 3.42 112.856 23:18 17.08.2019
3497 Clear 38 1006 9 0 3.42 112.856 22:56 17.08.2019
3498 Clear 38 1006 9 0 3.42 112.856 22:37 17.08.2019
3499 Clear 38 1006 9 0 3.42 112.856 22:18 17.08.2019
3500 Clear 38 1006 9 0 3.42 112.856 21:41 17.08.2019
3501 Clear 35 1008 12 0 2.46 99.447 21:23 17.08.2019
3502 Clear 35 1008 12 0 2.46 99.447 20:41 17.08.2019
3503 Clear 32 1004 12 0 1.34 25 20:21 17.08.2019
3504 Clear 32 1004 12 0 1.34 25 19:59 17.08.2019
3505 Clear 32 1004 12 0 1.34 25 19:40 17.08.2019
3506 Clear 32 1004 12 0 1.34 25 19:21 17.08.2019
3507 Clear 32 1004 12 0 0.89 76 18:54 17.08.2019
3508 Clear 31 1004 13 0 1.34 81 18:36 17.08.2019
3509 Clear 31 1008 16 0 1.08 110.992 18:18 17.08.2019
3510 Clear 26 1004 19 0 0.45 105 17:41 17.08.2019
3511 Clear 24 1004 21 0 0.45 168 17:21 17.08.2019
3512 Clear 22 1004 23 0 1.08 110.992 16:56 17.08.2019
3513 Clear 31 1008 16 0 1.08 110.992 16:37 17.08.2019
3514 Clear 31 1008 16 0 1.08 110.992 16:18 17.08.2019
3515 Clear 31 1008 16 0 1.08 110.992 15:42 17.08.2019
3516 Clear 16 1003 29 0 0.45 313 15:21 17.08.2019
3517 Clear 16 1003 29 0 2 137.174 14:57 17.08.2019
3518 Clear 16 1003 28 0 2 137.174 14:38 17.08.2019
3519 Clear 16 1003 27 0 2 137.174 14:19 17.08.2019
3520 Clear 17 1002 26 0 2 137.174 13:43 17.08.2019
3521 Clear 16 1002 27 0 1.1 119.693 13:19 17.08.2019
3522 Clear 17 1002 26 0 1.1 119.693 12:44 17.08.2019
3523 Clear 17 1003 24 0 1.24 128.501 12:20 17.08.2019
3524 Clear 17 1003 24 0 1.24 128.501 11:58 17.08.2019
3525 Clear 18 1003 24 0 1.24 128.501 11:38 17.08.2019
3526 Clear 18 1003 23 0 1.24 128.501 11:20 17.08.2019
3527 Clear 19 1003 20 0 1.24 128.501 10:42 17.08.2019
3528 Clear 21 1003 18 0 1.24 128.501 10:21 17.08.2019
3529 Clear 22 1003 19 0 1.24 128.501 09:57 17.08.2019
3530 Clear 22 1003 19 0 1.24 128.501 09:38 17.08.2019
3531 Clear 22 1003 19 0 0.45 57 09:20 17.08.2019
3532 Clear 22 1003 18 0 1.55 159.786 08:50 17.08.2019
3533 Clear 23 1003 16 0 1.55 159.786 08:21 17.08.2019
3534 Clear 23 1003 15 0 0.45 174 07:42 17.08.2019
3535 Clear 23 1003 14 0 0.45 203 07:20 17.08.2019
3536 Clear 35 1008 8 0 1.55 159.786 06:34 17.08.2019
3537 Clear 38 1006 7 0 2.52 129.884 04:48 17.08.2019
3538 Clear 38 1006 7 0 2.52 129.884 04:21 17.08.2019
3539 Clear 36 1002 7 0 3.58 195 02:43 17.08.2019
3540 Clear 36 1002 9 0 3.58 228 01:40 17.08.2019
3541 Clear 36 1003 9 0 2.68 210 01:20 17.08.2019
3542 Clear 36 1003 9 0 3.58 216 00:47 17.08.2019
3543 Clear 36 1003 9 0 4.47 212 00:25 17.08.2019
3544 Clear 36 1004 8 0 2.68 200 23:47 16.08.2019
3545 Clear 41 1008 7 0 3.36 109.519 23:25 16.08.2019
3546 Clear 39 1005 6 0 1.79 77 22:44 16.08.2019
3547 Clear 38 1005 7 0 3.13 45 22:20 16.08.2019
3548 Clear 38 1005 7 0 3.13 2 21:59 16.08.2019
3549 Clear 38 1006 8 0 1.79 40 21:39 16.08.2019
3550 Clear 38 1011 8 0 2.42 104.611 21:19 16.08.2019
3551 Clear 38 1011 8 0 2.42 104.611 20:43 16.08.2019
3552 Clear 38 1011 8 0 2.42 104.611 20:22 16.08.2019
3553 Clear 38 1011 8 0 2.42 104.611 19:59 16.08.2019
3554 Clear 36 1007 9 0 1.79 30 19:40 16.08.2019
3555 Clear 36 1007 10 0 0.89 10 19:20 16.08.2019
3556 Clear 33 1007 10 0 1.79 98 18:42 16.08.2019
3557 Clear 33 1012 11 0 0.55 40.236 18:23 16.08.2019
3558 Clear 29 1007 16 0 0.45 142 17:49 16.08.2019
3559 Clear 28 1007 17 0 0.45 216 17:31 16.08.2019
3560 Clear 27 1007 18 0 0.45 335 16:59 16.08.2019
3561 Clear 25 1007 21 0 0.89 341 16:41 16.08.2019
3562 Clear 23 1007 23 0 0.89 334 16:21 16.08.2019
3563 Clear 19 1007 28 0 0.89 337 15:57 16.08.2019
3564 Clear 33 1012 11 0 0.55 40.236 15:39 16.08.2019
3565 Clear 17 1007 28 0 0.95 107.285 15:21 16.08.2019
3566 Clear 17 1007 28 0 0.95 107.285 14:57 16.08.2019
3567 Clear 17 1006 30 0 0.95 107.285 14:38 16.08.2019
3568 Clear 17 1006 31 0 0.95 107.285 14:18 16.08.2019
3569 Clear 18 1006 28 0 0.95 107.285 13:41 16.08.2019
3570 Clear 18 1006 28 0 0.61 94.966 13:22 16.08.2019
3571 Clear 18 1006 28 0 0.61 94.966 12:56 16.08.2019
3572 Clear 18 1006 28 0 0.61 94.966 12:37 16.08.2019
3573 Clear 18 1006 28 0 0.72 176.878 12:19 16.08.2019
3574 Clear 18 1006 28 0 0.72 176.878 11:42 16.08.2019
3575 Clear 18 1006 28 0 0.72 176.878 11:41 16.08.2019
3576 Clear 18 1006 27 0 0.72 176.878 11:23 16.08.2019
3577 Clear 18 1007 27 0 0.72 176.878 10:43 16.08.2019
3578 Clear 19 1007 26 0 0.72 176.878 10:25 16.08.2019
3579 Clear 19 1006 26 0 0.72 176.878 09:56 16.08.2019
3580 Clear 19 1007 25 0 0.72 176.878 09:37 16.08.2019
3581 Clear 19 1007 25 0 0.72 176.878 09:37 16.08.2019
3582 Clear 19 1007 25 0 1.74 209.573 09:18 16.08.2019
3583 Clear 21 1007 23 0 0.45 175 08:41 16.08.2019
3584 Clear 22 1007 23 0 1.74 209.573 08:21 16.08.2019
3585 Clear 23 1007 19 0 1.74 209.573 07:54 16.08.2019
3586 Clear 24 1007 18 0 1.74 209.573 07:33 16.08.2019
3587 Clear 34 1011 5 0 1.74 209.573 06:57 16.08.2019
3588 Clear 34 1011 5 0 1.74 209.573 06:31 16.08.2019
3589 Clear 28 1007 6 0 2.1 188.605 05:41 16.08.2019
3590 Clear 38 1010 5 0 2.1 188.605 04:28 16.08.2019
3591 Clear 36 1006 3 0 1.34 231 02:46 16.08.2019
3592 Clear 36 1007 5 0 1.34 110 01:33 16.08.2019
3593 Clear 36 1007 5 0 2.68 174 00:59 16.08.2019
3594 Clear 36 1007 5 0 3.58 204 00:40 16.08.2019
3595 Clear 36 1008 5 0 3.13 174 00:21 16.08.2019
3596 Clear 42 1012 5 0 3.24 105.413 23:44 15.08.2019
3597 Clear 36 1008 5 0 2.68 122 23:22 15.08.2019
3598 Clear 36 1009 5 0 2.24 149 22:58 15.08.2019
3599 Clear 40 1009 3 0 1.79 85 22:39 15.08.2019
3600 Clear 39 1009 4 0 1.34 40 22:20 15.08.2019
3601 Clear 39 1009 4 0 1.34 40 22:20 15.08.2019
3602 Clear 39 1010 4 0 0.89 112 21:55 15.08.2019
3603 Clear 39 1010 4 0 1.34 19 21:37 15.08.2019
3604 Clear 39 1014 6 0 1.82 70.798 21:18 15.08.2019
3605 Clear 39 1014 6 0 1.82 70.798 20:42 15.08.2019
3606 Clear 39 1014 6 0 1.82 70.798 20:22 15.08.2019
3607 Clear 39 1014 6 0 1.82 70.798 19:57 15.08.2019
3608 Clear 34 1010 6 0 0.45 103 19:39 15.08.2019
3609 Clear 34 1011 9 0 0.45 337 19:20 15.08.2019
3610 Clear 32 1011 11 0 0.89 272 18:47 15.08.2019
3611 Clear 31 1011 12 0 0.89 271 18:23 15.08.2019
3612 Clear 31 1010 12 0 0.89 226 17:58 15.08.2019
3613 Clear 29 1011 13 0 2.24 343 17:38 15.08.2019
3614 Clear 28 1011 13 0 1.34 344 17:19 15.08.2019
3615 Clear 25 1011 17 0 1.34 332 16:57 15.08.2019
3616 Clear 22 1011 22 0 0.89 326 16:38 15.08.2019
3617 Clear 35 1015 7 0 0.77 109.734 16:20 15.08.2019
3618 Clear 35 1015 7 0 0.77 109.734 15:38 15.08.2019
3619 Clear 16 1010 30 0 0.42 203.057 15:20 15.08.2019
3620 Clear 16 1010 31 0 0.42 203.057 14:56 15.08.2019
3621 Clear 16 1010 29 0 0.42 203.057 14:37 15.08.2019
3622 Clear 16 1010 29 0 0.42 203.057 14:18 15.08.2019
3623 Clear 17 1010 26 0 0.42 203.057 13:55 15.08.2019
3624 Clear 18 1010 25 0 0.42 203.057 13:37 15.08.2019
3625 Clear 18 1010 25 0 0.28 160.72 13:19 15.08.2019
3626 Clear 18 1010 25 0 0.28 160.72 13:19 15.08.2019
3627 Clear 18 1010 25 0 0.28 160.72 12:40 15.08.2019
3628 Clear 18 1010 24 0 1.32 214.233 12:20 15.08.2019
3629 Clear 18 1010 26 0 1.32 214.233 11:58 15.08.2019
3630 Clear 18 1010 26 0 1.32 214.233 11:38 15.08.2019
3631 Clear 18 1010 26 0 1.32 214.233 11:38 15.08.2019
3632 Clear 18 1010 26 0 1.32 214.233 11:20 15.08.2019
3633 Clear 18 1010 26 0 1.32 214.233 10:58 15.08.2019
3634 Clear 18 1010 24 0 0.45 99 10:37 15.08.2019
3635 Clear 18 1010 22 0 1.32 214.233 10:18 15.08.2019
3636 Clear 19 1010 18 0 1.32 214.233 09:44 15.08.2019
3637 Clear 21 1010 17 0 0.45 100 09:22 15.08.2019
3638 Clear 21 1011 15 0 1.76 231.707 08:54 15.08.2019
3639 Clear 21 1011 14 0 1.76 231.707 08:36 15.08.2019
3640 Clear 23 1011 12 0 1.76 231.707 08:18 15.08.2019
3641 Clear 26 1010 9 0 1.76 231.707 07:40 15.08.2019
3642 Clear 26 1011 8 0 1.76 231.707 07:21 15.08.2019
3643 Clear 35 1014 9 0 1.76 231.707 06:52 15.08.2019
3644 Clear 25 1011 9 0 0.89 173 06:31 15.08.2019
3645 Clear 27 1010 9 0 0.45 339 05:39 15.08.2019
3646 Clear 28 1010 9 0 0.45 283 05:19 15.08.2019
3647 Clear 37 1013 9 0 0.74 171.473 04:29 15.08.2019
3648 Clear 37 1013 9 0 0.74 171.473 03:28 15.08.2019
3649 Clear 35 1009 6 0 2.68 190 02:35 15.08.2019
3650 Clear 41 1012 6 0 2.13 71.863 01:49 15.08.2019
3651 Clear 36 1010 8 0 0.89 229 01:26 15.08.2019
3652 Clear 36 1010 9 0 2.68 178 00:39 15.08.2019
3653 Clear 40 1013 7 0 2.63 93.918 00:20 15.08.2019
3654 Clear 40 1013 7 0 2.63 93.918 23:57 14.08.2019
3655 Clear 40 1013 7 0 2.63 93.918 23:37 14.08.2019
3656 Clear 40 1013 7 0 2.63 93.918 23:19 14.08.2019
3657 Clear 40 1013 7 0 2.63 93.918 22:55 14.08.2019
3658 Clear 39 1011 6 0 1.79 45 22:37 14.08.2019
3659 Clear 39 1011 7 0 1.34 40 22:18 14.08.2019
3660 Clear 38 1012 7 0 0.89 21 21:55 14.08.2019
3661 Clear 38 1012 7 0 2.24 329 21:36 14.08.2019
3662 Clear 38 1016 7 0 1.58 78.619 21:18 14.08.2019
3663 Clear 38 1016 7 0 1.58 78.619 20:41 14.08.2019
3664 Clear 38 1016 7 0 1.58 78.619 20:20 14.08.2019
3665 Clear 36 1012 9 0 0.89 50 19:56 14.08.2019
3666 Clear 38 1016 7 0 1.58 78.619 19:37 14.08.2019
3667 Clear 38 1016 7 0 1.58 78.619 19:18 14.08.2019
3668 Clear 38 1016 7 0 1.58 78.619 18:56 14.08.2019
3669 Clear 38 1016 7 0 1.58 78.619 18:38 14.08.2019
3670 Clear 34 1016 10 0 0.43 18.477 18:19 14.08.2019
3671 Clear 34 1016 10 0 0.43 18.477 17:55 14.08.2019
3672 Clear 34 1016 10 0 0.43 18.477 17:36 14.08.2019
3673 Clear 34 1016 10 0 0.43 18.477 17:18 14.08.2019
3674 Clear 34 1016 10 0 0.43 18.477 16:41 14.08.2019
3675 Clear 34 1016 10 0 0.43 18.477 16:20 14.08.2019
3676 Clear 34 1016 10 0 0.43 18.477 15:44 14.08.2019
3677 Clear 29 1014 14 0 0.29 316.384 15:24 14.08.2019
3678 Clear 29 1014 14 0 0.29 316.384 14:59 14.08.2019
3679 Clear 29 1014 14 0 0.29 316.384 14:39 14.08.2019
3680 Clear 29 1014 14 0 0.29 316.384 14:19 14.08.2019
3681 Clear 29 1014 14 0 0.29 316.384 13:55 14.08.2019
3682 Clear 29 1014 14 0 0.29 316.384 13:37 14.08.2019
3683 Clear 29 1015 13 0 0.3 6.34 13:19 14.08.2019
3684 Clear 29 1015 13 0 0.3 6.34 12:56 14.08.2019
3685 Clear 29 1015 13 0 0.3 6.34 12:36 14.08.2019
3686 Clear 31 1015 10 0 1.17 231.402 12:18 14.08.2019
3687 Clear 31 1015 10 0 1.17 231.402 11:45 14.08.2019
3688 Clear 31 1015 10 0 1.17 231.402 11:23 14.08.2019
3689 Clear 31 1015 10 0 1.17 231.402 10:56 14.08.2019
3690 Clear 31 1015 10 0 1.17 231.402 10:37 14.08.2019
3691 Clear 31 1015 10 0 1.17 231.402 10:37 14.08.2019
3692 Clear 31 1015 10 0 1.17 231.402 10:19 14.08.2019
3693 Clear 31 1015 10 0 1.17 231.402 09:42 14.08.2019
3694 Clear 34 1014 10 0 1.98 214.792 09:21 14.08.2019
3695 Clear 34 1014 9 0 2.06 208.444 08:44 14.08.2019
3696 Clear 34 1014 9 0 2.06 208.444 08:25 14.08.2019
3697 Clear 34 1014 9 0 2.06 208.444 07:56 14.08.2019
3698 Clear 34 1014 9 0 2.06 208.444 07:37 14.08.2019
3699 Clear 34 1014 9 0 2.06 208.444 06:51 14.08.2019
3700 Clear 34 1014 9 0 2.06 208.444 06:28 14.08.2019
3701 Clear 38 1013 8 0 2.69 172.893 05:33 14.08.2019
3702 Clear 38 1013 8 0 2.69 172.893 03:58 14.08.2019
3703 Clear 41 1011 7 0 3.91 110.472 02:39 14.08.2019
3704 Clear 41 1011 7 0 3.91 110.472 02:18 14.08.2019
3705 Clear 41 1011 6 0 3.37 149.433 01:30 14.08.2019
3706 Clear 41 1011 6 0 3.37 149.433 00:38 14.08.2019
3707 Clear 34 1011 7 0 1.34 148 23:43 13.08.2019
3708 Clear 34 1011 7 0 1.34 148 23:20 13.08.2019
3709 Clear 34 1011 7 0 1.34 148 22:56 13.08.2019
3710 Clear 34 1011 7 0 1.34 148 22:38 13.08.2019
3711 Clear 34 1011 7 0 1.34 148 22:38 13.08.2019
3712 Clear 34 1011 7 0 2.68 262 22:19 13.08.2019
3713 Clear 36 1011 10 0 2.68 50 21:55 13.08.2019
3714 Clear 36 1011 10 0 2.68 75 21:36 13.08.2019
3715 Clear 36 1015 10 0 2.19 100.069 21:18 13.08.2019
3716 Clear 36 1015 10 0 2.19 100.069 20:43 13.08.2019
3717 Clear 36 1015 10 0 2.19 100.069 20:20 13.08.2019
3718 Clear 36 1015 10 0 2.19 100.069 19:56 13.08.2019
3719 Clear 33 1012 10 0 1.34 18 19:38 13.08.2019
3720 Clear 33 1012 10 0 1.34 36 19:20 13.08.2019
3721 Clear 31 1012 11 0 0.89 60 18:42 13.08.2019
3722 Clear 32 1015 11 0 0.92 96.909 18:22 13.08.2019
3723 Clear 32 1015 11 0 0.92 96.909 17:57 13.08.2019
3724 Clear 26 1012 15 0 0.92 96.909 17:39 13.08.2019
3725 Clear 24 1012 17 0 0.45 10 17:19 13.08.2019
3726 -273 0 0 0 0 0 16:56 13.08.2019
3727 Clear 21 1012 20 0 0.92 96.909 16:55 13.08.2019
3728 Clear 18 1012 26 0 0.92 96.909 16:37 13.08.2019
3729 Clear 32 1015 11 0 0.92 96.909 16:18 13.08.2019
3730 Clear 32 1015 11 0 0.92 96.909 15:38 13.08.2019
3731 Clear 14 1011 25 0 0.23 76.322 15:20 13.08.2019
3732 Clear 14 1011 28 0 0.23 76.322 14:55 13.08.2019
3733 Clear 14 1011 27 0 0.23 76.322 14:37 13.08.2019
3734 Clear 14 1010 27 0 0.23 76.322 14:18 13.08.2019
3735 Clear 16 1010 25 0 0.23 76.322 13:41 13.08.2019
3736 Clear 16 1010 26 0 0.26 33.326 13:21 13.08.2019
3737 Clear 14 1010 27 0 0.26 33.326 12:58 13.08.2019
3738 Clear 15 1010 24 0 0.26 33.326 12:39 13.08.2019
3739 Clear 15 1010 24 0 0.96 193.004 12:21 13.08.2019
3740 Clear 16 1010 24 0 0.96 193.004 11:56 13.08.2019
3741 Clear 16 1010 22 0 0.96 193.004 11:37 13.08.2019
3742 Clear 17 1010 22 0 0.96 193.004 11:18 13.08.2019
3743 Clear 17 1010 22 0 0.96 193.004 11:18 13.08.2019
3744 Clear 18 1010 21 0 0.96 193.004 10:55 13.08.2019
3745 Clear 18 1010 21 0 0.45 356 10:36 13.08.2019
3746 Clear 19 1010 20 0 0.96 193.004 10:18 13.08.2019
3747 Clear 18 1010 21 0 0.45 320 09:42 13.08.2019
3748 Clear 19 1010 19 0 0.45 302 09:23 13.08.2019
3749 Clear 21 1011 17 0 0.45 115 08:43 13.08.2019
3750 Clear 21 1011 15 0 0.89 133 08:22 13.08.2019
3751 Clear 21 1011 14 0 2.24 203.36 07:56 13.08.2019
3752 Clear 21 1011 14 0 2.24 203.36 07:56 13.08.2019
3753 Clear 23 1010 12 0 2.24 203.36 07:32 13.08.2019
3754 Clear 22 1010 12 0 2.24 203.36 06:55 13.08.2019
3755 Clear 23 1010 12 0 2.24 203.36 06:34 13.08.2019
3756 Clear 26 1009 13 0 1.8 137.404 05:35 13.08.2019
3757 Clear 32 1009 9 0 3.13 243 02:52 13.08.2019
3758 Clear 32 1009 7 0 2.24 155 02:19 13.08.2019
3759 Clear 32 1009 9 0 3.58 171 00:59 13.08.2019
3760 Clear 32 1010 9 0 3.58 221 00:40 13.08.2019
3761 Clear 32 1010 12 0 2.68 209 23:57 12.08.2019
3762 Clear 32 1010 13 0 2.24 105 23:36 12.08.2019
3763 Clear 32 1010 13 0 4.02 233 23:18 12.08.2019
3764 Clear 35 1010 11 0 4.02 356 22:40 12.08.2019
3765 Clear 34 1011 11 0 0.89 356 22:20 12.08.2019
3766 Clear 34 1011 11 0 2.24 347 21:55 12.08.2019
3767 Clear 34 1011 12 0 1.34 31 21:37 12.08.2019
3768 Clear 34 1014 13 0 1.74 96.598 21:18 12.08.2019
3769 Clear 34 1014 13 0 1.74 96.598 20:57 12.08.2019
3770 Clear 34 1014 13 0 1.74 96.598 20:38 12.08.2019
3771 Clear 34 1014 13 0 1.74 96.598 20:20 12.08.2019
3772 Clear 34 1014 13 0 1.74 96.598 20:20 12.08.2019
3773 Clear 32 1012 14 0 1.79 109 19:55 12.08.2019
3774 Clear 32 1012 14 0 1.79 56 19:37 12.08.2019
3775 Clear 31 1011 14 0 1.34 66 19:19 12.08.2019
3776 Clear 29 1011 16 0 0.89 35 18:55 12.08.2019
3777 Clear 29 1011 16 0 0.89 35 18:55 12.08.2019
3778 Clear 29 1011 16 0 0.89 35 18:55 12.08.2019
3779 Clear 29 1011 18 0 0.45 80 18:37 12.08.2019
3780 Clear 31 1015 14 0 0.68 356.276 18:19 12.08.2019
3781 Clear 31 1015 14 0 0.68 356.276 18:19 12.08.2019
3782 Clear 26 1012 23 0 1.34 344 17:46 12.08.2019
3783 Clear 25 1012 24 0 1.79 314 17:28 12.08.2019
3784 Clear 22 1011 30 0 2.24 325 16:57 12.08.2019
3785 Clear 31 1015 14 0 0.68 356.276 16:39 12.08.2019
3786 Clear 31 1015 14 0 0.68 356.276 16:20 12.08.2019
3787 Clear 31 1015 14 0 0.68 356.276 16:20 12.08.2019
3788 Clear 31 1015 14 0 0.68 356.276 16:20 12.08.2019
3789 Clear 31 1015 14 0 0.68 356.276 15:58 12.08.2019
3790 -273 0 0 0 0 0 15:39 12.08.2019
3791 Clear 31 1015 14 0 0.68 356.276 15:39 12.08.2019
3792 Clear 31 1015 14 0 0.68 356.276 15:38 12.08.2019
3793 Clear 12 1011 51 0 0.61 106.861 15:20 12.08.2019
3794 Clear 12 1011 49 0 0.61 106.861 14:55 12.08.2019
3795 Clear 12 1010 50 0 0.61 106.861 14:36 12.08.2019
3796 Clear 12 1010 49 0 0.61 106.861 14:18 12.08.2019
3797 Clear 13 1010 45 0 0.61 106.861 13:42 12.08.2019
3798 Clear 14 1010 46 0 0.57 95.122 13:23 12.08.2019
3799 Clear 14 1010 44 0 0.57 95.122 12:44 12.08.2019
3800 Clear 15 1010 43 0 0.66 166.664 12:22 12.08.2019
3801 Clear 15 1010 43 0 0.66 166.664 11:56 12.08.2019
3802 Clear 14 1010 45 0 0.66 166.664 11:38 12.08.2019
3803 Clear 14 1010 46 0 0.66 166.664 11:19 12.08.2019
3804 Clear 14 1010 46 0 0.66 166.664 10:41 12.08.2019
3805 Clear 15 1010 47 0 0.66 166.664 10:23 12.08.2019
3806 Clear 16 1010 45 0 0.66 166.664 09:56 12.08.2019
3807 Clear 16 1010 44 0 0.66 166.664 09:37 12.08.2019
3808 Clear 17 1010 42 0 0.41 227.187 09:19 12.08.2019
3809 Clear 18 1010 39 0 0.41 227.187 08:42 12.08.2019
3810 Clear 19 1010 37 0 0.41 227.187 08:24 12.08.2019
3811 Clear 20 1010 36 0 0.41 227.187 08:00 12.08.2019
3812 Clear 21 1010 34 0 0.41 227.187 07:41 12.08.2019
3813 Clear 22 1010 33 0 0.45 145 07:20 12.08.2019
3814 Clear 21 1010 25 0 0.41 227.187 06:44 12.08.2019
3815 Clear 21 1010 25 0 0.41 227.187 06:44 12.08.2019
3816 Clear 24 1009 19 0 1.41 125.386 05:37 12.08.2019
3817 Clear 35 1010 12 0 2.6 110.015 02:44 12.08.2019
3818 Clear 35 1010 12 0 2.6 110.015 01:53 12.08.2019
3819 Clear 35 1010 12 0 2.6 110.015 01:20 12.08.2019
3820 Clear 35 1010 12 0 2.6 110.015 00:57 12.08.2019
3821 Clear 35 1010 12 0 2.6 110.015 00:38 12.08.2019
3822 Clear 34 1011 13 0 2.46 77.572 00:19 12.08.2019
3823 Clear 34 1011 13 0 2.46 77.572 23:42 11.08.2019
3824 Clear 34 1011 13 0 2.46 77.572 23:20 11.08.2019
3825 Clear 34 1011 13 0 2.46 77.572 22:59 11.08.2019
3826 Clear 33 1010 12 0 1.79 59 22:40 11.08.2019
3827 Clear 33 1010 12 0 1.34 40 22:19 11.08.2019
3828 Clear 33 1010 12 0 1.34 40 22:19 11.08.2019
3829 Clear 32 1010 12 0 1.79 1 21:59 11.08.2019
3830 Clear 31 1011 12 0 1.34 50 21:40 11.08.2019
3831 Clear 31 1014 16 0 1.83 78.886 21:20 11.08.2019
3832 Clear 31 1014 16 0 1.83 78.886 20:56 11.08.2019
3833 Clear 31 1014 16 0 1.83 78.886 20:38 11.08.2019
3834 Clear 31 1014 16 0 1.83 78.886 20:19 11.08.2019
3835 Clear 29 1011 16 0 0.89 70 19:42 11.08.2019
3836 Clear 28 1011 16 0 1.34 60 19:19 11.08.2019
3837 Clear 27 1011 17 0 1.34 99 18:42 11.08.2019
3838 Clear 28 1014 21 0 0.61 79.536 18:23 11.08.2019
3839 Clear 28 1014 21 0 0.61 79.536 17:59 11.08.2019
3840 Clear 22 1011 25 0 0.61 79.536 17:40 11.08.2019
3841 Clear 21 1011 27 0 0.45 338 17:20 11.08.2019
3842 Clear 19 1011 31 0 0.89 354 16:56 11.08.2019
3843 Clear 15 1010 43 0 0.61 79.536 16:38 11.08.2019
3844 Clear 13 1010 49 0 0.61 79.536 16:19 11.08.2019
3845 Clear 28 1014 21 0 0.61 79.536 15:44 11.08.2019
3846 Clear 12 1010 52 0 0.9 134.149 15:24 11.08.2019
3847 Clear 12 1009 48 0 0.45 262 14:59 11.08.2019
3848 Clear 12 1009 53 0 0.9 134.149 14:39 11.08.2019
3849 Clear 11 1008 50 0 0.45 262 14:20 11.08.2019
3850 Clear 11 1008 52 0 0.45 262 13:44 11.08.2019
3851 Clear 12 1008 48 0 0.26 113.051 13:25 11.08.2019
3852 Clear 12 1008 48 0 0.26 113.051 13:25 11.08.2019
3853 Clear 12 1008 48 0 0.26 113.051 12:56 11.08.2019
3854 Clear 12 1008 46 0 0.26 113.051 12:37 11.08.2019
3855 Clear 12 1008 46 0 1.07 193.854 12:18 11.08.2019
3856 Clear 13 1008 42 0 1.07 193.854 11:39 11.08.2019
3857 Clear 14 1008 40 0 1.07 193.854 11:21 11.08.2019
3858 Clear 15 1008 37 0 1.07 193.854 10:55 11.08.2019
3859 Clear 16 1008 36 0 1.07 193.854 10:37 11.08.2019
3860 Clear 16 1008 37 0 0.45 359 10:19 11.08.2019
3861 Clear 16 1008 34 0 1.07 193.854 09:43 11.08.2019
3862 Clear 15 1007 33 0 0.45 320 09:24 11.08.2019
3863 Clear 16 1007 31 0 1.24 202.876 08:56 11.08.2019
3864 Clear 17 1007 28 0 1.24 202.876 08:36 11.08.2019
3865 Clear 18 1007 28 0 1.24 202.876 08:18 11.08.2019
3866 Clear 19 1006 27 0 0.89 219 07:32 11.08.2019
3867 Clear 20 1006 25 0 1.24 202.876 06:51 11.08.2019
3868 Clear 21 1006 25 0 0.89 230 06:31 11.08.2019
3869 Clear 24 1004 18 0 1.34 200 04:44 11.08.2019
3870 Clear 29 1004 12 0 3.58 262 02:50 11.08.2019
3871 Clear 29 1004 9 0 4.47 185 01:57 11.08.2019
3872 Clear 30 1004 9 0 3.58 216 01:31 11.08.2019
3873 Clear 30 1005 8 0 3.58 211 00:56 11.08.2019
3874 Clear 30 1005 9 0 3.58 185 00:36 11.08.2019
3875 Clear 30 1005 9 0 3.58 208 23:55 10.08.2019
3876 Clear 31 1005 10 0 3.58 244 23:34 10.08.2019
3877 Clear 30 1005 11 0 3.58 256 22:57 10.08.2019
3878 Clear 31 1005 11 0 3.58 233 22:38 10.08.2019
3879 Clear 32 1006 14 0 0.89 107 22:19 10.08.2019
3880 Clear 29 1006 15 0 2.24 106 21:40 10.08.2019
3881 Clear 32 1011 12 0 2.79 117.996 21:21 10.08.2019
3882 Clear 32 1011 12 0 2.78 105.137 20:58 10.08.2019
3883 Clear 32 1011 12 0 2.78 105.137 20:40 10.08.2019
3884 Clear 28 1006 18 0 3.13 40 20:20 10.08.2019
3885 Clear 27 1007 18 0 1.79 18 19:54 10.08.2019
3886 Clear 27 1007 19 0 1.79 77 19:36 10.08.2019
3887 Clear 26 1006 18 0 1.79 50 19:18 10.08.2019
3888 Clear 25 1006 20 0 1.79 55 18:38 10.08.2019
3889 Clear 28 1011 16 0 1.65 130.907 18:20 10.08.2019
3890 Clear 21 1007 25 0 0.89 75 17:40 10.08.2019
3891 Clear 20 1007 26 0 1.34 85 17:21 10.08.2019
3892 Clear 18 1007 30 0 0.89 45 16:43 10.08.2019
3893 Clear 15 1007 33 0 1.65 130.907 16:25 10.08.2019
3894 Clear 14 1006 33 0 1.65 130.907 15:51 10.08.2019
3895 Clear 14 1006 32 0 0.6 84.763 15:23 10.08.2019
3896 Clear 16 1006 31 0 0.45 110 14:45 10.08.2019
3897 Clear 16 1006 29 0 0.6 84.763 14:21 10.08.2019
3898 Clear 17 1005 26 0 1.34 77 13:42 10.08.2019
3899 Clear 17 1005 26 0 2.24 72 13:21 10.08.2019
3900 Clear 17 1005 25 0 2.24 93 12:58 10.08.2019
3901 Clear 18 1005 20 0 1.34 65 12:39 10.08.2019
3902 Clear 19 1005 17 0 1.34 83 12:21 10.08.2019
3903 Clear 18 1005 18 0 0.89 114 11:42 10.08.2019
3904 Clear 18 1006 20 0 0.89 107 11:23 10.08.2019
3905 Clear 18 1006 20 0 0.89 107 11:23 10.08.2019
3906 Clear 18 1006 20 0 1.34 96 10:59 10.08.2019
3907 Clear 19 1006 19 0 0.89 77 10:38 10.08.2019
3908 Clear 19 1006 20 0 2.68 125 10:19 10.08.2019
3909 Clear 21 1006 19 0 1.79 154 09:43 10.08.2019
3910 Clear 21 1006 17 0 2.24 195 09:24 10.08.2019
3911 Clear 21 1006 16 0 1.34 156 08:56 10.08.2019
3912 Clear 22 1006 15 0 2.68 173 08:38 10.08.2019
3913 Clear 21 1006 16 0 2.24 192 08:18 10.08.2019
3914 Clear 21 1006 16 0 0.89 127 07:46 10.08.2019
3915 Clear 22 1006 15 0 1.34 87 07:24 10.08.2019
3916 Clear 22 1006 17 0 1.34 80 06:47 10.08.2019
3917 Clear 23 1005 15 0 0.89 116 05:52 10.08.2019
3918 Clear 24 1005 14 0 3.13 220 05:20 10.08.2019
3919 Clear 35 1007 6 0 4.85 184.457 03:55 10.08.2019
3920 Clear 30 1005 10 0 3.13 141 02:50 10.08.2019
3921 Clear 31 1006 9 0 4.92 250 01:57 10.08.2019
3922 Clear 31 1006 9 0 4.02 222 01:37 10.08.2019
3923 Clear 31 1006 8 0 3.13 254 01:19 10.08.2019
3924 Clear 31 1006 9 0 4.92 223 00:42 10.08.2019
3925 Clear 31 1006 10 0 3.13 245 00:19 10.08.2019
3926 Clear 31 1006 11 0 2.68 260 23:41 09.08.2019
3927 Clear 31 1006 12 0 2.68 185 23:21 09.08.2019
3928 Clear 31 1006 12 0 2.68 185 23:21 09.08.2019
3929 Clear 30 1007 10 0 2.68 216 22:56 09.08.2019
3930 Clear 30 1007 10 0 3.13 238 22:37 09.08.2019
3931 Clear 30 1006 11 0 4.02 127 22:19 09.08.2019
3932 Clear 32 1007 14 0 1.79 56 21:41 09.08.2019
3933 Clear 34 1010 13 0 3.32 132.765 21:22 09.08.2019
3934 Clear 34 1010 13 0 3.32 132.765 20:58 09.08.2019
3935 Clouds 34 1011 13 0 3.22 149.607 20:39 09.08.2019
3936 Clouds 34 1011 13 0 3.22 149.607 20:39 09.08.2019
3937 Clouds 34 1011 13 0 3.22 149.607 20:20 09.08.2019
3938 Clouds 29 1007 16 0 1.79 70 19:44 09.08.2019
3939 Clouds 28 1007 18 0 2.24 11 19:23 09.08.2019
3940 Clouds 28 1007 18 0 2.24 11 18:59 09.08.2019
3941 Clouds 27 1007 19 0 1.34 83 18:39 09.08.2019
3942 Clouds 27 1007 19 0 1.34 83 18:39 09.08.2019
3943 Clear 31 1011 15 0 2.27 132.015 18:21 09.08.2019
3944 Clear 31 1011 15 0 2.27 132.015 18:21 09.08.2019
3945 Clear 24 1007 23 0 0.89 23 17:45 09.08.2019
3946 Clear 22 1007 25 0 1.34 72 17:25 09.08.2019
3947 Clear 22 1007 26 0 0.89 80 16:58 09.08.2019
3948 Clear 18 1007 32 0 0.45 94 16:38 09.08.2019
3949 Clear 16 1007 37 0 2.27 132.015 16:20 09.08.2019
3950 Clear 31 1011 15 0 2.27 132.015 15:55 09.08.2019
3951 Clear 31 1011 15 0 2.27 132.015 15:36 09.08.2019
3952 Clear 14 1006 38 0 1.09 150.808 15:18 09.08.2019
3953 Clear 15 1006 36 0 1.09 150.808 14:43 09.08.2019
3954 -273 0 0 0 0 0 14:22 09.08.2019
3955 -273 0 0 0 0 0 14:22 09.08.2019
3956 Clear 18 1005 31 0 1.09 150.808 13:56 09.08.2019
3957 Clear 19 1005 28 0 0.89 40 13:38 09.08.2019
3958 Clear 19 1005 28 0 1.34 334 13:18 09.08.2019
3959 Clear 19 1005 27 0 0.89 285 12:43 09.08.2019
3960 Clear 20 1006 24 0 0.89 321 12:22 09.08.2019
3961 Clear 15 1005 32 0 0.89 348 11:42 09.08.2019
3962 Clear 15 1005 31 0 1.94 164.014 11:22 09.08.2019
3963 Clear 16 1005 30 0 1.94 164.014 10:59 09.08.2019
3964 Clear 16 1006 30 0 1.94 164.014 10:39 09.08.2019
3965 Clear 16 1006 30 0 1.94 164.014 10:21 09.08.2019
3966 Clear 16 1006 28 0 1.94 164.014 09:42 09.08.2019
3967 Clear 17 1006 28 0 1.73 251.031 09:19 09.08.2019
3968 Clear 18 1006 26 0 1.73 251.031 08:55 09.08.2019
3969 Clear 19 1006 25 0 1.44 241.998 08:37 09.08.2019
3970 Clear 20 1006 23 0 1.44 241.998 08:18 09.08.2019
3971 Clear 22 1006 22 0 1.44 241.998 07:43 09.08.2019
3972 Clear 23 1006 20 0 0.45 282 07:21 09.08.2019
3973 Clear 23 1006 19 0 0.45 287 06:52 09.08.2019
3974 Clear 24 1005 19 0 1.79 281 06:27 09.08.2019
3975 Clear 24 1005 18 0 1.34 272 05:46 09.08.2019
3976 Clouds 29 1004 15 0 4.47 252 02:33 09.08.2019
3977 Clouds 29 1004 15 0 4.47 252 02:33 09.08.2019
3978 Clouds 32 1004 12 0 3.13 189 01:41 09.08.2019
3979 Clear 32 1004 10 0 2.68 225 00:44 09.08.2019
3980 Clear 32 1005 13 0 4.47 206 00:25 09.08.2019
3981 Clear 32 1005 13 0 5.36 260 23:59 08.08.2019
3982 Clear 32 1005 15 0 4.02 259 23:38 08.08.2019
3983 Clear 32 1005 15 0 4.02 230 23:19 08.08.2019
3984 Clear 32 1006 14 0 4.92 221 22:57 08.08.2019
3985 Clear 32 1006 16 0 2.68 181 22:36 08.08.2019
3986 Clear 33 1006 15 0 4.02 154 22:18 08.08.2019
3987 Clear 34 1006 19 0 3.13 40 21:55 08.08.2019
3988 Clear 34 1006 19 0 2.68 61 21:37 08.08.2019
3989 Clear 34 1012 19 0 2.32 91.483 21:18 08.08.2019
3990 Clear 34 1012 19 0 2.31 105.492 20:42 08.08.2019
3991 Clear 34 1012 19 0 2.31 105.492 20:22 08.08.2019
3992 Clear 32 1007 23 0 1.79 6 19:57 08.08.2019
3993 Clear 31 1007 24 0 1.34 45 19:38 08.08.2019
3994 Clear 31 1007 24 0 1.79 27 19:19 08.08.2019
3995 Clear 31 1007 24 0 1.79 27 19:19 08.08.2019
3996 Clear 29 1007 26 0 1.34 18 18:41 08.08.2019
3997 Clear 31 1013 27 0 0.45 21.283 18:22 08.08.2019
3998 Clear 26 1007 30 0 0.45 87 17:55 08.08.2019
3999 Clear 26 1007 31 0 0.89 54 17:37 08.08.2019
4000 Clear 25 1007 32 0 0.45 55 17:18 08.08.2019
4001 Clear 21 1007 39 0 0.45 21.283 16:42 08.08.2019
4002 Clear 19 1007 42 0 0.45 21.283 16:24 08.08.2019
4003 Clear 19 1007 41 0 0.45 21.283 15:58 08.08.2019
4004 Clear 19 1007 41 0 0.45 21.283 15:58 08.08.2019
4005 Clear 20 1007 40 0 0.45 356 15:39 08.08.2019
4006 Rain 20 1007 40 0 0.45 356 15:20 08.08.2019
4007 Rain 20 1006 41 0 0.89 329 14:41 08.08.2019
4008 Rain 19 1006 42 0 0.39 357.204 14:23 08.08.2019
4009 Rain 19 1006 42 0 0.45 338 13:58 08.08.2019
4010 Rain 19 1006 42 0 0.39 357.204 13:38 08.08.2019
4011 Clouds 19 1006 41 0 1.78 175.17 13:18 08.08.2019
4012 Clouds 19 1006 41 0 1.78 175.17 13:18 08.08.2019
4013 Clouds 21 1006 38 0 1.78 175.17 12:40 08.08.2019
4014 Clouds 21 1006 37 0 0.59 236.364 12:20 08.08.2019
4015 Clouds 23 1006 33 0 0.59 236.364 11:55 08.08.2019
4016 Clouds 23 1006 34 0 0.59 236.364 11:37 08.08.2019
4017 Clouds 23 1006 33 0 0.89 31 11:18 08.08.2019
4018 Clouds 32 1011 24 0 0.59 236.364 10:41 08.08.2019
4019 Clouds 32 1011 24 0 0.59 236.364 10:41 08.08.2019
4020 Clouds 32 1011 24 0 0.59 236.364 10:21 08.08.2019
4021 Clouds 32 1011 24 0 0.59 236.364 09:45 08.08.2019
4022 Clouds 25 1007 29 0 0.89 99 09:27 08.08.2019
4023 Clouds 26 1007 28 0 2.32 251.612 08:56 08.08.2019
4024 Clouds 26 1007 28 0 2.06 328.29 08:37 08.08.2019
4025 Clouds 26 1006 28 0 0.89 166 08:18 08.08.2019
4026 Clouds 25 1006 27 0 0.45 148 07:40 08.08.2019
4027 Clouds 26 1006 27 0 2.06 328.29 07:19 08.08.2019
4028 Clouds 24 1006 27 0 0.45 328 06:47 08.08.2019
4029 Clouds 26 1006 25 0 2.06 328.29 06:26 08.08.2019
4030 Clouds 27 1006 24 0 4.14 275.52 05:52 08.08.2019
4031 Clouds 28 1005 22 0 1.79 258 04:53 08.08.2019
4032 Clouds 38 1009 14 0 4.14 275.52 03:52 08.08.2019
4033 Clouds 32 1005 18 0 2.24 299 02:28 08.08.2019
4034 Clouds 33 1005 17 0 3.13 260 01:36 08.08.2019
4035 Clouds 34 1006 15 0 1.34 204 00:26 08.08.2019
4036 Clouds 34 1006 14 0 2.24 233 23:50 07.08.2019
4037 Clouds 35 1006 14 0 3.58 200 23:19 07.08.2019
4038 Clouds 34 1007 14 0 2.68 163 22:56 07.08.2019
4039 Clouds 36 1007 14 0 3.13 166 22:38 07.08.2019
4040 Clouds 35 1007 15 0 2.24 40 22:19 07.08.2019
4041 Clouds 37 1007 14 0 2.24 21 21:55 07.08.2019
4042 Clouds 36 1007 15 0 2.68 40 21:37 07.08.2019
4043 Clouds 37 1011 14 0 2.1 106.759 21:18 07.08.2019
4044 Clouds 37 1011 13 0 2.01 108.426 20:42 07.08.2019
4045 Clouds 37 1011 13 0 2.01 108.426 20:23 07.08.2019
4046 Clouds 37 1011 13 0 2.01 108.426 19:58 07.08.2019
4047 Clouds 33 1008 17 0 2.24 6 19:39 07.08.2019
4048 Clouds 33 1008 18 0 1.79 50 19:21 07.08.2019
4049 Clouds 32 1008 19 0 1.34 7 18:44 07.08.2019
4050 Clouds 34 1012 15 0 0.48 71.079 18:22 07.08.2019
4051 Clouds 29 1008 23 0 0.45 71 17:59 07.08.2019
4052 Clouds 25 1008 28 0 0.48 71.079 17:41 07.08.2019
4053 Clouds 23 1008 32 0 0.48 71.079 17:22 07.08.2019
4054 Clouds 22 1008 35 0 0.48 71.079 16:57 07.08.2019
4055 Clouds 22 1008 34 0 0.48 71.079 16:39 07.08.2019
4056 Clouds 21 1008 36 0 0.48 71.079 16:21 07.08.2019
4057 Clouds 20 1008 37 0 0.48 71.079 15:58 07.08.2019
4058 Clouds 19 1007 39 0 0.48 71.079 15:40 07.08.2019
4059 Clouds 18 1007 39 0 0.31 2.797 15:19 07.08.2019
4060 Clouds 18 1007 38 0 0.31 2.797 14:49 07.08.2019
4061 Clouds 18 1007 36 0 0.45 292 14:30 07.08.2019
4062 Clouds 19 1007 36 0 0.31 2.797 13:57 07.08.2019
4063 Clouds 19 1007 34 0 0.31 2.797 13:38 07.08.2019
4064 Clouds 19 1007 34 0 0.3 356.767 13:19 07.08.2019
4065 Clouds 19 1007 34 0 0.3 356.767 12:56 07.08.2019
4066 Clouds 20 1007 33 0 0.3 356.767 12:37 07.08.2019
4067 Clouds 20 1007 33 0 0.45 106.397 12:19 07.08.2019
4068 Clouds 20 1007 31 0 0.45 268 11:55 07.08.2019
4069 Clouds 21 1007 31 0 0.45 106.397 11:36 07.08.2019
4070 Clouds 20 1007 32 0 0.45 106.397 11:18 07.08.2019
4071 Clouds 21 1007 31 0 0.45 106.397 10:40 07.08.2019
4072 Clouds 21 1007 30 0 0.45 106.397 10:19 07.08.2019
4073 -273 0 0 0 0 0 09:46 07.08.2019
4074 Clouds 23 1007 27 0 2.13 156.392 09:24 07.08.2019
4075 Clouds 23 1007 28 0 2.13 156.392 08:59 07.08.2019
4076 Clouds 24 1007 26 0 2.22 168.594 08:41 07.08.2019
4077 Clouds 24 1007 27 0 0.45 164 08:23 07.08.2019
4078 Clouds 24 1007 24 0 2.22 168.594 07:50 07.08.2019
4079 Clouds 25 1007 23 0 2.22 168.594 07:29 07.08.2019
4080 Clouds 26 1007 20 0 2.22 168.594 06:44 07.08.2019
4081 Clouds 26 1007 19 0 5.05 153.851 06:21 07.08.2019
4082 Clouds 28 1006 17 0 0.45 204 05:41 07.08.2019
4083 Clouds 36 1010 17 0 5.05 153.851 04:29 07.08.2019
4084 Clouds 31 1006 16 0 2.68 217 02:55 07.08.2019
4085 Clouds 31 1006 16 0 4.02 120 02:36 07.08.2019
4086 Clouds 32 1006 16 0 4.02 247 01:50 07.08.2019
4087 Clouds 34 1006 15 0 4.47 166 00:54 07.08.2019
4088 Clouds 33 1007 14 0 4.47 184 00:24 07.08.2019
4089 Clouds 33 1007 13 0 4.92 244 23:58 06.08.2019
4090 Clouds 33 1007 13 0 5.81 206 23:37 06.08.2019
4091 Clouds 34 1007 12 0 4.02 194 23:18 06.08.2019
4092 Clouds 33 1007 13 0 4.47 239 22:40 06.08.2019
4093 Clouds 33 1007 12 0 3.58 204 22:21 06.08.2019
4094 Clouds 33 1007 12 0 4.02 179 21:57 06.08.2019
4095 Clouds 34 1007 11 0 3.13 185 21:38 06.08.2019
4096 Clouds 34 1007 10 0 1.79 162 21:19 06.08.2019
4097 Clouds 34 1007 10 0 1.79 162 21:19 06.08.2019
4098 Clouds 39 1011 9 0 2.52 105.273 20:46 06.08.2019
4099 Clouds 39 1011 9 0 2.52 105.273 20:27 06.08.2019
4100 Clouds 39 1011 9 0 2.52 105.273 19:57 06.08.2019
4101 Clouds 34 1007 11 0 1.34 272 19:38 06.08.2019
4102 Clouds 34 1008 11 0 1.34 209 19:19 06.08.2019
4103 Clouds 35 1007 11 0 1.34 50 18:41 06.08.2019
4104 Clouds 35 1012 11 0 0.73 80.642 18:23 06.08.2019
4105 Clouds 35 1012 11 0 0.73 80.642 17:58 06.08.2019
4106 Clouds 29 1008 14 0 0.45 59 17:38 06.08.2019
4107 Clouds 27 1007 16 0 0.73 80.642 17:19 06.08.2019
4108 Clouds 23 1007 24 0 0.73 80.642 16:54 06.08.2019
4109 Clouds 22 1007 25 0 0.73 80.642 16:36 06.08.2019
4110 Clouds 21 1007 25 0 0.73 80.642 16:18 06.08.2019
4111 Clouds 35 1012 11 0 0.73 80.642 15:54 06.08.2019
4112 Clouds 35 1012 11 0 0.73 80.642 15:36 06.08.2019
4113 Clouds 19 1006 25 0 0.22 61.223 15:18 06.08.2019
4114 Clouds 21 1006 24 0 0.22 61.223 14:40 06.08.2019
4115 Clouds 21 1006 24 0 0.22 61.223 14:40 06.08.2019
4116 Clouds 21 1006 25 0 0.22 61.223 14:21 06.08.2019
4117 Clouds 19 1006 28 0 0.22 61.223 13:55 06.08.2019
4118 Clouds 19 1006 28 0 0.22 61.223 13:37 06.08.2019
4119 Clouds 19 1006 27 0 0.14 40.689 13:19 06.08.2019
4120 Clouds 22 1006 24 0 0.45 181 12:41 06.08.2019
4121 Clouds 22 1006 24 0 0.45 181 12:41 06.08.2019
4122 Clouds 22 1006 24 0 0.45 181 12:41 06.08.2019
4123 Clouds 23 1006 23 0 0.45 181 12:23 06.08.2019
4124 Clouds 23 1006 24 0 0.45 185 11:59 06.08.2019
4125 Clouds 22 1006 25 0 1.97 184.309 11:40 06.08.2019
4126 Clouds 22 1006 25 0 1.97 184.309 11:18 06.08.2019
4127 Clouds 22 1006 25 0 1.97 184.309 10:41 06.08.2019
4128 Clouds 23 1007 24 0 1.97 184.309 10:22 06.08.2019
4129 Clouds 23 1007 24 0 1.97 184.309 09:47 06.08.2019
4130 Clouds 23 1007 24 0 0.45 60 09:23 06.08.2019
4131 Clouds 23 1007 24 0 2.08 207.87 08:56 06.08.2019
4132 Clouds 23 1007 24 0 2.24 199.219 08:37 06.08.2019
4133 Clouds 23 1007 23 0 2.24 199.219 08:19 06.08.2019
4134 Clouds 24 1007 22 0 2.24 199.219 07:32 06.08.2019
4135 Clouds 27 1007 19 0 2.24 199.219 06:51 06.08.2019
4136 Clouds 28 1007 17 0 2.24 199.219 06:26 06.08.2019
4137 Clear 29 1006 16 0 1.34 210 05:47 06.08.2019
4138 Clear 35 1005 10 0 3.13 231 02:59 06.08.2019
4139 Clear 36 1006 10 0 3.58 162 01:46 06.08.2019
4140 Clear 36 1006 10 0 2.68 215 01:21 06.08.2019
4141 Clear 36 1007 10 0 2.68 107 00:29 06.08.2019
4142 Clear 36 1007 10 0 3.13 229 23:40 05.08.2019
4143 Clear 36 1008 10 0 1.79 140 23:18 05.08.2019
4144 Clear 39 1008 10 0 1.79 96 22:40 05.08.2019
4145 Clear 38 1008 11 0 2.24 77 22:22 05.08.2019
4146 Clear 38 1008 11 0 2.68 5 21:44 05.08.2019
4147 Clear 38 1013 11 0 2.45 118.008 21:22 05.08.2019
4148 Clear 38 1013 10 0 1.87 106.004 20:59 05.08.2019
4149 Clear 38 1013 10 0 1.87 106.004 20:41 05.08.2019
4150 Clear 38 1013 10 0 1.87 106.004 20:23 05.08.2019
4151 Clear 38 1013 10 0 1.87 106.004 19:59 05.08.2019
4152 Clear 33 1009 15 0 2.24 54 19:39 05.08.2019
4153 Clear 33 1009 15 0 2.24 50 19:20 05.08.2019
4154 Clear 33 1009 15 0 2.24 50 19:20 05.08.2019
4155 Clear 32 1009 16 0 1.79 29 18:43 05.08.2019
4156 Clear 34 1013 13 0 1.41 116.329 18:22 05.08.2019
4157 Clear 30 1008 18 0 0.89 63 17:58 05.08.2019
4158 Clear 28 1009 19 0 1.79 91 17:40 05.08.2019
4159 Clear 27 1008 21 0 0.89 65 17:22 05.08.2019
4160 Clear 23 1009 25 0 1.41 116.329 16:44 05.08.2019
4161 Clear 34 1013 13 0 1.41 116.329 16:23 05.08.2019
4162 Clear 34 1013 13 0 1.41 116.329 15:44 05.08.2019
4163 Clouds 18 1008 30 0 0.38 88.654 15:21 05.08.2019
4164 Clouds 17 1008 30 0 0.38 88.654 14:54 05.08.2019
4165 Clouds 17 1008 29 0 0.38 88.654 14:36 05.08.2019
4166 Clouds 17 1008 28 0 0.38 88.654 14:18 05.08.2019
4167 Clouds 18 1008 27 0 0.38 88.654 13:40 05.08.2019
4168 Clouds 19 1008 26 0 0.41 68.354 13:20 05.08.2019
4169 Clouds 21 1008 23 0 0.41 68.354 12:43 05.08.2019
4170 Clouds 22 1008 22 0 1.03 167.369 12:19 05.08.2019
4171 Clouds 22 1008 23 0 0.89 29 11:44 05.08.2019
4172 Clouds 23 1008 21 0 1.03 167.369 11:26 05.08.2019
4173 Clouds 25 1008 19 0 0.45 190 10:49 05.08.2019
4174 Clouds 25 1008 19 0 0.45 308 10:31 05.08.2019
4175 Clouds 23 1008 22 0 1.03 167.369 09:57 05.08.2019
4176 Clouds 24 1008 19 0 0.45 20 09:38 05.08.2019
4177 Clouds 25 1008 19 0 1.71 195.314 09:20 05.08.2019
4178 Clouds 24 1008 20 0 1.83 191.242 08:44 05.08.2019
4179 Clouds 26 1008 19 0 1.83 191.242 08:25 05.08.2019
4180 Clouds 27 1008 17 0 0.45 149 07:49 05.08.2019
4181 Clouds 27 1008 17 0 0.45 140 07:30 05.08.2019
4182 Clouds 27 1008 16 0 0.45 155 06:58 05.08.2019
4183 Clouds 28 1007 12 0 2.78 205.404 06:24 05.08.2019
4184 Clouds 29 1007 10 0 1.34 214 05:33 05.08.2019
4185 Clouds 39 1010 7 0 2.78 205.404 04:52 05.08.2019
4186 Clouds 39 1010 7 0 2.78 205.404 03:53 05.08.2019
4187 Clouds 34 1006 6 0 2.68 257 03:20 05.08.2019
4188 Clouds 36 1007 6 0 3.58 215 02:21 05.08.2019
4189 Clouds 36 1007 5 0 4.47 261 01:31 05.08.2019
4190 Clouds 36 1008 6 0 2.24 171 00:41 05.08.2019
4191 Clouds 36 1008 5 0 3.58 187 00:21 05.08.2019
4192 Clouds 36 1008 4 0 3.13 133 23:43 04.08.2019
4193 Clouds 36 1008 4 0 3.13 161 23:24 04.08.2019
4194 Clouds 36 1008 4 0 3.58 208 22:57 04.08.2019
4195 Clouds 37 1008 7 0 2.24 70 22:38 04.08.2019
4196 Clouds 38 1008 8 0 3.58 45 22:20 04.08.2019
4197 Clouds 37 1008 9 0 2.68 12 21:59 04.08.2019
4198 Clouds 37 1008 10 0 3.13 50 21:41 04.08.2019
4199 Clear 38 1013 9 0 2.37 116.295 21:20 04.08.2019
4200 Clear 38 1013 8 0 2.42 122.204 20:43 04.08.2019
4201 Clear 34 1009 12 0 1.79 79 20:19 04.08.2019
4202 Clear 33 1009 11 0 1.79 64 19:56 04.08.2019
4203 Clear 32 1009 13 0 1.79 54 19:37 04.08.2019
4204 Clear 32 1009 15 0 1.79 59 19:19 04.08.2019
4205 Clear 31 1009 16 0 3.13 70 18:42 04.08.2019
4206 Clear 31 1009 16 0 3.13 70 18:42 04.08.2019
4207 Clear 30 1009 16 0 1.34 40 18:20 04.08.2019
4208 Clear 27 1009 16 0 2.68 24 17:44 04.08.2019
4209 Clear 26 1009 16 0 0.89 23 17:24 04.08.2019
4210 Clear 24 1009 18 0 1.34 92 16:56 04.08.2019
4211 Clear 23 1009 18 0 1.34 73 16:38 04.08.2019
4212 Clear 21 1009 18 0 1.03 120.716 16:19 04.08.2019
4213 Clear 19 1008 20 0 1.03 120.716 15:40 04.08.2019
4214 Clouds 18 1008 20 0 0.45 24 15:20 04.08.2019
4215 Clouds 18 1008 23 0 0.36 140.484 14:44 04.08.2019
4216 Clouds 17 1008 26 0 0.36 140.484 14:26 04.08.2019
4217 Clouds 18 1008 25 0 0.36 140.484 13:47 04.08.2019
4218 Clouds 18 1008 25 0 0.15 225 13:27 04.08.2019
4219 Clouds 18 1008 25 0 0.15 225 13:27 04.08.2019
4220 Clouds 17 1008 27 0 0.45 27 12:58 04.08.2019
4221 Clouds 18 1008 26 0 0.15 225 12:40 04.08.2019
4222 Clear 18 1008 26 0 0.45 31 12:22 04.08.2019
4223 Clear 19 1008 24 0 0.45 40 11:49 04.08.2019
4224 Clear 19 1008 24 0 0.45 167.692 11:23 04.08.2019
4225 Clear 21 1008 22 0 0.45 167.692 10:54 04.08.2019
4226 Clear 21 1008 23 0 0.45 167.692 10:36 04.08.2019
4227 Clear 22 1008 22 0 0.45 343 10:18 04.08.2019
4228 Clear 22 1008 23 0 0.45 167.692 09:41 04.08.2019
4229 Clouds 22 1008 23 0 1.69 210.005 09:20 04.08.2019
4230 Clouds 22 1009 26 0 0.45 323 08:41 04.08.2019
4231 Clouds 21 1009 26 0 0.45 324 08:20 04.08.2019
4232 Clouds 22 1009 22 0 1.33 219.205 07:45 04.08.2019
4233 Clouds 24 1009 15 0 1.33 219.205 06:47 04.08.2019
4234 Clouds 27 1008 13 0 0.89 200 06:24 04.08.2019
4235 Clouds 31 1007 2 0 3.13 202 03:44 04.08.2019
4236 Clouds 34 1007 1 0 2.24 218 02:22 04.08.2019
4237 Clouds 34 1008 3 0 3.13 212 01:33 04.08.2019
4238 Clouds 35 1008 2 0 3.58 205 00:45 04.08.2019
4239 Clouds 35 1008 1 0 2.68 232 00:26 04.08.2019
4240 Clouds 35 1008 1 0 4.02 218 23:57 03.08.2019
4241 Clouds 36 1009 1 0 0.89 169 23:39 03.08.2019
4242 Clouds 35 1009 1 0 2.24 207 23:18 03.08.2019
4243 Clouds 36 1009 1 0 2.68 192 22:43 03.08.2019
4244 Clouds 37 1009 9 0 1.79 45 22:20 03.08.2019
4245 Clouds 36 1009 11 0 2.24 63 21:40 03.08.2019
4246 Clouds 37 1013 8 0 1.97 99.644 21:22 03.08.2019
4247 Clouds 33 1009 12 0 2.24 36 20:57 03.08.2019
4248 Clouds 37 1013 8 0 1.93 84.278 20:36 03.08.2019
4249 Clouds 37 1013 8 0 1.93 84.278 20:18 03.08.2019
4250 Clouds 33 1009 11 0 1.79 40 19:41 03.08.2019
4251 Clouds 34 1009 11 0 1.34 71 19:22 03.08.2019
4252 Clouds 33 1009 12 0 1.34 50 18:49 03.08.2019
4253 Clouds 32 1010 12 0 1.79 80 18:26 03.08.2019
4254 Clouds 35 1013 7 0 0.66 135.427 17:48 03.08.2019
4255 Clouds 26 1010 15 0 0.66 135.427 17:21 03.08.2019
4256 Clouds 23 1010 18 0 0.66 135.427 16:55 03.08.2019
4257 Clouds 22 1010 19 0 0.66 135.427 16:37 03.08.2019
4258 Clouds 19 1010 23 0 0.66 135.427 16:18 03.08.2019
4259 Clouds 35 1013 7 0 0.66 135.427 15:43 03.08.2019
4260 Clouds 16 1009 25 0 0.65 208.067 15:21 03.08.2019
4261 Clouds 17 1009 23 0 0.65 208.067 14:39 03.08.2019
4262 Clouds 16 1009 25 0 0.65 208.067 14:21 03.08.2019
4263 Clouds 17 1009 22 0 0.65 208.067 13:51 03.08.2019
4264 Clouds 18 1009 21 0 0.88 215.984 13:24 03.08.2019
4265 Clouds 17 1009 23 0 0.88 215.984 12:57 03.08.2019
4266 Clouds 17 1009 23 0 0.88 215.984 12:38 03.08.2019
4267 Clouds 18 1009 23 0 1.35 228.518 12:20 03.08.2019
4268 Clouds 18 1009 23 0 1.35 228.518 11:47 03.08.2019
4269 Clouds 19 1010 21 0 1.35 228.518 11:25 03.08.2019
4270 Clouds 21 1010 23 0 1.35 228.518 10:40 03.08.2019
4271 Clouds 21 1010 24 0 1.35 228.518 10:22 03.08.2019
4272 Clouds 21 1010 27 0 0.45 294 09:41 03.08.2019
4273 Clouds 21 1010 27 0 0.45 320 09:21 03.08.2019
4274 Clouds 20 1011 23 0 1.5 238.899 08:46 03.08.2019
4275 Clouds 21 1010 14 0 1.5 238.899 07:52 03.08.2019
4276 Clouds 20 1010 12 0 1.5 238.899 07:31 03.08.2019
4277 Clouds 22 1010 9 0 1.32 246.893 06:24 03.08.2019
4278 Clouds 37 1012 8 0 1.32 246.893 03:58 03.08.2019
4279 Clear 33 1009 2 0 2.68 227 02:38 03.08.2019
4280 Clear 33 1010 3 0 3.58 227 01:42 03.08.2019
4281 Clear 33 1010 3 0 3.13 208 00:49 03.08.2019
4282 Clear 33 1010 2 0 4.47 179 23:59 02.08.2019
4283 Clear 33 1011 2 0 2.24 259 23:40 02.08.2019
4284 Clear 34 1011 2 0 2.24 205 23:19 02.08.2019
4285 Clear 34 1011 3 0 2.24 195 22:57 02.08.2019
4286 Clear 37 1011 5 0 1.34 73 22:38 02.08.2019
4287 Clear 36 1011 6 0 1.34 68 22:19 02.08.2019
4288 Clear 36 1011 5 0 1.34 40 21:43 02.08.2019
4289 Clear 36 1015 7 0 1.67 71.576 21:24 02.08.2019
4290 Clear 36 1015 7 0 1.66 60.755 20:58 02.08.2019
4291 Clear 36 1015 7 0 1.66 60.755 20:40 02.08.2019
4292 Clear 36 1015 7 0 1.66 60.755 20:20 02.08.2019
4293 Clear 33 1012 8 0 2.24 50 19:46 02.08.2019
4294 Clear 32 1012 7 0 1.79 63 19:26 02.08.2019
4295 Clear 31 1012 9 0 1.79 35 18:45 02.08.2019
4296 Clear 36 1015 7 0 1.66 60.755 18:26 02.08.2019
4297 Clear 27 1012 11 0 0.45 110 17:48 02.08.2019
4298 Clear 24 1012 10 0 0.35 91.159 17:25 02.08.2019
4299 Clear 23 1012 14 0 0.35 91.159 16:58 02.08.2019
4300 Clear 20 1011 17 0 0.35 91.159 16:38 02.08.2019
4301 Clear 19 1011 19 0 0.35 91.159 16:19 02.08.2019
4302 Clear 33 1015 8 0 0.35 91.159 15:39 02.08.2019
4303 Clear 14 1011 18 0 0.45 192 15:19 02.08.2019
4304 Clear 14 1011 20 0 0.19 113.118 14:46 02.08.2019
4305 Clear 14 1010 21 0 0.19 113.118 14:19 02.08.2019
4306 Clear 16 1010 20 0 0.19 113.118 13:50 02.08.2019
4307 Clear 16 1010 19 0 0.42 139.399 13:28 02.08.2019
4308 Clear 16 1010 20 0 0.45 272 12:47 02.08.2019
4309 Clear 16 1010 22 0 1.24 172.469 12:23 02.08.2019
4310 Clear 16 1010 23 0 1.24 172.469 11:56 02.08.2019
4311 Clear 17 1010 24 0 0.45 318 11:37 02.08.2019
4312 Clear 17 1010 24 0 0.45 318 11:18 02.08.2019
4313 Clear 17 1010 24 0 0.45 318 10:42 02.08.2019
4314 Clear 18 1010 23 0 0.45 318 10:23 02.08.2019
4315 Clear 20 1010 22 0 0.45 291 09:52 02.08.2019
4316 Clear 20 1010 22 0 0.45 291 09:29 02.08.2019
4317 Clear 21 1010 21 0 0.45 292 08:53 02.08.2019
4318 Clear 22 1010 20 0 0.45 229 08:25 02.08.2019
4319 Clear 23 1010 18 0 1.58 223.614 07:52 02.08.2019
4320 Clear 24 1010 17 0 0.45 196 07:34 02.08.2019
4321 Clear 24 1010 16 0 1.58 223.614 06:55 02.08.2019
4322 Clear 26 1010 15 0 0.45 163 06:26 02.08.2019
4323 Clear 27 1009 11 0 1.34 214 05:38 02.08.2019
4324 Clear 37 1012 10 0 1.7 221.821 03:31 02.08.2019
4325 Clear 40 1011 5 0 5.54 186.107 02:37 02.08.2019
4326 Clear 40 1011 5 0 6.23 191.788 01:30 02.08.2019
4327 Clear 40 1012 7 0 2.96 187.949 00:22 02.08.2019
4328 Clear 40 1012 7 0 2.96 187.949 23:44 01.08.2019
4329 Clear 40 1012 7 0 2.96 187.949 23:23 01.08.2019
4330 Clear 40 1012 7 0 2.96 187.949 22:42 01.08.2019
4331 Clear 40 1012 7 0 2.96 187.949 22:22 01.08.2019
4332 Clear 40 1012 7 0 2.96 187.949 21:55 01.08.2019
4333 Clear 40 1012 7 0 2.96 187.949 21:37 01.08.2019
4334 Clear 36 1015 12 0 1.53 87.338 21:19 01.08.2019
4335 Clear 36 1015 12 0 1.58 64.974 20:44 01.08.2019
4336 Clear 36 1015 12 0 1.58 64.974 20:23 01.08.2019
4337 Clear 36 1015 12 0 1.58 64.974 19:45 01.08.2019
4338 Clear 36 1015 12 0 1.58 64.974 19:23 01.08.2019
4339 Clear 36 1015 12 0 1.58 64.974 18:58 01.08.2019
4340 Clear 36 1015 12 0 1.58 64.974 18:40 01.08.2019
4341 Clear 33 1014 15 0 1.33 117.126 18:21 01.08.2019
4342 Clear 33 1014 15 0 1.33 117.126 17:46 01.08.2019
4343 Clear 33 1014 15 0 1.33 117.126 17:26 01.08.2019
4344 Clear 33 1014 15 0 1.33 117.126 16:44 01.08.2019
4345 Clear 33 1014 15 0 1.33 117.126 16:22 01.08.2019
4346 Clear 33 1014 15 0 1.33 117.126 15:46 01.08.2019
4347 Clear 30 1013 22 0 1.32 146.551 15:21 01.08.2019
4348 Clear 30 1013 22 0 1.32 146.551 14:58 01.08.2019
4349 Clear 30 1013 22 0 1.32 146.551 14:40 01.08.2019
4350 Clear 30 1013 22 0 1.32 146.551 14:18 01.08.2019
4351 Clear 30 1013 22 0 1.32 146.551 13:41 01.08.2019
4352 Clear 30 1014 23 0 0.74 119.832 13:22 01.08.2019
4353 Clear 30 1014 23 0 0.74 119.832 12:59 01.08.2019
4354 Clear 30 1014 23 0 0.74 119.832 12:41 01.08.2019
4355 Clear 32 1012 19 0 1.42 132.053 12:22 01.08.2019
4356 Clear 32 1012 19 0 1.42 132.053 11:43 01.08.2019
4357 Clear 32 1012 19 0 1.42 132.053 11:23 01.08.2019
4358 Clear 32 1012 19 0 1.42 132.053 11:23 01.08.2019
4359 Clear 32 1012 19 0 1.42 132.053 10:46 01.08.2019
4360 Clear 32 1012 19 0 1.42 132.053 10:28 01.08.2019
4361 Clear 32 1012 19 0 1.42 132.053 09:59 01.08.2019
4362 Clear 32 1012 19 0 1.42 132.053 09:40 01.08.2019
4363 Clear 35 1012 15 0 2.09 169.304 09:22 01.08.2019
4364 Clear 35 1012 15 0 3.13 165.999 08:44 01.08.2019
4365 Clear 35 1012 15 0 3.13 165.999 08:20 01.08.2019
4366 Clear 35 1012 15 0 3.13 165.999 07:49 01.08.2019
4367 Clear 35 1012 15 0 3.13 165.999 07:25 01.08.2019
4368 Clear 35 1012 15 0 3.13 165.999 06:48 01.08.2019
4369 Clear 38 1009 10 0 4.62 185.187 05:51 01.08.2019
4370 Clear 38 1009 10 0 4.62 185.187 04:24 01.08.2019
4371 Clear 41 1008 7 0 4.1 186.983 02:33 01.08.2019
4372 Clear 41 1009 7 0 3.16 176.608 00:43 01.08.2019
4373 Clear 40 1010 8 0 3.65 138.748 00:24 01.08.2019
4374 Clear 40 1010 8 0 3.65 138.748 23:43 31.07.2019
4375 Clear 40 1010 8 0 3.65 138.748 23:21 31.07.2019
4376 Clear 40 1010 8 0 3.65 138.748 22:58 31.07.2019
4377 Clear 40 1010 8 0 3.65 138.748 22:39 31.07.2019
4378 Clear 40 1010 8 0 3.65 138.748 22:21 31.07.2019
4379 Clear 40 1010 8 0 3.65 138.748 21:38 31.07.2019
4380 Clear 37 1012 13 0 4.66 129.34 21:19 31.07.2019
4381 Clear 37 1012 12 0 4.83 139.596 20:43 31.07.2019
4382 Clear 37 1012 12 0 4.83 139.596 20:22 31.07.2019
4383 Clear 37 1012 12 0 4.83 139.596 19:43 31.07.2019
4384 Clear 37 1012 12 0 4.83 139.596 19:24 31.07.2019
4385 Clear 37 1012 12 0 4.83 139.596 18:53 31.07.2019
4386 Clear 37 1012 12 0 4.83 139.596 18:29 31.07.2019
4387 Clear 34 1011 16 0 2.89 128.561 17:59 31.07.2019
4388 Clear 34 1011 16 0 2.89 128.561 17:40 31.07.2019
4389 Clear 34 1011 16 0 2.89 128.561 17:20 31.07.2019
4390 Clear 34 1011 16 0 2.89 128.561 16:46 31.07.2019
4391 Clear 34 1011 16 0 2.89 128.561 16:20 31.07.2019
4392 Clear 34 1011 16 0 2.89 128.561 15:45 31.07.2019
4393 Clear 34 1011 16 0 2.89 128.561 15:26 31.07.2019
4394 Clouds 32 1010 19 0 0.34 162.848 14:55 31.07.2019
4395 Clouds 32 1010 19 0 0.34 162.848 14:36 31.07.2019
4396 Clouds 32 1010 19 0 0.34 162.848 14:18 31.07.2019
4397 Clouds 32 1010 19 0 0.34 162.848 13:44 31.07.2019
4398 Clouds 32 1010 19 0 0.83 148.623 13:25 31.07.2019
4399 Clouds 32 1010 19 0 0.83 148.623 12:57 31.07.2019
4400 Clouds 32 1010 19 0 0.83 148.623 12:38 31.07.2019
4401 Clouds 35 1010 17 0 2.76 151.036 12:18 31.07.2019
4402 Clouds 35 1010 17 0 2.76 151.036 11:39 31.07.2019
4403 Clouds 35 1010 17 0 2.76 151.036 11:20 31.07.2019
4404 Clouds 35 1010 17 0 2.76 151.036 10:42 31.07.2019
4405 Clouds 35 1010 17 0 2.76 151.036 10:21 31.07.2019
4406 Clouds 35 1010 17 0 2.76 151.036 09:56 31.07.2019
4407 Clouds 35 1010 17 0 2.76 151.036 09:38 31.07.2019
4408 Clouds 36 1009 18 0 3.27 150.275 09:18 31.07.2019
4409 Clouds 36 1010 20 0 6.33 153.18 08:41 31.07.2019
4410 Clouds 36 1010 20 0 6.33 153.18 08:21 31.07.2019
4411 Clouds 36 1010 20 0 6.33 153.18 07:35 31.07.2019
4412 Clouds 36 1010 20 0 6.33 153.18 06:35 31.07.2019
4413 Clouds 39 1008 9 0 3.99 166.97 04:56 31.07.2019
4414 Clear 42 1007 7 0 6.61 184.574 03:25 31.07.2019
4415 Clouds 42 1009 7 0 4.96 162.336 00:20 31.07.2019
4416 Clouds 42 1009 7 0 4.96 162.336 23:40 30.07.2019
4417 Clouds 42 1009 7 0 4.96 162.336 23:19 30.07.2019
4418 Clouds 42 1009 7 0 4.96 162.336 22:46 30.07.2019
4419 Clouds 42 1009 7 0 4.96 162.336 22:25 30.07.2019
4420 Clouds 42 1009 7 0 4.96 162.336 21:57 30.07.2019
4421 Clouds 42 1009 7 0 4.96 162.336 21:36 30.07.2019
4422 Clear 37 1011 11 0 3.47 119.191 21:18 30.07.2019
4423 Clear 37 1011 12 0 3.9 127.661 20:43 30.07.2019
4424 Clear 37 1011 12 0 3.9 127.661 20:24 30.07.2019
4425 Clear 37 1011 12 0 3.9 127.661 19:59 30.07.2019
4426 Clear 37 1011 12 0 3.9 127.661 19:40 30.07.2019
4427 Clear 37 1011 12 0 3.9 127.661 19:18 30.07.2019
4428 Clear 37 1011 12 0 3.9 127.661 18:43 30.07.2019
4429 Clear 34 1011 14 0 0.6 62.967 18:19 30.07.2019
4430 Clear 34 1011 14 0 0.6 62.967 17:42 30.07.2019
4431 Clear 34 1011 14 0 0.6 62.967 17:20 30.07.2019
4432 Clear 34 1011 14 0 0.6 62.967 17:20 30.07.2019
4433 Clear 34 1011 14 0 0.6 62.967 16:53 30.07.2019
4434 Clear 34 1011 14 0 0.6 62.967 16:22 30.07.2019
4435 Clear 34 1011 14 0 0.6 62.967 15:59 30.07.2019
4436 Clear 34 1011 14 0 0.6 62.967 15:38 30.07.2019
4437 Clear 31 1009 17 0 0.26 137.191 15:19 30.07.2019
4438 Clear 31 1009 17 0 0.26 137.191 14:43 30.07.2019
4439 Clear 31 1009 17 0 0.26 137.191 14:22 30.07.2019
4440 Clear 31 1009 17 0 0.26 137.191 13:48 30.07.2019
4441 Clear 31 1009 17 0 0.26 137.191 13:29 30.07.2019
4442 Clear 31 1010 17 0 0.43 181.479 12:59 30.07.2019
4443 Clear 31 1010 17 0 0.43 181.479 12:41 30.07.2019
4444 Clear 33 1008 16 0 0.88 201.619 12:23 30.07.2019
4445 Clear 33 1008 16 0 0.88 201.619 11:44 30.07.2019
4446 Clear 33 1008 16 0 0.88 201.619 11:21 30.07.2019
4447 Clear 33 1009 15 0 1.13 199.722 10:55 30.07.2019
4448 Clear 33 1009 15 0 1.13 199.722 10:37 30.07.2019
4449 Clear 33 1009 15 0 1.13 199.722 10:19 30.07.2019
4450 Clear 33 1009 15 0 1.13 199.722 09:45 30.07.2019
4451 Clouds 36 1009 11 0 2.96 193.209 09:24 30.07.2019
4452 Clouds 36 1009 11 0 2.96 193.209 08:32 30.07.2019
4453 Clouds 36 1009 11 0 2.96 193.209 07:52 30.07.2019
4454 Clouds 36 1009 11 0 2.96 193.209 07:34 30.07.2019
4455 Clouds 36 1009 11 0 2.96 193.209 06:52 30.07.2019
4456 Clouds 36 1009 11 0 2.96 193.209 06:32 30.07.2019
4457 Clouds 39 1007 9 0 2.16 153.577 05:35 30.07.2019
4458 Clouds 39 1007 9 0 2.16 153.577 03:29 30.07.2019
4459 Clouds 41 1007 5 0 3.2 104.727 01:22 30.07.2019
4460 Clouds 41 1007 5 0 3.2 104.727 00:27 30.07.2019
4461 Clouds 40 1009 8 0 3.07 95.939 23:57 29.07.2019
4462 Clouds 40 1009 8 0 3.07 95.939 23:38 29.07.2019
4463 Clouds 40 1009 8 0 3.07 95.939 23:20 29.07.2019
4464 Clouds 40 1009 8 0 3.07 95.939 22:54 29.07.2019
4465 Clouds 40 1009 8 0 3.07 95.939 22:36 29.07.2019
4466 Clouds 40 1009 8 0 3.07 95.939 22:18 29.07.2019
4467 Clouds 40 1009 8 0 3.07 95.939 21:41 29.07.2019
4468 Clouds 37 1011 9 0 1.92 56.351 21:23 29.07.2019
4469 Clouds 37 1011 9 0 1.92 56.351 20:57 29.07.2019
4470 Clouds 37 1011 9 0 1.92 56.351 20:38 29.07.2019
4471 Clouds 37 1011 9 0 1.92 56.351 20:19 29.07.2019
4472 Clouds 37 1011 9 0 1.92 56.351 19:43 29.07.2019
4473 Clouds 37 1011 9 0 1.92 56.351 19:23 29.07.2019
4474 Clouds 37 1011 9 0 1.92 56.351 18:57 29.07.2019
4475 Clouds 37 1011 9 0 1.92 56.351 18:38 29.07.2019
4476 Clouds 34 1011 12 0 0.47 116.022 18:19 29.07.2019
4477 Clouds 34 1011 12 0 0.47 116.022 17:47 29.07.2019
4478 Clouds 34 1011 12 0 0.47 116.022 17:27 29.07.2019
4479 Clouds 34 1011 12 0 0.47 116.022 16:47 29.07.2019
4480 Clouds 34 1011 12 0 0.47 116.022 16:29 29.07.2019
4481 Clouds 34 1011 12 0 0.47 116.022 15:54 29.07.2019
4482 Clouds 34 1011 12 0 0.47 116.022 15:36 29.07.2019
4483 Clouds 31 1010 18 0 0.98 194.193 14:59 29.07.2019
4484 Clouds 31 1010 18 0 0.98 194.193 14:40 29.07.2019
4485 Clouds 31 1010 18 0 0.98 194.193 14:21 29.07.2019
4486 Clouds 31 1010 18 0 0.98 194.193 13:46 29.07.2019
4487 Clouds 32 1011 18 0 1.09 206.612 13:24 29.07.2019
4488 Clouds 32 1011 18 0 1.09 206.612 12:57 29.07.2019
4489 Clouds 32 1011 18 0 1.09 206.612 12:38 29.07.2019
4490 Clouds 34 1011 16 0 2.05 201.349 12:19 29.07.2019
4491 Clouds 34 1011 16 0 2.05 201.349 11:40 29.07.2019
4492 Clouds 34 1011 16 0 2.05 201.349 11:19 29.07.2019
4493 Clouds 34 1011 16 0 2.05 201.349 10:42 29.07.2019
4494 Clouds 34 1011 16 0 2.05 201.349 10:21 29.07.2019
4495 Clouds 34 1011 16 0 2.05 201.349 10:21 29.07.2019
4496 Clouds 34 1011 16 0 2.05 201.349 09:44 29.07.2019
4497 Clouds 37 1010 12 0 2.46 211.152 09:21 29.07.2019
4498 Clouds 38 1010 13 0 1.87 178.099 08:47 29.07.2019
4499 Clouds 38 1010 13 0 1.87 178.099 08:26 29.07.2019
4500 Clouds 38 1010 13 0 1.87 178.099 07:46 29.07.2019
4501 Clouds 38 1010 13 0 1.87 178.099 07:27 29.07.2019
4502 Clouds 38 1010 13 0 1.87 178.099 06:40 29.07.2019
4503 Clouds 41 1009 11 0 2.7 143.887 05:36 29.07.2019
4504 Clouds 41 1009 11 0 2.7 143.887 03:57 29.07.2019
4505 Clouds 43 1009 10 0 4.72 114.186 01:52 29.07.2019
4506 Clouds 43 1009 10 0 4.72 114.186 01:33 29.07.2019
4507 Clouds 43 1009 9 0 5.7 126.468 00:58 29.07.2019
4508 Clouds 43 1009 9 0 5.7 126.468 00:29 29.07.2019
4509 Clouds 41 1011 11 0 3.26 111.596 23:44 28.07.2019
4510 Clouds 41 1011 11 0 3.26 111.596 23:26 28.07.2019
4511 Clouds 41 1011 11 0 3.26 111.596 22:46 28.07.2019
4512 Clouds 41 1011 11 0 3.26 111.596 22:28 28.07.2019
4513 Clouds 41 1011 11 0 3.26 111.596 21:56 28.07.2019
4514 Clouds 41 1011 11 0 3.26 111.596 21:37 28.07.2019
4515 Clear 39 1014 15 0 1.27 106.557 21:18 28.07.2019
4516 Clear 39 1014 14 0 1.37 96.715 20:42 28.07.2019
4517 Clear 39 1014 14 0 1.37 96.715 20:24 28.07.2019
4518 Clear 39 1014 14 0 1.37 96.715 19:40 28.07.2019
4519 Clear 39 1014 14 0 1.37 96.715 19:21 28.07.2019
4520 Clear 39 1014 14 0 1.37 96.715 18:46 28.07.2019
4521 Clear 39 1014 14 0 1.37 96.715 18:28 28.07.2019
4522 Clear 37 1015 16 0 0.91 339.171 17:57 28.07.2019
4523 Clear 37 1015 16 0 0.91 339.171 17:38 28.07.2019
4524 Clear 37 1015 16 0 0.91 339.171 17:19 28.07.2019
4525 Clear 37 1015 16 0 0.91 339.171 16:45 28.07.2019
4526 Clear 37 1015 16 0 0.91 339.171 16:25 28.07.2019
4527 Clear 37 1015 16 0 0.91 339.171 15:48 28.07.2019
4528 Clear 37 1015 16 0 0.91 339.171 15:27 28.07.2019
4529 Clear 33 1014 24 0 0.74 305.754 14:56 28.07.2019
4530 Clear 33 1014 24 0 0.74 305.754 14:37 28.07.2019
4531 Clear 33 1014 24 0 0.74 305.754 14:18 28.07.2019
4532 Clear 33 1014 24 0 0.74 305.754 13:40 28.07.2019
4533 Clear 33 1015 25 0 0.62 326.004 13:21 28.07.2019
4534 Clear 33 1015 25 0 0.62 326.004 12:46 28.07.2019
4535 Clear 33 1015 25 0 0.62 326.004 12:28 28.07.2019
4536 Clear 35 1014 23 0 0.2 255.759 11:52 28.07.2019
4537 Clear 35 1014 23 0 0.2 255.759 11:31 28.07.2019
4538 Clear 35 1014 23 0 0.2 255.759 10:59 28.07.2019
4539 Clear 35 1014 23 0 0.2 255.759 10:39 28.07.2019
4540 Clear 35 1014 23 0 0.2 255.759 10:19 28.07.2019
4541 Clear 35 1014 23 0 0.2 255.759 09:40 28.07.2019
4542 Clear 37 1015 21 0 0.96 252.993 09:22 28.07.2019
4543 Clear 37 1014 21 0 0.87 239.544 08:44 28.07.2019
4544 Clear 37 1014 21 0 0.87 239.544 08:26 28.07.2019
4545 Clear 37 1014 21 0 0.87 239.544 07:51 28.07.2019
4546 Clear 37 1014 21 0 0.87 239.544 07:32 28.07.2019
4547 Clear 37 1014 21 0 0.87 239.544 06:38 28.07.2019
4548 Clear 39 1013 16 0 1.05 206.786 05:24 28.07.2019
4549 Clear 40 1013 11 0 0.57 315.789 03:23 28.07.2019
4550 Clear 40 1013 11 0 0.57 315.789 02:19 28.07.2019
4551 Clear 40 1013 12 0 0.71 253.633 01:19 28.07.2019
4552 Clear 40 1013 12 0 0.71 253.633 00:44 28.07.2019
4553 Clear 39 1015 15 0 2.26 307.692 00:18 28.07.2019
4554 Clear 39 1015 15 0 2.26 307.692 23:44 27.07.2019
4555 Clear 39 1015 15 0 2.26 307.692 23:18 27.07.2019
4556 Clear 39 1015 15 0 2.26 307.692 22:40 27.07.2019
4557 Clear 39 1015 15 0 2.26 307.692 22:19 27.07.2019
4558 Clear 39 1015 15 0 2.26 307.692 21:39 27.07.2019
4559 Clear 36 1017 21 0 2.68 323.07 21:20 27.07.2019
4560 Clear 36 1017 20 0 2.17 320.584 20:50 27.07.2019
4561 Clear 36 1017 20 0 2.17 320.584 20:23 27.07.2019
4562 Clear 36 1017 20 0 2.17 320.584 19:46 27.07.2019
4563 Clear 36 1017 20 0 2.17 320.584 19:26 27.07.2019
4564 Clear 36 1017 20 0 2.17 320.584 19:26 27.07.2019
4565 Clear 36 1017 20 0 2.17 320.584 18:52 27.07.2019
4566 Clear 36 1017 20 0 2.17 320.584 18:34 27.07.2019
4567 Clear 33 1018 26 0 2.2 322.562 17:57 27.07.2019
4568 Clear 33 1018 26 0 2.2 322.562 17:36 27.07.2019
4569 Clear 33 1018 26 0 2.2 322.562 17:18 27.07.2019
4570 Clear 33 1018 26 0 2.2 322.562 16:46 27.07.2019
4571 Clear 33 1018 26 0 2.2 322.562 16:28 27.07.2019
4572 Clear 33 1018 26 0 2.2 322.562 15:53 27.07.2019
4573 Clear 31 1016 34 0 1.3 316.617 15:22 27.07.2019
4574 Clear 31 1016 34 0 1.3 316.617 14:51 27.07.2019
4575 Clear 31 1016 34 0 1.3 316.617 14:32 27.07.2019
4576 Clear 31 1016 34 0 1.3 316.617 13:58 27.07.2019
4577 Clear 31 1016 34 0 1.3 316.617 13:39 27.07.2019
4578 Clear 31 1016 34 0 1.19 294.924 13:19 27.07.2019
4579 Clear 31 1016 34 0 1.19 294.924 12:41 27.07.2019
4580 Clear 32 1016 31 0 1.43 326.432 12:22 27.07.2019
4581 Clear 32 1016 31 0 1.43 326.432 11:44 27.07.2019
4582 Clear 32 1016 31 0 1.43 326.432 11:25 27.07.2019
4583 Clear 32 1016 31 0 1.43 326.432 10:43 27.07.2019
4584 Clear 32 1016 31 0 1.43 326.432 10:24 27.07.2019
4585 Clear 32 1016 31 0 1.43 326.432 09:59 27.07.2019
4586 Clear 32 1016 31 0 1.43 326.432 09:39 27.07.2019
4587 Clouds 34 1015 26 0 3.7 321.094 09:21 27.07.2019
4588 Clear 35 1015 28 0 2.98 338.291 08:45 27.07.2019
4589 Clear 35 1015 28 0 2.98 338.291 08:25 27.07.2019
4590 Clear 35 1015 28 0 2.98 338.291 07:45 27.07.2019
4591 Clear 35 1015 28 0 2.98 338.291 07:22 27.07.2019
4592 Clear 35 1015 28 0 2.98 338.291 06:54 27.07.2019
4593 Clear 35 1015 28 0 2.98 338.291 06:28 27.07.2019
4594 Clear 37 1013 25 0 2.1 355.518 05:42 27.07.2019
4595 Clear 37 1013 25 0 2.1 355.518 04:52 27.07.2019
4596 Clear 37 1013 25 0 2.1 355.518 03:56 27.07.2019
4597 Rain 38 1012 24 0 2.36 150.406 02:43 27.07.2019
4598 Rain 38 1012 24 0 2.36 150.406 02:24 27.07.2019
4599 Rain 38 1012 24 0 2.36 150.406 01:41 27.07.2019
4600 Clear 37 1012 25 0 2.37 105.896 00:57 27.07.2019
4601 Clear 37 1012 25 0 2.37 105.896 00:31 27.07.2019
4602 Clear 36 1015 26 0 2.28 83.136 23:50 26.07.2019
4603 Clear 36 1015 26 0 2.28 83.136 23:29 26.07.2019
4604 Clear 36 1015 26 0 2.28 83.136 22:45 26.07.2019
4605 Clear 36 1015 26 0 2.28 83.136 22:26 26.07.2019
4606 Clear 36 1015 26 0 2.28 83.136 21:58 26.07.2019
4607 Clear 36 1015 26 0 2.28 83.136 21:58 26.07.2019
4608 Clear 36 1015 26 0 2.28 83.136 21:37 26.07.2019
4609 Clear 34 1016 30 0 1.37 96.607 21:18 26.07.2019
4610 Clear 35 1016 27 0 1.13 45.645 20:42 26.07.2019
4611 Clear 35 1016 27 0 1.13 45.645 20:22 26.07.2019
4612 Clear 35 1016 27 0 1.13 45.645 19:43 26.07.2019
4613 Clear 35 1016 27 0 1.13 45.645 19:24 26.07.2019
4614 Clear 35 1016 27 0 1.13 45.645 18:56 26.07.2019
4615 Clear 35 1016 27 0 1.13 45.645 18:36 26.07.2019
4616 Clear 32 1016 33 0 1.27 326.435 18:18 26.07.2019
4617 Clear 32 1016 33 0 1.27 326.435 17:42 26.07.2019
4618 Clear 32 1016 33 0 1.27 326.435 17:19 26.07.2019
4619 Clear 32 1016 33 0 1.27 326.435 16:56 26.07.2019
4620 Clear 32 1016 33 0 1.27 326.435 16:37 26.07.2019
4621 Clear 32 1016 33 0 1.27 326.435 16:19 26.07.2019
4622 Clear 32 1016 33 0 1.27 326.435 15:45 26.07.2019
4623 Clear 32 1016 33 0 1.27 326.435 15:26 26.07.2019
4624 Rain 30 1014 42 0 1.33 285.123 14:59 26.07.2019
4625 Rain 30 1014 42 0 1.33 285.123 14:41 26.07.2019
4626 Rain 30 1014 42 0 1.33 285.123 14:21 26.07.2019
4627 Rain 30 1014 42 0 1.33 285.123 13:40 26.07.2019
4628 Clouds 31 1014 37 0 1.67 284.66 13:22 26.07.2019
4629 Clouds 31 1014 37 0 1.67 284.66 12:48 26.07.2019
4630 Clouds 32 1014 36 0 3.05 272.991 12:20 26.07.2019
4631 Clouds 32 1014 36 0 3.05 272.991 11:40 26.07.2019
4632 Clouds 32 1014 36 0 3.05 272.991 11:20 26.07.2019
4633 Clouds 32 1014 36 0 3.05 272.991 10:57 26.07.2019
4634 Clouds 32 1014 36 0 3.05 272.991 10:38 26.07.2019
4635 Clouds 32 1014 36 0 3.05 272.991 09:59 26.07.2019
4636 Clouds 32 1014 36 0 3.05 272.991 09:41 26.07.2019
4637 Clouds 33 1014 33 0 4.05 302.925 09:21 26.07.2019
4638 Rain 33 1014 32 0 3.67 303.617 08:40 26.07.2019
4639 Rain 33 1014 32 0 3.67 303.617 08:20 26.07.2019
4640 Rain 33 1014 32 0 3.67 303.617 07:36 26.07.2019
4641 Rain 33 1014 32 0 3.67 303.617 06:58 26.07.2019
4642 Rain 36 1012 24 0 5.25 315.794 05:43 26.07.2019
4643 Rain 36 1012 24 0 5.25 315.794 04:30 26.07.2019
4644 Rain 36 1012 24 0 5.25 315.794 03:44 26.07.2019
4645 Clouds 38 1011 18 0 0.77 60.08 01:45 26.07.2019
4646 Clouds 37 1012 22 0 1.87 53.975 01:18 26.07.2019
4647 Clouds 37 1012 22 0 1.87 53.975 00:28 26.07.2019
4648 Clouds 35 1013 27 0 1.86 15.763 23:44 25.07.2019
4649 Clouds 35 1013 27 0 1.86 15.763 23:20 25.07.2019
4650 Clouds 35 1013 27 0 1.86 15.763 22:41 25.07.2019
4651 Clouds 35 1013 27 0 1.86 15.763 22:21 25.07.2019
4652 Clouds 35 1013 27 0 1.86 15.763 21:48 25.07.2019
4653 Rain 32 1015 36 0 1.57 21.137 21:23 25.07.2019
4654 Rain 35 1015 28 0 3.37 94.03 20:58 25.07.2019
4655 Rain 35 1015 28 0 3.37 94.03 20:38 25.07.2019
4656 Rain 35 1015 28 0 3.37 94.03 20:18 25.07.2019
4657 Rain 35 1015 28 0 3.37 94.03 19:40 25.07.2019
4658 Rain 35 1015 28 0 3.37 94.03 19:22 25.07.2019
4659 Rain 35 1015 28 0 3.37 94.03 18:42 25.07.2019
4660 Rain 32 1015 36 0 0.44 123.116 18:23 25.07.2019
4661 Rain 32 1015 36 0 0.44 123.116 17:50 25.07.2019
4662 Rain 32 1015 36 0 0.44 123.116 17:32 25.07.2019
4663 Rain 32 1015 36 0 0.44 123.116 16:57 25.07.2019
4664 Rain 32 1015 36 0 0.44 123.116 16:38 25.07.2019
4665 Rain 32 1015 36 0 0.44 123.116 16:20 25.07.2019
4666 Rain 32 1015 36 0 0.44 123.116 15:48 25.07.2019
4667 Rain 31 1014 36 0 0.88 277.569 15:20 25.07.2019
4668 Rain 31 1014 36 0 0.88 277.569 14:43 25.07.2019
4669 Rain 31 1014 36 0 0.88 277.569 14:23 25.07.2019
4670 Rain 31 1014 36 0 0.88 277.569 13:56 25.07.2019
4671 Rain 31 1014 36 0 0.88 277.569 13:36 25.07.2019
4672 Rain 31 1014 35 0 0.64 310.137 13:18 25.07.2019
4673 Rain 31 1014 35 0 0.64 310.137 12:30 25.07.2019
4674 Clouds 33 1013 28 0 1.81 292.808 11:56 25.07.2019
4675 Clouds 33 1013 28 0 1.81 292.808 11:37 25.07.2019
4676 Clouds 33 1013 28 0 1.81 292.808 11:19 25.07.2019
4677 Clouds 33 1013 28 0 1.81 292.808 10:42 25.07.2019
4678 Clouds 33 1013 28 0 1.81 292.808 10:23 25.07.2019
4679 Clouds 33 1013 28 0 1.81 292.808 09:44 25.07.2019
4680 Clouds 33 1013 28 0 1.81 292.808 09:26 25.07.2019
4681 Rain 34 1013 27 0 3.83 298.077 08:47 25.07.2019
4682 Rain 34 1013 27 0 3.83 298.077 08:26 25.07.2019
4683 Rain 34 1013 27 0 3.83 298.077 07:39 25.07.2019
4684 Rain 34 1013 27 0 3.83 298.077 06:45 25.07.2019
4685 Clouds 37 1011 22 0 1.14 24.257 06:19 25.07.2019
4686 Clouds 37 1011 22 0 1.14 24.257 05:32 25.07.2019
4687 Clouds 37 1011 22 0 1.14 24.257 04:44 25.07.2019
4688 Rain 38 1011 20 0 2.28 102.493 02:24 25.07.2019
4689 Clouds 39 1010 20 0 1.77 93.504 01:21 25.07.2019
4690 Clouds 37 1013 23 0 2.07 36.135 00:23 25.07.2019
4691 Clouds 37 1013 23 0 2.07 36.135 23:56 24.07.2019
4692 Clouds 37 1013 23 0 2.07 36.135 23:37 24.07.2019
4693 Clouds 37 1013 23 0 2.07 36.135 23:18 24.07.2019
4694 Clouds 37 1013 23 0 2.07 36.135 22:43 24.07.2019
4695 Clouds 37 1013 23 0 2.07 36.135 22:22 24.07.2019
4696 Clouds 37 1013 23 0 2.07 36.135 21:55 24.07.2019
4697 Clouds 37 1013 23 0 2.07 36.135 21:37 24.07.2019
4698 Rain 34 1016 26 0 1.68 17.658 21:18 24.07.2019
4699 Rain 36 1016 21 0 1.96 77.722 20:40 24.07.2019
4700 Rain 36 1016 21 0 1.96 77.722 20:22 24.07.2019
4701 Rain 36 1016 21 0 1.96 77.722 19:56 24.07.2019
4702 Rain 36 1016 21 0 1.96 77.722 19:38 24.07.2019
4703 Rain 36 1016 21 0 1.96 77.722 19:19 24.07.2019
4704 Rain 36 1016 21 0 1.96 77.722 18:42 24.07.2019
4705 Clouds 33 1016 25 0 0.37 121.017 18:23 24.07.2019
4706 Clouds 33 1016 25 0 0.37 121.017 17:44 24.07.2019
4707 Clouds 33 1016 25 0 0.37 121.017 17:20 24.07.2019
4708 Clouds 33 1016 25 0 0.37 121.017 16:42 24.07.2019
4709 Clouds 33 1016 25 0 0.37 121.017 16:22 24.07.2019
4710 Clouds 33 1016 25 0 0.37 121.017 16:22 24.07.2019
4711 Clouds 33 1016 25 0 0.37 121.017 15:42 24.07.2019
4712 Clouds 30 1015 32 0 1.6 282.082 15:24 24.07.2019
4713 Clouds 30 1015 32 0 1.6 282.082 14:57 24.07.2019
4714 Clouds 30 1015 32 0 1.6 282.082 14:38 24.07.2019
4715 Clouds 30 1015 32 0 1.6 282.082 14:38 24.07.2019
4716 Clouds 30 1015 32 0 1.6 282.082 14:19 24.07.2019
4717 Clouds 30 1015 32 0 1.6 282.082 13:38 24.07.2019
4718 Clouds 29 1016 31 0 1.2 269.426 13:19 24.07.2019
4719 Clouds 29 1016 31 0 1.2 269.426 12:51 24.07.2019
4720 Clouds 29 1016 31 0 1.2 269.426 12:33 24.07.2019
4721 Clouds 30 1015 31 0 1.86 283.707 11:40 24.07.2019
4722 Clouds 30 1015 31 0 1.86 283.707 11:20 24.07.2019
4723 Clouds 30 1015 31 0 1.86 283.707 10:46 24.07.2019
4724 Clouds 30 1015 31 0 1.86 283.707 10:26 24.07.2019
4725 Clouds 30 1015 31 0 1.86 283.707 09:52 24.07.2019
4726 Clouds 30 1015 31 0 1.86 283.707 09:26 24.07.2019
4727 Clouds 32 1015 30 0 3.22 291.646 08:58 24.07.2019
4728 Rain 30 1016 35 0 3.98 294.413 08:32 24.07.2019
4729 Rain 30 1016 35 0 3.98 294.413 07:52 24.07.2019
4730 Rain 30 1016 35 0 3.98 294.413 07:31 24.07.2019
4731 Rain 30 1016 35 0 3.98 294.413 06:49 24.07.2019
4732 Rain 32 1014 31 0 7.88 283.548 06:23 24.07.2019
4733 Rain 39 1013 18 0 1.2 7.314 02:56 24.07.2019
4734 Rain 39 1013 18 0 1.2 7.314 01:44 24.07.2019
4735 Clouds 40 1013 15 0 3.19 233.213 00:57 24.07.2019
4736 Clouds 40 1013 15 0 3.19 233.213 00:30 24.07.2019
4737 Rain 39 1014 18 0 3.16 116.533 23:46 23.07.2019
4738 Rain 39 1014 18 0 3.16 116.533 23:25 23.07.2019
4739 Rain 39 1014 18 0 3.16 116.533 23:25 23.07.2019
4740 Rain 39 1014 18 0 3.16 116.533 22:56 23.07.2019
4741 Rain 39 1014 18 0 3.16 116.533 22:36 23.07.2019
4742 Rain 39 1014 18 0 3.16 116.533 22:18 23.07.2019
4743 Rain 39 1014 18 0 3.16 116.533 21:44 23.07.2019
4744 Rain 36 1016 22 0 5.18 151.476 21:25 23.07.2019
4745 Clouds 36 1015 19 0 4.25 147.266 20:49 23.07.2019
4746 Clouds 36 1015 19 0 4.25 147.266 20:29 23.07.2019
4747 Clouds 36 1015 19 0 4.25 147.266 19:43 23.07.2019
4748 Clouds 36 1015 19 0 4.25 147.266 19:24 23.07.2019
4749 Clouds 36 1015 19 0 4.25 147.266 18:56 23.07.2019
4750 Clouds 36 1015 19 0 4.25 147.266 18:38 23.07.2019
4751 Clouds 35 1015 22 0 3.48 129.2 18:19 23.07.2019
4752 Clouds 35 1015 22 0 3.48 129.2 17:42 23.07.2019
4753 Clouds 35 1015 22 0 3.48 129.2 17:20 23.07.2019
4754 Clouds 35 1015 22 0 3.48 129.2 16:42 23.07.2019
4755 Clouds 35 1015 22 0 3.48 129.2 16:24 23.07.2019
4756 Clouds 35 1015 22 0 3.48 129.2 15:48 23.07.2019
4757 Clouds 35 1015 22 0 3.48 129.2 15:48 23.07.2019
4758 Clouds 35 1015 22 0 3.48 129.2 15:29 23.07.2019
4759 Clouds 31 1014 28 0 1.05 271.744 14:55 23.07.2019
4760 Clouds 31 1014 28 0 1.05 271.744 14:36 23.07.2019
4761 Clouds 31 1014 28 0 1.05 271.744 14:18 23.07.2019
4762 Clouds 31 1014 28 0 1.05 271.744 13:42 23.07.2019
4763 Clouds 30 1014 27 0 1.51 134.973 13:23 23.07.2019
4764 Clouds 30 1014 27 0 1.51 134.973 12:59 23.07.2019
4765 Clouds 30 1014 27 0 1.51 134.973 12:41 23.07.2019
4766 Clouds 30 1014 26 0 0.43 328.809 12:21 23.07.2019
4767 Clouds 30 1014 26 0 0.43 328.809 11:41 23.07.2019
4768 Clouds 30 1014 26 0 0.43 328.809 11:21 23.07.2019
4769 Clouds 30 1014 26 0 0.43 328.809 10:49 23.07.2019
4770 Clouds 30 1014 26 0 0.43 328.809 10:23 23.07.2019
4771 Clouds 30 1014 26 0 0.43 328.809 09:43 23.07.2019
4772 Clouds 32 1014 20 0 1.64 205.552 09:22 23.07.2019
4773 Clouds 32 1014 22 0 2.94 171.933 08:54 23.07.2019
4774 Clouds 32 1014 22 0 2.94 171.933 08:36 23.07.2019
4775 Clouds 32 1014 22 0 2.94 171.933 08:36 23.07.2019
4776 Clouds 32 1014 22 0 2.94 171.933 08:18 23.07.2019
4777 Clouds 32 1014 22 0 2.94 171.933 07:39 23.07.2019
4778 Clouds 32 1014 22 0 2.94 171.933 06:58 23.07.2019
4779 Clouds 32 1014 22 0 2.94 171.933 06:36 23.07.2019
4780 Clouds 36 1012 17 0 1.91 227.617 04:28 23.07.2019
4781 Clouds 43 1011 9 0 5.94 203.956 01:46 23.07.2019
4782 Clouds 44 1010 7 0 4.98 177.039 00:47 23.07.2019
4783 Clouds 44 1010 7 0 4.98 177.039 00:26 23.07.2019
4784 Clouds 44 1011 8 0 5.76 124.835 23:39 22.07.2019
4785 Clouds 44 1011 8 0 5.76 124.835 23:20 22.07.2019
4786 Clouds 44 1011 8 0 5.76 124.835 22:46 22.07.2019
4787 Clouds 44 1011 8 0 5.76 124.835 22:46 22.07.2019
4788 Clouds 44 1011 8 0 5.76 124.835 22:46 22.07.2019
4789 Clouds 44 1011 8 0 5.76 124.835 22:26 22.07.2019
4790 Clouds 44 1011 8 0 5.76 124.835 21:58 22.07.2019
4791 Clouds 44 1011 8 0 5.76 124.835 21:40 22.07.2019
4792 Clouds 39 1013 14 0 2.77 100.965 21:20 22.07.2019
4793 Clouds 38 1013 13 0 2.64 105.468 20:44 22.07.2019
4794 Clouds 38 1013 13 0 2.64 105.468 20:23 22.07.2019
4795 Clouds 38 1013 13 0 2.64 105.468 19:43 22.07.2019
4796 Clouds 38 1013 13 0 2.64 105.468 19:24 22.07.2019
4797 Clouds 38 1013 13 0 2.64 105.468 18:57 22.07.2019
4798 Clouds 38 1013 13 0 2.64 105.468 18:39 22.07.2019
4799 Clear 34 1013 16 0 1.13 79.936 18:21 22.07.2019
4800 Clear 34 1013 16 0 1.13 79.936 17:39 22.07.2019
4801 Clear 34 1013 16 0 1.13 79.936 17:20 22.07.2019
4802 Clear 34 1013 16 0 1.13 79.936 16:41 22.07.2019
4803 Clear 34 1013 16 0 1.13 79.936 16:21 22.07.2019
4804 Clear 34 1013 16 0 1.13 79.936 15:58 22.07.2019
4805 Clear 34 1013 16 0 1.13 79.936 15:36 22.07.2019
4806 Clouds 26 1013 23 0 0.35 10.102 15:18 22.07.2019
4807 Clouds 26 1013 23 0 0.35 10.102 14:42 22.07.2019
4808 Clouds 26 1013 23 0 0.35 10.102 14:20 22.07.2019
4809 Clouds 26 1013 23 0 0.35 10.102 14:20 22.07.2019
4810 Clouds 26 1013 23 0 0.35 10.102 13:45 22.07.2019
4811 Clouds 26 1013 23 0 0.35 10.102 13:45 22.07.2019
4812 Clouds 26 1013 23 0 0.35 10.102 13:26 22.07.2019
4813 Clouds 26 1013 23 0 0.35 10.102 12:44 22.07.2019
4814 Clouds 28 1012 20 0 0.65 113.268 12:24 22.07.2019
4815 Clouds 29 1012 20 0 0.78 119.69 11:44 22.07.2019
4816 Clouds 29 1012 20 0 0.78 119.69 11:20 22.07.2019
4817 Clouds 29 1012 20 0 0.78 119.69 10:48 22.07.2019
4818 Clouds 29 1012 20 0 0.78 119.69 10:29 22.07.2019
4819 Clouds 29 1012 20 0 0.78 119.69 09:44 22.07.2019
4820 Clear 32 1010 16 0 1.88 223.814 09:25 22.07.2019
4821 Clear 32 1010 16 0 1.88 223.814 08:45 22.07.2019
4822 Clear 32 1010 16 0 1.88 223.814 08:25 22.07.2019
4823 Clear 32 1010 16 0 1.88 223.814 07:58 22.07.2019
4824 Clear 32 1010 16 0 1.88 223.814 07:40 22.07.2019
4825 Clear 32 1010 16 0 1.88 223.814 07:21 22.07.2019
4826 Clear 37 1009 10 0 3.08 190.744 03:58 22.07.2019
4827 Clear 43 1008 7 0 3.8 124.944 02:43 22.07.2019
4828 Clear 43 1008 7 0 2.91 144.185 00:57 22.07.2019
4829 Clear 43 1008 7 0 2.91 144.185 00:28 22.07.2019
4830 Clear 39 1010 11 0 3.66 113.143 23:56 21.07.2019
4831 Clear 39 1010 11 0 3.66 113.143 23:36 21.07.2019
4832 Clear 39 1010 11 0 3.66 113.143 22:55 21.07.2019
4833 Clear 39 1010 11 0 3.66 113.143 22:36 21.07.2019
4834 Clear 39 1010 11 0 3.66 113.143 22:18 21.07.2019
4835 Clear 39 1010 11 0 3.66 113.143 21:44 21.07.2019
4836 Clear 36 1012 16 0 2.62 102.446 21:24 21.07.2019
4837 Clear 35 1012 15 0 2.56 95.637 20:55 21.07.2019
4838 Clear 35 1012 15 0 2.56 95.637 20:37 21.07.2019
4839 Clear 35 1012 15 0 2.56 95.637 20:19 21.07.2019
4840 Clear 35 1012 15 0 2.56 95.637 19:47 21.07.2019
4841 Clear 35 1012 15 0 2.56 95.637 19:24 21.07.2019
4842 Clear 35 1012 15 0 2.56 95.637 18:48 21.07.2019
4843 Clear 35 1012 15 0 2.56 95.637 18:48 21.07.2019
4844 Clear 35 1012 15 0 2.56 95.637 18:26 21.07.2019
4845 Clear 30 1012 22 0 1.38 96.194 17:44 21.07.2019
4846 Clear 30 1012 22 0 1.38 96.194 17:21 21.07.2019
4847 Clear 30 1012 22 0 1.38 96.194 16:59 21.07.2019
4848 Clear 30 1012 22 0 1.38 96.194 16:40 21.07.2019
4849 Clear 30 1012 22 0 1.38 96.194 16:20 21.07.2019
4850 Clear 30 1012 22 0 1.38 96.194 15:39 21.07.2019
4851 Clear 24 1010 30 0 0.6 82.589 15:19 21.07.2019
4852 Clear 24 1010 30 0 0.6 82.589 14:42 21.07.2019
4853 Clear 24 1010 30 0 0.6 82.589 14:23 21.07.2019
4854 Clear 24 1010 30 0 0.6 82.589 13:53 21.07.2019
4855 Clear 24 1010 30 0 0.6 82.589 13:32 21.07.2019
4856 Clear 24 1010 29 0 0.46 89.876 12:46 21.07.2019
4857 Clear 24 1010 29 0 0.46 89.876 12:28 21.07.2019
4858 -273 0 0 0 0 0 11:56 21.07.2019
4859 Clear 26 1010 25 0 0.69 121.997 11:38 21.07.2019
4860 Clear 26 1010 25 0 0.69 121.997 11:19 21.07.2019
4861 Clear 26 1010 25 0 0.69 121.997 10:41 21.07.2019
4862 Clear 26 1010 25 0 0.69 121.997 10:23 21.07.2019
4863 Clear 26 1010 25 0 0.69 121.997 09:45 21.07.2019
4864 Clear 29 1010 21 0 2.18 206.6 09:25 21.07.2019
4865 Clear 30 1009 20 0 2.04 211.248 08:45 21.07.2019
4866 Clear 30 1009 20 0 2.04 211.248 08:27 21.07.2019
4867 Clear 30 1009 20 0 2.04 211.248 08:27 21.07.2019
4868 Clear 30 1009 20 0 2.04 211.248 07:39 21.07.2019
4869 Clear 30 1009 20 0 2.04 211.248 06:54 21.07.2019
4870 Clear 33 1007 15 0 1.19 108.055 05:45 21.07.2019
4871 Clear 39 1006 12 0 3.32 107.123 02:58 21.07.2019
4872 Clear 39 1006 13 0 4.09 109.64 01:24 21.07.2019
4873 Clear 39 1006 13 0 4.09 109.64 00:42 21.07.2019
4874 Clear 37 1007 14 0 2.77 89.504 00:19 21.07.2019
4875 Clear 37 1007 14 0 2.77 89.504 23:43 20.07.2019
4876 Clear 37 1007 14 0 2.77 89.504 23:21 20.07.2019
4877 Clear 37 1007 14 0 2.77 89.504 22:48 20.07.2019
4878 Clear 37 1007 14 0 2.77 89.504 22:23 20.07.2019
4879 Clear 37 1007 14 0 2.77 89.504 21:58 20.07.2019
4880 Clear 37 1007 14 0 2.77 89.504 21:39 20.07.2019
4881 Clear 33 1010 21 0 1.87 65.579 21:21 20.07.2019
4882 Clear 32 1010 18 0 1.99 66.21 20:42 20.07.2019
4883 Clear 32 1010 18 0 1.99 66.21 20:42 20.07.2019
4884 Clear 32 1010 18 0 1.99 66.21 20:21 20.07.2019
4885 Clear 32 1010 18 0 1.99 66.21 19:46 20.07.2019
4886 Clear 32 1010 18 0 1.99 66.21 19:23 20.07.2019
4887 Clear 32 1010 18 0 1.99 66.21 18:44 20.07.2019
4888 Clear 28 1010 24 0 1.39 85.243 18:22 20.07.2019
4889 Clear 28 1010 24 0 1.39 85.243 17:55 20.07.2019
4890 Clear 28 1010 24 0 1.39 85.243 17:26 20.07.2019
4891 Clear 28 1010 24 0 1.39 85.243 16:46 20.07.2019
4892 Clear 28 1010 24 0 1.39 85.243 16:28 20.07.2019
4893 Clear 28 1010 24 0 1.39 85.243 15:58 20.07.2019
4894 Clear 28 1010 24 0 1.39 85.243 15:40 20.07.2019
4895 Clear 23 1009 31 0 1.48 153.02 15:20 20.07.2019
4896 Clear 23 1009 31 0 1.48 153.02 14:49 20.07.2019
4897 Clear 23 1009 31 0 1.48 153.02 14:29 20.07.2019
4898 Clear 23 1009 31 0 1.48 153.02 13:56 20.07.2019
4899 Clear 23 1009 31 0 1.48 153.02 13:37 20.07.2019
4900 Clear 23 1009 31 0 0.53 138.916 13:18 20.07.2019
4901 Clear 23 1009 31 0 0.53 138.916 12:44 20.07.2019
4902 Clouds 26 1008 25 0 0.34 88.834 12:18 20.07.2019
4903 Clouds 26 1008 25 0 0.34 88.834 11:41 20.07.2019
4904 Clouds 26 1008 25 0 0.34 88.834 11:20 20.07.2019
4905 Clouds 26 1008 25 0 0.34 88.834 10:41 20.07.2019
4906 Clouds 26 1008 25 0 0.34 88.834 10:22 20.07.2019
4907 Clouds 26 1008 25 0 0.34 88.834 09:48 20.07.2019
4908 Clear 28 1008 22 0 1.57 179.308 09:25 20.07.2019
4909 Clear 28 1008 22 0 1.67 166.972 08:51 20.07.2019
4910 Clear 28 1008 22 0 1.67 166.972 08:23 20.07.2019
4911 Clear 28 1008 22 0 1.67 166.972 07:39 20.07.2019
4912 Clear 28 1008 22 0 1.67 166.972 06:46 20.07.2019
4913 Clear 34 1006 13 0 2.52 154.422 05:49 20.07.2019
4914 Clear 34 1006 13 0 2.52 154.422 04:31 20.07.2019
4915 Clear 39 1005 8 0 2.85 98.244 01:59 20.07.2019
4916 Clear 39 1004 9 0 2.09 81.168 00:59 20.07.2019
4917 Clear 39 1004 9 0 2.09 81.168 00:37 20.07.2019
4918 Clear 38 1007 11 0 3.65 106.254 00:18 20.07.2019
4919 Clear 38 1007 11 0 3.65 106.254 23:39 19.07.2019
4920 Clear 38 1007 11 0 3.65 106.254 23:21 19.07.2019
4921 Clear 38 1007 11 0 3.65 106.254 22:43 19.07.2019
4922 Clear 38 1007 11 0 3.65 106.254 22:22 19.07.2019
4923 Clear 38 1007 11 0 3.65 106.254 21:45 19.07.2019
4924 Clear 38 1007 10 0 3.62 106.746 21:26 19.07.2019
4925 Clear 34 1009 13 0 2.24 88.722 20:49 19.07.2019
4926 Clear 34 1009 13 0 2.24 88.722 20:31 19.07.2019
4927 Clear 34 1009 13 0 2.24 88.722 19:48 19.07.2019
4928 Clear 34 1009 13 0 2.24 88.722 19:27 19.07.2019
4929 Clear 34 1009 13 0 2.24 88.722 18:42 19.07.2019
4930 Clear 29 1010 17 0 1.24 110.681 18:21 19.07.2019
4931 Clear 29 1010 17 0 1.24 110.681 17:54 19.07.2019
4932 Clear 29 1010 17 0 1.24 110.681 17:27 19.07.2019
4933 Clear 29 1010 17 0 1.24 110.681 16:49 19.07.2019
4934 Clear 29 1010 17 0 1.24 110.681 16:26 19.07.2019
4935 Clear 29 1010 17 0 1.24 110.681 15:53 19.07.2019
4936 Clear 29 1010 17 0 1.24 110.681 15:31 19.07.2019
4937 Clear 22 1009 25 0 0.41 117.499 14:58 19.07.2019
4938 Clear 22 1009 25 0 0.41 117.499 14:39 19.07.2019
4939 Clear 22 1009 25 0 0.41 117.499 14:21 19.07.2019
4940 Clear 22 1009 25 0 0.41 117.499 13:44 19.07.2019
4941 Clear 22 1009 25 0 0.41 117.499 13:44 19.07.2019
4942 Clear 22 1009 25 0 0.5 162.914 13:26 19.07.2019
4943 Clear 22 1009 25 0 0.5 162.914 12:55 19.07.2019
4944 Clear 22 1009 25 0 0.5 162.914 12:36 19.07.2019
4945 Clear 25 1009 22 0 0.91 122.645 12:18 19.07.2019
4946 Clear 25 1009 22 0 0.91 122.645 11:43 19.07.2019
4947 Clear 25 1009 22 0 0.91 122.645 11:18 19.07.2019
4948 Clear 25 1009 22 0 0.91 122.645 10:47 19.07.2019
4949 Clear 25 1009 22 0 0.91 122.645 10:22 19.07.2019
4950 Clear 25 1009 22 0 0.91 122.645 09:58 19.07.2019
4951 Clear 25 1009 22 0 0.91 122.645 09:40 19.07.2019
4952 Clear 28 1009 19 0 1.79 211.063 09:21 19.07.2019
4953 Clear 28 1009 20 0 1.69 192.272 08:48 19.07.2019
4954 Clear 28 1009 20 0 1.69 192.272 07:59 19.07.2019
4955 Clear 28 1009 20 0 1.69 192.272 07:29 19.07.2019
4956 Clear 34 1006 10 0 3.13 205.927 05:57 19.07.2019
4957 Clear 42 1006 6 0 5.09 193.512 02:43 19.07.2019
4958 Clear 42 1006 6 0 4.69 194.641 01:20 19.07.2019
4959 Clear 42 1006 6 0 4.69 194.641 00:45 19.07.2019
4960 Clear 40 1008 8 0 7.49 127.762 23:58 18.07.2019
4961 Clear 40 1008 8 0 7.49 127.762 23:39 18.07.2019
4962 Clear 40 1008 8 0 7.49 127.762 23:21 18.07.2019
4963 Clear 40 1008 8 0 7.49 127.762 22:40 18.07.2019
4964 Clear 40 1008 8 0 7.49 127.762 22:20 18.07.2019
4965 Clear 40 1008 8 0 7.49 127.762 21:49 18.07.2019
4966 Clear 40 1008 8 0 7.49 127.762 21:30 18.07.2019
4967 Clear 34 1011 18 0 2.66 103.827 20:54 18.07.2019
4968 Clear 34 1011 18 0 2.66 103.827 20:36 18.07.2019
4969 Clear 34 1011 18 0 2.66 103.827 20:18 18.07.2019
4970 Clear 34 1011 18 0 2.66 103.827 19:43 18.07.2019
4971 Clear 34 1011 18 0 2.66 103.827 19:20 18.07.2019
4972 Clear 34 1011 18 0 2.66 103.827 18:43 18.07.2019
4973 Clouds 29 1012 24 0 1.51 125.759 18:21 18.07.2019
4974 Clouds 29 1012 24 0 1.51 125.759 17:44 18.07.2019
4975 Clouds 29 1012 24 0 1.51 125.759 17:25 18.07.2019
4976 Clouds 29 1012 24 0 1.51 125.759 16:58 18.07.2019
4977 Clouds 29 1012 24 0 1.51 125.759 16:40 18.07.2019
4978 Clouds 29 1012 24 0 1.51 125.759 16:19 18.07.2019
4979 Clouds 29 1012 24 0 1.51 125.759 15:53 18.07.2019
4980 Clouds 29 1012 24 0 1.51 125.759 15:35 18.07.2019
4981 Clouds 24 1012 32 0 0.62 108.523 14:55 18.07.2019
4982 Clouds 24 1012 32 0 0.62 108.523 14:36 18.07.2019
4983 Clouds 24 1012 32 0 0.62 108.523 13:54 18.07.2019
4984 Clouds 24 1012 32 0 0.62 108.523 13:36 18.07.2019
4985 Clouds 24 1011 31 0 0.53 101.183 13:18 18.07.2019
4986 Clouds 24 1011 31 0 0.53 101.183 12:42 18.07.2019
4987 Clouds 26 1011 24 0 0.85 145.766 12:18 18.07.2019
4988 Clouds 26 1011 24 0 0.85 145.766 11:50 18.07.2019
4989 Clouds 26 1011 24 0 0.85 145.766 11:27 18.07.2019
4990 Clouds 26 1011 24 0 0.85 145.766 11:27 18.07.2019
4991 Clouds 26 1011 24 0 0.85 145.766 10:52 18.07.2019
4992 Clouds 26 1011 24 0 0.85 145.766 10:18 18.07.2019
4993 Clouds 26 1011 24 0 0.85 145.766 09:44 18.07.2019
4994 Clouds 29 1010 19 0 2.38 216.441 09:21 18.07.2019
4995 Clouds 29 1010 21 0 1.91 215.611 08:42 18.07.2019
4996 Clouds 29 1010 21 0 1.91 215.611 08:19 18.07.2019
4997 Clouds 29 1010 21 0 1.91 215.611 07:37 18.07.2019
4998 Clouds 29 1010 21 0 1.91 215.611 06:59 18.07.2019
4999 Clouds 29 1010 21 0 1.91 215.611 06:34 18.07.2019
5000 Clouds 34 1008 11 0 2.27 202.698 04:19 18.07.2019
5001 Clouds 41 1007 8 0 3.03 210.12 02:52 18.07.2019
5002 Clouds 41 1006 8 0 1.92 117.125 01:37 18.07.2019
5003 Clear 38 1009 12 0 3.98 107.666 00:26 18.07.2019
5004 Clear 38 1009 12 0 3.98 107.666 23:49 17.07.2019
5005 Clear 38 1009 12 0 3.98 107.666 23:18 17.07.2019
5006 Clear 38 1009 12 0 3.98 107.666 22:43 17.07.2019
5007 Clear 38 1009 12 0 3.98 107.666 22:23 17.07.2019
5008 Clear 38 1009 12 0 3.98 107.666 21:59 17.07.2019
5009 Clear 38 1009 12 0 3.98 107.666 21:40 17.07.2019
5010 Clear 38 1009 12 0 3.98 107.666 21:40 17.07.2019
5011 Clouds 34 1010 17 0 3.02 119.465 21:21 17.07.2019
5012 Clouds 34 1010 16 0 2.6 102.147 20:58 17.07.2019
5013 Clouds 34 1010 16 0 2.6 102.147 20:39 17.07.2019
5014 Clouds 34 1010 16 0 2.6 102.147 20:20 17.07.2019
5015 Clouds 34 1010 16 0 2.6 102.147 19:43 17.07.2019
5016 Clouds 34 1010 16 0 2.6 102.147 19:22 17.07.2019
5017 Clouds 34 1010 16 0 2.6 102.147 18:57 17.07.2019
5018 Clouds 34 1010 16 0 2.6 102.147 18:39 17.07.2019
5019 Clouds 29 1011 20 0 1.09 65.63 18:20 17.07.2019
5020 Clouds 29 1011 20 0 1.09 65.63 17:45 17.07.2019
5021 Clouds 29 1011 20 0 1.09 65.63 17:24 17.07.2019
5022 Clouds 29 1011 20 0 1.09 65.63 16:43 17.07.2019
5023 Clouds 29 1011 20 0 1.09 65.63 16:23 17.07.2019
5024 Clouds 29 1011 20 0 1.09 65.63 15:52 17.07.2019
5025 Clouds 29 1011 20 0 1.09 65.63 15:32 17.07.2019
5026 Clear 23 1009 27 0 0.52 140.687 14:58 17.07.2019
5027 Clear 23 1009 27 0 0.52 140.687 14:40 17.07.2019
5028 Clear 23 1009 27 0 0.52 140.687 14:21 17.07.2019
5029 Clear 23 1009 27 0 0.52 140.687 13:59 17.07.2019
5030 Clear 23 1009 27 0 0.52 140.687 13:40 17.07.2019
5031 Clear 23 1009 26 0 0.06 233.531 13:19 17.07.2019
5032 Clear 23 1009 26 0 0.06 233.531 12:39 17.07.2019
5033 Clear 25 1008 21 0 1.4 127.469 12:20 17.07.2019
5034 Clear 25 1008 21 0 1.4 127.469 11:44 17.07.2019
5035 Clear 25 1008 21 0 1.4 127.469 11:21 17.07.2019
5036 Clear 25 1008 21 0 1.4 127.469 10:50 17.07.2019
5037 Clear 25 1008 21 0 1.4 127.469 10:29 17.07.2019
5038 Clear 25 1008 21 0 1.4 127.469 09:55 17.07.2019
5039 Clear 25 1008 21 0 1.4 127.469 09:55 17.07.2019
5040 Clear 25 1008 21 0 1.4 127.469 09:37 17.07.2019
5041 Clear 28 1007 16 0 1.19 179.232 09:18 17.07.2019
5042 Clear 28 1007 16 0 1.21 190.126 08:41 17.07.2019
5043 Clear 28 1007 16 0 1.21 190.126 08:21 17.07.2019
5044 Clear 28 1007 16 0 1.21 190.126 07:48 17.07.2019
5045 Clear 28 1007 16 0 1.21 190.126 07:23 17.07.2019
5046 Clear 28 1007 16 0 1.21 190.126 07:23 17.07.2019
5047 Clear 28 1007 16 0 1.21 190.126 06:49 17.07.2019
5048 Clear 28 1007 16 0 1.21 190.126 06:29 17.07.2019
5049 Clear 36 1004 7 0 3.43 156.661 05:47 17.07.2019
5050 Clear 36 1004 7 0 3.43 156.661 05:25 17.07.2019
5051 Clear 36 1004 7 0 3.43 156.661 04:32 17.07.2019
5052 Clear 42 1003 6 0 3.34 156.91 02:56 17.07.2019
5053 Clear 42 1003 6 0 3.34 156.91 01:59 17.07.2019
5054 Clear 43 1003 5 0 4.22 133.378 01:25 17.07.2019
5055 Clear 43 1003 5 0 4.22 133.378 00:48 17.07.2019
5056 Clear 40 1006 8 0 4.35 108.61 00:24 17.07.2019
5057 Clear 40 1006 8 0 4.35 108.61 23:58 16.07.2019
5058 Clear 40 1006 8 0 4.35 108.61 23:30 16.07.2019
5059 Clear 40 1006 8 0 4.35 108.61 22:59 16.07.2019
5060 Clear 40 1006 8 0 4.35 108.61 22:40 16.07.2019
5061 Clear 40 1006 8 0 4.35 108.61 22:20 16.07.2019
5062 Clear 40 1006 8 0 4.35 108.61 21:45 16.07.2019
5063 Clear 36 1008 10 0 2.46 112.23 21:22 16.07.2019
5064 Clear 36 1008 9 0 2.57 97.979 20:58 16.07.2019
5065 Clear 36 1008 9 0 2.57 97.979 20:39 16.07.2019
5066 Clear 36 1008 9 0 2.57 97.979 20:21 16.07.2019
5067 Clear 36 1008 9 0 2.57 97.979 19:51 16.07.2019
5068 Clear 36 1008 9 0 2.57 97.979 19:28 16.07.2019
5069 Clear 36 1008 9 0 2.57 97.979 18:57 16.07.2019
5070 Clear 36 1008 9 0 2.57 97.979 18:38 16.07.2019
5071 Clear 31 1010 13 0 1.8 97.363 18:19 16.07.2019
5072 Clear 31 1010 13 0 1.8 97.363 17:42 16.07.2019
5073 Clear 31 1010 13 0 1.8 97.363 17:21 16.07.2019
5074 Clear 31 1010 13 0 1.8 97.363 16:45 16.07.2019
5075 Clear 31 1010 13 0 1.8 97.363 16:23 16.07.2019
5076 Clear 31 1010 13 0 1.8 97.363 15:55 16.07.2019
5077 Clear 31 1010 13 0 1.8 97.363 15:37 16.07.2019
5078 Clear 25 1009 17 0 0.9 100.436 15:18 16.07.2019
5079 Clear 25 1009 17 0 0.9 100.436 14:43 16.07.2019
5080 Clear 25 1009 17 0 0.9 100.436 14:24 16.07.2019
5081 Clear 25 1009 17 0 0.9 100.436 13:46 16.07.2019
5082 Clear 25 1009 16 0 0.88 101.323 13:27 16.07.2019
5083 Clear 25 1009 16 0 0.88 101.323 12:56 16.07.2019
5084 Clear 25 1009 16 0 0.88 101.323 12:38 16.07.2019
5085 Clear 28 1009 15 0 0.36 113.703 12:19 16.07.2019
5086 Clear 28 1009 15 0 0.36 113.703 11:44 16.07.2019
5087 Clear 28 1009 15 0 0.36 113.703 11:24 16.07.2019
5088 Clear 28 1009 15 0 0.36 113.703 10:57 16.07.2019
5089 Clear 28 1009 15 0 0.36 113.703 10:39 16.07.2019
5090 Clear 28 1009 15 0 0.36 113.703 10:18 16.07.2019
5091 Clear 28 1009 15 0 0.36 113.703 09:43 16.07.2019
5092 Clear 32 1009 11 0 1.84 172.024 09:20 16.07.2019
5093 Clear 31 1009 10 0 2.02 168.205 08:46 16.07.2019
5094 Clear 31 1009 10 0 2.02 168.205 08:27 16.07.2019
5095 Clear 31 1009 10 0 2.02 168.205 07:51 16.07.2019
5096 Clear 31 1009 10 0 2.02 168.205 07:32 16.07.2019
5097 Clear 31 1009 10 0 2.02 168.205 06:58 16.07.2019
5098 Clear 31 1009 10 0 2.02 168.205 06:36 16.07.2019
5099 Clear 35 1007 8 0 2.05 152.773 05:52 16.07.2019
5100 Clear 35 1007 8 0 2.05 152.773 05:27 16.07.2019
5101 Clear 35 1007 8 0 2.05 152.773 04:34 16.07.2019
5102 Clear 35 1007 8 0 2.05 152.773 03:43 16.07.2019
5103 Clear 42 1007 5 0 2.73 95.857 02:44 16.07.2019
5104 Clear 42 1007 5 0 2.73 95.857 02:24 16.07.2019
5105 Clear 42 1007 5 0 2.73 95.857 01:26 16.07.2019
5106 Clear 40 1010 6 0 2.54 73.723 00:25 16.07.2019
5107 Clear 40 1010 6 0 2.54 73.723 23:59 15.07.2019
5108 Clear 40 1010 6 0 2.54 73.723 23:39 15.07.2019
5109 Clear 40 1010 6 0 2.54 73.723 23:21 15.07.2019
5110 Clear 40 1010 6 0 2.54 73.723 22:46 15.07.2019
5111 Clear 40 1010 6 0 2.54 73.723 22:21 15.07.2019
5112 Clear 40 1010 6 0 2.54 73.723 21:57 15.07.2019
5113 Clear 40 1010 6 0 2.54 73.723 21:39 15.07.2019
5114 Clear 37 1013 8 0 1.65 65.847 21:19 15.07.2019
5115 Clear 37 1013 8 0 1.65 65.847 20:45 15.07.2019
5116 Clear 37 1013 8 0 1.65 65.847 20:24 15.07.2019
5117 Clear 37 1013 8 0 1.65 65.847 19:58 15.07.2019
5118 Clear 37 1013 8 0 1.65 65.847 19:39 15.07.2019
5119 Clear 37 1013 8 0 1.65 65.847 19:19 15.07.2019
5120 Clear 37 1013 8 0 1.65 65.847 18:46 15.07.2019
5121 Clear 32 1014 12 0 0.95 12.81 18:22 15.07.2019
5122 Clear 32 1014 12 0 0.95 12.81 17:58 15.07.2019
5123 Clear 32 1014 12 0 0.95 12.81 17:39 15.07.2019
5124 Clear 32 1014 12 0 0.95 12.81 17:21 15.07.2019
5125 Clear 32 1014 12 0 0.95 12.81 16:58 15.07.2019
5126 Clear 32 1014 12 0 0.95 12.81 16:37 15.07.2019
5127 Clear 32 1014 12 0 0.95 12.81 16:18 15.07.2019
5128 Clear 32 1014 12 0 0.95 12.81 15:41 15.07.2019
5129 Clear 25 1013 17 0 0.99 167.314 15:23 15.07.2019
5130 Clear 25 1013 17 0 0.99 167.314 14:59 15.07.2019
5131 Clear 25 1013 17 0 0.99 167.314 14:38 15.07.2019
5132 Clear 25 1013 17 0 0.99 167.314 14:19 15.07.2019
5133 Clear 25 1013 17 0 0.99 167.314 13:47 15.07.2019
5134 Clear 25 1013 18 0 0.67 131.386 13:19 15.07.2019
5135 Clear 25 1013 18 0 0.67 131.386 12:47 15.07.2019
5136 Clear 25 1013 18 0 0.67 131.386 12:27 15.07.2019
5137 Clear 28 1013 15 0 1.28 258.892 11:58 15.07.2019
5138 Clear 28 1013 15 0 1.28 258.892 11:40 15.07.2019
5139 Clear 28 1013 15 0 1.28 258.892 11:19 15.07.2019
5140 Clear 28 1013 15 0 1.28 258.892 10:42 15.07.2019
5141 Clear 28 1013 15 0 1.28 258.892 10:24 15.07.2019
5142 Clear 28 1013 15 0 1.28 258.892 09:43 15.07.2019
5143 Clear 30 1013 12 0 3.18 216.776 09:22 15.07.2019
5144 Clear 31 1012 13 0 3.05 210.629 08:47 15.07.2019
5145 Clear 31 1012 13 0 3.05 210.629 08:25 15.07.2019
5146 Clear 31 1012 13 0 3.05 210.629 07:52 15.07.2019
5147 Clear 31 1012 13 0 3.05 210.629 07:32 15.07.2019
5148 Clear 31 1012 13 0 3.05 210.629 06:43 15.07.2019
5149 Clear 37 1010 8 0 6.24 222.487 06:21 15.07.2019
5150 Clear 37 1010 8 0 6.24 222.487 05:43 15.07.2019
5151 Clear 37 1010 8 0 6.24 222.487 04:48 15.07.2019
5152 Clear 37 1010 8 0 6.24 222.487 04:29 15.07.2019
5153 Clear 37 1010 8 0 6.24 222.487 03:29 15.07.2019
5154 Clear 43 1009 4 0 11.26 234.185 02:25 15.07.2019
5155 Clear 43 1009 4 0 11.26 234.185 01:37 15.07.2019
5156 Clear 43 1009 4 0 11.86 222.772 00:54 15.07.2019
5157 Clear 43 1009 4 0 11.86 222.772 00:28 15.07.2019
5158 Clear 44 1011 4 0 9.25 208.235 23:59 14.07.2019
5159 Clear 44 1011 4 0 9.25 208.235 23:40 14.07.2019
5160 Clear 44 1011 4 0 9.25 208.235 23:20 14.07.2019
5161 Clear 44 1011 4 0 9.25 208.235 22:57 14.07.2019
5162 Clear 44 1011 4 0 9.25 208.235 22:38 14.07.2019
5163 Clear 44 1011 4 0 9.25 208.235 22:20 14.07.2019
5164 Clear 44 1011 4 0 9.25 208.235 21:46 14.07.2019
5165 Clear 42 1013 4 0 4.65 200.771 21:19 14.07.2019
5166 Clear 42 1013 4 0 4.65 200.771 20:59 14.07.2019
5167 Clear 42 1013 4 0 4.65 200.771 20:38 14.07.2019
5168 Clear 42 1013 4 0 4.65 200.771 20:38 14.07.2019
5169 Clear 42 1013 4 0 4.65 200.771 20:20 14.07.2019
5170 Clear 42 1013 4 0 4.65 200.771 19:56 14.07.2019
5171 Clear 42 1013 4 0 4.65 200.771 19:37 14.07.2019
5172 Clear 42 1013 4 0 4.65 200.771 19:19 14.07.2019
5173 Clear 42 1013 4 0 4.65 200.771 18:41 14.07.2019
5174 Clear 34 1013 10 0 1.47 88.126 18:22 14.07.2019
5175 Clear 34 1013 10 0 1.47 88.126 17:58 14.07.2019
5176 Clear 34 1013 10 0 1.47 88.126 17:23 14.07.2019
5177 Clear 34 1013 10 0 1.47 88.126 16:54 14.07.2019
5178 Clear 34 1013 10 0 1.47 88.126 16:26 14.07.2019
5179 Clear 34 1013 10 0 1.47 88.126 15:58 14.07.2019
5180 Clear 34 1013 10 0 1.47 88.126 15:40 14.07.2019
5181 Clear 27 1012 13 0 0.57 175.329 15:22 14.07.2019
5182 Clear 27 1012 13 0 0.57 175.329 14:45 14.07.2019
5183 Clear 27 1012 13 0 0.57 175.329 14:20 14.07.2019
5184 Clear 27 1012 13 0 0.57 175.329 13:46 14.07.2019
5185 Clear 27 1012 14 0 0.11 292.58 13:24 14.07.2019
5186 Clear 27 1012 14 0 0.11 292.58 12:57 14.07.2019
5187 Clear 27 1012 14 0 0.11 292.58 12:39 14.07.2019
5188 Clear 30 1011 13 0 1.25 182.474 12:19 14.07.2019
5189 Clear 30 1011 13 0 1.25 182.474 11:49 14.07.2019
5190 Clear 30 1011 13 0 1.25 182.474 11:49 14.07.2019
5191 Clear 30 1011 13 0 1.25 182.474 11:20 14.07.2019
5192 Clear 30 1011 13 0 1.25 182.474 10:45 14.07.2019
5193 Clear 30 1011 13 0 1.25 182.474 10:21 14.07.2019
5194 Clear 30 1011 13 0 1.25 182.474 09:48 14.07.2019
5195 Clear 30 1011 13 0 1.25 182.474 09:30 14.07.2019
5196 Clear 33 1010 13 0 2.59 200.258 08:47 14.07.2019
5197 Clear 33 1010 13 0 2.59 200.258 08:29 14.07.2019
5198 Clear 33 1010 13 0 2.59 200.258 07:43 14.07.2019
5199 Clear 33 1010 13 0 2.59 200.258 07:21 14.07.2019
5200 Clear 39 1008 8 0 7.4 203.865 05:46 14.07.2019
5201 Clear 39 1008 8 0 7.4 203.865 05:46 14.07.2019
5202 Clear 39 1008 8 0 7.4 203.865 03:58 14.07.2019
5203 Clear 39 1008 8 0 7.4 203.865 03:39 14.07.2019
5204 Clear 44 1006 4 0 6.33 194.067 03:21 14.07.2019
5205 Clear 44 1006 4 0 6.33 194.067 02:23 14.07.2019
5206 Clear 44 1006 4 0 6.33 194.067 01:53 14.07.2019
5207 Clear 44 1006 5 0 5.87 192.177 01:27 14.07.2019
5208 Clear 44 1006 5 0 5.87 192.177 00:41 14.07.2019
5209 Clear 44 1008 3 0 6.66 190.237 00:20 14.07.2019
5210 Clear 44 1008 3 0 6.66 190.237 23:57 13.07.2019
5211 Clear 44 1008 3 0 6.66 190.237 23:38 13.07.2019
5212 Clear 44 1008 3 0 6.66 190.237 23:20 13.07.2019
5213 Clear 44 1008 3 0 6.66 190.237 22:41 13.07.2019
5214 Clear 44 1008 3 0 6.66 190.237 22:21 13.07.2019
5215 Clear 44 1008 3 0 6.66 190.237 21:48 13.07.2019
5216 Clear 41 1010 7 0 1.32 119.729 21:21 13.07.2019
5217 Clear 40 1010 7 0 2.47 99.737 20:52 13.07.2019
5218 Clear 40 1010 7 0 2.47 99.737 20:33 13.07.2019
5219 Clear 40 1010 7 0 2.47 99.737 19:51 13.07.2019
5220 Clear 40 1010 7 0 2.47 99.737 19:30 13.07.2019
5221 Clear 40 1010 7 0 2.47 99.737 18:48 13.07.2019
5222 Clear 40 1010 7 0 2.47 99.737 18:28 13.07.2019
5223 Clear 34 1011 10 0 1.07 100.577 17:58 13.07.2019
5224 Clear 34 1011 10 0 1.07 100.577 17:37 13.07.2019
5225 Clear 34 1011 10 0 1.07 100.577 17:19 13.07.2019
5226 Clear 34 1011 10 0 1.07 100.577 16:43 13.07.2019
5227 Clear 34 1011 10 0 1.07 100.577 16:24 13.07.2019
5228 Clear 34 1011 10 0 1.07 100.577 15:46 13.07.2019
5229 Clear 28 1009 17 0 0.5 92.88 15:24 13.07.2019
5230 Clear 28 1009 17 0 0.5 92.88 14:56 13.07.2019
5231 Clear 28 1009 17 0 0.5 92.88 14:37 13.07.2019
5232 Clear 28 1009 17 0 0.5 92.88 14:18 13.07.2019
5233 Clear 28 1009 17 0 0.5 92.88 13:42 13.07.2019
5234 Clear 28 1010 17 0 0.58 98.088 13:19 13.07.2019
5235 Clear 28 1010 17 0 0.58 98.088 12:41 13.07.2019
5236 Clear 30 1010 17 0 0.45 76.425 12:23 13.07.2019
5237 Clear 30 1010 17 0 0.45 76.425 11:57 13.07.2019
5238 Clear 30 1010 17 0 0.45 76.425 11:20 13.07.2019
5239 Clear 30 1010 17 0 0.45 76.425 11:20 13.07.2019
5240 Clear 30 1010 17 0 0.45 76.425 10:58 13.07.2019
5241 Clear 30 1010 17 0 0.45 76.425 10:39 13.07.2019
5242 Clear 30 1010 17 0 0.45 76.425 10:20 13.07.2019
5243 Clear 30 1010 17 0 0.45 76.425 09:41 13.07.2019
5244 Clear 34 1009 10 0 2.33 203.755 09:23 13.07.2019
5245 Clear 33 1009 12 0 1.78 200.899 08:47 13.07.2019
5246 Clear 33 1009 12 0 1.78 200.899 08:26 13.07.2019
5247 Clear 33 1009 12 0 1.78 200.899 07:42 13.07.2019
5248 Clear 33 1009 12 0 1.78 200.899 07:20 13.07.2019
5249 Clear 33 1009 12 0 1.78 200.899 06:29 13.07.2019
5250 Clear 39 1007 11 0 3.14 149.646 05:43 13.07.2019
5251 Clear 39 1007 11 0 3.14 149.646 04:39 13.07.2019
5252 Clear 39 1007 11 0 3.14 149.646 04:19 13.07.2019
5253 Clear 39 1007 11 0 3.14 149.646 03:40 13.07.2019
5254 Clear 43 1007 8 0 3.54 143.201 02:52 13.07.2019
5255 Clear 43 1007 8 0 3.54 143.201 01:53 13.07.2019
5256 Clear 43 1007 8 0 4.56 116.869 01:21 13.07.2019
5257 Clear 43 1007 8 0 4.56 116.869 00:58 13.07.2019
5258 Clear 43 1009 9 0 6.04 130.862 00:21 13.07.2019
5259 Clear 43 1009 9 0 6.04 130.862 23:50 12.07.2019
5260 Clear 43 1009 9 0 6.04 130.862 23:50 12.07.2019
5261 Clear 43 1009 9 0 6.04 130.862 23:30 12.07.2019
5262 Clear 43 1009 9 0 6.04 130.862 22:58 12.07.2019
5263 Clear 43 1009 9 0 6.04 130.862 22:40 12.07.2019
5264 Clear 43 1009 9 0 6.04 130.862 22:21 12.07.2019
5265 Clear 43 1009 9 0 6.04 130.862 21:42 12.07.2019
5266 Clear 38 1012 11 0 2 61.298 21:19 12.07.2019
5267 Clear 38 1012 11 0 2 61.298 20:46 12.07.2019
5268 Clear 38 1012 11 0 2 61.298 20:23 12.07.2019
5269 Clear 38 1012 11 0 2 61.298 19:44 12.07.2019
5270 Clear 38 1012 11 0 2 61.298 19:25 12.07.2019
5271 Clear 38 1012 11 0 2 61.298 18:57 12.07.2019
5272 Clear 38 1012 11 0 2 61.298 18:36 12.07.2019
5273 Clear 34 1013 13 0 1.95 131.003 18:18 12.07.2019
5274 Clear 34 1013 13 0 1.95 131.003 17:43 12.07.2019
5275 Clear 34 1013 13 0 1.95 131.003 17:23 12.07.2019
5276 Clear 34 1013 13 0 1.95 131.003 16:37 12.07.2019
5277 Clear 34 1013 13 0 1.95 131.003 16:19 12.07.2019
5278 Clear 34 1013 13 0 1.95 131.003 15:40 12.07.2019
5279 Clear 26 1011 19 0 0.45 115.887 15:20 12.07.2019
5280 Clear 26 1011 19 0 0.45 115.887 14:46 12.07.2019
5281 Clear 26 1011 19 0 0.45 115.887 14:46 12.07.2019
5282 Clear 26 1011 19 0 0.45 115.887 14:22 12.07.2019
5283 Clear 26 1011 19 0 0.45 115.887 14:22 12.07.2019
5284 Clear 26 1011 19 0 0.45 115.887 13:55 12.07.2019
5285 Clear 26 1011 19 0 0.45 115.887 13:37 12.07.2019
5286 Clear 27 1012 17 0 0.84 139.451 12:55 12.07.2019
5287 Clear 27 1012 17 0 0.84 139.451 12:37 12.07.2019
5288 Clear 29 1012 17 0 0.74 195.194 12:18 12.07.2019
5289 Clear 29 1012 17 0 0.74 195.194 11:43 12.07.2019
5290 Clear 29 1012 17 0 0.74 195.194 11:20 12.07.2019
5291 Clear 29 1012 17 0 0.74 195.194 10:43 12.07.2019
5292 Clear 29 1012 17 0 0.74 195.194 10:23 12.07.2019
5293 Clear 29 1012 17 0 0.74 195.194 09:54 12.07.2019
5294 Clear 29 1012 17 0 0.74 195.194 09:29 12.07.2019
5295 Clear 32 1011 13 0 2.42 204.189 08:58 12.07.2019
5296 Clear 32 1011 13 0 2.42 204.189 08:39 12.07.2019
5297 Clear 32 1011 13 0 2.42 204.189 08:18 12.07.2019
5298 Clear 32 1011 13 0 2.42 204.189 07:40 12.07.2019
5299 Clear 32 1011 13 0 2.42 204.189 07:22 12.07.2019
5300 Clear 32 1011 13 0 2.42 204.189 06:29 12.07.2019
5301 Clear 37 1010 8 0 1.78 157.882 05:46 12.07.2019
5302 Clear 42 1009 6 0 3.7 67.606 03:22 12.07.2019
5303 Clear 42 1009 6 0 3.7 67.606 01:41 12.07.2019
5304 Clear 42 1009 6 0 3.22 81.455 00:58 12.07.2019
5305 Clear 41 1012 8 0 2.53 82.622 00:20 12.07.2019
5306 Clear 41 1012 8 0 2.53 82.622 00:20 12.07.2019
5307 Clear 41 1012 8 0 2.53 82.622 00:20 12.07.2019
5308 Clear 41 1012 8 0 2.53 82.622 23:49 11.07.2019
5309 Clear 41 1012 8 0 2.53 82.622 23:26 11.07.2019
5310 Clear 41 1012 8 0 2.53 82.622 23:26 11.07.2019
5311 Clear 41 1012 8 0 2.53 82.622 22:58 11.07.2019
5312 Clear 41 1012 8 0 2.53 82.622 22:39 11.07.2019
5313 Clear 41 1012 8 0 2.53 82.622 22:20 11.07.2019
5314 Clear 41 1012 8 0 2.53 82.622 21:41 11.07.2019
5315 Clear 38 1014 9 0 2.23 71.443 21:19 11.07.2019
5316 Clear 38 1014 9 0 2.23 71.443 20:54 11.07.2019
5317 Clear 38 1014 9 0 2.23 71.443 20:36 11.07.2019
5318 Clear 38 1014 9 0 2.23 71.443 20:18 11.07.2019
5319 Clear 38 1014 9 0 2.23 71.443 19:43 11.07.2019
5320 Clear 38 1014 9 0 2.23 71.443 19:22 11.07.2019
5321 Clear 38 1014 9 0 2.23 71.443 18:44 11.07.2019
5322 Clear 38 1014 9 0 2.23 71.443 18:26 11.07.2019
5323 Clear 34 1015 10 0 1.64 112.759 17:55 11.07.2019
5324 Clear 34 1015 10 0 1.64 112.759 17:37 11.07.2019
5325 Clear 34 1015 10 0 1.64 112.759 17:19 11.07.2019
5326 Clear 34 1015 10 0 1.64 112.759 16:43 11.07.2019
5327 Clear 34 1015 10 0 1.64 112.759 16:21 11.07.2019
5328 Clear 34 1015 10 0 1.64 112.759 15:44 11.07.2019
5329 Clear 27 1014 13 0 0.67 207.48 15:25 11.07.2019
5330 Clear 27 1014 13 0 0.67 207.48 14:59 11.07.2019
5331 Clear 27 1014 13 0 0.67 207.48 14:39 11.07.2019
5332 Clear 27 1014 13 0 0.67 207.48 14:20 11.07.2019
5333 Clear 27 1014 13 0 0.67 207.48 13:45 11.07.2019
5334 -273 0 0 0 0 0 13:26 11.07.2019
5335 Clear 26 1014 15 0 0.47 191.763 12:42 11.07.2019
5336 Clear 29 1014 13 0 0.72 213.712 12:23 11.07.2019
5337 Clear 29 1014 13 0 0.72 213.712 11:52 11.07.2019
5338 Clear 29 1014 13 0 0.72 213.712 11:30 11.07.2019
5339 Clear 29 1014 13 0 0.72 213.712 10:55 11.07.2019
5340 Clear 29 1014 13 0 0.72 213.712 10:21 11.07.2019
5341 Clear 29 1014 13 0 0.72 213.712 09:59 11.07.2019
5342 Clear 29 1014 13 0 0.72 213.712 09:41 11.07.2019
5343 Clear 31 1014 10 0 2 215.481 09:22 11.07.2019
5344 Clear 31 1014 12 0 2.63 213.188 08:50 11.07.2019
5345 Clear 31 1014 12 0 2.63 213.188 08:24 11.07.2019
5346 Clear 31 1014 12 0 2.63 213.188 07:48 11.07.2019
5347 Clear 31 1014 12 0 2.63 213.188 07:29 11.07.2019
5348 Clear 31 1014 12 0 2.63 213.188 06:27 11.07.2019
5349 Clear 36 1012 9 0 1.86 164.088 05:45 11.07.2019
5350 Clear 36 1012 9 0 1.86 164.088 05:26 11.07.2019
5351 Clear 36 1012 9 0 1.86 164.088 04:53 11.07.2019
5352 Clear 41 1012 6 0 6.3 129.674 02:37 11.07.2019
5353 Clear 42 1012 7 0 6.07 129.529 00:50 11.07.2019
5354 -273 0 0 0 0 0 23:56 10.07.2019
5355 Clear 40 1014 8 0 4.97 121.858 23:31 10.07.2019
5356 Clear 40 1014 8 0 4.97 121.858 22:59 10.07.2019
5357 Clear 40 1014 8 0 4.97 121.858 22:41 10.07.2019
5358 Clear 40 1014 8 0 4.97 121.858 22:19 10.07.2019
5359 Clear 40 1014 8 0 4.97 121.858 21:44 10.07.2019
5360 Clear 35 1015 14 0 2.58 91.599 21:26 10.07.2019
5361 Clear 35 1016 13 0 2.16 84.601 20:56 10.07.2019
5362 Clear 35 1016 13 0 2.16 84.601 20:37 10.07.2019
5363 Clear 35 1016 13 0 2.16 84.601 20:37 10.07.2019
5364 Clear 35 1016 13 0 2.16 84.601 20:18 10.07.2019
5365 Clear 35 1016 13 0 2.16 84.601 19:42 10.07.2019
5366 Clear 35 1016 13 0 2.16 84.601 19:21 10.07.2019
5367 Clear 35 1016 13 0 2.16 84.601 18:48 10.07.2019
5368 Clear 30 1017 19 0 1.12 78.519 18:25 10.07.2019
5369 Clear 30 1017 19 0 1.12 78.519 17:59 10.07.2019
5370 Clear 30 1017 19 0 1.12 78.519 17:59 10.07.2019
5371 Clear 30 1017 19 0 1.12 78.519 17:40 10.07.2019
5372 Clear 30 1017 19 0 1.12 78.519 17:19 10.07.2019
5373 Clear 30 1017 19 0 1.12 78.519 16:22 10.07.2019
5374 Clear 30 1017 19 0 1.12 78.519 15:59 10.07.2019
5375 Clear 30 1017 19 0 1.12 78.519 15:40 10.07.2019
5376 Clear 24 1015 26 0 0.25 80.423 15:19 10.07.2019
5377 Clear 24 1015 26 0 0.25 80.423 14:39 10.07.2019
5378 Clear 24 1015 26 0 0.25 80.423 14:21 10.07.2019
5379 Clear 24 1015 26 0 0.25 80.423 13:44 10.07.2019
5380 Clear 24 1015 27 0 0.3 43.649 13:19 10.07.2019
5381 Clear 24 1015 27 0 0.3 43.649 12:55 10.07.2019
5382 Clear 24 1015 27 0 0.3 43.649 12:37 10.07.2019
5383 Clear 27 1015 22 0 1.13 176.335 12:18 10.07.2019
5384 Clear 27 1015 22 0 1.13 176.335 11:43 10.07.2019
5385 Clear 27 1015 22 0 1.13 176.335 11:21 10.07.2019
5386 Clear 27 1015 22 0 1.13 176.335 10:44 10.07.2019
5387 Clear 27 1015 22 0 1.13 176.335 10:20 10.07.2019
5388 Clear 27 1015 22 0 1.13 176.335 09:44 10.07.2019
5389 Clear 29 1014 17 0 1.9 215.562 09:21 10.07.2019
5390 Clear 29 1014 18 0 2.15 224.509 08:52 10.07.2019
5391 Clear 29 1014 18 0 2.15 224.509 08:29 10.07.2019
5392 Clear 29 1014 18 0 2.15 224.509 07:55 10.07.2019
5393 Clear 29 1014 18 0 2.15 224.509 07:32 10.07.2019
5394 Clear 29 1014 18 0 2.15 224.509 07:32 10.07.2019
5395 Clear 29 1014 18 0 2.15 224.509 06:56 10.07.2019
5396 Clear 35 1012 10 0 4.39 180.64 05:59 10.07.2019
5397 Clear 35 1012 10 0 4.39 180.64 04:38 10.07.2019
5398 Clear 35 1012 10 0 4.39 180.64 03:40 10.07.2019
5399 Clear 39 1010 9 0 4.98 127.524 00:47 10.07.2019
5400 Clear 39 1010 9 0 4.98 127.524 00:28 10.07.2019
5401 Clear 35 1012 12 0 3.65 103.956 23:41 09.07.2019
5402 Clear 35 1012 12 0 3.65 103.956 23:21 09.07.2019
5403 Clear 35 1012 12 0 3.65 103.956 22:42 09.07.2019
5404 Clear 35 1012 12 0 3.65 103.956 22:22 09.07.2019
5405 Clear 35 1012 12 0 3.65 103.956 21:58 09.07.2019
5406 Clear 35 1012 12 0 3.65 103.956 21:39 09.07.2019
5407 Clear 32 1013 16 0 2.57 93.586 21:21 09.07.2019
5408 Clear 32 1014 15 0 2.6 90.638 20:43 09.07.2019
5409 Clear 32 1014 15 0 2.6 90.638 20:24 09.07.2019
5410 Clear 32 1014 15 0 2.6 90.638 19:42 09.07.2019
5411 Clear 32 1014 15 0 2.6 90.638 19:24 09.07.2019
5412 Clear 32 1014 15 0 2.6 90.638 18:47 09.07.2019
5413 Clear 32 1014 15 0 2.6 90.638 18:26 09.07.2019
5414 Clear 27 1014 21 0 1.55 109.863 17:57 09.07.2019
5415 Clear 27 1014 21 0 1.55 109.863 17:38 09.07.2019
5416 Clear 27 1014 21 0 1.55 109.863 17:19 09.07.2019
5417 Clear 27 1014 21 0 1.55 109.863 16:50 09.07.2019
5418 Clear 27 1014 21 0 1.55 109.863 16:25 09.07.2019
5419 Clear 27 1014 21 0 1.55 109.863 15:50 09.07.2019
5420 Clear 27 1014 21 0 1.55 109.863 15:32 09.07.2019
5421 Clear 23 1012 24 0 1.04 174.158 14:58 09.07.2019
5422 Clear 23 1012 24 0 1.04 174.158 14:39 09.07.2019
5423 Clear 23 1012 24 0 1.04 174.158 14:19 09.07.2019
5424 Clear 23 1012 24 0 1.04 174.158 13:45 09.07.2019
5425 Clear 24 1013 24 0 0.97 132.796 13:27 09.07.2019
5426 Clear 24 1013 24 0 0.97 132.796 13:27 09.07.2019
5427 Clear 24 1013 24 0 0.97 132.796 12:41 09.07.2019
5428 Clear 26 1012 20 0 2.08 129.328 12:22 09.07.2019
5429 Clear 26 1012 20 0 2.08 129.328 11:58 09.07.2019
5430 Clear 26 1012 20 0 2.08 129.328 11:39 09.07.2019
5431 Clear 26 1012 20 0 2.08 129.328 11:21 09.07.2019
5432 Clear 26 1012 20 0 2.08 129.328 10:55 09.07.2019
5433 Clear 26 1012 20 0 2.08 129.328 10:33 09.07.2019
5434 Clear 26 1012 20 0 2.08 129.328 09:48 09.07.2019
5435 Clear 26 1012 20 0 2.08 129.328 09:29 09.07.2019
5436 Clear 30 1011 15 0 2.99 168.401 08:57 09.07.2019
5437 Clear 30 1011 15 0 2.99 168.401 08:39 09.07.2019
5438 Clear 33 1008 12 0 1.61 157.147 04:18 05.07.2019
5439 Clear 33 1008 12 0 1.61 157.147 03:38 05.07.2019
5440 Clear 37 1006 9 0 2.84 93.815 03:19 05.07.2019
5441 Clear 37 1006 9 0 2.84 93.815 02:46 05.07.2019
5442 Clear 37 1006 9 0 2.84 93.815 01:44 05.07.2019
5443 Clear 37 1006 9 0 3.39 103.729 01:25 05.07.2019
5444 Clear 37 1006 9 0 3.39 103.729 00:47 05.07.2019
5445 Clear 36 1008 9 0 2.51 85.062 00:25 05.07.2019
5446 Clear 36 1008 9 0 2.51 85.062 23:23 04.07.2019
5447 Clear 36 1008 9 0 2.51 85.062 22:59 04.07.2019
5448 Clear 36 1008 9 0 2.51 85.062 22:40 04.07.2019
5449 Clear 36 1008 9 0 2.51 85.062 22:19 04.07.2019
5450 Clear 36 1008 9 0 2.51 85.062 21:41 04.07.2019
5451 Clear 32 1009 13 0 2.01 95.311 21:22 04.07.2019
5452 Clear 32 1010 13 0 2.07 91.796 20:58 04.07.2019
5453 Clear 32 1010 13 0 2.07 91.796 20:37 04.07.2019
5454 Clear 32 1010 13 0 2.07 91.796 20:18 04.07.2019
5455 Clear 32 1010 13 0 2.07 91.796 19:41 04.07.2019
5456 Clear 32 1010 13 0 2.07 91.796 19:21 04.07.2019
5457 Clear 32 1010 13 0 2.07 91.796 18:46 04.07.2019
5458 Clear 32 1010 13 0 2.07 91.796 18:28 04.07.2019
5459 Clear 28 1010 19 0 2.72 120.093 17:58 04.07.2019
5460 Clear 28 1010 19 0 2.72 120.093 17:40 04.07.2019
5461 Clear 28 1010 19 0 2.72 120.093 17:18 04.07.2019
5462 Clear 28 1010 19 0 2.72 120.093 17:18 04.07.2019
5463 Clear 28 1010 19 0 2.72 120.093 17:18 04.07.2019
5464 Clear 28 1010 19 0 2.72 120.093 15:45 04.07.2019
5465 Clear 23 1008 23 0 0.94 113.167 15:24 04.07.2019
5466 Clear 23 1008 23 0 0.94 113.167 14:59 04.07.2019
5467 Clear 23 1008 23 0 0.94 113.167 14:39 04.07.2019
5468 Clear 23 1008 23 0 0.94 113.167 14:19 04.07.2019
5469 Clear 23 1008 23 0 0.94 113.167 13:57 04.07.2019
5470 Clear 23 1008 23 0 0.94 113.167 13:38 04.07.2019
5471 Clear 23 1009 20 0 1.35 131.433 13:19 04.07.2019
5472 Clear 23 1009 20 0 1.35 131.433 13:19 04.07.2019
5473 Clear 23 1009 20 0 1.35 131.433 12:39 04.07.2019
5474 Clear 25 1008 17 0 1.14 192.616 12:19 04.07.2019
5475 Clear 25 1008 17 0 1.14 192.616 11:55 04.07.2019
5476 Clear 25 1008 17 0 1.14 192.616 11:36 04.07.2019
5477 Clear 25 1008 17 0 1.14 192.616 11:18 04.07.2019
5478 Clear 25 1008 17 0 1.14 192.616 10:39 04.07.2019
5479 Clear 25 1008 17 0 1.14 192.616 10:18 04.07.2019
5480 Clear 25 1008 17 0 1.14 192.616 09:39 04.07.2019
5481 Clear 29 1007 13 0 3.31 161.707 09:19 04.07.2019
5482 Clear 29 1006 15 0 2.26 157.008 08:53 04.07.2019
5483 Clear 29 1006 15 0 2.26 157.008 08:19 04.07.2019
5484 Clear 29 1006 15 0 2.26 157.008 07:42 04.07.2019
5485 Clear 29 1006 15 0 2.26 157.008 07:20 04.07.2019
5486 Clear 29 1006 15 0 2.26 157.008 06:37 04.07.2019
5487 Clear 35 1004 8 0 2.82 122.744 05:47 04.07.2019
5488 Clear 35 1004 8 0 2.82 122.744 05:29 04.07.2019
5489 Clouds 38 1003 7 0 4.97 115.033 02:36 04.07.2019
5490 Clouds 38 1003 7 0 3.98 104.837 01:28 04.07.2019
5491 Clouds 38 1003 7 0 3.98 104.837 00:52 04.07.2019
5492 Clouds 36 1005 9 0 4.56 121.692 23:55 03.07.2019
5493 Clouds 36 1005 9 0 4.56 121.692 23:55 03.07.2019
5494 Clouds 36 1005 9 0 4.56 121.692 23:21 03.07.2019
5495 Clouds 36 1005 9 0 4.56 121.692 22:58 03.07.2019
5496 Clouds 36 1005 9 0 4.56 121.692 22:39 03.07.2019
5497 Clouds 35 1005 9 0 4.12 110.543 22:21 03.07.2019
5498 Clouds 35 1005 9 0 4.12 110.543 21:56 03.07.2019
5499 Clouds 35 1005 9 0 4.12 110.543 21:37 03.07.2019
5500 Clouds 32 1008 11 0 3.16 107.495 21:19 03.07.2019
5501 Clouds 32 1008 11 0 3.16 107.495 20:41 03.07.2019
5502 Clouds 32 1008 11 0 3.16 107.495 20:23 03.07.2019
5503 Clouds 32 1008 11 0 3.16 107.495 19:50 03.07.2019
5504 Clouds 32 1008 11 0 3.16 107.495 19:31 03.07.2019
5505 Clouds 32 1008 11 0 3.16 107.495 18:47 03.07.2019
5506 Clouds 27 1009 14 0 2.04 104.834 18:25 03.07.2019
5507 Clouds 27 1009 14 0 2.04 104.834 17:55 03.07.2019
5508 Clouds 27 1009 14 0 2.04 104.834 17:36 03.07.2019
5509 Clouds 27 1009 14 0 2.04 104.834 17:18 03.07.2019
5510 Clouds 27 1009 14 0 2.04 104.834 16:43 03.07.2019
5511 Clouds 27 1009 14 0 2.04 104.834 16:20 03.07.2019
5512 Clouds 27 1009 14 0 2.04 104.834 15:47 03.07.2019
5513 Clouds 27 1009 14 0 2.04 104.834 15:29 03.07.2019
5514 Clouds 24 1007 17 0 1.95 148.45 14:52 03.07.2019
5515 Clouds 24 1007 17 0 1.95 148.45 14:24 03.07.2019
5516 Clouds 24 1007 17 0 1.95 148.45 13:57 03.07.2019
5517 Clouds 24 1008 17 0 1.21 155.175 13:32 03.07.2019
5518 Clouds 24 1008 17 0 1.21 155.175 12:54 03.07.2019
5519 Clouds 27 1007 15 0 1.55 136.364 12:21 03.07.2019
5520 Clouds 27 1007 15 0 1.55 136.364 11:58 03.07.2019
5521 Clouds 27 1007 15 0 1.55 136.364 11:39 03.07.2019
5522 Clouds 27 1007 15 0 1.55 136.364 11:20 03.07.2019
5523 Clouds 27 1007 15 0 1.55 136.364 10:41 03.07.2019
5524 Clouds 27 1007 15 0 1.55 136.364 10:22 03.07.2019
5525 Clouds 27 1007 15 0 1.55 136.364 09:43 03.07.2019
5526 Clear 30 1007 13 0 2.9 143.379 09:21 03.07.2019
5527 Clear 30 1007 13 0 2.9 143.379 08:53 03.07.2019
5528 Clear 30 1007 13 0 2.9 143.379 08:32 03.07.2019
5529 Clear 30 1006 11 0 2.3 141.738 07:57 03.07.2019
5530 Clear 30 1006 11 0 2.3 141.738 07:37 03.07.2019
5531 Clear 30 1006 11 0 2.3 141.738 06:55 03.07.2019
5532 Clear 35 1005 8 0 6.08 146.252 05:56 03.07.2019
5533 Clear 35 1005 8 0 6.08 146.252 05:24 03.07.2019
5534 Clear 35 1005 8 0 6.08 146.252 03:55 03.07.2019
5535 Clouds 38 1004 5 0 3.79 101.589 02:47 03.07.2019
5536 Clouds 39 1004 5 0 4.05 102.992 01:39 03.07.2019
5537 Clouds 39 1004 5 0 4.05 102.992 01:20 03.07.2019
5538 Clouds 39 1004 5 0 4.05 102.992 00:40 03.07.2019
5539 Clouds 37 1007 9 0 4.08 116.678 23:55 02.07.2019
5540 Clouds 37 1007 9 0 4.08 116.678 23:37 02.07.2019
5541 Clouds 37 1007 9 0 4.08 116.678 23:18 02.07.2019
5542 Clouds 37 1007 9 0 4.08 116.678 22:41 02.07.2019
5543 Clouds 37 1007 9 0 4.08 116.678 22:23 02.07.2019
5544 Clouds 37 1007 9 0 4.08 116.678 21:58 02.07.2019
5545 Clouds 37 1007 9 0 4.08 116.678 21:39 02.07.2019
5546 Clear 34 1009 11 0 2.94 112.756 21:20 02.07.2019
5547 Clear 33 1010 10 0 2.68 101.046 20:57 02.07.2019
5548 Clear 33 1010 10 0 2.68 101.046 20:38 02.07.2019
5549 Clear 33 1010 10 0 2.68 101.046 20:19 02.07.2019
5550 Clear 33 1010 10 0 2.68 101.046 19:41 02.07.2019
5551 Clear 33 1010 10 0 2.68 101.046 19:22 02.07.2019
5552 Clear 33 1010 10 0 2.68 101.046 18:46 02.07.2019
5553 Clear 29 1011 14 0 1.43 86.481 18:18 02.07.2019
5554 Clear 29 1011 14 0 1.43 86.481 18:18 02.07.2019
5555 Clear 29 1011 14 0 1.43 86.481 17:41 02.07.2019
5556 Clear 29 1011 14 0 1.43 86.481 17:22 02.07.2019
5557 Clear 29 1011 14 0 1.43 86.481 16:52 02.07.2019
5558 Clear 29 1011 14 0 1.43 86.481 16:34 02.07.2019
5559 Clear 29 1011 14 0 1.43 86.481 15:46 02.07.2019
5560 Clear 29 1011 14 0 1.43 86.481 15:27 02.07.2019
5561 Clear 25 1010 17 0 1.02 138.83 14:57 02.07.2019
5562 Clear 25 1010 17 0 1.02 138.83 14:57 02.07.2019
5563 Clear 25 1010 17 0 1.02 138.83 14:38 02.07.2019
5564 Clear 25 1010 17 0 1.02 138.83 14:20 02.07.2019
5565 Clear 25 1010 18 0 1.03 119.724 13:40 02.07.2019
5566 Clear 25 1010 18 0 1.03 119.724 13:18 02.07.2019
5567 Clear 25 1010 18 0 1.03 119.724 12:44 02.07.2019
5568 Clear 27 1010 14 0 1.38 129.657 12:22 02.07.2019
5569 Clear 27 1010 14 0 1.38 129.657 11:44 02.07.2019
5570 Clear 27 1010 14 0 1.38 129.657 11:44 02.07.2019
5571 Clear 27 1010 14 0 1.38 129.657 11:23 02.07.2019
5572 Clear 27 1010 14 0 1.38 129.657 10:54 02.07.2019
5573 Clear 27 1010 14 0 1.38 129.657 10:27 02.07.2019
5574 Clear 27 1010 14 0 1.38 129.657 09:57 02.07.2019
5575 Clear 31 1009 11 0 2.72 168.818 09:22 02.07.2019
5576 Clear 31 1009 11 0 2.72 168.818 08:57 02.07.2019
5577 Clear 31 1009 11 0 2.97 170.541 08:37 02.07.2019
5578 Clear 31 1009 11 0 2.97 170.541 07:59 02.07.2019
5579 Clear 31 1009 11 0 2.97 170.541 07:21 02.07.2019
5580 Clear 31 1009 11 0 2.97 170.541 06:59 02.07.2019
5581 Clear 31 1009 11 0 2.97 170.541 06:36 02.07.2019
5582 Clear 36 1008 7 0 1.96 142.685 05:27 02.07.2019
5583 Clear 38 1007 7 0 2.5 85.934 02:38 02.07.2019
5584 Clear 39 1007 7 0 2.69 88.079 00:28 02.07.2019
5585 Clear 37 1010 9 0 3.11 97.029 23:38 01.07.2019
5586 Clear 37 1010 9 0 3.11 97.029 23:18 01.07.2019
5587 Clear 37 1010 9 0 3.11 97.029 22:42 01.07.2019
5588 Clear 37 1010 9 0 3.11 97.029 22:23 01.07.2019
5589 Clear 37 1010 9 0 3.11 97.029 21:44 01.07.2019
5590 Clear 33 1012 12 0 2.11 77.341 21:25 01.07.2019
5591 Clear 33 1012 11 0 2.12 81.262 20:47 01.07.2019
5592 Clear 33 1012 11 0 2.12 81.262 20:21 01.07.2019
5593 Clear 33 1012 11 0 2.12 81.262 20:21 01.07.2019
5594 Clear 33 1012 11 0 2.12 81.262 19:55 01.07.2019
5595 Clear 33 1012 11 0 2.12 81.262 19:37 01.07.2019
5596 Clear 33 1012 11 0 2.12 81.262 19:18 01.07.2019
5597 Clear 33 1012 11 0 2.12 81.262 18:44 01.07.2019
5598 Clear 29 1014 14 0 1.26 96.175 18:26 01.07.2019
5599 Clear 29 1014 14 0 1.26 96.175 17:47 01.07.2019
5600 Clear 29 1014 14 0 1.26 96.175 17:26 01.07.2019
5601 Clear 29 1014 14 0 1.26 96.175 16:57 01.07.2019
5602 Clear 29 1014 14 0 1.26 96.175 16:39 01.07.2019
5603 Clear 29 1014 14 0 1.26 96.175 16:21 01.07.2019
5604 Clear 29 1014 14 0 1.26 96.175 15:44 01.07.2019
5605 Clear 24 1012 14 0 0.97 114.767 15:23 01.07.2019
5606 Clear 24 1012 14 0 0.97 114.767 14:44 01.07.2019
5607 Clear 24 1012 14 0 0.97 114.767 14:22 01.07.2019
5608 Clear 24 1012 14 0 0.97 114.767 13:48 01.07.2019
5609 Clear 24 1013 13 0 0.71 100.196 13:24 01.07.2019
5610 Clear 24 1013 13 0 0.71 100.196 12:58 01.07.2019
5611 Clear 24 1013 13 0 0.71 100.196 12:38 01.07.2019
5612 Clear 26 1013 10 0 0.75 103.052 12:20 01.07.2019
5613 Clear 26 1013 10 0 0.75 103.052 11:47 01.07.2019
5614 Clear 26 1013 10 0 0.75 103.052 11:28 01.07.2019
5615 Clear 26 1013 10 0 0.75 103.052 10:55 01.07.2019
5616 Clear 26 1013 10 0 0.75 103.052 10:37 01.07.2019
5617 Clear 26 1013 10 0 0.75 103.052 10:18 01.07.2019
5618 Clear 26 1013 10 0 0.75 103.052 09:41 01.07.2019
5619 Clear 30 1012 7 0 1.64 157.555 09:22 01.07.2019
5620 Clear 30 1012 8 0 1.8 152.597 08:39 01.07.2019
5621 Clear 30 1012 8 0 1.8 152.597 08:21 01.07.2019
5622 Clear 30 1012 8 0 1.8 152.597 07:33 01.07.2019
5623 Clear 30 1012 8 0 1.8 152.597 06:41 01.07.2019
5624 Clear 36 1010 4 0 3.21 188.969 04:31 01.07.2019
5625 Clear 39 1009 4 0 1.33 203.142 00:54 01.07.2019
5626 Clear 39 1009 4 0 1.33 203.142 00:31 01.07.2019
5627 Clear 37 1011 7 0 3.32 96.676 23:59 30.06.2019
5628 Clear 37 1011 7 0 3.32 96.676 23:25 30.06.2019
5629 Clear 37 1011 7 0 3.32 96.676 22:55 30.06.2019
5630 Clear 37 1011 7 0 3.32 96.676 22:23 30.06.2019
5631 Clear 37 1011 7 0 3.32 96.676 21:59 30.06.2019
5632 Clear 37 1011 7 0 3.32 96.676 21:41 30.06.2019
5633 Clouds 33 1013 12 0 1.83 85.796 21:18 30.06.2019
5634 Clouds 33 1013 12 0 1.83 85.796 20:41 30.06.2019
5635 Clouds 33 1014 11 0 2.1 85.141 20:23 30.06.2019
5636 Clouds 33 1014 11 0 2.1 85.141 19:51 30.06.2019
5637 Clouds 33 1014 11 0 2.1 85.141 19:26 30.06.2019
5638 Clouds 33 1014 11 0 2.1 85.141 18:53 30.06.2019
5639 Clouds 29 1015 16 0 2.21 128.023 18:23 30.06.2019
5640 Clouds 29 1015 16 0 2.21 128.023 17:55 30.06.2019
5641 Clouds 29 1015 16 0 2.21 128.023 17:36 30.06.2019
5642 Clouds 29 1015 16 0 2.21 128.023 17:18 30.06.2019
5643 Clouds 29 1015 16 0 2.21 128.023 16:43 30.06.2019
5644 Clouds 29 1015 16 0 2.21 128.023 16:25 30.06.2019
5645 Clouds 29 1015 16 0 2.21 128.023 15:37 30.06.2019
5646 Clouds 26 1013 20 0 1.03 120.677 15:18 30.06.2019
5647 Clouds 26 1013 20 0 1.03 120.677 14:49 30.06.2019
5648 Clouds 26 1013 20 0 1.03 120.677 14:29 30.06.2019
5649 Clouds 26 1013 20 0 1.03 120.677 13:46 30.06.2019
5650 Clouds 26 1013 18 0 2.2 136.932 13:24 30.06.2019
5651 Clouds 26 1013 18 0 2.2 136.932 12:50 30.06.2019
5652 Clouds 27 1013 17 0 0.96 173.739 12:25 30.06.2019
5653 Clouds 27 1013 17 0 0.96 173.739 11:55 30.06.2019
5654 Clouds 27 1013 17 0 0.96 173.739 11:37 30.06.2019
5655 Clouds 27 1013 17 0 0.96 173.739 11:18 30.06.2019
5656 Clouds 27 1013 17 0 0.96 173.739 10:42 30.06.2019
5657 Clouds 27 1013 17 0 0.96 173.739 10:19 30.06.2019
5658 Clouds 27 1013 17 0 0.96 173.739 09:44 30.06.2019
5659 Clouds 27 1013 17 0 0.96 173.739 09:44 30.06.2019
5660 Clouds 30 1013 13 0 2.35 172.914 09:23 30.06.2019
5661 Clouds 30 1013 13 0 2.35 172.914 08:59 30.06.2019
5662 Clouds 31 1013 11 0 2.52 172.092 08:38 30.06.2019
5663 Clouds 31 1013 11 0 2.52 172.092 08:18 30.06.2019
5664 Clouds 31 1013 11 0 2.52 172.092 07:38 30.06.2019
5665 Clouds 31 1013 11 0 2.52 172.092 07:19 30.06.2019
5666 Clouds 35 1010 7 0 4.65 197.748 06:18 30.06.2019
5667 Clouds 35 1010 7 0 4.65 197.748 03:26 30.06.2019
5668 Clear 39 1009 4 0 4.61 212.418 01:31 30.06.2019
5669 Clear 39 1009 4 0 4.61 212.418 00:39 30.06.2019
5670 Clear 36 1012 7 0 3.09 87.313 00:19 30.06.2019
5671 Clear 36 1012 7 0 3.09 87.313 23:39 29.06.2019
5672 Clear 36 1012 7 0 3.09 87.313 23:20 29.06.2019
5673 Clear 36 1012 7 0 3.09 87.313 22:42 29.06.2019
5674 Clear 36 1012 7 0 3.09 87.313 22:22 29.06.2019
5675 Clear 36 1012 7 0 2.8 90.963 21:54 29.06.2019
5676 Clear 32 1014 12 0 2.4 82.082 21:24 29.06.2019
5677 Clear 32 1014 12 0 2.4 82.082 20:46 29.06.2019
5678 Clear 32 1014 12 0 2.4 82.082 20:28 29.06.2019
5679 Clear 32 1014 12 0 2.4 82.082 19:55 29.06.2019
5680 Clear 32 1014 12 0 2.4 82.082 19:36 29.06.2019
5681 Clear 32 1014 12 0 2.4 82.082 19:18 29.06.2019
5682 Clear 32 1014 12 0 2.4 82.082 18:44 29.06.2019
5683 Clear 28 1015 16 0 0.55 33.603 18:24 29.06.2019
5684 Clear 28 1015 16 0 0.55 33.603 17:37 29.06.2019
5685 Clear 28 1015 16 0 0.55 33.603 17:19 29.06.2019
5686 Clear 28 1015 16 0 0.55 33.603 16:42 29.06.2019
5687 Clear 28 1015 16 0 0.55 33.603 15:59 29.06.2019
5688 Clear 28 1015 16 0 0.55 33.603 15:32 29.06.2019
5689 Clear 23 1014 22 0 0.22 137.955 14:46 29.06.2019
5690 Clear 23 1014 22 0 0.22 137.955 14:27 29.06.2019
5691 Clear 23 1014 22 0 0.22 137.955 13:56 29.06.2019
5692 Clear 23 1014 22 0 0.22 137.955 13:37 29.06.2019
5693 Clear 23 1013 21 0 0.06 359.061 13:19 29.06.2019
5694 Clear 23 1013 21 0 0.06 359.061 12:40 29.06.2019
5695 Clear 25 1013 16 0 0.63 180.364 12:22 29.06.2019
5696 Clear 25 1013 16 0 0.63 180.364 11:46 29.06.2019
5697 Clear 25 1013 16 0 0.63 180.364 11:27 29.06.2019
5698 Clear 25 1013 16 0 0.63 180.364 10:52 29.06.2019
5699 Clear 25 1013 16 0 0.63 180.364 10:24 29.06.2019
5700 Clear 25 1013 16 0 0.63 180.364 09:58 29.06.2019
5701 Clear 28 1012 13 0 2.05 204.391 09:19 29.06.2019
5702 Clear 29 1012 11 0 2.35 199.477 08:36 29.06.2019
5703 Clear 29 1012 11 0 2.35 199.477 07:46 29.06.2019
5704 Clear 29 1012 11 0 2.35 199.477 07:18 29.06.2019
5705 Clear 29 1012 11 0 2.35 199.477 06:40 29.06.2019
5706 Clear 34 1009 7 0 5.39 180.181 06:19 29.06.2019
5707 Clear 38 1008 3 0 6.41 183.796 02:26 29.06.2019
5708 Clear 39 1008 3 0 6.42 190.017 00:57 29.06.2019
5709 Clear 38 1010 4 0 5.66 169.828 23:58 28.06.2019
5710 Clear 38 1010 4 0 5.66 169.828 23:23 28.06.2019
5711 Clear 38 1010 4 0 5.66 169.828 22:52 28.06.2019
5712 Clear 38 1010 4 0 5.66 169.828 22:27 28.06.2019
5713 Clear 38 1010 4 0 5.66 169.828 21:46 28.06.2019
5714 Clear 32 1012 12 0 3.71 132.959 21:21 28.06.2019
5715 Clear 32 1012 12 0 3.51 128.866 20:46 28.06.2019
5716 Clear 32 1012 12 0 3.51 128.866 20:25 28.06.2019
5717 Clear 32 1012 12 0 3.51 128.866 19:53 28.06.2019
5718 Clear 32 1012 12 0 3.51 128.866 19:27 28.06.2019
5719 Clear 32 1012 12 0 3.51 128.866 18:44 28.06.2019
5720 Clear 27 1013 17 0 1.74 112.45 18:22 28.06.2019
5721 Clear 27 1013 17 0 1.74 112.45 17:59 28.06.2019
5722 Clear 27 1013 17 0 1.74 112.45 17:29 28.06.2019
5723 Clear 27 1013 17 0 1.74 112.45 16:50 28.06.2019
5724 Clear 27 1013 17 0 1.74 112.45 16:27 28.06.2019
5725 Clear 27 1013 17 0 1.74 112.45 15:48 28.06.2019
5726 Clear 23 1012 19 0 1.01 135.04 15:23 28.06.2019
5727 Clear 23 1012 19 0 1.01 135.04 14:43 28.06.2019
5728 Clear 23 1012 19 0 1.01 135.04 14:23 28.06.2019
5729 Clear 23 1012 19 0 1.01 135.04 13:58 28.06.2019
5730 Clear 23 1012 19 0 1.01 135.04 13:58 28.06.2019
5731 Clear 23 1012 19 0 1.01 135.04 13:39 28.06.2019
5732 Clear 23 1012 20 0 1.22 135.667 13:19 28.06.2019
5733 Clear 23 1012 20 0 1.22 135.667 12:45 28.06.2019
5734 Clouds 26 1012 14 0 1.52 144.098 11:56 28.06.2019
5735 Clouds 26 1012 14 0 1.52 144.098 11:25 28.06.2019
5736 Clouds 26 1012 14 0 1.52 144.098 10:46 28.06.2019
5737 Clouds 26 1012 14 0 1.52 144.098 10:22 28.06.2019
5738 Clouds 26 1012 14 0 1.52 144.098 09:49 28.06.2019
5739 Clouds 26 1012 14 0 1.52 144.098 09:30 28.06.2019
5740 Clouds 29 1011 11 0 1.83 181.883 08:48 28.06.2019
5741 -273 0 0 0 0 0 08:26 28.06.2019
5742 Clouds 29 1011 10 0 2.22 187.776 07:53 28.06.2019
5743 Clouds 29 1011 10 0 2.22 187.776 07:35 28.06.2019
5744 Clouds 29 1011 10 0 2.22 187.776 06:33 28.06.2019
5745 Clouds 38 1009 5 0 6.04 176.756 01:42 28.06.2019
5746 Clouds 38 1008 4 0 7.41 177.765 00:44 28.06.2019
5747 Clouds 37 1011 6 0 5.16 130.965 23:57 27.06.2019
5748 Clouds 37 1011 6 0 5.16 130.965 23:39 27.06.2019
5749 Clouds 37 1011 6 0 5.16 130.965 23:20 27.06.2019
5750 Clouds 37 1011 6 0 5.16 130.965 22:41 27.06.2019
5751 Clouds 37 1011 6 0 5.16 130.965 22:23 27.06.2019
5752 Clouds 37 1011 6 0 5.16 130.965 21:56 27.06.2019
5753 Clouds 37 1011 6 0 5.16 130.965 21:37 27.06.2019
5754 Clear 31 1012 13 0 3.26 117.382 21:19 27.06.2019
5755 Clear 31 1012 11 0 2.73 111.786 20:45 27.06.2019
5756 Clear 31 1012 11 0 2.73 111.786 20:26 27.06.2019
5757 Clear 31 1012 11 0 2.73 111.786 19:46 27.06.2019
5758 Clear 31 1012 11 0 2.73 111.786 19:27 27.06.2019
5759 Clear 31 1012 11 0 2.73 111.786 18:44 27.06.2019
5760 Clear 27 1013 14 0 1.76 119.575 18:26 27.06.2019
5761 Clear 27 1013 14 0 1.76 119.575 17:47 27.06.2019
5762 Clear 27 1013 14 0 1.76 119.575 17:23 27.06.2019
5763 Clear 27 1013 14 0 1.76 119.575 16:55 27.06.2019
5764 Clear 27 1013 14 0 1.76 119.575 16:36 27.06.2019
5765 Clear 27 1013 14 0 1.76 119.575 16:18 27.06.2019
5766 Clear 27 1013 14 0 1.76 119.575 15:44 27.06.2019
5767 Clouds 23 1011 18 0 1.14 151.93 15:18 27.06.2019
5768 Clouds 23 1011 18 0 1.14 151.93 14:43 27.06.2019
5769 Clouds 23 1011 18 0 1.14 151.93 14:24 27.06.2019
5770 Clouds 23 1011 18 0 1.14 151.93 13:48 27.06.2019
5771 Clear 23 1011 18 0 1.38 138.514 13:30 27.06.2019
5772 Clear 23 1011 18 0 1.38 138.514 12:52 27.06.2019
5773 Clear 23 1011 18 0 1.38 138.514 12:33 27.06.2019
5774 Clear 25 1010 15 0 1.2 201.174 11:57 27.06.2019
5775 Clear 25 1010 15 0 1.2 201.174 11:39 27.06.2019
5776 Clear 25 1010 15 0 1.2 201.174 11:20 27.06.2019
5777 Clear 25 1010 15 0 1.2 201.174 10:44 27.06.2019
5778 Clear 25 1010 15 0 1.2 201.174 10:21 27.06.2019
5779 Clear 25 1010 15 0 1.2 201.174 09:54 27.06.2019
5780 Clouds 28 1010 11 0 2.05 211.756 09:22 27.06.2019
5781 Clouds 28 1010 11 0 2.05 211.756 08:52 27.06.2019
5782 Clear 28 1010 10 0 2.61 195.063 08:31 27.06.2019
5783 Clear 28 1010 10 0 2.61 195.063 07:57 27.06.2019
5784 Clear 28 1010 10 0 2.61 195.063 07:30 27.06.2019
5785 Clear 28 1010 10 0 2.61 195.063 06:53 27.06.2019
5786 Clear 33 1007 7 0 4.85 185.005 06:24 27.06.2019
5787 Clear 38 1006 5 0 6.76 163.578 02:45 27.06.2019
5788 Clear 38 1006 5 0 6.76 163.578 01:50 27.06.2019
5789 Clear 38 1007 5 0 6.84 186.932 00:59 27.06.2019
5790 Clear 38 1007 5 0 6.84 186.932 00:41 27.06.2019
5791 Clear 37 1008 6 0 6.2 163.671 00:19 27.06.2019
5792 Clear 37 1008 6 0 6.2 163.671 23:42 26.06.2019
5793 Clear 37 1008 6 0 6.2 163.671 23:22 26.06.2019
5794 Clear 37 1008 6 0 6.2 163.671 22:46 26.06.2019
5795 Clear 37 1008 6 0 6.2 163.671 22:27 26.06.2019
5796 Clear 37 1008 6 0 6.2 163.671 21:59 26.06.2019
5797 Clear 37 1008 6 0 6.2 163.671 21:39 26.06.2019
5798 Clear 32 1009 16 0 5.48 132.724 21:19 26.06.2019
5799 Clouds 32 1009 16 0 4.98 129.971 20:49 26.06.2019
5800 Clouds 32 1009 16 0 4.98 129.971 20:30 26.06.2019
5801 Clouds 32 1009 16 0 4.98 129.971 19:52 26.06.2019
5802 Clouds 32 1009 16 0 4.98 129.971 19:52 26.06.2019
5803 Clouds 32 1009 16 0 4.98 129.971 19:32 26.06.2019
5804 Clouds 32 1009 16 0 4.98 129.971 18:58 26.06.2019
5805 Clouds 32 1009 16 0 4.98 129.971 18:40 26.06.2019
5806 Clear 27 1010 23 0 2.34 129.834 18:21 26.06.2019
5807 Clear 27 1010 23 0 2.34 129.834 17:47 26.06.2019
5808 Clear 27 1010 23 0 2.34 129.834 17:27 26.06.2019
5809 Clear 27 1010 23 0 2.34 129.834 16:52 26.06.2019
5810 Clear 27 1010 23 0 2.34 129.834 16:30 26.06.2019
5811 Clear 27 1010 23 0 2.34 129.834 16:30 26.06.2019
5812 Clear 27 1010 23 0 2.34 129.834 15:58 26.06.2019
5813 Clear 27 1010 23 0 2.34 129.834 15:58 26.06.2019
5814 Clear 27 1010 23 0 2.34 129.834 15:28 26.06.2019
5815 Clear 24 1008 28 0 0.95 133.207 14:57 26.06.2019
5816 Clear 24 1008 28 0 0.95 133.207 14:37 26.06.2019
5817 Clear 24 1008 28 0 0.95 133.207 14:18 26.06.2019
5818 Clear 24 1008 28 0 0.95 133.207 13:39 26.06.2019
5819 Clear 25 1008 27 0 1.14 133.537 13:18 26.06.2019
5820 Clear 25 1008 27 0 1.14 133.537 12:40 26.06.2019
5821 Clear 26 1008 21 0 1.32 181.82 12:20 26.06.2019
5822 Clear 26 1008 21 0 1.32 181.82 11:42 26.06.2019
5823 Clear 26 1008 21 0 1.32 181.82 11:42 26.06.2019
5824 Clear 26 1008 21 0 1.32 181.82 11:19 26.06.2019
5825 Clear 26 1008 21 0 1.32 181.82 10:39 26.06.2019
5826 Clear 26 1008 21 0 1.32 181.82 10:21 26.06.2019
5827 Clear 26 1008 21 0 1.32 181.82 09:37 26.06.2019
5828 Clear 30 1007 15 0 2.4 193.394 09:18 26.06.2019
5829 Clear 30 1007 15 0 2.4 193.394 08:39 26.06.2019
5830 Clear 30 1006 16 0 2.53 171.54 08:19 26.06.2019
5831 Clear 30 1006 16 0 2.53 171.54 07:43 26.06.2019
5832 Clear 30 1006 16 0 2.53 171.54 06:34 26.06.2019
5833 Clear 35 1004 11 0 5.75 187.991 03:52 26.06.2019
5834 Clouds 39 1004 7 0 6.49 181.802 00:57 26.06.2019
5835 Clouds 39 1005 8 0 6.05 168.166 00:19 26.06.2019
5836 Clouds 39 1005 8 0 6.05 168.166 23:41 25.06.2019
5837 Clouds 39 1005 8 0 6.05 168.166 23:23 25.06.2019
5838 Clouds 39 1005 8 0 6.05 168.166 22:55 25.06.2019
5839 Clouds 39 1005 8 0 6.05 168.166 22:37 25.06.2019
5840 Clouds 39 1005 8 0 6.05 168.166 22:18 25.06.2019
5841 Clouds 39 1005 8 0 6.05 168.166 21:37 25.06.2019
5842 Clouds 34 1007 16 0 4.46 136.208 21:19 25.06.2019
5843 Clouds 34 1008 14 0 4.51 132.333 20:43 25.06.2019
5844 Clouds 34 1008 14 0 4.51 132.333 20:20 25.06.2019
5845 Clouds 34 1008 14 0 4.51 132.333 20:20 25.06.2019
5846 Clouds 34 1008 14 0 4.51 132.333 19:45 25.06.2019
5847 Clouds 34 1008 14 0 4.51 132.333 19:45 25.06.2019
5848 Clouds 34 1008 14 0 4.51 132.333 19:23 25.06.2019
5849 Clouds 34 1008 14 0 4.51 132.333 18:44 25.06.2019
5850 Clouds 34 1008 14 0 4.51 132.333 18:44 25.06.2019
5851 Clouds 30 1008 20 0 3.05 131.56 18:26 25.06.2019
5852 -273 0 0 0 0 0 17:53 25.06.2019
5853 -273 0 0 0 0 0 17:53 25.06.2019
5854 -273 0 0 0 0 0 17:53 25.06.2019
5855 -273 0 0 0 0 0 17:53 25.06.2019
5856 -273 0 0 0 0 0 17:29 25.06.2019
5857 Clouds 30 1008 20 0 3.05 131.56 16:57 25.06.2019
5858 Clouds 30 1008 20 0 3.05 131.56 16:38 25.06.2019
5859 Clouds 30 1008 20 0 3.05 131.56 16:19 25.06.2019
5860 Clouds 30 1008 20 0 3.05 131.56 15:41 25.06.2019
5861 Clouds 27 1007 22 0 1.08 129.894 15:21 25.06.2019
5862 Clouds 27 1007 22 0 1.08 129.894 14:54 25.06.2019
5863 Clouds 27 1007 22 0 1.08 129.894 14:35 25.06.2019
5864 Clouds 27 1007 22 0 1.08 129.894 13:47 25.06.2019
5865 Clouds 27 1007 21 0 0.85 129.247 13:28 25.06.2019
5866 Clouds 27 1007 21 0 0.85 129.247 12:44 25.06.2019
5867 Clouds 30 1007 17 0 2.27 160.885 12:25 25.06.2019
5868 Clouds 30 1007 17 0 2.27 160.885 11:55 25.06.2019
5869 Clouds 30 1007 17 0 2.27 160.885 11:37 25.06.2019
5870 Clouds 30 1007 17 0 2.27 160.885 11:18 25.06.2019
5871 Clouds 30 1007 17 0 2.27 160.885 10:42 25.06.2019
5872 Clouds 30 1007 17 0 2.27 160.885 10:22 25.06.2019
5873 Clouds 30 1007 17 0 2.27 160.885 09:55 25.06.2019
5874 Clouds 30 1007 17 0 2.27 160.885 09:37 25.06.2019
5875 Clouds 32 1007 17 0 2.7 190.105 09:18 25.06.2019
5876 Clouds 32 1007 17 0 2.7 190.105 08:42 25.06.2019
5877 Clouds 32 1007 18 0 1.91 196.728 08:23 25.06.2019
5878 Clouds 32 1007 18 0 1.91 196.728 07:39 25.06.2019
5879 Clouds 32 1007 18 0 1.91 196.728 06:54 25.06.2019
5880 Clouds 32 1007 18 0 1.91 196.728 06:36 25.06.2019
5881 Clouds 40 1005 7 0 4.55 169.458 02:46 25.06.2019
5882 Clouds 40 1005 7 0 4.55 169.458 01:41 25.06.2019
5883 Clear 40 1005 6 0 3.8 176.058 00:37 25.06.2019
5884 Clear 39 1007 6 0 7.59 134.183 23:56 24.06.2019
5885 Clear 39 1007 6 0 7.59 134.183 23:38 24.06.2019
5886 Clear 39 1007 6 0 7.59 134.183 23:20 24.06.2019
5887 Clear 39 1007 6 0 7.59 134.183 22:41 24.06.2019
5888 Clear 39 1007 6 0 7.59 134.183 22:19 24.06.2019
5889 Clear 39 1007 6 0 7.59 134.183 21:39 24.06.2019
5890 Clear 35 1010 11 0 3.93 119.817 21:19 24.06.2019
5891 Clear 35 1010 11 0 3.93 119.817 20:57 24.06.2019
5892 Clear 35 1010 10 0 3.97 126.939 20:39 24.06.2019
5893 Clear 35 1010 10 0 3.97 126.939 20:20 24.06.2019
5894 Clear 35 1010 10 0 3.97 126.939 19:46 24.06.2019
5895 Clear 35 1010 10 0 3.97 126.939 19:21 24.06.2019
5896 Clear 35 1010 10 0 3.97 126.939 18:48 24.06.2019
5897 Clear 35 1010 10 0 3.97 126.939 18:29 24.06.2019
5898 Clear 31 1011 13 0 2.21 121.017 17:56 24.06.2019
5899 Clear 31 1011 13 0 2.21 121.017 17:36 24.06.2019
5900 Clear 31 1011 13 0 2.21 121.017 16:55 24.06.2019
5901 Clear 31 1011 13 0 2.21 121.017 16:36 24.06.2019
5902 Clear 31 1011 13 0 2.21 121.017 16:18 24.06.2019
5903 Clear 31 1011 13 0 2.21 121.017 15:38 24.06.2019
5904 Clear 26 1011 18 0 0.74 105.12 15:19 24.06.2019
5905 Clear 26 1011 18 0 0.74 105.12 14:34 24.06.2019
5906 Clear 26 1011 18 0 0.74 105.12 13:51 24.06.2019
5907 Clear 25 1011 18 0 0.49 115.528 13:31 24.06.2019
5908 Clear 25 1011 18 0 0.49 115.528 12:45 24.06.2019
5909 Clear 27 1010 14 0 0.41 168.936 12:22 24.06.2019
5910 Clear 27 1010 14 0 0.41 168.936 11:58 24.06.2019
5911 Clear 27 1010 14 0 0.41 168.936 11:40 24.06.2019
5912 Clear 27 1010 14 0 0.41 168.936 11:20 24.06.2019
5913 -273 0 0 0 0 0 10:47 24.06.2019
5914 Clear 27 1010 14 0 0.41 168.936 10:27 24.06.2019
5915 Clear 27 1010 14 0 0.41 168.936 09:49 24.06.2019
5916 Clear 30 1011 9 0 1.15 214.38 09:22 24.06.2019
5917 Clear 30 1011 9 0 1.15 214.38 08:52 24.06.2019
5918 Clear 30 1011 8 0 1.35 213.831 08:25 24.06.2019
5919 Clear 30 1011 8 0 1.35 213.831 07:45 24.06.2019
5920 Clear 30 1011 8 0 1.35 213.831 07:26 24.06.2019
5921 Clear 30 1011 8 0 1.35 213.831 06:39 24.06.2019
5922 Clear 32 1010 6 0 0.99 123.094 06:19 24.06.2019
5923 Clear 32 1010 6 0 0.99 123.094 05:24 24.06.2019
5924 Clear 32 1010 6 0 0.99 123.094 04:24 24.06.2019
5925 Clear 35 1010 5 0 2.91 103.151 03:23 24.06.2019
5926 Clear 35 1010 5 0 2.91 103.151 02:32 24.06.2019
5927 Clear 35 1010 5 0 2.91 103.151 01:53 24.06.2019
5928 Clear 35 1010 5 0 2.62 92.841 01:22 24.06.2019
5929 Clear 35 1010 5 0 2.62 92.841 00:40 24.06.2019
5930 Clear 34 1013 6 0 2.41 54.932 00:19 24.06.2019
5931 Clear 34 1013 6 0 2.41 54.932 00:19 24.06.2019
5932 Clear 34 1013 6 0 2.41 54.932 23:44 23.06.2019
5933 Clear 34 1013 6 0 2.41 54.932 23:23 23.06.2019
5934 Clear 34 1013 6 0 2.41 54.932 22:43 23.06.2019
5935 Clear 34 1013 6 0 2.41 54.932 22:20 23.06.2019
5936 Clear 34 1013 6 0 2.41 54.932 21:56 23.06.2019
5937 Clear 34 1013 6 0 2.41 54.932 21:36 23.06.2019
5938 Clear 31 1015 7 0 1.58 63.37 21:18 23.06.2019
5939 Clear 31 1015 7 0 1.58 63.37 20:41 23.06.2019
5940 Clear 32 1015 7 0 1.72 62.037 20:22 23.06.2019
5941 Clear 32 1015 7 0 1.72 62.037 19:44 23.06.2019
5942 Clear 32 1015 7 0 1.72 62.037 19:21 23.06.2019
5943 Clear 32 1015 7 0 1.72 62.037 18:54 23.06.2019
5944 Clear 28 1016 8 0 1.17 23.263 18:24 23.06.2019
5945 Clear 28 1016 8 0 1.17 23.263 17:51 23.06.2019
5946 Clear 28 1016 8 0 1.17 23.263 17:26 23.06.2019
5947 Clear 28 1016 8 0 1.17 23.263 16:59 23.06.2019
5948 Clear 28 1016 8 0 1.17 23.263 16:40 23.06.2019
5949 Clear 28 1016 8 0 1.17 23.263 16:21 23.06.2019
5950 Clear 28 1016 8 0 1.17 23.263 15:41 23.06.2019
5951 Clear 23 1015 12 0 0.47 324.09 15:22 23.06.2019
5952 Clear 23 1015 12 0 0.47 324.09 14:42 23.06.2019
5953 Clear 23 1015 12 0 0.47 324.09 14:23 23.06.2019
5954 Clear 23 1015 12 0 0.47 324.09 13:58 23.06.2019
5955 Clear 23 1015 12 0 0.47 324.09 13:40 23.06.2019
5956 Clear 23 1015 12 0 0.26 341.428 13:19 23.06.2019
5957 Clear 23 1015 12 0 0.26 341.428 12:44 23.06.2019
5958 Clear 25 1015 10 0 0.97 124.247 12:23 23.06.2019
5959 Clear 25 1015 10 0 0.97 124.247 11:57 23.06.2019
5960 Clear 25 1015 10 0 0.97 124.247 11:38 23.06.2019
5961 Clear 25 1015 10 0 0.97 124.247 11:19 23.06.2019
5962 Clear 25 1015 10 0 0.97 124.247 10:44 23.06.2019
5963 Clear 25 1015 10 0 0.97 124.247 10:19 23.06.2019
5964 Clear 25 1015 10 0 0.97 124.247 09:42 23.06.2019
5965 Clear 27 1014 9 0 1.53 103.609 09:21 23.06.2019
5966 Clear 27 1014 9 0 1.53 103.609 08:45 23.06.2019
5967 Clear 28 1014 9 0 1.19 14.211 08:27 23.06.2019
5968 Clear 28 1014 9 0 1.19 14.211 07:54 23.06.2019
5969 Clear 28 1014 9 0 1.19 14.211 07:21 23.06.2019
5970 Clear 28 1014 9 0 1.19 14.211 06:54 23.06.2019
5971 Clear 31 1012 6 0 2.33 328.939 05:55 23.06.2019
5972 Clear 31 1012 6 0 2.33 328.939 04:38 23.06.2019
5973 Clear 32 1012 6 0 3.49 318.331 02:19 23.06.2019
5974 Clear 32 1012 6 0 3.49 318.331 01:37 23.06.2019
5975 Clear 32 1012 6 0 3.69 329.926 00:37 23.06.2019
5976 Clear 30 1013 8 0 3.54 306.108 23:57 22.06.2019
5977 Clear 30 1013 8 0 3.54 306.108 23:38 22.06.2019
5978 Clear 30 1013 8 0 3.54 306.108 23:20 22.06.2019
5979 Clear 30 1013 8 0 3.54 306.108 22:44 22.06.2019
5980 Clear 30 1013 8 0 3.54 306.108 22:22 22.06.2019
5981 Clear 30 1013 8 0 3.54 306.108 21:41 22.06.2019
5982 Clear 28 1014 11 0 5.76 356.007 21:20 22.06.2019
5983 Clear 28 1014 11 0 5.76 356.007 20:51 22.06.2019
5984 Clear 28 1014 10 0 5.92 358.944 20:26 22.06.2019
5985 Clear 28 1014 10 0 5.92 358.944 19:53 22.06.2019
5986 Clear 28 1014 10 0 5.92 358.944 19:28 22.06.2019
5987 Clear 28 1014 10 0 5.92 358.944 18:59 22.06.2019
5988 Clear 28 1014 10 0 5.92 358.944 18:41 22.06.2019
5989 Clear 25 1015 11 0 3.68 32.592 18:19 22.06.2019
5990 Clear 25 1015 11 0 3.68 32.592 17:40 22.06.2019
5991 Clear 25 1015 11 0 3.68 32.592 17:22 22.06.2019
5992 Clear 25 1015 11 0 3.68 32.592 16:39 22.06.2019
5993 Clear 25 1015 11 0 3.68 32.592 16:21 22.06.2019
5994 Clear 25 1015 11 0 3.68 32.592 15:42 22.06.2019
5995 Clear 23 1012 13 0 2.12 358.811 15:24 22.06.2019
5996 Clear 23 1012 13 0 2.12 358.811 14:50 22.06.2019
5997 Clear 23 1012 13 0 2.12 358.811 14:29 22.06.2019
5998 Clear 23 1012 13 0 2.12 358.811 13:55 22.06.2019
5999 Clear 23 1012 13 0 2.12 358.811 13:36 22.06.2019
6000 Clear 23 1013 12 0 3.36 29.582 13:18 22.06.2019
6001 Clear 23 1013 12 0 3.36 29.582 12:41 22.06.2019
6002 Clear 26 1011 11 0 3.05 342.088 12:18 22.06.2019
6003 Clear 26 1011 11 0 3.05 342.088 11:40 22.06.2019
6004 Clear 26 1011 11 0 3.05 342.088 10:58 22.06.2019
6005 Clear 26 1011 11 0 3.05 342.088 10:22 22.06.2019
6006 Clear 26 1011 11 0 3.05 342.088 09:56 22.06.2019
6007 Clear 26 1011 11 0 3.05 342.088 09:29 22.06.2019
6008 Clear 28 1009 9 0 3.76 359.055 08:48 22.06.2019
6009 Clear 29 1009 10 0 4.21 344.161 08:29 22.06.2019
6010 Clear 29 1009 10 0 4.21 344.161 07:44 22.06.2019
6011 Clear 29 1009 10 0 4.21 344.161 07:23 22.06.2019
6012 Clear 29 1009 10 0 4.21 344.161 06:40 22.06.2019
6013 Clear 33 1006 9 0 2.74 327.058 03:42 22.06.2019
6014 Clear 33 1004 9 0 1.36 359.242 02:24 22.06.2019
6015 Clear 33 1004 10 0 1.26 16.026 00:54 22.06.2019
6016 Clear 33 1004 10 0 1.26 16.026 00:30 22.06.2019
6017 Clear 33 1005 10 0 3.18 31.01 23:50 21.06.2019
6018 Clear 33 1005 10 0 3.18 31.01 23:23 21.06.2019
6019 -273 0 0 0 0 0 22:57 21.06.2019
6020 Clear 33 1005 10 0 3.18 31.01 22:34 21.06.2019
6021 Clear 33 1005 10 0 3.18 31.01 21:58 21.06.2019
6022 Clear 33 1005 10 0 3.18 31.01 21:39 21.06.2019
6023 Clear 31 1007 10 0 4.27 18.809 21:20 21.06.2019
6024 Clear 31 1006 11 0 3.76 359.664 20:48 21.06.2019
6025 Clear 31 1006 11 0 3.76 359.664 20:26 21.06.2019
6026 Clear 31 1006 11 0 3.76 359.664 19:48 21.06.2019
6027 Clear 31 1006 11 0 3.76 359.664 19:22 21.06.2019
6028 Clear 31 1006 11 0 3.76 359.664 18:41 21.06.2019
6029 Clear 29 1007 12 0 3.31 344.865 18:23 21.06.2019
6030 Clear 29 1007 12 0 3.31 344.865 17:31 21.06.2019
6031 Clear 29 1007 12 0 3.31 344.865 16:59 21.06.2019
6032 Clear 29 1007 12 0 3.31 344.865 16:37 21.06.2019
6033 Clear 29 1007 12 0 3.31 344.865 16:18 21.06.2019
6034 Clear 29 1007 12 0 3.31 344.865 15:37 21.06.2019
6035 Clear 27 1005 24 0 2.45 120.041 14:57 21.06.2019
6036 Clear 27 1005 24 0 2.45 120.041 14:39 21.06.2019
6037 Clear 27 1005 24 0 2.45 120.041 14:20 21.06.2019
6038 Clear 27 1005 24 0 2.45 120.041 13:39 21.06.2019
6039 Clear 26 1006 15 0 1.67 76.539 13:21 21.06.2019
6040 Clear 26 1006 15 0 1.67 76.539 12:50 21.06.2019
6041 Clear 29 1004 20 0 2.73 154.742 12:23 21.06.2019
6042 Clear 29 1004 20 0 2.73 154.742 11:56 21.06.2019
6043 Clear 29 1004 20 0 2.73 154.742 11:37 21.06.2019
6044 Clear 29 1004 20 0 2.73 154.742 11:19 21.06.2019
6045 Clear 29 1004 20 0 2.73 154.742 11:19 21.06.2019
6046 Clear 29 1004 20 0 2.73 154.742 10:44 21.06.2019
6047 Clear 29 1004 20 0 2.73 154.742 10:21 21.06.2019
6048 Clear 29 1004 20 0 2.73 154.742 09:43 21.06.2019
6049 Clear 32 1002 14 0 2.01 116.258 09:23 21.06.2019
6050 Clear 32 1002 14 0 2.01 116.258 08:56 21.06.2019
6051 Clear 32 1002 14 0 2.01 116.258 08:56 21.06.2019
6052 Clear 32 1002 13 0 2.16 71.674 08:37 21.06.2019
6053 Clear 32 1002 13 0 2.16 71.674 08:19 21.06.2019
6054 Clear 32 1002 13 0 2.16 71.674 07:44 21.06.2019
6055 Clear 32 1002 13 0 2.16 71.674 07:22 21.06.2019
6056 Clear 32 1002 13 0 2.16 71.674 06:29 21.06.2019
6057 Clear 38 1000 7 0 3.62 137.262 05:55 21.06.2019
6058 Clear 38 1000 7 0 3.62 137.262 04:49 21.06.2019
6059 Clear 38 1000 7 0 3.62 137.262 03:48 21.06.2019
6060 Clear 38 1000 7 0 3.62 137.262 03:28 21.06.2019
6061 Clear 40 999 9 0 3.84 53.181 02:42 21.06.2019
6062 Clear 40 1000 10 0 4.09 58.364 01:32 21.06.2019
6063 Clear 40 1000 10 0 4.09 58.364 00:46 21.06.2019
6064 Clear 38 1002 14 0 4.56 106.537 23:59 20.06.2019
6065 Clear 38 1002 14 0 4.56 106.537 23:40 20.06.2019
6066 Clear 38 1002 14 0 4.56 106.537 23:20 20.06.2019
6067 Clear 38 1002 14 0 4.56 106.537 22:44 20.06.2019
6068 Clear 38 1002 14 0 4.56 106.537 22:23 20.06.2019
6069 Clear 38 1002 14 0 4.56 106.537 21:56 20.06.2019
6070 Clear 38 1002 14 0 4.56 106.537 21:38 20.06.2019
6071 Clear 35 1005 19 0 4.33 129.352 21:19 20.06.2019
6072 Clear 35 1006 20 0 3.78 122.858 20:44 20.06.2019
6073 Clear 35 1006 20 0 3.78 122.858 20:25 20.06.2019
6074 Clear 35 1006 20 0 3.78 122.858 20:25 20.06.2019
6075 Clear 35 1006 20 0 3.78 122.858 19:55 20.06.2019
6076 Clear 35 1006 20 0 3.78 122.858 19:36 20.06.2019
6077 Clear 35 1006 20 0 3.78 122.858 19:18 20.06.2019
6078 Clear 35 1006 20 0 3.78 122.858 18:41 20.06.2019
6079 Clear 31 1007 25 0 4.18 138.265 18:21 20.06.2019
6080 Clear 31 1007 25 0 4.18 138.265 17:48 20.06.2019
6081 Clear 31 1007 25 0 4.18 138.265 17:29 20.06.2019
6082 Clear 31 1007 25 0 4.18 138.265 16:47 20.06.2019
6083 Clear 31 1007 25 0 4.18 138.265 16:20 20.06.2019
6084 -273 0 0 0 0 0 15:58 20.06.2019
6085 Clear 31 1007 25 0 4.18 138.265 15:40 20.06.2019
6086 Clear 30 1007 25 0 1.97 136.854 15:21 20.06.2019
6087 Clear 30 1007 25 0 1.97 136.854 14:44 20.06.2019
6088 Clear 30 1007 25 0 1.97 136.854 14:22 20.06.2019
6089 Clear 30 1007 25 0 1.97 136.854 13:41 20.06.2019
6090 Clear 30 1007 24 0 2.15 137.681 13:20 20.06.2019
6091 Clear 30 1007 24 0 2.15 137.681 12:47 20.06.2019
6092 Clear 33 1007 19 0 1.34 165.385 12:23 20.06.2019
6093 Clear 33 1007 19 0 1.34 165.385 11:48 20.06.2019
6094 Clear 33 1007 19 0 1.34 165.385 11:29 20.06.2019
6095 Clear 33 1007 19 0 1.34 165.385 10:58 20.06.2019
6096 Clear 33 1007 19 0 1.34 165.385 10:39 20.06.2019
6097 Clear 33 1007 19 0 1.34 165.385 10:20 20.06.2019
6098 Clear 33 1007 19 0 1.34 165.385 09:40 20.06.2019
6099 Clear 35 1007 14 0 2.33 202.847 09:22 20.06.2019
6100 Clear 36 1007 15 0 3.26 204.291 08:46 20.06.2019
6101 Clear 36 1007 15 0 3.26 204.291 08:27 20.06.2019
6102 Clear 36 1007 15 0 3.26 204.291 07:54 20.06.2019
6103 Clear 36 1007 15 0 3.26 204.291 07:30 20.06.2019
6104 Clear 36 1007 15 0 3.26 204.291 06:38 20.06.2019
6105 Clear 39 1006 10 0 0.85 36.803 05:54 20.06.2019
6106 Clear 39 1006 10 0 0.85 36.803 03:37 20.06.2019
6107 Clear 41 1006 9 0 3.97 94.904 00:34 20.06.2019
6108 Clear 40 1008 8 0 3.05 69.569 23:59 19.06.2019
6109 Clear 40 1008 8 0 3.05 69.569 23:41 19.06.2019
6110 Clear 40 1008 8 0 3.05 69.569 23:23 19.06.2019
6111 Clear 40 1008 8 0 3.05 69.569 22:48 19.06.2019
6112 Clear 40 1008 8 0 3.05 69.569 22:20 19.06.2019
6113 Clear 40 1008 8 0 3.05 69.569 21:54 19.06.2019
6114 Clear 40 1008 8 0 3.05 69.569 21:36 19.06.2019
6115 Clear 37 1011 12 0 1.98 82.627 21:18 19.06.2019
6116 Clear 37 1011 12 0 1.98 82.627 20:39 19.06.2019
6117 Clear 37 1011 12 0 1.98 82.627 20:20 19.06.2019
6118 Clear 37 1011 12 0 1.98 82.627 19:42 19.06.2019
6119 Clear 37 1011 12 0 1.98 82.627 19:21 19.06.2019
6120 Clear 37 1011 12 0 1.98 82.627 18:51 19.06.2019
6121 Clear 34 1011 13 0 2.23 112.574 18:21 19.06.2019
6122 Clear 34 1011 13 0 2.23 112.574 17:41 19.06.2019
6123 Clear 34 1011 13 0 2.23 112.574 17:22 19.06.2019
6124 Clear 34 1011 13 0 2.23 112.574 16:40 19.06.2019
6125 Clear 34 1011 13 0 2.23 112.574 16:22 19.06.2019
6126 Clear 34 1011 13 0 2.23 112.574 15:55 19.06.2019
6127 Clear 34 1011 13 0 2.23 112.574 15:31 19.06.2019
6128 Clear 30 1011 14 0 0.85 179.193 14:59 19.06.2019
6129 Clear 30 1011 14 0 0.85 179.193 14:41 19.06.2019
6130 Clear 30 1011 14 0 0.85 179.193 14:21 19.06.2019
6131 Clear 30 1011 14 0 0.85 179.193 13:43 19.06.2019
6132 Clear 30 1011 15 0 0.9 243.293 13:25 19.06.2019
6133 Clear 30 1011 15 0 0.9 243.293 12:47 19.06.2019
6134 Clear 31 1011 14 0 0.38 267.583 12:22 19.06.2019
6135 Clear 31 1011 14 0 0.38 267.583 11:57 19.06.2019
6136 Clear 31 1011 14 0 0.38 267.583 11:38 19.06.2019
6137 Clear 31 1011 14 0 0.38 267.583 11:20 19.06.2019
6138 Clear 31 1011 14 0 0.38 267.583 10:45 19.06.2019
6139 Clear 31 1011 14 0 0.38 267.583 10:27 19.06.2019
6140 Clear 31 1011 14 0 0.38 267.583 09:50 19.06.2019
6141 Clear 34 1011 11 0 1.66 185.831 09:23 19.06.2019
6142 Clear 34 1011 11 0 1.66 185.831 08:55 19.06.2019
6143 Clear 35 1010 11 0 2.16 188.821 08:37 19.06.2019
6144 Clear 35 1010 11 0 2.16 188.821 08:19 19.06.2019
6145 Clear 35 1010 11 0 2.16 188.821 07:42 19.06.2019
6146 Clear 35 1010 11 0 2.16 188.821 06:59 19.06.2019
6147 Clear 35 1010 11 0 2.16 188.821 06:35 19.06.2019
6148 Clear 37 1009 9 0 1.2 333.435 05:50 19.06.2019
6149 Clear 37 1009 9 0 1.2 333.435 05:20 19.06.2019
6150 Clear 37 1009 9 0 1.2 333.435 03:51 19.06.2019
6151 Clear 38 1009 9 0 2.75 275.443 02:35 19.06.2019
6152 Clear 38 1009 9 0 2.75 275.443 01:36 19.06.2019
6153 Clear 39 1009 8 0 2.53 298.61 00:53 19.06.2019
6154 Clear 39 1009 8 0 2.53 298.61 00:35 19.06.2019
6155 Clear 37 1011 11 0 2.6 305.205 23:58 18.06.2019
6156 Clear 37 1011 11 0 2.6 305.205 23:31 18.06.2019
6157 Clear 37 1011 11 0 2.6 305.205 22:56 18.06.2019
6158 Clear 37 1011 11 0 2.6 305.205 22:37 18.06.2019
6159 Clear 37 1011 11 0 2.6 305.205 22:19 18.06.2019
6160 Clear 37 1011 11 0 2.6 305.205 21:44 18.06.2019
6161 Clear 34 1013 16 0 1.62 322.436 21:22 18.06.2019
6162 Clear 34 1013 16 0 1.62 322.436 20:58 18.06.2019
6163 Clear 34 1012 16 0 3.08 325.676 20:38 18.06.2019
6164 Clear 34 1012 16 0 3.08 325.676 20:18 18.06.2019
6165 Clear 34 1012 16 0 3.08 325.676 19:39 18.06.2019
6166 Clear 34 1012 16 0 3.08 325.676 19:21 18.06.2019
6167 Clear 34 1012 16 0 3.08 325.676 18:49 18.06.2019
6168 Clear 31 1012 20 0 2.17 326.851 18:25 18.06.2019
6169 Clear 31 1012 20 0 2.17 326.851 17:46 18.06.2019
6170 Clear 31 1012 20 0 2.17 326.851 17:22 18.06.2019
6171 Clear 31 1012 20 0 2.17 326.851 16:58 18.06.2019
6172 Clear 31 1012 20 0 2.17 326.851 16:39 18.06.2019
6173 Clear 31 1012 20 0 2.17 326.851 16:21 18.06.2019
6174 Clear 31 1012 20 0 2.17 326.851 15:41 18.06.2019
6175 Clear 27 1011 29 0 0.55 348.71 15:22 18.06.2019
6176 Clear 27 1011 29 0 0.55 348.71 14:56 18.06.2019
6177 Clear 27 1011 29 0 0.55 348.71 14:37 18.06.2019
6178 Clear 27 1011 29 0 0.55 348.71 14:18 18.06.2019
6179 Clear 27 1011 29 0 0.55 348.71 13:49 18.06.2019
6180 Clear 29 1011 27 0 2.02 318.838 13:29 18.06.2019
6181 Clear 29 1011 27 0 2.02 318.838 12:46 18.06.2019
6182 Clear 29 1011 27 0 2.02 318.838 12:28 18.06.2019
6183 Clear 31 1010 23 0 1.34 359.358 11:54 18.06.2019
6184 Clear 31 1010 23 0 1.34 359.358 11:36 18.06.2019
6185 Clear 31 1010 23 0 1.34 359.358 11:18 18.06.2019
6186 Clear 31 1010 23 0 1.34 359.358 10:41 18.06.2019
6187 Clear 31 1010 23 0 1.34 359.358 10:21 18.06.2019
6188 Clear 31 1010 23 0 1.34 359.358 09:51 18.06.2019
6189 Rain 34 1010 19 0 2.28 3.072 09:25 18.06.2019
6190 Rain 34 1010 19 0 2.28 3.072 08:56 18.06.2019
6191 Rain 34 1010 19 0 2.28 3.072 08:38 18.06.2019
6192 Rain 33 1010 19 0 2.6 2.736 08:20 18.06.2019
6193 Rain 33 1010 19 0 2.6 2.736 07:26 18.06.2019
6194 Rain 33 1010 19 0 2.6 2.736 06:55 18.06.2019
6195 Clouds 35 1008 16 0 5.04 8.013 05:27 18.06.2019
6196 Clouds 35 1008 16 0 5.04 8.013 04:22 18.06.2019
6197 Clouds 37 1007 11 0 2.4 6.449 02:49 18.06.2019
6198 Clouds 37 1006 11 0 2.44 11.955 01:28 18.06.2019
6199 Clouds 37 1006 11 0 2.44 11.955 00:58 18.06.2019
6200 Clouds 37 1006 11 0 2.44 11.955 00:39 18.06.2019
6201 Clouds 35 1007 15 0 1.86 26.015 00:18 18.06.2019
6202 Clouds 35 1007 15 0 1.86 26.015 23:38 17.06.2019
6203 Clouds 35 1007 15 0 1.86 26.015 23:19 17.06.2019
6204 Clouds 35 1007 15 0 1.86 26.015 22:41 17.06.2019
6205 Clouds 35 1007 15 0 1.86 26.015 22:21 17.06.2019
6206 Clouds 35 1007 15 0 1.86 26.015 21:55 17.06.2019
6207 Clouds 35 1007 15 0 1.86 26.015 21:36 17.06.2019
6208 Clouds 32 1009 22 0 1.91 1.408 21:18 17.06.2019
6209 Clouds 32 1009 22 0 1.91 1.408 20:36 17.06.2019
6210 Clouds 33 1009 22 0 1.71 29.495 20:18 17.06.2019
6211 Clouds 33 1009 22 0 1.71 29.495 19:41 17.06.2019
6212 Clouds 33 1009 22 0 1.71 29.495 19:21 17.06.2019
6213 Clouds 33 1009 22 0 1.71 29.495 18:57 17.06.2019
6214 Clouds 33 1009 22 0 1.71 29.495 18:36 17.06.2019
6215 Clouds 30 1009 29 0 1.86 345.112 18:18 17.06.2019
6216 Clouds 30 1009 29 0 1.86 345.112 17:42 17.06.2019
6217 Clouds 30 1009 29 0 1.86 345.112 17:24 17.06.2019
6218 Clouds 30 1009 29 0 1.86 345.112 16:45 17.06.2019
6219 Clouds 30 1009 29 0 1.86 345.112 16:27 17.06.2019
6220 Clouds 30 1009 29 0 1.86 345.112 15:56 17.06.2019
6221 Clouds 30 1009 29 0 1.86 345.112 15:37 17.06.2019
6222 Clouds 28 1008 36 0 1.84 304.338 15:18 17.06.2019
6223 Clouds 28 1008 36 0 1.84 304.338 14:48 17.06.2019
6224 Clouds 28 1008 36 0 1.84 304.338 14:29 17.06.2019
6225 Clouds 28 1008 36 0 1.84 304.338 13:50 17.06.2019
6226 Clouds 28 1008 32 0 2.48 318.095 13:23 17.06.2019
6227 Clouds 28 1008 32 0 2.48 318.095 12:52 17.06.2019
6228 Clouds 28 1008 32 0 2.48 318.095 12:31 17.06.2019
6229 Clouds 29 1008 26 0 3.75 339.476 11:49 17.06.2019
6230 Clouds 29 1008 26 0 3.75 339.476 11:26 17.06.2019
6231 Clouds 29 1008 26 0 3.75 339.476 10:59 17.06.2019
6232 Clouds 29 1008 26 0 3.75 339.476 10:40 17.06.2019
6233 Clouds 29 1008 26 0 3.75 339.476 10:22 17.06.2019
6234 Clouds 29 1008 26 0 3.75 339.476 09:55 17.06.2019
6235 Clouds 29 1008 26 0 3.75 339.476 09:30 17.06.2019
6236 Clear 32 1008 13 0 1.71 229.417 08:43 17.06.2019
6237 Clear 32 1008 13 0 1.71 229.417 08:23 17.06.2019
6238 Clear 32 1008 13 0 1.71 229.417 07:47 17.06.2019
6239 Clear 32 1008 13 0 1.71 229.417 07:28 17.06.2019
6240 Clear 32 1008 13 0 1.71 229.417 06:46 17.06.2019
6241 Clear 36 1005 7 0 5.7 217.778 05:53 17.06.2019
6242 Clear 36 1005 7 0 5.7 217.778 04:52 17.06.2019
6243 Clear 36 1005 7 0 5.7 217.778 03:50 17.06.2019
6244 Rain 39 1003 9 0 5.64 137.107 03:25 17.06.2019
6245 Rain 39 1003 9 0 5.64 137.107 02:42 17.06.2019
6246 Rain 39 1003 9 0 5.64 137.107 02:19 17.06.2019
6247 Rain 39 1003 9 0 5.64 137.107 01:35 17.06.2019
6248 Clouds 39 1004 9 0 0.56 129.897 00:48 17.06.2019
6249 Clouds 37 1005 15 0 3.31 108.747 00:27 17.06.2019
6250 Clouds 37 1005 15 0 3.31 108.747 23:58 16.06.2019
6251 Clouds 37 1005 15 0 3.31 108.747 23:39 16.06.2019
6252 Clouds 37 1005 15 0 3.31 108.747 23:19 16.06.2019
6253 Clouds 37 1005 15 0 3.31 108.747 22:44 16.06.2019
6254 Clouds 37 1005 15 0 3.31 108.747 22:20 16.06.2019
6255 Clouds 37 1005 15 0 3.31 108.747 22:20 16.06.2019
6256 Clouds 37 1005 15 0 3.31 108.747 21:57 16.06.2019
6257 Clouds 37 1005 15 0 3.31 108.747 21:39 16.06.2019
6258 Clouds 34 1007 20 0 1.22 57.076 21:20 16.06.2019
6259 Clouds 34 1007 20 0 1.46 72.431 20:39 16.06.2019
6260 Clouds 34 1007 20 0 1.46 72.431 20:19 16.06.2019
6261 Clouds 34 1007 20 0 1.46 72.431 19:58 16.06.2019
6262 Clouds 34 1007 20 0 1.46 72.431 19:58 16.06.2019
6263 Clouds 34 1007 20 0 1.46 72.431 19:39 16.06.2019
6264 Clouds 34 1007 20 0 1.46 72.431 19:21 16.06.2019
6265 Clouds 34 1007 20 0 1.46 72.431 18:42 16.06.2019
6266 Clouds 31 1009 26 0 1.07 351.254 18:21 16.06.2019
6267 Clouds 31 1009 26 0 1.07 351.254 18:21 16.06.2019
6268 Clouds 31 1009 26 0 1.07 351.254 17:57 16.06.2019
6269 Clouds 31 1009 26 0 1.07 351.254 17:38 16.06.2019
6270 Clouds 31 1009 26 0 1.07 351.254 17:20 16.06.2019
6271 Clouds 31 1009 26 0 1.07 351.254 16:55 16.06.2019
6272 Clouds 31 1009 26 0 1.07 351.254 16:37 16.06.2019
6273 Clouds 31 1009 26 0 1.07 351.254 16:18 16.06.2019
6274 Clouds 31 1009 26 0 1.07 351.254 15:41 16.06.2019
6275 Clouds 29 1008 31 0 2.25 293.356 15:23 16.06.2019
6276 Clouds 29 1008 31 0 2.25 293.356 14:41 16.06.2019
6277 Clouds 29 1008 31 0 2.25 293.356 14:22 16.06.2019
6278 Clouds 29 1008 31 0 2.25 293.356 13:51 16.06.2019
6279 Clouds 29 1008 31 0 2.25 293.356 13:51 16.06.2019
6280 Clouds 29 1008 31 0 2.25 293.356 13:51 16.06.2019
6281 Clouds 29 1008 31 0 2.25 293.356 13:26 16.06.2019
6282 Clouds 29 1008 31 0 2.25 293.356 13:26 16.06.2019
6283 Clouds 29 1008 31 0 3 306.801 12:57 16.06.2019
6284 Clouds 29 1008 31 0 3 306.801 12:57 16.06.2019
6285 Clouds 29 1008 31 0 3 306.801 12:38 16.06.2019
6286 Clouds 31 1009 27 0 3.01 327.716 12:18 16.06.2019
6287 Clouds 31 1009 27 0 3.01 327.716 11:40 16.06.2019
6288 Clouds 31 1009 27 0 3.01 327.716 11:19 16.06.2019
6289 Clouds 31 1009 27 0 3.01 327.716 10:45 16.06.2019
6290 Clouds 31 1009 27 0 3.01 327.716 10:20 16.06.2019
6291 Clouds 31 1009 27 0 3.01 327.716 10:20 16.06.2019
6292 Clouds 31 1009 27 0 3.01 327.716 09:48 16.06.2019
6293 Clouds 35 1009 17 0 2.18 255.441 09:26 16.06.2019
6294 Rain 33 1009 20 0 5.28 355.799 08:56 16.06.2019
6295 Rain 33 1009 20 0 5.28 355.799 08:38 16.06.2019
6296 Rain 33 1009 20 0 5.28 355.799 08:18 16.06.2019
6297 Rain 33 1009 20 0 5.28 355.799 07:42 16.06.2019
6298 Rain 33 1009 20 0 5.28 355.799 06:57 16.06.2019
6299 Rain 33 1009 20 0 5.28 355.799 06:30 16.06.2019
6300 Clouds 38 1007 11 0 3.82 199.856 05:40 16.06.2019
6301 Clouds 38 1007 11 0 3.82 199.856 04:36 16.06.2019
6302 Clouds 38 1007 11 0 3.82 199.856 03:54 16.06.2019
6303 Clouds 38 1007 11 0 3.82 199.856 03:31 16.06.2019
6304 Clear 39 1006 11 0 2.15 122.721 02:18 16.06.2019
6305 Clear 39 1006 11 0 2.15 122.721 01:41 16.06.2019
6306 Clear 39 1006 11 0 2.15 122.721 01:23 16.06.2019
6307 Clear 40 1005 11 0 3.21 142.837 00:40 16.06.2019
6308 Clear 38 1008 12 0 2.75 91.811 00:19 16.06.2019
6309 Clear 38 1008 12 0 2.75 91.811 23:42 15.06.2019
6310 Clear 38 1008 12 0 2.75 91.811 23:23 15.06.2019
6311 Clear 38 1008 12 0 2.75 91.811 22:49 15.06.2019
6312 Clear 38 1008 12 0 2.75 91.811 22:27 15.06.2019
6313 Clear 38 1008 12 0 2.75 91.811 21:49 15.06.2019
6314 Clear 38 1008 12 0 2.75 91.811 21:29 15.06.2019
6315 Clear 36 1010 14 0 2.72 96.801 20:59 15.06.2019
6316 Clear 36 1010 14 0 2.72 96.801 20:40 15.06.2019
6317 Clear 36 1010 14 0 2.72 96.801 20:19 15.06.2019
6318 Clear 36 1010 14 0 2.72 96.801 19:42 15.06.2019
6319 Clear 36 1010 14 0 2.72 96.801 19:23 15.06.2019
6320 Clear 36 1010 14 0 2.72 96.801 18:40 15.06.2019
6321 Clear 32 1011 18 0 3.21 130.584 18:21 15.06.2019
6322 Clear 32 1011 18 0 3.21 130.584 17:43 15.06.2019
6323 Clear 32 1011 18 0 3.21 130.584 17:23 15.06.2019
6324 Clear 32 1011 18 0 3.21 130.584 16:48 15.06.2019
6325 Clear 32 1011 18 0 3.21 130.584 16:20 15.06.2019
6326 Clear 32 1011 18 0 3.21 130.584 15:44 15.06.2019
6327 Clear 29 1009 22 0 1.19 124.131 15:24 15.06.2019
6328 Clear 29 1009 22 0 1.19 124.131 15:24 15.06.2019
6329 Clear 29 1009 22 0 1.19 124.131 14:44 15.06.2019
6330 Clear 29 1009 22 0 1.19 124.131 14:19 15.06.2019
6331 Clear 29 1009 22 0 1.19 124.131 13:58 15.06.2019
6332 Clear 29 1009 22 0 1.19 124.131 13:40 15.06.2019
6333 Clear 29 1009 22 0 1.19 124.131 13:40 15.06.2019
6334 Clear 29 1009 22 0 1.19 124.131 13:19 15.06.2019
6335 Clear 29 1009 22 0 1.19 124.131 12:50 15.06.2019
6336 Clear 31 1009 19 0 1.42 205.573 12:26 15.06.2019
6337 Clear 31 1009 19 0 1.35 244.462 11:52 15.06.2019
6338 Clear 31 1009 19 0 1.35 244.462 11:32 15.06.2019
6339 Clear 31 1009 22 0 0.27 244.945 10:54 15.06.2019
6340 Clear 31 1009 22 0 0.27 244.945 10:36 15.06.2019
6341 Clear 31 1009 22 0 0.27 244.945 10:18 15.06.2019
6342 Clear 31 1009 22 0 0.27 244.945 09:42 15.06.2019
6343 Clouds 34 1008 19 0 1.67 173.481 09:21 15.06.2019
6344 Clouds 34 1008 19 0 1.67 173.481 08:46 15.06.2019
6345 Clouds 34 1008 19 0 1.67 173.481 08:27 15.06.2019
6346 Clouds 34 1008 19 0 1.67 173.481 07:43 15.06.2019
6347 Clouds 34 1008 19 0 1.67 173.481 07:21 15.06.2019
6348 Clouds 34 1008 19 0 1.67 173.481 06:38 15.06.2019
6349 Clouds 37 1006 15 0 4.28 209.32 05:49 15.06.2019
6350 Clouds 37 1006 15 0 4.28 209.32 05:23 15.06.2019
6351 Clouds 37 1006 15 0 4.28 209.32 04:37 15.06.2019
6352 Clouds 37 1006 15 0 4.28 209.32 03:38 15.06.2019
6353 Clear 39 1005 10 0 2.11 48.561 02:48 15.06.2019
6354 Clear 39 1005 10 0 2.11 48.561 02:20 15.06.2019
6355 Clear 39 1005 10 0 2.11 48.561 01:42 15.06.2019
6356 Clear 39 1005 10 0 2.11 48.561 00:47 15.06.2019
6357 Clear 39 1005 10 0 2.11 48.561 00:28 15.06.2019
6358 Clear 38 1007 12 0 1.55 312.023 23:53 14.06.2019
6359 Clear 38 1007 12 0 1.12 333.275 23:25 14.06.2019
6360 Clear 38 1007 12 0 1.12 333.275 22:43 14.06.2019
6361 Clear 38 1007 12 0 1.12 333.275 22:23 14.06.2019
6362 Clear 38 1007 12 0 1.12 333.275 22:23 14.06.2019
6363 Clear 38 1007 12 0 1.12 333.275 22:23 14.06.2019
6364 Clear 38 1007 12 0 1.12 333.275 21:58 14.06.2019
6365 Clear 38 1007 12 0 1.12 333.275 21:39 14.06.2019
6366 Clouds 35 1008 17 0 1.05 38.096 21:21 14.06.2019
6367 Clouds 35 1008 17 0 1.05 38.096 20:42 14.06.2019
6368 Clouds 35 1008 17 0 1.05 38.096 20:18 14.06.2019
6369 Clouds 35 1008 17 0 1.05 38.096 19:51 14.06.2019
6370 Clouds 35 1008 17 0 1.05 38.096 19:23 14.06.2019
6371 Clouds 35 1008 17 0 1.05 38.096 19:23 14.06.2019
6372 Clouds 35 1008 17 0 1.05 38.096 18:58 14.06.2019
6373 Clouds 35 1008 17 0 1.05 38.096 18:40 14.06.2019
6374 Rain 31 1009 21 0 1.53 157.253 18:22 14.06.2019
6375 Rain 31 1009 21 0 1.53 157.253 17:47 14.06.2019
6376 Rain 31 1009 21 0 1.53 157.253 17:28 14.06.2019
6377 Rain 31 1009 21 0 1.53 157.253 16:58 14.06.2019
6378 Rain 31 1009 21 0 1.53 157.253 16:40 14.06.2019
6379 Rain 31 1009 21 0 1.53 157.253 16:40 14.06.2019
6380 -273 0 0 0 0 0 16:19 14.06.2019
6381 Rain 31 1009 21 0 1.53 157.253 16:19 14.06.2019
6382 Rain 31 1009 21 0 1.53 157.253 15:40 14.06.2019
6383 Clouds 29 1007 23 0 0.7 94.203 15:22 14.06.2019
6384 Clouds 29 1007 23 0 0.7 94.203 14:54 14.06.2019
6385 Clouds 29 1007 23 0 0.7 94.203 14:35 14.06.2019
6386 Clouds 29 1007 23 0 0.7 94.203 14:35 14.06.2019
6387 Clouds 29 1007 23 0 0.7 94.203 13:57 14.06.2019
6388 Clouds 29 1007 22 0 0.54 108.977 13:38 14.06.2019
6389 Clouds 29 1007 22 0 0.54 108.977 13:20 14.06.2019
6390 Clouds 29 1007 22 0 0.54 108.977 13:20 14.06.2019
6391 Clouds 29 1007 22 0 0.54 108.977 12:42 14.06.2019
6392 -273 0 0 0 0 0 12:24 14.06.2019
6393 Clouds 31 1007 20 0 0.88 110.495 11:57 14.06.2019
6394 Clouds 31 1007 20 0 0.88 110.495 11:38 14.06.2019
6395 Clouds 31 1007 20 0 0.88 110.495 11:20 14.06.2019
6396 Clouds 31 1007 20 0 0.88 110.495 10:42 14.06.2019
6397 Clouds 31 1007 20 0 0.88 110.495 10:18 14.06.2019
6398 Clear 31 1007 23 0 0.88 297.145 09:43 14.06.2019
6399 Clear 34 1008 17 0 3.37 5.484 09:21 14.06.2019
6400 Clear 34 1008 17 0 3.37 5.484 08:46 14.06.2019
6401 Clear 34 1008 17 0 3.37 5.484 08:19 14.06.2019
6402 Clear 34 1008 17 0 3.37 5.484 07:50 14.06.2019
6403 Clear 34 1008 17 0 3.37 5.484 07:21 14.06.2019
6404 Clear 34 1008 17 0 3.37 5.484 06:35 14.06.2019
6405 Clear 36 1005 11 0 0.67 47.315 05:58 14.06.2019
6406 Clear 36 1005 11 0 0.67 47.315 05:58 14.06.2019
6407 Clear 36 1005 11 0 0.67 47.315 05:21 14.06.2019
6408 Clear 36 1005 11 0 0.67 47.315 04:45 14.06.2019
6409 Clear 36 1005 11 0 0.67 47.315 03:52 14.06.2019
6410 Clear 37 1005 10 0 0.85 97.184 03:26 14.06.2019
6411 Clear 37 1005 10 0 0.85 97.184 02:55 14.06.2019
6412 Clear 37 1005 10 0 0.85 97.184 02:27 14.06.2019
6413 Clear 37 1005 10 0 0.85 97.184 02:27 14.06.2019
6414 Clear 37 1005 10 0 0.85 97.184 02:27 14.06.2019
6415 Clear 37 1005 10 0 0.85 97.184 02:27 14.06.2019
6416 Clear 37 1005 10 0 0.85 97.184 00:59 14.06.2019
6417 Clouds 37 1007 11 0 0.57 52.524 00:24 14.06.2019
6418 Clouds 37 1007 11 0 0.57 52.524 23:59 13.06.2019
6419 Clouds 37 1007 11 0 0.57 52.524 23:41 13.06.2019
6420 Clouds 37 1007 11 0 0.57 52.524 23:22 13.06.2019
6421 Clouds 37 1007 11 0 0.57 52.524 22:40 13.06.2019
6422 Clouds 37 1007 11 0 0.57 52.524 22:22 13.06.2019
6423 Clouds 37 1007 11 0 0.57 52.524 22:22 13.06.2019
6424 Clouds 37 1007 11 0 0.57 52.524 21:40 13.06.2019
6425 Clear 35 1009 13 0 0.93 57.254 21:20 13.06.2019
6426 Clear 35 1009 13 0 0.93 57.254 20:59 13.06.2019
6427 Clear 35 1009 13 0 0.93 57.254 20:40 13.06.2019
6428 Clear 35 1009 13 0 0.93 57.254 20:19 13.06.2019
6429 Clear 35 1009 13 0 0.93 57.254 19:42 13.06.2019
6430 Clear 35 1009 13 0 0.93 57.254 19:23 13.06.2019
6431 Clear 35 1009 13 0 0.93 57.254 18:58 13.06.2019
6432 Clear 35 1009 13 0 0.93 57.254 18:40 13.06.2019
6433 Clear 33 1010 15 0 0.65 119.636 18:21 13.06.2019
6434 Clear 33 1010 15 0 0.65 119.636 17:44 13.06.2019
6435 Clear 33 1010 15 0 0.65 119.636 17:21 13.06.2019
6436 Clear 33 1010 15 0 0.65 119.636 16:55 13.06.2019
6437 Clear 33 1010 15 0 0.65 119.636 16:36 13.06.2019
6438 Clear 33 1010 15 0 0.65 119.636 16:18 13.06.2019
6439 Clear 33 1010 15 0 0.65 119.636 15:40 13.06.2019
6440 Clear 29 1009 21 0 0.4 191.113 15:19 13.06.2019
6441 Clear 29 1009 21 0 0.4 191.113 14:49 13.06.2019
6442 Clear 29 1009 21 0 0.4 191.113 14:49 13.06.2019
6443 Clear 29 1009 21 0 0.4 191.113 14:30 13.06.2019
6444 Clear 29 1009 21 0 0.4 191.113 13:54 13.06.2019
6445 Clear 29 1009 21 0 0.4 191.113 13:36 13.06.2019
6446 Clear 29 1009 21 0 0.4 191.113 13:18 13.06.2019
6447 Clear 29 1009 21 0 0.4 191.113 12:39 13.06.2019
6448 Clear 31 1009 17 0 0.7 286.762 12:21 13.06.2019
6449 Clear 31 1009 17 0 0.7 286.762 11:44 13.06.2019
6450 Clear 31 1009 17 0 0.7 286.762 11:25 13.06.2019
6451 Clear 31 1009 17 0 0.7 286.762 10:49 13.06.2019
6452 Clear 31 1009 17 0 0.7 286.762 10:30 13.06.2019
6453 Clear 31 1009 17 0 0.7 286.762 09:55 13.06.2019
6454 Clear 31 1009 17 0 0.7 286.762 09:55 13.06.2019
6455 Clear 31 1009 17 0 0.7 286.762 09:36 13.06.2019
6456 Clear 34 1010 13 0 1.63 311.584 09:18 13.06.2019
6457 Clear 34 1010 13 0 1.63 311.584 08:43 13.06.2019
6458 Clear 34 1010 13 0 1.63 311.584 08:22 13.06.2019
6459 Clear 34 1010 13 0 1.63 311.584 07:39 13.06.2019
6460 Clear 34 1010 13 0 1.63 311.584 07:21 13.06.2019
6461 Clear 34 1010 13 0 1.63 311.584 06:40 13.06.2019
6462 Clouds 37 1009 9 0 2.52 324.51 06:22 13.06.2019
6463 Clouds 37 1009 9 0 2.52 324.51 05:44 13.06.2019
6464 Clouds 37 1009 9 0 2.52 324.51 05:26 13.06.2019
6465 Clouds 37 1009 9 0 2.52 324.51 03:50 13.06.2019
6466 Clear 39 1009 7 0 1.72 348.631 02:22 13.06.2019
6467 Clear 39 1009 7 0 1.72 348.631 00:44 13.06.2019
6468 Clear 38 1012 8 0 0.89 9.971 23:38 12.06.2019
6469 Clear 38 1012 8 0 0.89 9.971 23:20 12.06.2019
6470 Clear 38 1012 8 0 0.89 9.971 22:41 12.06.2019
6471 Clear 38 1012 8 0 0.89 9.971 22:22 12.06.2019
6472 Clear 38 1012 8 0 0.89 9.971 21:47 12.06.2019
6473 Clear 38 1012 8 0 0.89 9.971 21:29 12.06.2019
6474 Clear 36 1014 7 0 1.25 11.373 20:57 12.06.2019
6475 Clear 36 1014 7 0 1.25 11.373 20:37 12.06.2019
6476 Clear 36 1014 7 0 1.25 11.373 20:19 12.06.2019
6477 Clear 36 1014 7 0 1.25 11.373 19:42 12.06.2019
6478 Clear 36 1014 7 0 1.25 11.373 19:22 12.06.2019
6479 Clear 36 1014 7 0 1.25 11.373 18:51 12.06.2019
6480 Clear 36 1014 7 0 1.25 11.373 18:29 12.06.2019
6481 Clear 33 1015 6 0 1.15 357.162 17:58 12.06.2019
6482 Clear 33 1015 6 0 1.15 357.162 17:40 12.06.2019
6483 Clear 33 1015 6 0 1.15 357.162 17:19 12.06.2019
6484 Clear 33 1015 6 0 1.15 357.162 16:42 12.06.2019
6485 Clear 33 1015 6 0 1.15 357.162 16:23 12.06.2019
6486 Clear 33 1015 6 0 1.15 357.162 15:48 12.06.2019
6487 Clear 33 1015 6 0 1.15 357.162 15:29 12.06.2019
6488 Clouds 28 1015 11 0 0.63 325.505 14:45 12.06.2019
6489 Clouds 28 1015 11 0 0.63 325.505 14:26 12.06.2019
6490 Clouds 28 1015 11 0 0.63 325.505 13:42 12.06.2019
6491 Clouds 28 1015 9 0 1.01 309.653 13:20 12.06.2019
6492 Clouds 28 1015 9 0 1.01 309.653 12:58 12.06.2019
6493 Clouds 28 1015 9 0 1.01 309.653 12:38 12.06.2019
6494 Clouds 28 1015 9 0 1.01 309.653 12:38 12.06.2019
6495 Clouds 31 1015 8 0 1.04 327.271 12:19 12.06.2019
6496 Clouds 31 1015 8 0 1.04 327.271 12:19 12.06.2019
6497 Clouds 31 1015 8 0 1.04 327.271 12:19 12.06.2019
6498 -273 0 0 0 0 0 12:19 12.06.2019
6499 Clouds 31 1015 8 0 1.04 327.271 11:46 12.06.2019
6500 Clouds 31 1015 8 0 1.04 327.271 11:28 12.06.2019
6501 Clouds 31 1015 8 0 1.04 327.271 10:51 12.06.2019
6502 Clouds 31 1015 8 0 1.04 327.271 10:29 12.06.2019
6503 Clouds 31 1015 8 0 1.04 327.271 09:45 12.06.2019
6504 Clouds 33 1015 7 0 2.1 337.581 09:23 12.06.2019
6505 Clouds 33 1015 7 0 2.1 337.581 08:58 12.06.2019
6506 Clouds 33 1015 7 0 2.1 337.581 08:24 12.06.2019
6507 Clouds 33 1015 7 0 2.1 337.581 07:48 12.06.2019
6508 Clouds 33 1015 7 0 2.1 337.581 06:54 12.06.2019
6509 Clouds 33 1015 7 0 2.1 337.581 06:54 12.06.2019
6510 Clouds 35 1015 6 0 2.44 343.587 05:52 12.06.2019
6511 Clouds 35 1015 6 0 2.44 343.587 05:23 12.06.2019
6512 Clouds 37 1015 5 0 1.66 10.03 02:18 12.06.2019
6513 Clouds 37 1015 5 0 1.57 10.177 00:40 12.06.2019
6514 Clouds 37 1017 6 0 1.11 2.01 23:52 11.06.2019
6515 Clouds 37 1017 6 0 1.11 2.01 23:33 11.06.2019
6516 Clear 37 1016 6 0 1.22 3.397 22:44 11.06.2019
6517 Clear 37 1016 6 0 1.22 3.397 22:23 11.06.2019
6518 Clear 37 1016 6 0 1.22 3.397 21:58 11.06.2019
6519 Clear 37 1016 6 0 1.22 3.397 21:40 11.06.2019
6520 Clear 35 1018 7 0 1.47 354.499 21:21 11.06.2019
6521 Clear 35 1018 7 0 1.47 354.499 20:50 11.06.2019
6522 Clear 35 1018 7 0 1.47 354.499 20:27 11.06.2019
6523 Clear 35 1018 7 0 1.47 354.499 19:58 11.06.2019
6524 Clear 35 1018 7 0 1.47 354.499 19:40 11.06.2019
6525 -273 0 0 0 0 0 19:21 11.06.2019
6526 Clear 35 1018 7 0 1.47 354.499 18:41 11.06.2019
6527 -273 0 0 0 0 0 18:19 11.06.2019
6528 Clear 32 1019 9 0 1.47 303.3 17:41 11.06.2019
6529 Clear 32 1019 9 0 1.47 303.3 17:20 11.06.2019
6530 Clear 32 1019 9 0 1.47 303.3 16:43 11.06.2019
6531 Clear 32 1019 9 0 1.47 303.3 16:23 11.06.2019
6532 Clear 32 1019 9 0 1.47 303.3 15:43 11.06.2019
6533 Clouds 26 1018 11 0 0.93 295.767 15:25 11.06.2019
6534 Clouds 26 1018 11 0 0.93 295.767 14:56 11.06.2019
6535 Clouds 26 1018 11 0 0.93 295.767 14:38 11.06.2019
6536 Clouds 26 1018 11 0 0.93 295.767 14:19 11.06.2019
6537 Clouds 26 1018 11 0 0.93 295.767 13:42 11.06.2019
6538 Clouds 26 1018 11 0 0.93 295.767 13:21 11.06.2019
6539 Clouds 27 1018 11 0 1.08 304.029 12:42 11.06.2019
6540 Clouds 29 1018 9 0 1.03 330.063 12:22 11.06.2019
6541 Clouds 29 1018 9 0 1.03 330.063 11:56 11.06.2019
6542 Clouds 29 1018 9 0 1.03 330.063 11:33 11.06.2019
6543 Clouds 29 1018 9 0 1.03 330.063 10:57 11.06.2019
6544 Clouds 29 1018 9 0 1.03 330.063 10:39 11.06.2019
6545 Clouds 29 1018 9 0 1.03 330.063 10:19 11.06.2019
6546 Clouds 29 1018 9 0 1.03 330.063 09:43 11.06.2019
6547 Clouds 31 1017 9 0 0.08 97.829 09:23 11.06.2019
6548 Clouds 31 1017 9 0 0.08 97.829 08:41 11.06.2019
6549 Clouds 31 1017 9 0 0.08 97.829 08:22 11.06.2019
6550 Clouds 31 1017 9 0 0.08 97.829 07:34 11.06.2019
6551 Clouds 30 1018 10 0 0.07 4.699 06:54 11.06.2019
6552 Clouds 33 1016 6 0 0.48 7.022 05:56 11.06.2019
6553 Clouds 33 1016 6 0 0.48 7.022 04:48 11.06.2019
6554 Clouds 35 1016 5 0 1.55 325.859 02:27 11.06.2019
6555 Clouds 35 1016 5 0 1.55 325.859 02:27 11.06.2019
6556 Clouds 35 1017 5 0 1.62 328.97 00:54 11.06.2019
6557 Clouds 35 1017 5 0 1.62 328.97 00:31 11.06.2019
6558 Clouds 34 1018 5 0 1.92 327.048 23:46 10.06.2019
6559 Clouds 34 1018 6 0 1.85 338.567 23:21 10.06.2019
6560 Clouds 34 1018 6 0 1.85 338.567 22:47 10.06.2019
6561 Clouds 34 1018 6 0 1.85 338.567 22:29 10.06.2019
6562 Clouds 34 1018 6 0 1.85 338.567 21:58 10.06.2019
6563 Clouds 34 1018 6 0 1.85 338.567 21:39 10.06.2019
6564 Clouds 32 1020 8 0 1.95 357.082 21:21 10.06.2019
6565 Clouds 32 1020 8 0 1.95 357.082 20:44 10.06.2019
6566 Clouds 32 1020 8 0 1.95 357.082 20:44 10.06.2019
6567 Clouds 32 1020 8 0 1.95 357.082 20:23 10.06.2019
6568 Clouds 32 1020 8 0 1.95 357.082 19:51 10.06.2019
6569 Clouds 32 1020 8 0 1.95 357.082 19:27 10.06.2019
6570 Clouds 32 1020 8 0 1.95 357.082 18:59 10.06.2019
6571 Clouds 32 1020 8 0 1.95 357.082 18:40 10.06.2019
6572 Clouds 29 1020 9 0 2.46 345.935 18:20 10.06.2019
6573 Clouds 29 1020 9 0 2.46 345.935 17:54 10.06.2019
6574 Clouds 29 1020 9 0 2.46 345.935 17:36 10.06.2019
6575 Clouds 29 1020 9 0 2.46 345.935 17:18 10.06.2019
6576 Clouds 29 1020 9 0 2.46 345.935 16:42 10.06.2019
6577 Clouds 29 1020 9 0 2.46 345.935 16:22 10.06.2019
6578 Clouds 29 1020 9 0 2.46 345.935 15:42 10.06.2019
6579 Clouds 26 1020 12 0 2.61 335.942 15:24 10.06.2019
6580 Clouds 26 1020 12 0 2.61 335.942 14:49 10.06.2019
6581 Clouds 26 1020 12 0 2.61 335.942 14:31 10.06.2019
6582 Clouds 26 1020 12 0 2.61 335.942 13:59 10.06.2019
6583 Clouds 26 1020 12 0 2.61 335.942 13:40 10.06.2019
6584 Clouds 26 1020 12 0 2.61 335.942 13:21 10.06.2019
6585 Clouds 26 1020 11 0 2.39 338.265 12:42 10.06.2019
6586 Clouds 28 1019 9 0 3.05 340.876 12:23 10.06.2019
6587 Clouds 28 1019 9 0 3.05 340.876 11:44 10.06.2019
6588 Clouds 28 1019 9 0 3.05 340.876 11:24 10.06.2019
6589 Clouds 28 1019 9 0 3.05 340.876 10:43 10.06.2019
6590 Clouds 28 1019 9 0 3.05 340.876 10:21 10.06.2019
6591 Clouds 28 1019 9 0 3.05 340.876 09:57 10.06.2019
6592 Clouds 28 1019 9 0 3.05 340.876 09:38 10.06.2019
6593 Clear 29 1019 8 0 3.52 320.451 09:19 10.06.2019
6594 Clear 29 1019 8 0 3.52 320.451 08:45 10.06.2019
6595 Clear 29 1019 8 0 3.52 320.451 08:25 10.06.2019
6596 Clear 29 1019 8 0 3.52 320.451 07:21 10.06.2019
6597 Clear 31 1017 7 0 3.36 335.138 04:30 10.06.2019
6598 Clear 33 1018 6 0 2.97 348.728 01:59 10.06.2019
6599 Clear 33 1018 6 0 2.97 348.728 01:26 10.06.2019
6600 Clear 33 1018 6 0 2.97 348.728 00:58 10.06.2019
6601 Clear 31 1020 7 0 3.11 17.335 00:23 10.06.2019
6602 Clear 31 1020 7 0 3.11 17.335 23:44 09.06.2019
6603 Clear 31 1020 7 0 3.11 17.335 23:20 09.06.2019
6604 Clear 31 1020 7 0 3.11 17.335 22:45 09.06.2019
6605 Clear 31 1020 7 0 3.11 17.335 22:25 09.06.2019
6606 Clear 31 1020 7 0 3.11 17.335 21:46 09.06.2019
6607 Clear 31 1020 7 0 3.11 17.335 21:27 09.06.2019
6608 Clear 28 1022 9 0 3.14 17.068 20:45 09.06.2019
6609 Clear 28 1022 9 0 3.14 17.068 20:24 09.06.2019
6610 Clear 28 1022 9 0 3.14 17.068 19:59 09.06.2019
6611 Clear 28 1022 9 0 3.14 17.068 19:41 09.06.2019
6612 Clear 28 1021 11 0 3.11 14.059 19:18 09.06.2019
6613 Clear 28 1021 11 0 3.11 14.059 18:43 09.06.2019
6614 Clear 26 1022 14 0 3.3 26.844 18:24 09.06.2019
6615 Clear 26 1022 14 0 3.3 26.844 17:50 09.06.2019
6616 Clear 26 1022 14 0 3.3 26.844 17:30 09.06.2019
6617 Clear 26 1022 14 0 3.3 26.844 16:58 09.06.2019
6618 Clear 26 1022 14 0 3.3 26.844 16:39 09.06.2019
6619 Clear 26 1022 14 0 3.3 26.844 16:20 09.06.2019
6620 Clear 26 1022 14 0 3.3 26.844 16:20 09.06.2019
6621 Clear 26 1022 14 0 3.3 26.844 15:49 09.06.2019
6622 Clear 26 1022 14 0 3.3 26.844 15:28 09.06.2019
6623 Clear 24 1021 15 0 3.18 5.11 14:51 09.06.2019
6624 Clear 24 1021 15 0 3.18 5.11 14:51 09.06.2019
6625 Clear 24 1021 15 0 3.18 5.11 14:33 09.06.2019
6626 Clear 24 1021 15 0 3.18 5.11 13:57 09.06.2019
6627 Clear 24 1021 15 0 3.18 5.11 13:38 09.06.2019
6628 Clear 24 1020 13 0 3.4 354.969 12:55 09.06.2019
6629 Clear 24 1020 13 0 3.4 354.969 12:34 09.06.2019
6630 Clear 26 1019 11 0 3.33 353.774 11:51 09.06.2019
6631 Clear 26 1019 11 0 3.33 353.774 11:30 09.06.2019
6632 -273 0 0 0 0 0 10:58 09.06.2019
6633 -273 0 0 0 0 0 10:58 09.06.2019
6634 Clear 27 1019 11 0 3.37 355.009 10:38 09.06.2019
6635 Clear 27 1019 11 0 3.37 355.009 10:19 09.06.2019
6636 Clear 27 1019 11 0 3.37 355.009 10:19 09.06.2019
6637 Clear 27 1019 11 0 3.37 355.009 09:38 09.06.2019
6638 Clear 29 1017 9 0 3.49 336.56 09:19 09.06.2019
6639 Clear 29 1017 9 0 3.49 336.56 09:19 09.06.2019
6640 Clear 28 1017 9 0 3.55 334.288 08:44 09.06.2019
6641 Clear 28 1017 9 0 3.55 334.288 07:52 09.06.2019
6642 Clear 28 1017 9 0 3.55 334.288 06:44 09.06.2019
6643 Clear 30 1015 7 0 3.57 320.484 06:20 09.06.2019
6644 Clear 31 1014 6 0 3.84 331.158 02:59 09.06.2019
6645 Clear 31 1014 6 0 3.84 331.158 01:37 09.06.2019
6646 Clear 31 1014 6 0 3.84 331.158 01:37 09.06.2019
6647 Clear 31 1014 6 0 3.84 331.158 01:37 09.06.2019
6648 Clear 32 1013 6 0 3.74 329.112 01:19 09.06.2019
6649 Clear 32 1013 6 0 3.74 329.112 00:31 09.06.2019
6650 Clear 30 1014 7 0 4.66 346.661 23:41 08.06.2019
6651 Clear 30 1014 7 0 4.66 346.661 23:23 08.06.2019
6652 Clear 30 1014 7 0 4.66 346.661 22:56 08.06.2019
6653 Clear 30 1014 7 0 4.66 346.661 22:37 08.06.2019
6654 Clear 30 1014 7 0 4.66 346.661 22:18 08.06.2019
6655 Clear 30 1014 7 0 4.66 346.661 21:49 08.06.2019
6656 Clear 27 1015 10 0 6.15 355.676 21:24 08.06.2019
6657 Clear 27 1015 10 0 6.15 355.676 20:46 08.06.2019
6658 Clear 27 1015 10 0 6.15 355.676 20:25 08.06.2019
6659 Clear 27 1015 10 0 6.15 355.676 19:58 08.06.2019
6660 Clear 27 1015 10 0 6.15 355.676 19:39 08.06.2019
6661 Clear 28 1015 12 0 5.19 352.413 19:19 08.06.2019
6662 Clear 28 1015 12 0 5.19 352.413 18:43 08.06.2019
6663 Clear 26 1014 17 0 5.83 359.371 18:25 08.06.2019
6664 Clear 26 1014 17 0 5.83 359.371 17:46 08.06.2019
6665 Clear 26 1014 17 0 5.83 359.371 17:23 08.06.2019
6666 Clear 26 1014 17 0 5.83 359.371 16:54 08.06.2019
6667 Clear 26 1014 17 0 5.83 359.371 16:35 08.06.2019
6668 Clear 26 1014 17 0 5.83 359.371 15:54 08.06.2019
6669 Clear 26 1014 17 0 5.83 359.371 15:35 08.06.2019
6670 Clear 25 1012 21 0 5.36 348.487 14:49 08.06.2019
6671 Clear 25 1012 21 0 5.36 348.487 14:31 08.06.2019
6672 Clear 25 1012 21 0 5.36 348.487 13:51 08.06.2019
6673 Clear 25 1013 20 0 5 347.45 12:57 08.06.2019
6674 Clear 25 1013 20 0 5 347.45 12:39 08.06.2019
6675 Clear 27 1011 16 0 5.83 353.426 11:57 08.06.2019
6676 Clear 27 1011 16 0 5.83 353.426 11:38 08.06.2019
6677 Clear 27 1011 16 0 5.83 353.426 11:20 08.06.2019
6678 Clear 27 1011 16 0 5.83 353.426 10:43 08.06.2019
6679 Clear 27 1011 16 0 5.83 353.426 10:22 08.06.2019
6680 Clear 27 1011 16 0 5.83 353.426 09:40 08.06.2019
6681 Clouds 30 1008 14 0 1.16 84.578 08:59 08.06.2019
6682 Clouds 30 1008 14 0 1.16 84.578 08:25 08.06.2019
6683 Clouds 30 1008 14 0 1.16 84.578 07:46 08.06.2019
6684 Clear 30 1008 15 0 1.39 144.63 06:45 08.06.2019
6685 Clear 30 1008 15 0 1.39 144.63 06:45 08.06.2019
6686 Clouds 32 1005 12 0 1.1 196.419 03:41 08.06.2019
6687 Clouds 34 1004 11 0 2.22 184.446 02:21 08.06.2019
6688 Clouds 34 1004 11 0 1.92 177.641 00:45 08.06.2019
6689 Clouds 33 1005 14 0 1.52 194.155 00:24 08.06.2019
6690 Clouds 33 1005 14 0 1.52 194.155 23:39 07.06.2019
6691 Clouds 33 1005 14 0 1.52 194.155 23:19 07.06.2019
6692 Clouds 33 1005 15 0 1.21 203.093 22:35 07.06.2019
6693 Clouds 33 1005 15 0 1.21 203.093 21:58 07.06.2019
6694 Clouds 33 1005 15 0 1.21 203.093 21:40 07.06.2019
6695 Clouds 30 1007 22 0 1.52 171.886 21:21 07.06.2019
6696 Clouds 30 1007 22 0 1.52 171.886 20:54 07.06.2019
6697 Clouds 30 1007 22 0 1.52 171.886 20:35 07.06.2019
6698 Clouds 30 1007 22 0 1.52 171.886 19:46 07.06.2019
6699 Clouds 30 1007 22 0 1.52 171.886 19:20 07.06.2019
6700 Clouds 30 1007 22 0 1.52 171.886 18:50 07.06.2019
6701 Clouds 30 1007 22 0 1.52 171.886 18:28 07.06.2019
6702 Clear 28 1008 30 0 2.49 141.038 17:47 07.06.2019
6703 Clear 28 1008 30 0 2.49 141.038 17:26 07.06.2019
6704 Clear 28 1008 30 0 2.49 141.038 16:52 07.06.2019
6705 Clear 28 1008 30 0 2.49 141.038 16:33 07.06.2019
6706 Clear 28 1008 30 0 2.49 141.038 15:50 07.06.2019
6707 Clear 27 1008 34 0 1.54 165.078 15:21 07.06.2019
6708 Clear 27 1008 34